<?xml version="1.0" encoding="UTF-8" standalone="no" ?>
<gpx xmlns="http://www.topografix.com/GPX/1/1" xmlns:xsi="http://www.w3.org/2001/XMLSchema-instance" xsi:schemaLocation="http://www.topografix.com/GPX/1/1 http://www.topografix.com/GPX/1/1/gpx.xsd" version="1.1" creator="VisuGPX - https://www.visugpx.com">
  <metadata>
    <name>3CH - Lac du Lanoux</name>
    <desc><![CDATA[grp_trc:]]></desc>
  </metadata>
  <trk>
    <name><![CDATA[15 sept. 2021]]></name>
    <cmt><![CDATA[09:32:18]]></cmt>
    <desc><![CDATA[comment ...]]></desc>
    <trkseg>
      <trkpt lat="42.55294" lon="1.86288">
        <ele>1701</ele>
        <time>2021-09-15T07:32:18Z</time>
      </trkpt>
      <trkpt lat="42.55273" lon="1.86311">
        <ele>1701</ele>
        <time>2021-09-15T07:32:19Z</time>
      </trkpt>
      <trkpt lat="42.55279" lon="1.8631">
        <ele>1701</ele>
        <time>2021-09-15T07:32:24Z</time>
      </trkpt>
      <trkpt lat="42.55281" lon="1.86309">
        <ele>1701</ele>
        <time>2021-09-15T07:32:25Z</time>
      </trkpt>
      <trkpt lat="42.55284" lon="1.86308">
        <ele>1701</ele>
        <time>2021-09-15T07:32:27Z</time>
      </trkpt>
      <trkpt lat="42.55285" lon="1.86306">
        <ele>1702</ele>
        <time>2021-09-15T07:32:37Z</time>
      </trkpt>
      <trkpt lat="42.55285" lon="1.86304">
        <ele>1702</ele>
        <time>2021-09-15T07:32:44Z</time>
      </trkpt>
      <trkpt lat="42.55289" lon="1.86305">
        <ele>1702</ele>
        <time>2021-09-15T07:32:53Z</time>
      </trkpt>
      <trkpt lat="42.55289" lon="1.86308">
        <ele>1702</ele>
        <time>2021-09-15T07:32:58Z</time>
      </trkpt>
      <trkpt lat="42.5529" lon="1.86307">
        <ele>1702</ele>
        <time>2021-09-15T07:34:03Z</time>
      </trkpt>
      <trkpt lat="42.55291" lon="1.86313">
        <ele>1705</ele>
        <time>2021-09-15T07:34:51Z</time>
      </trkpt>
      <trkpt lat="42.55293" lon="1.86313">
        <ele>1707</ele>
        <time>2021-09-15T07:34:58Z</time>
      </trkpt>
      <trkpt lat="42.55292" lon="1.86316">
        <ele>1707</ele>
        <time>2021-09-15T07:35:03Z</time>
      </trkpt>
      <trkpt lat="42.55291" lon="1.86318">
        <ele>1709</ele>
        <time>2021-09-15T07:35:06Z</time>
      </trkpt>
      <trkpt lat="42.55292" lon="1.86319">
        <ele>1709</ele>
        <time>2021-09-15T07:35:12Z</time>
      </trkpt>
      <trkpt lat="42.55293" lon="1.86318">
        <ele>1710</ele>
        <time>2021-09-15T07:35:15Z</time>
      </trkpt>
      <trkpt lat="42.55295" lon="1.86317">
        <ele>1712</ele>
        <time>2021-09-15T07:35:19Z</time>
      </trkpt>
      <trkpt lat="42.55297" lon="1.86317">
        <ele>1714</ele>
        <time>2021-09-15T07:35:23Z</time>
      </trkpt>
      <trkpt lat="42.55305" lon="1.86318">
        <ele>1720</ele>
        <time>2021-09-15T07:35:37Z</time>
      </trkpt>
      <trkpt lat="42.55306" lon="1.86318">
        <ele>1721</ele>
        <time>2021-09-15T07:35:40Z</time>
      </trkpt>
      <trkpt lat="42.55317" lon="1.86344">
        <ele>1723</ele>
        <time>2021-09-15T07:36:12Z</time>
      </trkpt>
      <trkpt lat="42.55321" lon="1.86354">
        <ele>1723</ele>
        <time>2021-09-15T07:36:24Z</time>
      </trkpt>
      <trkpt lat="42.55322" lon="1.86363">
        <ele>1723</ele>
        <time>2021-09-15T07:36:31Z</time>
      </trkpt>
      <trkpt lat="42.55323" lon="1.86371">
        <ele>1723</ele>
        <time>2021-09-15T07:36:41Z</time>
      </trkpt>
      <trkpt lat="42.55328" lon="1.86375">
        <ele>1725</ele>
        <time>2021-09-15T07:36:53Z</time>
      </trkpt>
      <trkpt lat="42.5533" lon="1.86375">
        <ele>1725</ele>
        <time>2021-09-15T07:36:58Z</time>
      </trkpt>
      <trkpt lat="42.55336" lon="1.86373">
        <ele>1726</ele>
        <time>2021-09-15T07:37:06Z</time>
      </trkpt>
      <trkpt lat="42.55338" lon="1.86375">
        <ele>1727</ele>
        <time>2021-09-15T07:37:10Z</time>
      </trkpt>
      <trkpt lat="42.55341" lon="1.86374">
        <ele>1727</ele>
        <time>2021-09-15T07:37:13Z</time>
      </trkpt>
      <trkpt lat="42.55343" lon="1.86375">
        <ele>1727</ele>
        <time>2021-09-15T07:37:17Z</time>
      </trkpt>
      <trkpt lat="42.55345" lon="1.86377">
        <ele>1727</ele>
        <time>2021-09-15T07:37:20Z</time>
      </trkpt>
      <trkpt lat="42.55347" lon="1.86379">
        <ele>1728</ele>
        <time>2021-09-15T07:37:25Z</time>
      </trkpt>
      <trkpt lat="42.5535" lon="1.86381">
        <ele>1728</ele>
        <time>2021-09-15T07:37:30Z</time>
      </trkpt>
      <trkpt lat="42.55353" lon="1.86385">
        <ele>1729</ele>
        <time>2021-09-15T07:37:36Z</time>
      </trkpt>
      <trkpt lat="42.55353" lon="1.86388">
        <ele>1729</ele>
        <time>2021-09-15T07:37:40Z</time>
      </trkpt>
      <trkpt lat="42.55368" lon="1.86396">
        <ele>1731</ele>
        <time>2021-09-15T07:38:11Z</time>
      </trkpt>
      <trkpt lat="42.55372" lon="1.86401">
        <ele>1732</ele>
        <time>2021-09-15T07:38:22Z</time>
      </trkpt>
      <trkpt lat="42.55373" lon="1.86402">
        <ele>1732</ele>
        <time>2021-09-15T07:38:25Z</time>
      </trkpt>
      <trkpt lat="42.55375" lon="1.86402">
        <ele>1733</ele>
        <time>2021-09-15T07:38:32Z</time>
      </trkpt>
      <trkpt lat="42.55377" lon="1.86402">
        <ele>1733</ele>
        <time>2021-09-15T07:38:35Z</time>
      </trkpt>
      <trkpt lat="42.55381" lon="1.86403">
        <ele>1734</ele>
        <time>2021-09-15T07:38:40Z</time>
      </trkpt>
      <trkpt lat="42.55383" lon="1.86404">
        <ele>1735</ele>
        <time>2021-09-15T07:38:43Z</time>
      </trkpt>
      <trkpt lat="42.55384" lon="1.86404">
        <ele>1736</ele>
        <time>2021-09-15T07:38:47Z</time>
      </trkpt>
      <trkpt lat="42.55387" lon="1.86406">
        <ele>1737</ele>
        <time>2021-09-15T07:38:54Z</time>
      </trkpt>
      <trkpt lat="42.55388" lon="1.86408">
        <ele>1737</ele>
        <time>2021-09-15T07:38:59Z</time>
      </trkpt>
      <trkpt lat="42.55389" lon="1.86408">
        <ele>1739</ele>
        <time>2021-09-15T07:39:10Z</time>
      </trkpt>
      <trkpt lat="42.55395" lon="1.86401">
        <ele>1742</ele>
        <time>2021-09-15T07:39:21Z</time>
      </trkpt>
      <trkpt lat="42.55399" lon="1.86403">
        <ele>1744</ele>
        <time>2021-09-15T07:39:29Z</time>
      </trkpt>
      <trkpt lat="42.554" lon="1.86404">
        <ele>1745</ele>
        <time>2021-09-15T07:39:32Z</time>
      </trkpt>
      <trkpt lat="42.55401" lon="1.86406">
        <ele>1745</ele>
        <time>2021-09-15T07:39:36Z</time>
      </trkpt>
      <trkpt lat="42.55407" lon="1.86404">
        <ele>1748</ele>
        <time>2021-09-15T07:39:46Z</time>
      </trkpt>
      <trkpt lat="42.55409" lon="1.86405">
        <ele>1748</ele>
        <time>2021-09-15T07:39:50Z</time>
      </trkpt>
      <trkpt lat="42.55411" lon="1.86402">
        <ele>1749</ele>
        <time>2021-09-15T07:39:57Z</time>
      </trkpt>
      <trkpt lat="42.55413" lon="1.86404">
        <ele>1751</ele>
        <time>2021-09-15T07:40:01Z</time>
      </trkpt>
      <trkpt lat="42.55414" lon="1.86405">
        <ele>1752</ele>
        <time>2021-09-15T07:40:06Z</time>
      </trkpt>
      <trkpt lat="42.55416" lon="1.86405">
        <ele>1752</ele>
        <time>2021-09-15T07:40:09Z</time>
      </trkpt>
      <trkpt lat="42.55419" lon="1.86402">
        <ele>1753</ele>
        <time>2021-09-15T07:40:15Z</time>
      </trkpt>
      <trkpt lat="42.5542" lon="1.864">
        <ele>1754</ele>
        <time>2021-09-15T07:40:19Z</time>
      </trkpt>
      <trkpt lat="42.55422" lon="1.86397">
        <ele>1754</ele>
        <time>2021-09-15T07:40:24Z</time>
      </trkpt>
      <trkpt lat="42.55426" lon="1.86393">
        <ele>1756</ele>
        <time>2021-09-15T07:40:33Z</time>
      </trkpt>
      <trkpt lat="42.5543" lon="1.86392">
        <ele>1757</ele>
        <time>2021-09-15T07:40:40Z</time>
      </trkpt>
      <trkpt lat="42.55439" lon="1.86388">
        <ele>1760</ele>
        <time>2021-09-15T07:40:55Z</time>
      </trkpt>
      <trkpt lat="42.5544" lon="1.86387">
        <ele>1761</ele>
        <time>2021-09-15T07:40:58Z</time>
      </trkpt>
      <trkpt lat="42.55442" lon="1.86386">
        <ele>1761</ele>
        <time>2021-09-15T07:41:01Z</time>
      </trkpt>
      <trkpt lat="42.55444" lon="1.86386">
        <ele>1762</ele>
        <time>2021-09-15T07:41:04Z</time>
      </trkpt>
      <trkpt lat="42.55446" lon="1.86385">
        <ele>1762</ele>
        <time>2021-09-15T07:41:08Z</time>
      </trkpt>
      <trkpt lat="42.55447" lon="1.86384">
        <ele>1764</ele>
        <time>2021-09-15T07:41:14Z</time>
      </trkpt>
      <trkpt lat="42.55448" lon="1.86382">
        <ele>1764</ele>
        <time>2021-09-15T07:41:18Z</time>
      </trkpt>
      <trkpt lat="42.55452" lon="1.86379">
        <ele>1765</ele>
        <time>2021-09-15T07:41:26Z</time>
      </trkpt>
      <trkpt lat="42.55454" lon="1.86379">
        <ele>1766</ele>
        <time>2021-09-15T07:41:32Z</time>
      </trkpt>
      <trkpt lat="42.55458" lon="1.86375">
        <ele>1767</ele>
        <time>2021-09-15T07:41:42Z</time>
      </trkpt>
      <trkpt lat="42.55459" lon="1.86376">
        <ele>1768</ele>
        <time>2021-09-15T07:41:47Z</time>
      </trkpt>
      <trkpt lat="42.55459" lon="1.86378">
        <ele>1769</ele>
        <time>2021-09-15T07:41:53Z</time>
      </trkpt>
      <trkpt lat="42.55464" lon="1.86381">
        <ele>1771</ele>
        <time>2021-09-15T07:42:09Z</time>
      </trkpt>
      <trkpt lat="42.55467" lon="1.86384">
        <ele>1771</ele>
        <time>2021-09-15T07:42:17Z</time>
      </trkpt>
      <trkpt lat="42.55472" lon="1.86387">
        <ele>1771</ele>
        <time>2021-09-15T07:42:26Z</time>
      </trkpt>
      <trkpt lat="42.55473" lon="1.86389">
        <ele>1772</ele>
        <time>2021-09-15T07:42:29Z</time>
      </trkpt>
      <trkpt lat="42.55475" lon="1.86391">
        <ele>1773</ele>
        <time>2021-09-15T07:42:36Z</time>
      </trkpt>
      <trkpt lat="42.55476" lon="1.86391">
        <ele>1774</ele>
        <time>2021-09-15T07:42:41Z</time>
      </trkpt>
      <trkpt lat="42.55478" lon="1.86389">
        <ele>1774</ele>
        <time>2021-09-15T07:42:46Z</time>
      </trkpt>
      <trkpt lat="42.5548" lon="1.86389">
        <ele>1775</ele>
        <time>2021-09-15T07:42:50Z</time>
      </trkpt>
      <trkpt lat="42.55481" lon="1.86387">
        <ele>1776</ele>
        <time>2021-09-15T07:42:59Z</time>
      </trkpt>
      <trkpt lat="42.55483" lon="1.86388">
        <ele>1776</ele>
        <time>2021-09-15T07:43:00Z</time>
      </trkpt>
      <trkpt lat="42.55483" lon="1.8639">
        <ele>1777</ele>
        <time>2021-09-15T07:43:02Z</time>
      </trkpt>
      <trkpt lat="42.55484" lon="1.86393">
        <ele>1777</ele>
        <time>2021-09-15T07:43:06Z</time>
      </trkpt>
      <trkpt lat="42.55486" lon="1.86396">
        <ele>1778</ele>
        <time>2021-09-15T07:43:14Z</time>
      </trkpt>
      <trkpt lat="42.55488" lon="1.86398">
        <ele>1779</ele>
        <time>2021-09-15T07:43:17Z</time>
      </trkpt>
      <trkpt lat="42.55491" lon="1.86401">
        <ele>1780</ele>
        <time>2021-09-15T07:43:24Z</time>
      </trkpt>
      <trkpt lat="42.55495" lon="1.86399">
        <ele>1780</ele>
        <time>2021-09-15T07:43:30Z</time>
      </trkpt>
      <trkpt lat="42.55497" lon="1.86398">
        <ele>1781</ele>
        <time>2021-09-15T07:43:34Z</time>
      </trkpt>
      <trkpt lat="42.55502" lon="1.864">
        <ele>1783</ele>
        <time>2021-09-15T07:43:47Z</time>
      </trkpt>
      <trkpt lat="42.55504" lon="1.86401">
        <ele>1783</ele>
        <time>2021-09-15T07:43:50Z</time>
      </trkpt>
      <trkpt lat="42.55505" lon="1.86399">
        <ele>1784</ele>
        <time>2021-09-15T07:43:57Z</time>
      </trkpt>
      <trkpt lat="42.55507" lon="1.86396">
        <ele>1785</ele>
        <time>2021-09-15T07:44:00Z</time>
      </trkpt>
      <trkpt lat="42.55508" lon="1.86396">
        <ele>1785</ele>
        <time>2021-09-15T07:44:03Z</time>
      </trkpt>
      <trkpt lat="42.55511" lon="1.86395">
        <ele>1786</ele>
        <time>2021-09-15T07:44:08Z</time>
      </trkpt>
      <trkpt lat="42.55513" lon="1.86395">
        <ele>1787</ele>
        <time>2021-09-15T07:44:12Z</time>
      </trkpt>
      <trkpt lat="42.55514" lon="1.864">
        <ele>1789</ele>
        <time>2021-09-15T07:44:20Z</time>
      </trkpt>
      <trkpt lat="42.55515" lon="1.86402">
        <ele>1790</ele>
        <time>2021-09-15T07:44:24Z</time>
      </trkpt>
      <trkpt lat="42.55517" lon="1.86402">
        <ele>1791</ele>
        <time>2021-09-15T07:44:31Z</time>
      </trkpt>
      <trkpt lat="42.55518" lon="1.86401">
        <ele>1791</ele>
        <time>2021-09-15T07:44:34Z</time>
      </trkpt>
      <trkpt lat="42.55524" lon="1.86404">
        <ele>1792</ele>
        <time>2021-09-15T07:44:42Z</time>
      </trkpt>
      <trkpt lat="42.55526" lon="1.86403">
        <ele>1793</ele>
        <time>2021-09-15T07:44:55Z</time>
      </trkpt>
      <trkpt lat="42.55527" lon="1.86401">
        <ele>1794</ele>
        <time>2021-09-15T07:44:58Z</time>
      </trkpt>
      <trkpt lat="42.55528" lon="1.86399">
        <ele>1795</ele>
        <time>2021-09-15T07:45:02Z</time>
      </trkpt>
      <trkpt lat="42.55529" lon="1.86401">
        <ele>1795</ele>
        <time>2021-09-15T07:45:09Z</time>
      </trkpt>
      <trkpt lat="42.55532" lon="1.86401">
        <ele>1797</ele>
        <time>2021-09-15T07:45:17Z</time>
      </trkpt>
      <trkpt lat="42.55533" lon="1.86399">
        <ele>1797</ele>
        <time>2021-09-15T07:45:19Z</time>
      </trkpt>
      <trkpt lat="42.55535" lon="1.86398">
        <ele>1798</ele>
        <time>2021-09-15T07:45:23Z</time>
      </trkpt>
      <trkpt lat="42.55537" lon="1.864">
        <ele>1799</ele>
        <time>2021-09-15T07:45:30Z</time>
      </trkpt>
      <trkpt lat="42.55539" lon="1.86399">
        <ele>1799</ele>
        <time>2021-09-15T07:45:37Z</time>
      </trkpt>
      <trkpt lat="42.55543" lon="1.86399">
        <ele>1801</ele>
        <time>2021-09-15T07:45:45Z</time>
      </trkpt>
      <trkpt lat="42.55545" lon="1.86399">
        <ele>1801</ele>
        <time>2021-09-15T07:45:49Z</time>
      </trkpt>
      <trkpt lat="42.55548" lon="1.86401">
        <ele>1802</ele>
        <time>2021-09-15T07:46:01Z</time>
      </trkpt>
      <trkpt lat="42.5555" lon="1.86402">
        <ele>1803</ele>
        <time>2021-09-15T07:46:08Z</time>
      </trkpt>
      <trkpt lat="42.55552" lon="1.86402">
        <ele>1803</ele>
        <time>2021-09-15T07:46:12Z</time>
      </trkpt>
      <trkpt lat="42.55555" lon="1.86401">
        <ele>1804</ele>
        <time>2021-09-15T07:46:20Z</time>
      </trkpt>
      <trkpt lat="42.55556" lon="1.86401">
        <ele>1804</ele>
        <time>2021-09-15T07:46:23Z</time>
      </trkpt>
      <trkpt lat="42.5556" lon="1.86399">
        <ele>1804</ele>
        <time>2021-09-15T07:46:32Z</time>
      </trkpt>
      <trkpt lat="42.55561" lon="1.86397">
        <ele>1804</ele>
        <time>2021-09-15T07:46:35Z</time>
      </trkpt>
      <trkpt lat="42.55563" lon="1.86395">
        <ele>1804</ele>
        <time>2021-09-15T07:46:39Z</time>
      </trkpt>
      <trkpt lat="42.55565" lon="1.86396">
        <ele>1804</ele>
        <time>2021-09-15T07:46:44Z</time>
      </trkpt>
      <trkpt lat="42.55567" lon="1.86396">
        <ele>1804</ele>
        <time>2021-09-15T07:46:48Z</time>
      </trkpt>
      <trkpt lat="42.55571" lon="1.864">
        <ele>1806</ele>
        <time>2021-09-15T07:47:03Z</time>
      </trkpt>
      <trkpt lat="42.55572" lon="1.86401">
        <ele>1806</ele>
        <time>2021-09-15T07:47:08Z</time>
      </trkpt>
      <trkpt lat="42.55574" lon="1.864">
        <ele>1807</ele>
        <time>2021-09-15T07:47:13Z</time>
      </trkpt>
      <trkpt lat="42.55574" lon="1.86402">
        <ele>1808</ele>
        <time>2021-09-15T07:47:17Z</time>
      </trkpt>
      <trkpt lat="42.55573" lon="1.86406">
        <ele>1811</ele>
        <time>2021-09-15T07:47:53Z</time>
      </trkpt>
      <trkpt lat="42.55574" lon="1.86405">
        <ele>1815</ele>
        <time>2021-09-15T07:48:08Z</time>
      </trkpt>
      <trkpt lat="42.55576" lon="1.86405">
        <ele>1816</ele>
        <time>2021-09-15T07:48:11Z</time>
      </trkpt>
      <trkpt lat="42.55579" lon="1.86403">
        <ele>1817</ele>
        <time>2021-09-15T07:48:18Z</time>
      </trkpt>
      <trkpt lat="42.55582" lon="1.86399">
        <ele>1818</ele>
        <time>2021-09-15T07:48:25Z</time>
      </trkpt>
      <trkpt lat="42.55588" lon="1.86405">
        <ele>1818</ele>
        <time>2021-09-15T07:52:12Z</time>
      </trkpt>
      <trkpt lat="42.5559" lon="1.86404">
        <ele>1818</ele>
        <time>2021-09-15T07:52:15Z</time>
      </trkpt>
      <trkpt lat="42.55592" lon="1.86405">
        <ele>1817</ele>
        <time>2021-09-15T07:52:19Z</time>
      </trkpt>
      <trkpt lat="42.55594" lon="1.86409">
        <ele>1817</ele>
        <time>2021-09-15T07:52:25Z</time>
      </trkpt>
      <trkpt lat="42.55595" lon="1.86413">
        <ele>1817</ele>
        <time>2021-09-15T07:52:30Z</time>
      </trkpt>
      <trkpt lat="42.55599" lon="1.8642">
        <ele>1818</ele>
        <time>2021-09-15T07:52:38Z</time>
      </trkpt>
      <trkpt lat="42.556" lon="1.86422">
        <ele>1819</ele>
        <time>2021-09-15T07:52:41Z</time>
      </trkpt>
      <trkpt lat="42.55599" lon="1.86423">
        <ele>1819</ele>
        <time>2021-09-15T07:52:44Z</time>
      </trkpt>
      <trkpt lat="42.55597" lon="1.86427">
        <ele>1819</ele>
        <time>2021-09-15T07:52:48Z</time>
      </trkpt>
      <trkpt lat="42.55596" lon="1.8643">
        <ele>1820</ele>
        <time>2021-09-15T07:52:50Z</time>
      </trkpt>
      <trkpt lat="42.55595" lon="1.86436">
        <ele>1821</ele>
        <time>2021-09-15T07:52:58Z</time>
      </trkpt>
      <trkpt lat="42.55596" lon="1.86437">
        <ele>1821</ele>
        <time>2021-09-15T07:53:05Z</time>
      </trkpt>
      <trkpt lat="42.55595" lon="1.86439">
        <ele>1821</ele>
        <time>2021-09-15T07:53:08Z</time>
      </trkpt>
      <trkpt lat="42.55594" lon="1.86442">
        <ele>1821</ele>
        <time>2021-09-15T07:53:10Z</time>
      </trkpt>
      <trkpt lat="42.55593" lon="1.86447">
        <ele>1821</ele>
        <time>2021-09-15T07:53:14Z</time>
      </trkpt>
      <trkpt lat="42.55594" lon="1.86452">
        <ele>1821</ele>
        <time>2021-09-15T07:53:18Z</time>
      </trkpt>
      <trkpt lat="42.55595" lon="1.86455">
        <ele>1821</ele>
        <time>2021-09-15T07:53:20Z</time>
      </trkpt>
      <trkpt lat="42.55595" lon="1.86458">
        <ele>1821</ele>
        <time>2021-09-15T07:53:22Z</time>
      </trkpt>
      <trkpt lat="42.55595" lon="1.8646">
        <ele>1821</ele>
        <time>2021-09-15T07:53:24Z</time>
      </trkpt>
      <trkpt lat="42.55595" lon="1.86463">
        <ele>1821</ele>
        <time>2021-09-15T07:53:26Z</time>
      </trkpt>
      <trkpt lat="42.55597" lon="1.86463">
        <ele>1822</ele>
        <time>2021-09-15T07:53:29Z</time>
      </trkpt>
      <trkpt lat="42.55601" lon="1.86469">
        <ele>1822</ele>
        <time>2021-09-15T07:53:36Z</time>
      </trkpt>
      <trkpt lat="42.55602" lon="1.86474">
        <ele>1823</ele>
        <time>2021-09-15T07:53:41Z</time>
      </trkpt>
      <trkpt lat="42.55604" lon="1.86481">
        <ele>1824</ele>
        <time>2021-09-15T07:53:48Z</time>
      </trkpt>
      <trkpt lat="42.55603" lon="1.86484">
        <ele>1824</ele>
        <time>2021-09-15T07:53:50Z</time>
      </trkpt>
      <trkpt lat="42.55604" lon="1.86487">
        <ele>1824</ele>
        <time>2021-09-15T07:53:52Z</time>
      </trkpt>
      <trkpt lat="42.55605" lon="1.86489">
        <ele>1825</ele>
        <time>2021-09-15T07:53:54Z</time>
      </trkpt>
      <trkpt lat="42.55607" lon="1.86493">
        <ele>1825</ele>
        <time>2021-09-15T07:54:00Z</time>
      </trkpt>
      <trkpt lat="42.55607" lon="1.865">
        <ele>1825</ele>
        <time>2021-09-15T07:54:07Z</time>
      </trkpt>
      <trkpt lat="42.55613" lon="1.8653">
        <ele>1829</ele>
        <time>2021-09-15T07:54:37Z</time>
      </trkpt>
      <trkpt lat="42.55615" lon="1.86532">
        <ele>1830</ele>
        <time>2021-09-15T07:54:39Z</time>
      </trkpt>
      <trkpt lat="42.55616" lon="1.86536">
        <ele>1830</ele>
        <time>2021-09-15T07:54:43Z</time>
      </trkpt>
      <trkpt lat="42.55616" lon="1.86539">
        <ele>1831</ele>
        <time>2021-09-15T07:54:47Z</time>
      </trkpt>
      <trkpt lat="42.55616" lon="1.86549">
        <ele>1832</ele>
        <time>2021-09-15T07:54:55Z</time>
      </trkpt>
      <trkpt lat="42.55617" lon="1.86554">
        <ele>1832</ele>
        <time>2021-09-15T07:54:59Z</time>
      </trkpt>
      <trkpt lat="42.55618" lon="1.86556">
        <ele>1832</ele>
        <time>2021-09-15T07:55:01Z</time>
      </trkpt>
      <trkpt lat="42.55618" lon="1.86563">
        <ele>1834</ele>
        <time>2021-09-15T07:55:07Z</time>
      </trkpt>
      <trkpt lat="42.5562" lon="1.86568">
        <ele>1835</ele>
        <time>2021-09-15T07:55:12Z</time>
      </trkpt>
      <trkpt lat="42.5562" lon="1.8657">
        <ele>1835</ele>
        <time>2021-09-15T07:55:14Z</time>
      </trkpt>
      <trkpt lat="42.55621" lon="1.86571">
        <ele>1835</ele>
        <time>2021-09-15T07:55:16Z</time>
      </trkpt>
      <trkpt lat="42.55622" lon="1.86579">
        <ele>1836</ele>
        <time>2021-09-15T07:55:25Z</time>
      </trkpt>
      <trkpt lat="42.55634" lon="1.86605">
        <ele>1838</ele>
        <time>2021-09-15T07:55:53Z</time>
      </trkpt>
      <trkpt lat="42.55635" lon="1.86607">
        <ele>1838</ele>
        <time>2021-09-15T07:55:55Z</time>
      </trkpt>
      <trkpt lat="42.55632" lon="1.86624">
        <ele>1840</ele>
        <time>2021-09-15T07:56:12Z</time>
      </trkpt>
      <trkpt lat="42.55632" lon="1.86626">
        <ele>1840</ele>
        <time>2021-09-15T07:56:14Z</time>
      </trkpt>
      <trkpt lat="42.55634" lon="1.86631">
        <ele>1840</ele>
        <time>2021-09-15T07:56:19Z</time>
      </trkpt>
      <trkpt lat="42.55634" lon="1.86633">
        <ele>1840</ele>
        <time>2021-09-15T07:56:22Z</time>
      </trkpt>
      <trkpt lat="42.55634" lon="1.86636">
        <ele>1840</ele>
        <time>2021-09-15T07:56:24Z</time>
      </trkpt>
      <trkpt lat="42.5564" lon="1.86644">
        <ele>1841</ele>
        <time>2021-09-15T07:56:33Z</time>
      </trkpt>
      <trkpt lat="42.55646" lon="1.8665">
        <ele>1843</ele>
        <time>2021-09-15T07:56:41Z</time>
      </trkpt>
      <trkpt lat="42.55647" lon="1.86652">
        <ele>1843</ele>
        <time>2021-09-15T07:56:44Z</time>
      </trkpt>
      <trkpt lat="42.55648" lon="1.86657">
        <ele>1844</ele>
        <time>2021-09-15T07:56:49Z</time>
      </trkpt>
      <trkpt lat="42.55647" lon="1.86664">
        <ele>1844</ele>
        <time>2021-09-15T07:56:58Z</time>
      </trkpt>
      <trkpt lat="42.55646" lon="1.86668">
        <ele>1844</ele>
        <time>2021-09-15T07:57:03Z</time>
      </trkpt>
      <trkpt lat="42.55646" lon="1.86674">
        <ele>1845</ele>
        <time>2021-09-15T07:57:07Z</time>
      </trkpt>
      <trkpt lat="42.55646" lon="1.86676">
        <ele>1845</ele>
        <time>2021-09-15T07:57:09Z</time>
      </trkpt>
      <trkpt lat="42.55647" lon="1.86678">
        <ele>1845</ele>
        <time>2021-09-15T07:57:11Z</time>
      </trkpt>
      <trkpt lat="42.55649" lon="1.86683">
        <ele>1845</ele>
        <time>2021-09-15T07:57:15Z</time>
      </trkpt>
      <trkpt lat="42.5565" lon="1.8669">
        <ele>1846</ele>
        <time>2021-09-15T07:57:22Z</time>
      </trkpt>
      <trkpt lat="42.55651" lon="1.86692">
        <ele>1846</ele>
        <time>2021-09-15T07:57:24Z</time>
      </trkpt>
      <trkpt lat="42.55654" lon="1.86701">
        <ele>1847</ele>
        <time>2021-09-15T07:57:33Z</time>
      </trkpt>
      <trkpt lat="42.55657" lon="1.86707">
        <ele>1848</ele>
        <time>2021-09-15T07:57:40Z</time>
      </trkpt>
      <trkpt lat="42.55657" lon="1.8671">
        <ele>1848</ele>
        <time>2021-09-15T07:57:42Z</time>
      </trkpt>
      <trkpt lat="42.55658" lon="1.86711">
        <ele>1849</ele>
        <time>2021-09-15T07:57:44Z</time>
      </trkpt>
      <trkpt lat="42.5566" lon="1.86713">
        <ele>1849</ele>
        <time>2021-09-15T07:57:46Z</time>
      </trkpt>
      <trkpt lat="42.5566" lon="1.86716">
        <ele>1849</ele>
        <time>2021-09-15T07:57:49Z</time>
      </trkpt>
      <trkpt lat="42.55661" lon="1.86718">
        <ele>1850</ele>
        <time>2021-09-15T07:57:51Z</time>
      </trkpt>
      <trkpt lat="42.55664" lon="1.86723">
        <ele>1850</ele>
        <time>2021-09-15T07:57:55Z</time>
      </trkpt>
      <trkpt lat="42.55665" lon="1.86724">
        <ele>1851</ele>
        <time>2021-09-15T07:57:57Z</time>
      </trkpt>
      <trkpt lat="42.55672" lon="1.86734">
        <ele>1852</ele>
        <time>2021-09-15T07:58:09Z</time>
      </trkpt>
      <trkpt lat="42.55673" lon="1.86737">
        <ele>1852</ele>
        <time>2021-09-15T07:58:13Z</time>
      </trkpt>
      <trkpt lat="42.55673" lon="1.86743">
        <ele>1852</ele>
        <time>2021-09-15T07:58:17Z</time>
      </trkpt>
      <trkpt lat="42.55672" lon="1.86746">
        <ele>1852</ele>
        <time>2021-09-15T07:58:20Z</time>
      </trkpt>
      <trkpt lat="42.55671" lon="1.86747">
        <ele>1852</ele>
        <time>2021-09-15T07:58:22Z</time>
      </trkpt>
      <trkpt lat="42.55668" lon="1.86754">
        <ele>1853</ele>
        <time>2021-09-15T07:58:28Z</time>
      </trkpt>
      <trkpt lat="42.55668" lon="1.86756">
        <ele>1853</ele>
        <time>2021-09-15T07:58:30Z</time>
      </trkpt>
      <trkpt lat="42.55667" lon="1.86773">
        <ele>1853</ele>
        <time>2021-09-15T07:58:47Z</time>
      </trkpt>
      <trkpt lat="42.55666" lon="1.86776">
        <ele>1854</ele>
        <time>2021-09-15T07:58:49Z</time>
      </trkpt>
      <trkpt lat="42.55666" lon="1.86778">
        <ele>1854</ele>
        <time>2021-09-15T07:58:51Z</time>
      </trkpt>
      <trkpt lat="42.55664" lon="1.86783">
        <ele>1855</ele>
        <time>2021-09-15T07:58:55Z</time>
      </trkpt>
      <trkpt lat="42.55664" lon="1.86789">
        <ele>1855</ele>
        <time>2021-09-15T07:58:59Z</time>
      </trkpt>
      <trkpt lat="42.55664" lon="1.86792">
        <ele>1855</ele>
        <time>2021-09-15T07:59:01Z</time>
      </trkpt>
      <trkpt lat="42.55665" lon="1.86794">
        <ele>1856</ele>
        <time>2021-09-15T07:59:04Z</time>
      </trkpt>
      <trkpt lat="42.55664" lon="1.86801">
        <ele>1857</ele>
        <time>2021-09-15T07:59:09Z</time>
      </trkpt>
      <trkpt lat="42.55664" lon="1.86806">
        <ele>1857</ele>
        <time>2021-09-15T07:59:13Z</time>
      </trkpt>
      <trkpt lat="42.55664" lon="1.86808">
        <ele>1858</ele>
        <time>2021-09-15T07:59:16Z</time>
      </trkpt>
      <trkpt lat="42.55663" lon="1.86815">
        <ele>1859</ele>
        <time>2021-09-15T07:59:22Z</time>
      </trkpt>
      <trkpt lat="42.55663" lon="1.86818">
        <ele>1859</ele>
        <time>2021-09-15T07:59:24Z</time>
      </trkpt>
      <trkpt lat="42.55663" lon="1.86841">
        <ele>1861</ele>
        <time>2021-09-15T07:59:45Z</time>
      </trkpt>
      <trkpt lat="42.55664" lon="1.86846">
        <ele>1861</ele>
        <time>2021-09-15T07:59:49Z</time>
      </trkpt>
      <trkpt lat="42.55665" lon="1.86854">
        <ele>1861</ele>
        <time>2021-09-15T07:59:55Z</time>
      </trkpt>
      <trkpt lat="42.55665" lon="1.86856">
        <ele>1861</ele>
        <time>2021-09-15T07:59:57Z</time>
      </trkpt>
      <trkpt lat="42.55665" lon="1.86863">
        <ele>1861</ele>
        <time>2021-09-15T08:00:01Z</time>
      </trkpt>
      <trkpt lat="42.55668" lon="1.86869">
        <ele>1861</ele>
        <time>2021-09-15T08:00:11Z</time>
      </trkpt>
      <trkpt lat="42.55667" lon="1.86871">
        <ele>1861</ele>
        <time>2021-09-15T08:00:14Z</time>
      </trkpt>
      <trkpt lat="42.55668" lon="1.86879">
        <ele>1862</ele>
        <time>2021-09-15T08:00:21Z</time>
      </trkpt>
      <trkpt lat="42.55667" lon="1.86886">
        <ele>1862</ele>
        <time>2021-09-15T08:00:27Z</time>
      </trkpt>
      <trkpt lat="42.55667" lon="1.8689">
        <ele>1862</ele>
        <time>2021-09-15T08:00:31Z</time>
      </trkpt>
      <trkpt lat="42.55666" lon="1.86896">
        <ele>1863</ele>
        <time>2021-09-15T08:00:35Z</time>
      </trkpt>
      <trkpt lat="42.55668" lon="1.86906">
        <ele>1864</ele>
        <time>2021-09-15T08:00:44Z</time>
      </trkpt>
      <trkpt lat="42.55667" lon="1.86923">
        <ele>1866</ele>
        <time>2021-09-15T08:00:59Z</time>
      </trkpt>
      <trkpt lat="42.55666" lon="1.86925">
        <ele>1867</ele>
        <time>2021-09-15T08:01:01Z</time>
      </trkpt>
      <trkpt lat="42.55664" lon="1.86928">
        <ele>1867</ele>
        <time>2021-09-15T08:01:03Z</time>
      </trkpt>
      <trkpt lat="42.55662" lon="1.86929">
        <ele>1867</ele>
        <time>2021-09-15T08:01:05Z</time>
      </trkpt>
      <trkpt lat="42.55661" lon="1.8693">
        <ele>1868</ele>
        <time>2021-09-15T08:01:07Z</time>
      </trkpt>
      <trkpt lat="42.5566" lon="1.86933">
        <ele>1868</ele>
        <time>2021-09-15T08:01:09Z</time>
      </trkpt>
      <trkpt lat="42.5566" lon="1.86939">
        <ele>1869</ele>
        <time>2021-09-15T08:01:17Z</time>
      </trkpt>
      <trkpt lat="42.55662" lon="1.86944">
        <ele>1869</ele>
        <time>2021-09-15T08:01:23Z</time>
      </trkpt>
      <trkpt lat="42.55663" lon="1.86951">
        <ele>1870</ele>
        <time>2021-09-15T08:01:32Z</time>
      </trkpt>
      <trkpt lat="42.55665" lon="1.86957">
        <ele>1871</ele>
        <time>2021-09-15T08:01:41Z</time>
      </trkpt>
      <trkpt lat="42.55665" lon="1.86961">
        <ele>1872</ele>
        <time>2021-09-15T08:01:47Z</time>
      </trkpt>
      <trkpt lat="42.55664" lon="1.86963">
        <ele>1873</ele>
        <time>2021-09-15T08:01:49Z</time>
      </trkpt>
      <trkpt lat="42.55664" lon="1.86966">
        <ele>1873</ele>
        <time>2021-09-15T08:01:52Z</time>
      </trkpt>
      <trkpt lat="42.55664" lon="1.86968">
        <ele>1873</ele>
        <time>2021-09-15T08:01:55Z</time>
      </trkpt>
      <trkpt lat="42.55665" lon="1.86969">
        <ele>1874</ele>
        <time>2021-09-15T08:01:58Z</time>
      </trkpt>
      <trkpt lat="42.55666" lon="1.86971">
        <ele>1875</ele>
        <time>2021-09-15T08:02:02Z</time>
      </trkpt>
      <trkpt lat="42.55668" lon="1.86977">
        <ele>1877</ele>
        <time>2021-09-15T08:02:11Z</time>
      </trkpt>
      <trkpt lat="42.55669" lon="1.86985">
        <ele>1880</ele>
        <time>2021-09-15T08:02:23Z</time>
      </trkpt>
      <trkpt lat="42.55669" lon="1.86991">
        <ele>1881</ele>
        <time>2021-09-15T08:02:29Z</time>
      </trkpt>
      <trkpt lat="42.5567" lon="1.86997">
        <ele>1882</ele>
        <time>2021-09-15T08:02:36Z</time>
      </trkpt>
      <trkpt lat="42.55673" lon="1.87001">
        <ele>1883</ele>
        <time>2021-09-15T08:02:42Z</time>
      </trkpt>
      <trkpt lat="42.55673" lon="1.87003">
        <ele>1883</ele>
        <time>2021-09-15T08:02:45Z</time>
      </trkpt>
      <trkpt lat="42.55672" lon="1.87008">
        <ele>1885</ele>
        <time>2021-09-15T08:02:51Z</time>
      </trkpt>
      <trkpt lat="42.55673" lon="1.87012">
        <ele>1886</ele>
        <time>2021-09-15T08:02:57Z</time>
      </trkpt>
      <trkpt lat="42.55673" lon="1.87014">
        <ele>1886</ele>
        <time>2021-09-15T08:03:00Z</time>
      </trkpt>
      <trkpt lat="42.55673" lon="1.87016">
        <ele>1886</ele>
        <time>2021-09-15T08:03:03Z</time>
      </trkpt>
      <trkpt lat="42.55673" lon="1.87018">
        <ele>1887</ele>
        <time>2021-09-15T08:03:05Z</time>
      </trkpt>
      <trkpt lat="42.55674" lon="1.8702">
        <ele>1887</ele>
        <time>2021-09-15T08:03:07Z</time>
      </trkpt>
      <trkpt lat="42.55675" lon="1.87025">
        <ele>1888</ele>
        <time>2021-09-15T08:03:13Z</time>
      </trkpt>
      <trkpt lat="42.55679" lon="1.8703">
        <ele>1889</ele>
        <time>2021-09-15T08:03:22Z</time>
      </trkpt>
      <trkpt lat="42.55679" lon="1.87032">
        <ele>1890</ele>
        <time>2021-09-15T08:03:25Z</time>
      </trkpt>
      <trkpt lat="42.55679" lon="1.87034">
        <ele>1890</ele>
        <time>2021-09-15T08:03:28Z</time>
      </trkpt>
      <trkpt lat="42.55681" lon="1.87041">
        <ele>1891</ele>
        <time>2021-09-15T08:03:38Z</time>
      </trkpt>
      <trkpt lat="42.55681" lon="1.87043">
        <ele>1892</ele>
        <time>2021-09-15T08:03:41Z</time>
      </trkpt>
      <trkpt lat="42.55683" lon="1.87048">
        <ele>1892</ele>
        <time>2021-09-15T08:03:48Z</time>
      </trkpt>
      <trkpt lat="42.55683" lon="1.87051">
        <ele>1892</ele>
        <time>2021-09-15T08:03:51Z</time>
      </trkpt>
      <trkpt lat="42.55681" lon="1.87053">
        <ele>1893</ele>
        <time>2021-09-15T08:03:54Z</time>
      </trkpt>
      <trkpt lat="42.55682" lon="1.87055">
        <ele>1893</ele>
        <time>2021-09-15T08:03:57Z</time>
      </trkpt>
      <trkpt lat="42.55683" lon="1.87056">
        <ele>1893</ele>
        <time>2021-09-15T08:04:01Z</time>
      </trkpt>
      <trkpt lat="42.55683" lon="1.87059">
        <ele>1894</ele>
        <time>2021-09-15T08:04:04Z</time>
      </trkpt>
      <trkpt lat="42.55682" lon="1.87061">
        <ele>1894</ele>
        <time>2021-09-15T08:04:06Z</time>
      </trkpt>
      <trkpt lat="42.55681" lon="1.8707">
        <ele>1895</ele>
        <time>2021-09-15T08:04:16Z</time>
      </trkpt>
      <trkpt lat="42.55681" lon="1.87073">
        <ele>1895</ele>
        <time>2021-09-15T08:04:19Z</time>
      </trkpt>
      <trkpt lat="42.55681" lon="1.87075">
        <ele>1896</ele>
        <time>2021-09-15T08:04:25Z</time>
      </trkpt>
      <trkpt lat="42.55681" lon="1.87087">
        <ele>1898</ele>
        <time>2021-09-15T08:04:39Z</time>
      </trkpt>
      <trkpt lat="42.55682" lon="1.87089">
        <ele>1898</ele>
        <time>2021-09-15T08:04:41Z</time>
      </trkpt>
      <trkpt lat="42.55684" lon="1.8709">
        <ele>1898</ele>
        <time>2021-09-15T08:04:43Z</time>
      </trkpt>
      <trkpt lat="42.55685" lon="1.87092">
        <ele>1898</ele>
        <time>2021-09-15T08:04:46Z</time>
      </trkpt>
      <trkpt lat="42.55685" lon="1.87094">
        <ele>1899</ele>
        <time>2021-09-15T08:04:49Z</time>
      </trkpt>
      <trkpt lat="42.55687" lon="1.87098">
        <ele>1899</ele>
        <time>2021-09-15T08:04:56Z</time>
      </trkpt>
      <trkpt lat="42.55687" lon="1.87101">
        <ele>1900</ele>
        <time>2021-09-15T08:04:59Z</time>
      </trkpt>
      <trkpt lat="42.55686" lon="1.87103">
        <ele>1900</ele>
        <time>2021-09-15T08:05:01Z</time>
      </trkpt>
      <trkpt lat="42.55688" lon="1.87109">
        <ele>1901</ele>
        <time>2021-09-15T08:05:11Z</time>
      </trkpt>
      <trkpt lat="42.55687" lon="1.87126">
        <ele>1904</ele>
        <time>2021-09-15T08:05:32Z</time>
      </trkpt>
      <trkpt lat="42.55686" lon="1.87128">
        <ele>1905</ele>
        <time>2021-09-15T08:05:36Z</time>
      </trkpt>
      <trkpt lat="42.55686" lon="1.8713">
        <ele>1905</ele>
        <time>2021-09-15T08:05:40Z</time>
      </trkpt>
      <trkpt lat="42.55686" lon="1.87132">
        <ele>1906</ele>
        <time>2021-09-15T08:06:03Z</time>
      </trkpt>
      <trkpt lat="42.5569" lon="1.87136">
        <ele>1907</ele>
        <time>2021-09-15T08:07:11Z</time>
      </trkpt>
      <trkpt lat="42.5569" lon="1.87138">
        <ele>1908</ele>
        <time>2021-09-15T08:07:14Z</time>
      </trkpt>
      <trkpt lat="42.55689" lon="1.8714">
        <ele>1908</ele>
        <time>2021-09-15T08:07:18Z</time>
      </trkpt>
      <trkpt lat="42.55691" lon="1.87142">
        <ele>1908</ele>
        <time>2021-09-15T08:07:26Z</time>
      </trkpt>
      <trkpt lat="42.55691" lon="1.87145">
        <ele>1909</ele>
        <time>2021-09-15T08:07:30Z</time>
      </trkpt>
      <trkpt lat="42.5569" lon="1.87147">
        <ele>1909</ele>
        <time>2021-09-15T08:07:33Z</time>
      </trkpt>
      <trkpt lat="42.55692" lon="1.87153">
        <ele>1910</ele>
        <time>2021-09-15T08:07:45Z</time>
      </trkpt>
      <trkpt lat="42.55694" lon="1.87154">
        <ele>1910</ele>
        <time>2021-09-15T08:07:50Z</time>
      </trkpt>
      <trkpt lat="42.55694" lon="1.87158">
        <ele>1911</ele>
        <time>2021-09-15T08:08:05Z</time>
      </trkpt>
      <trkpt lat="42.55693" lon="1.8716">
        <ele>1912</ele>
        <time>2021-09-15T08:08:08Z</time>
      </trkpt>
      <trkpt lat="42.55694" lon="1.87165">
        <ele>1915</ele>
        <time>2021-09-15T08:08:17Z</time>
      </trkpt>
      <trkpt lat="42.55695" lon="1.87167">
        <ele>1915</ele>
        <time>2021-09-15T08:08:30Z</time>
      </trkpt>
      <trkpt lat="42.55696" lon="1.87168">
        <ele>1916</ele>
        <time>2021-09-15T08:08:34Z</time>
      </trkpt>
      <trkpt lat="42.55698" lon="1.87169">
        <ele>1916</ele>
        <time>2021-09-15T08:08:37Z</time>
      </trkpt>
      <trkpt lat="42.55698" lon="1.87171">
        <ele>1916</ele>
        <time>2021-09-15T08:08:39Z</time>
      </trkpt>
      <trkpt lat="42.55697" lon="1.87177">
        <ele>1916</ele>
        <time>2021-09-15T08:08:45Z</time>
      </trkpt>
      <trkpt lat="42.55699" lon="1.87187">
        <ele>1915</ele>
        <time>2021-09-15T08:08:57Z</time>
      </trkpt>
      <trkpt lat="42.557" lon="1.87188">
        <ele>1915</ele>
        <time>2021-09-15T08:09:02Z</time>
      </trkpt>
      <trkpt lat="42.557" lon="1.87191">
        <ele>1915</ele>
        <time>2021-09-15T08:09:05Z</time>
      </trkpt>
      <trkpt lat="42.55701" lon="1.87201">
        <ele>1915</ele>
        <time>2021-09-15T08:09:16Z</time>
      </trkpt>
      <trkpt lat="42.55701" lon="1.87203">
        <ele>1915</ele>
        <time>2021-09-15T08:09:19Z</time>
      </trkpt>
      <trkpt lat="42.55703" lon="1.87211">
        <ele>1916</ele>
        <time>2021-09-15T08:09:28Z</time>
      </trkpt>
      <trkpt lat="42.55705" lon="1.87225">
        <ele>1918</ele>
        <time>2021-09-15T08:09:43Z</time>
      </trkpt>
      <trkpt lat="42.55706" lon="1.87228">
        <ele>1919</ele>
        <time>2021-09-15T08:09:46Z</time>
      </trkpt>
      <trkpt lat="42.55706" lon="1.87239">
        <ele>1921</ele>
        <time>2021-09-15T08:10:00Z</time>
      </trkpt>
      <trkpt lat="42.55708" lon="1.8724">
        <ele>1921</ele>
        <time>2021-09-15T08:10:03Z</time>
      </trkpt>
      <trkpt lat="42.55708" lon="1.87242">
        <ele>1922</ele>
        <time>2021-09-15T08:10:07Z</time>
      </trkpt>
      <trkpt lat="42.55708" lon="1.87245">
        <ele>1922</ele>
        <time>2021-09-15T08:10:09Z</time>
      </trkpt>
      <trkpt lat="42.55704" lon="1.87255">
        <ele>1924</ele>
        <time>2021-09-15T08:10:19Z</time>
      </trkpt>
      <trkpt lat="42.55705" lon="1.87257">
        <ele>1925</ele>
        <time>2021-09-15T08:10:23Z</time>
      </trkpt>
      <trkpt lat="42.55705" lon="1.87259">
        <ele>1925</ele>
        <time>2021-09-15T08:10:26Z</time>
      </trkpt>
      <trkpt lat="42.55706" lon="1.87264">
        <ele>1926</ele>
        <time>2021-09-15T08:10:32Z</time>
      </trkpt>
      <trkpt lat="42.55706" lon="1.87266">
        <ele>1927</ele>
        <time>2021-09-15T08:10:35Z</time>
      </trkpt>
      <trkpt lat="42.55709" lon="1.87284">
        <ele>1930</ele>
        <time>2021-09-15T08:10:57Z</time>
      </trkpt>
      <trkpt lat="42.55709" lon="1.87297">
        <ele>1933</ele>
        <time>2021-09-15T08:11:11Z</time>
      </trkpt>
      <trkpt lat="42.55709" lon="1.873">
        <ele>1933</ele>
        <time>2021-09-15T08:11:13Z</time>
      </trkpt>
      <trkpt lat="42.5571" lon="1.87302">
        <ele>1933</ele>
        <time>2021-09-15T08:11:16Z</time>
      </trkpt>
      <trkpt lat="42.5571" lon="1.87304">
        <ele>1934</ele>
        <time>2021-09-15T08:11:19Z</time>
      </trkpt>
      <trkpt lat="42.55711" lon="1.87307">
        <ele>1934</ele>
        <time>2021-09-15T08:11:23Z</time>
      </trkpt>
      <trkpt lat="42.55712" lon="1.87311">
        <ele>1935</ele>
        <time>2021-09-15T08:11:29Z</time>
      </trkpt>
      <trkpt lat="42.55714" lon="1.8732">
        <ele>1936</ele>
        <time>2021-09-15T08:11:38Z</time>
      </trkpt>
      <trkpt lat="42.55715" lon="1.87322">
        <ele>1936</ele>
        <time>2021-09-15T08:11:40Z</time>
      </trkpt>
      <trkpt lat="42.55715" lon="1.87325">
        <ele>1937</ele>
        <time>2021-09-15T08:11:43Z</time>
      </trkpt>
      <trkpt lat="42.55716" lon="1.87327">
        <ele>1937</ele>
        <time>2021-09-15T08:11:46Z</time>
      </trkpt>
      <trkpt lat="42.55718" lon="1.87345">
        <ele>1939</ele>
        <time>2021-09-15T08:12:08Z</time>
      </trkpt>
      <trkpt lat="42.55722" lon="1.87353">
        <ele>1940</ele>
        <time>2021-09-15T08:12:19Z</time>
      </trkpt>
      <trkpt lat="42.55721" lon="1.87356">
        <ele>1941</ele>
        <time>2021-09-15T08:12:24Z</time>
      </trkpt>
      <trkpt lat="42.5572" lon="1.87359">
        <ele>1941</ele>
        <time>2021-09-15T08:12:27Z</time>
      </trkpt>
      <trkpt lat="42.55717" lon="1.87364">
        <ele>1942</ele>
        <time>2021-09-15T08:12:35Z</time>
      </trkpt>
      <trkpt lat="42.55715" lon="1.87372">
        <ele>1943</ele>
        <time>2021-09-15T08:12:45Z</time>
      </trkpt>
      <trkpt lat="42.55715" lon="1.87374">
        <ele>1944</ele>
        <time>2021-09-15T08:12:48Z</time>
      </trkpt>
      <trkpt lat="42.55714" lon="1.87381">
        <ele>1946</ele>
        <time>2021-09-15T08:12:57Z</time>
      </trkpt>
      <trkpt lat="42.55714" lon="1.87384">
        <ele>1946</ele>
        <time>2021-09-15T08:13:01Z</time>
      </trkpt>
      <trkpt lat="42.55713" lon="1.87386">
        <ele>1946</ele>
        <time>2021-09-15T08:13:04Z</time>
      </trkpt>
      <trkpt lat="42.55714" lon="1.87391">
        <ele>1946</ele>
        <time>2021-09-15T08:13:08Z</time>
      </trkpt>
      <trkpt lat="42.55712" lon="1.87396">
        <ele>1947</ele>
        <time>2021-09-15T08:13:12Z</time>
      </trkpt>
      <trkpt lat="42.55711" lon="1.87398">
        <ele>1947</ele>
        <time>2021-09-15T08:13:14Z</time>
      </trkpt>
      <trkpt lat="42.55708" lon="1.87403">
        <ele>1948</ele>
        <time>2021-09-15T08:13:20Z</time>
      </trkpt>
      <trkpt lat="42.55707" lon="1.87415">
        <ele>1949</ele>
        <time>2021-09-15T08:13:33Z</time>
      </trkpt>
      <trkpt lat="42.55709" lon="1.8742">
        <ele>1949</ele>
        <time>2021-09-15T08:13:38Z</time>
      </trkpt>
      <trkpt lat="42.55711" lon="1.87421">
        <ele>1949</ele>
        <time>2021-09-15T08:13:41Z</time>
      </trkpt>
      <trkpt lat="42.55712" lon="1.87425">
        <ele>1949</ele>
        <time>2021-09-15T08:13:55Z</time>
      </trkpt>
      <trkpt lat="42.55713" lon="1.87427">
        <ele>1949</ele>
        <time>2021-09-15T08:14:04Z</time>
      </trkpt>
      <trkpt lat="42.55713" lon="1.87432">
        <ele>1949</ele>
        <time>2021-09-15T08:14:10Z</time>
      </trkpt>
      <trkpt lat="42.55712" lon="1.87437">
        <ele>1949</ele>
        <time>2021-09-15T08:14:15Z</time>
      </trkpt>
      <trkpt lat="42.55714" lon="1.87448">
        <ele>1950</ele>
        <time>2021-09-15T08:14:28Z</time>
      </trkpt>
      <trkpt lat="42.55716" lon="1.87452">
        <ele>1950</ele>
        <time>2021-09-15T08:14:32Z</time>
      </trkpt>
      <trkpt lat="42.55718" lon="1.87467">
        <ele>1950</ele>
        <time>2021-09-15T08:14:48Z</time>
      </trkpt>
      <trkpt lat="42.55718" lon="1.8747">
        <ele>1950</ele>
        <time>2021-09-15T08:14:50Z</time>
      </trkpt>
      <trkpt lat="42.55719" lon="1.87476">
        <ele>1950</ele>
        <time>2021-09-15T08:14:56Z</time>
      </trkpt>
      <trkpt lat="42.5572" lon="1.87478">
        <ele>1951</ele>
        <time>2021-09-15T08:14:59Z</time>
      </trkpt>
      <trkpt lat="42.5573" lon="1.87496">
        <ele>1952</ele>
        <time>2021-09-15T08:15:23Z</time>
      </trkpt>
      <trkpt lat="42.55731" lon="1.87499">
        <ele>1952</ele>
        <time>2021-09-15T08:15:26Z</time>
      </trkpt>
      <trkpt lat="42.5573" lon="1.87502">
        <ele>1952</ele>
        <time>2021-09-15T08:15:28Z</time>
      </trkpt>
      <trkpt lat="42.55732" lon="1.87508">
        <ele>1953</ele>
        <time>2021-09-15T08:15:34Z</time>
      </trkpt>
      <trkpt lat="42.55733" lon="1.87513">
        <ele>1953</ele>
        <time>2021-09-15T08:15:40Z</time>
      </trkpt>
      <trkpt lat="42.55735" lon="1.87515">
        <ele>1953</ele>
        <time>2021-09-15T08:15:42Z</time>
      </trkpt>
      <trkpt lat="42.55735" lon="1.87519">
        <ele>1953</ele>
        <time>2021-09-15T08:15:49Z</time>
      </trkpt>
      <trkpt lat="42.55735" lon="1.87526">
        <ele>1954</ele>
        <time>2021-09-15T08:15:59Z</time>
      </trkpt>
      <trkpt lat="42.55736" lon="1.87529">
        <ele>1954</ele>
        <time>2021-09-15T08:16:03Z</time>
      </trkpt>
      <trkpt lat="42.55737" lon="1.87538">
        <ele>1955</ele>
        <time>2021-09-15T08:16:14Z</time>
      </trkpt>
      <trkpt lat="42.55739" lon="1.8754">
        <ele>1956</ele>
        <time>2021-09-15T08:16:17Z</time>
      </trkpt>
      <trkpt lat="42.5574" lon="1.87541">
        <ele>1956</ele>
        <time>2021-09-15T08:16:20Z</time>
      </trkpt>
      <trkpt lat="42.55741" lon="1.87543">
        <ele>1957</ele>
        <time>2021-09-15T08:16:23Z</time>
      </trkpt>
      <trkpt lat="42.55741" lon="1.87546">
        <ele>1957</ele>
        <time>2021-09-15T08:16:27Z</time>
      </trkpt>
      <trkpt lat="42.5574" lon="1.87553">
        <ele>1958</ele>
        <time>2021-09-15T08:16:35Z</time>
      </trkpt>
      <trkpt lat="42.55741" lon="1.87558">
        <ele>1959</ele>
        <time>2021-09-15T08:16:41Z</time>
      </trkpt>
      <trkpt lat="42.55737" lon="1.87569">
        <ele>1961</ele>
        <time>2021-09-15T08:16:52Z</time>
      </trkpt>
      <trkpt lat="42.55737" lon="1.87571">
        <ele>1961</ele>
        <time>2021-09-15T08:16:54Z</time>
      </trkpt>
      <trkpt lat="42.5574" lon="1.87576">
        <ele>1962</ele>
        <time>2021-09-15T08:16:58Z</time>
      </trkpt>
      <trkpt lat="42.55742" lon="1.87579">
        <ele>1963</ele>
        <time>2021-09-15T08:17:03Z</time>
      </trkpt>
      <trkpt lat="42.55743" lon="1.87584">
        <ele>1963</ele>
        <time>2021-09-15T08:17:07Z</time>
      </trkpt>
      <trkpt lat="42.55745" lon="1.87589">
        <ele>1964</ele>
        <time>2021-09-15T08:17:12Z</time>
      </trkpt>
      <trkpt lat="42.55746" lon="1.87595">
        <ele>1964</ele>
        <time>2021-09-15T08:17:18Z</time>
      </trkpt>
      <trkpt lat="42.55747" lon="1.87598">
        <ele>1965</ele>
        <time>2021-09-15T08:17:20Z</time>
      </trkpt>
      <trkpt lat="42.55748" lon="1.87602">
        <ele>1965</ele>
        <time>2021-09-15T08:17:26Z</time>
      </trkpt>
      <trkpt lat="42.55748" lon="1.87606">
        <ele>1965</ele>
        <time>2021-09-15T08:17:31Z</time>
      </trkpt>
      <trkpt lat="42.55749" lon="1.8761">
        <ele>1966</ele>
        <time>2021-09-15T08:17:36Z</time>
      </trkpt>
      <trkpt lat="42.5575" lon="1.87612">
        <ele>1966</ele>
        <time>2021-09-15T08:17:38Z</time>
      </trkpt>
      <trkpt lat="42.55752" lon="1.87615">
        <ele>1967</ele>
        <time>2021-09-15T08:17:42Z</time>
      </trkpt>
      <trkpt lat="42.55753" lon="1.87617">
        <ele>1967</ele>
        <time>2021-09-15T08:17:45Z</time>
      </trkpt>
      <trkpt lat="42.55753" lon="1.8762">
        <ele>1967</ele>
        <time>2021-09-15T08:17:49Z</time>
      </trkpt>
      <trkpt lat="42.55754" lon="1.87626">
        <ele>1967</ele>
        <time>2021-09-15T08:17:54Z</time>
      </trkpt>
      <trkpt lat="42.55755" lon="1.87628">
        <ele>1967</ele>
        <time>2021-09-15T08:17:56Z</time>
      </trkpt>
      <trkpt lat="42.55757" lon="1.8764">
        <ele>1969</ele>
        <time>2021-09-15T08:18:10Z</time>
      </trkpt>
      <trkpt lat="42.55759" lon="1.87643">
        <ele>1970</ele>
        <time>2021-09-15T08:18:16Z</time>
      </trkpt>
      <trkpt lat="42.5576" lon="1.87648">
        <ele>1970</ele>
        <time>2021-09-15T08:18:21Z</time>
      </trkpt>
      <trkpt lat="42.55762" lon="1.87649">
        <ele>1970</ele>
        <time>2021-09-15T08:18:24Z</time>
      </trkpt>
      <trkpt lat="42.55765" lon="1.87652">
        <ele>1971</ele>
        <time>2021-09-15T08:18:29Z</time>
      </trkpt>
      <trkpt lat="42.55768" lon="1.87658">
        <ele>1972</ele>
        <time>2021-09-15T08:18:41Z</time>
      </trkpt>
      <trkpt lat="42.5577" lon="1.8766">
        <ele>1972</ele>
        <time>2021-09-15T08:18:44Z</time>
      </trkpt>
      <trkpt lat="42.55772" lon="1.87663">
        <ele>1972</ele>
        <time>2021-09-15T08:18:49Z</time>
      </trkpt>
      <trkpt lat="42.55783" lon="1.87674">
        <ele>1974</ele>
        <time>2021-09-15T08:21:49Z</time>
      </trkpt>
      <trkpt lat="42.55786" lon="1.87675">
        <ele>1975</ele>
        <time>2021-09-15T08:21:56Z</time>
      </trkpt>
      <trkpt lat="42.55788" lon="1.87675">
        <ele>1976</ele>
        <time>2021-09-15T08:21:59Z</time>
      </trkpt>
      <trkpt lat="42.55791" lon="1.87677">
        <ele>1977</ele>
        <time>2021-09-15T08:22:03Z</time>
      </trkpt>
      <trkpt lat="42.55794" lon="1.87678">
        <ele>1977</ele>
        <time>2021-09-15T08:22:06Z</time>
      </trkpt>
      <trkpt lat="42.55795" lon="1.87677">
        <ele>1977</ele>
        <time>2021-09-15T08:22:09Z</time>
      </trkpt>
      <trkpt lat="42.55803" lon="1.8768">
        <ele>1979</ele>
        <time>2021-09-15T08:22:19Z</time>
      </trkpt>
      <trkpt lat="42.55805" lon="1.87681">
        <ele>1979</ele>
        <time>2021-09-15T08:22:26Z</time>
      </trkpt>
      <trkpt lat="42.55807" lon="1.87681">
        <ele>1979</ele>
        <time>2021-09-15T08:22:32Z</time>
      </trkpt>
      <trkpt lat="42.55812" lon="1.87681">
        <ele>1979</ele>
        <time>2021-09-15T08:22:42Z</time>
      </trkpt>
      <trkpt lat="42.55813" lon="1.87683">
        <ele>1979</ele>
        <time>2021-09-15T08:22:56Z</time>
      </trkpt>
      <trkpt lat="42.55816" lon="1.87683">
        <ele>1979</ele>
        <time>2021-09-15T08:23:02Z</time>
      </trkpt>
      <trkpt lat="42.55818" lon="1.87684">
        <ele>1980</ele>
        <time>2021-09-15T08:23:06Z</time>
      </trkpt>
      <trkpt lat="42.55821" lon="1.87686">
        <ele>1980</ele>
        <time>2021-09-15T08:23:13Z</time>
      </trkpt>
      <trkpt lat="42.55828" lon="1.87687">
        <ele>1982</ele>
        <time>2021-09-15T08:23:27Z</time>
      </trkpt>
      <trkpt lat="42.55832" lon="1.8769">
        <ele>1983</ele>
        <time>2021-09-15T08:23:37Z</time>
      </trkpt>
      <trkpt lat="42.55841" lon="1.8769">
        <ele>1985</ele>
        <time>2021-09-15T08:23:53Z</time>
      </trkpt>
      <trkpt lat="42.55842" lon="1.87691">
        <ele>1986</ele>
        <time>2021-09-15T08:23:57Z</time>
      </trkpt>
      <trkpt lat="42.55854" lon="1.87699">
        <ele>1990</ele>
        <time>2021-09-15T08:24:20Z</time>
      </trkpt>
      <trkpt lat="42.55857" lon="1.87702">
        <ele>1991</ele>
        <time>2021-09-15T08:24:26Z</time>
      </trkpt>
      <trkpt lat="42.55857" lon="1.87704">
        <ele>1991</ele>
        <time>2021-09-15T08:24:32Z</time>
      </trkpt>
      <trkpt lat="42.55863" lon="1.87707">
        <ele>1992</ele>
        <time>2021-09-15T08:24:41Z</time>
      </trkpt>
      <trkpt lat="42.55869" lon="1.87709">
        <ele>1994</ele>
        <time>2021-09-15T08:24:54Z</time>
      </trkpt>
      <trkpt lat="42.55875" lon="1.8772">
        <ele>1995</ele>
        <time>2021-09-15T08:25:08Z</time>
      </trkpt>
      <trkpt lat="42.55876" lon="1.87721">
        <ele>1995</ele>
        <time>2021-09-15T08:25:11Z</time>
      </trkpt>
      <trkpt lat="42.55878" lon="1.87722">
        <ele>1996</ele>
        <time>2021-09-15T08:25:14Z</time>
      </trkpt>
      <trkpt lat="42.55881" lon="1.8773">
        <ele>1997</ele>
        <time>2021-09-15T08:25:22Z</time>
      </trkpt>
      <trkpt lat="42.55887" lon="1.87739">
        <ele>1998</ele>
        <time>2021-09-15T08:25:36Z</time>
      </trkpt>
      <trkpt lat="42.55889" lon="1.8774">
        <ele>1998</ele>
        <time>2021-09-15T08:25:39Z</time>
      </trkpt>
      <trkpt lat="42.5589" lon="1.87741">
        <ele>1999</ele>
        <time>2021-09-15T08:25:44Z</time>
      </trkpt>
      <trkpt lat="42.55894" lon="1.87746">
        <ele>1999</ele>
        <time>2021-09-15T08:25:51Z</time>
      </trkpt>
      <trkpt lat="42.55894" lon="1.87749">
        <ele>2000</ele>
        <time>2021-09-15T08:25:54Z</time>
      </trkpt>
      <trkpt lat="42.55898" lon="1.87754">
        <ele>2000</ele>
        <time>2021-09-15T08:26:03Z</time>
      </trkpt>
      <trkpt lat="42.55899" lon="1.87756">
        <ele>2000</ele>
        <time>2021-09-15T08:26:07Z</time>
      </trkpt>
      <trkpt lat="42.559" lon="1.87758">
        <ele>2000</ele>
        <time>2021-09-15T08:26:10Z</time>
      </trkpt>
      <trkpt lat="42.55902" lon="1.87759">
        <ele>2000</ele>
        <time>2021-09-15T08:26:14Z</time>
      </trkpt>
      <trkpt lat="42.55906" lon="1.87763">
        <ele>2001</ele>
        <time>2021-09-15T08:26:24Z</time>
      </trkpt>
      <trkpt lat="42.55907" lon="1.87765">
        <ele>2002</ele>
        <time>2021-09-15T08:26:26Z</time>
      </trkpt>
      <trkpt lat="42.55914" lon="1.87775">
        <ele>2004</ele>
        <time>2021-09-15T08:26:40Z</time>
      </trkpt>
      <trkpt lat="42.55916" lon="1.87777">
        <ele>2004</ele>
        <time>2021-09-15T08:26:44Z</time>
      </trkpt>
      <trkpt lat="42.55918" lon="1.87778">
        <ele>2005</ele>
        <time>2021-09-15T08:26:47Z</time>
      </trkpt>
      <trkpt lat="42.55919" lon="1.87779">
        <ele>2005</ele>
        <time>2021-09-15T08:26:51Z</time>
      </trkpt>
      <trkpt lat="42.55921" lon="1.8778">
        <ele>2006</ele>
        <time>2021-09-15T08:26:55Z</time>
      </trkpt>
      <trkpt lat="42.55925" lon="1.87786">
        <ele>2006</ele>
        <time>2021-09-15T08:27:04Z</time>
      </trkpt>
      <trkpt lat="42.55934" lon="1.87795">
        <ele>2008</ele>
        <time>2021-09-15T08:27:20Z</time>
      </trkpt>
      <trkpt lat="42.55935" lon="1.87797">
        <ele>2009</ele>
        <time>2021-09-15T08:27:24Z</time>
      </trkpt>
      <trkpt lat="42.55936" lon="1.87812">
        <ele>2010</ele>
        <time>2021-09-15T08:27:40Z</time>
      </trkpt>
      <trkpt lat="42.55937" lon="1.87817">
        <ele>2010</ele>
        <time>2021-09-15T08:27:44Z</time>
      </trkpt>
      <trkpt lat="42.55949" lon="1.87838">
        <ele>2012</ele>
        <time>2021-09-15T08:28:10Z</time>
      </trkpt>
      <trkpt lat="42.5595" lon="1.87839">
        <ele>2012</ele>
        <time>2021-09-15T08:28:13Z</time>
      </trkpt>
      <trkpt lat="42.55953" lon="1.87847">
        <ele>2014</ele>
        <time>2021-09-15T08:28:23Z</time>
      </trkpt>
      <trkpt lat="42.55955" lon="1.87848">
        <ele>2014</ele>
        <time>2021-09-15T08:28:26Z</time>
      </trkpt>
      <trkpt lat="42.55956" lon="1.87854">
        <ele>2016</ele>
        <time>2021-09-15T08:29:24Z</time>
      </trkpt>
      <trkpt lat="42.55958" lon="1.87858">
        <ele>2017</ele>
        <time>2021-09-15T08:29:30Z</time>
      </trkpt>
      <trkpt lat="42.55958" lon="1.87861">
        <ele>2017</ele>
        <time>2021-09-15T08:29:33Z</time>
      </trkpt>
      <trkpt lat="42.55965" lon="1.87868">
        <ele>2017</ele>
        <time>2021-09-15T08:29:44Z</time>
      </trkpt>
      <trkpt lat="42.55969" lon="1.87879">
        <ele>2016</ele>
        <time>2021-09-15T08:29:53Z</time>
      </trkpt>
      <trkpt lat="42.55971" lon="1.87882">
        <ele>2016</ele>
        <time>2021-09-15T08:29:57Z</time>
      </trkpt>
      <trkpt lat="42.55975" lon="1.87882">
        <ele>2016</ele>
        <time>2021-09-15T08:30:04Z</time>
      </trkpt>
      <trkpt lat="42.55976" lon="1.87884">
        <ele>2017</ele>
        <time>2021-09-15T08:30:07Z</time>
      </trkpt>
      <trkpt lat="42.55977" lon="1.87889">
        <ele>2017</ele>
        <time>2021-09-15T08:30:12Z</time>
      </trkpt>
      <trkpt lat="42.55978" lon="1.87895">
        <ele>2017</ele>
        <time>2021-09-15T08:30:17Z</time>
      </trkpt>
      <trkpt lat="42.55979" lon="1.87897">
        <ele>2017</ele>
        <time>2021-09-15T08:30:19Z</time>
      </trkpt>
      <trkpt lat="42.5598" lon="1.87898">
        <ele>2017</ele>
        <time>2021-09-15T08:30:21Z</time>
      </trkpt>
      <trkpt lat="42.55984" lon="1.87904">
        <ele>2017</ele>
        <time>2021-09-15T08:30:29Z</time>
      </trkpt>
      <trkpt lat="42.55984" lon="1.87906">
        <ele>2017</ele>
        <time>2021-09-15T08:30:31Z</time>
      </trkpt>
      <trkpt lat="42.55992" lon="1.87919">
        <ele>2018</ele>
        <time>2021-09-15T08:30:50Z</time>
      </trkpt>
      <trkpt lat="42.55993" lon="1.87928">
        <ele>2019</ele>
        <time>2021-09-15T08:30:59Z</time>
      </trkpt>
      <trkpt lat="42.55995" lon="1.8793">
        <ele>2020</ele>
        <time>2021-09-15T08:31:02Z</time>
      </trkpt>
      <trkpt lat="42.55995" lon="1.87933">
        <ele>2020</ele>
        <time>2021-09-15T08:31:05Z</time>
      </trkpt>
      <trkpt lat="42.55996" lon="1.87934">
        <ele>2020</ele>
        <time>2021-09-15T08:31:07Z</time>
      </trkpt>
      <trkpt lat="42.56004" lon="1.87959">
        <ele>2022</ele>
        <time>2021-09-15T08:31:32Z</time>
      </trkpt>
      <trkpt lat="42.56005" lon="1.87961">
        <ele>2022</ele>
        <time>2021-09-15T08:31:34Z</time>
      </trkpt>
      <trkpt lat="42.56007" lon="1.8797">
        <ele>2023</ele>
        <time>2021-09-15T08:31:44Z</time>
      </trkpt>
      <trkpt lat="42.56008" lon="1.87972">
        <ele>2023</ele>
        <time>2021-09-15T08:31:47Z</time>
      </trkpt>
      <trkpt lat="42.56012" lon="1.87984">
        <ele>2025</ele>
        <time>2021-09-15T08:32:01Z</time>
      </trkpt>
      <trkpt lat="42.56017" lon="1.87995">
        <ele>2027</ele>
        <time>2021-09-15T08:32:16Z</time>
      </trkpt>
      <trkpt lat="42.56019" lon="1.87997">
        <ele>2028</ele>
        <time>2021-09-15T08:32:19Z</time>
      </trkpt>
      <trkpt lat="42.5602" lon="1.87999">
        <ele>2028</ele>
        <time>2021-09-15T08:32:23Z</time>
      </trkpt>
      <trkpt lat="42.56025" lon="1.88009">
        <ele>2030</ele>
        <time>2021-09-15T08:32:35Z</time>
      </trkpt>
      <trkpt lat="42.56025" lon="1.88011">
        <ele>2030</ele>
        <time>2021-09-15T08:32:38Z</time>
      </trkpt>
      <trkpt lat="42.56026" lon="1.88013">
        <ele>2031</ele>
        <time>2021-09-15T08:32:42Z</time>
      </trkpt>
      <trkpt lat="42.56026" lon="1.88015">
        <ele>2031</ele>
        <time>2021-09-15T08:32:45Z</time>
      </trkpt>
      <trkpt lat="42.56028" lon="1.88019">
        <ele>2032</ele>
        <time>2021-09-15T08:32:51Z</time>
      </trkpt>
      <trkpt lat="42.56028" lon="1.88022">
        <ele>2032</ele>
        <time>2021-09-15T08:32:54Z</time>
      </trkpt>
      <trkpt lat="42.5603" lon="1.88029">
        <ele>2033</ele>
        <time>2021-09-15T08:33:00Z</time>
      </trkpt>
      <trkpt lat="42.56032" lon="1.88034">
        <ele>2034</ele>
        <time>2021-09-15T08:33:06Z</time>
      </trkpt>
      <trkpt lat="42.56034" lon="1.88041">
        <ele>2036</ele>
        <time>2021-09-15T08:33:16Z</time>
      </trkpt>
      <trkpt lat="42.56032" lon="1.88049">
        <ele>2037</ele>
        <time>2021-09-15T08:33:25Z</time>
      </trkpt>
      <trkpt lat="42.56033" lon="1.88053">
        <ele>2038</ele>
        <time>2021-09-15T08:33:31Z</time>
      </trkpt>
      <trkpt lat="42.56032" lon="1.88056">
        <ele>2039</ele>
        <time>2021-09-15T08:33:34Z</time>
      </trkpt>
      <trkpt lat="42.56032" lon="1.88061">
        <ele>2039</ele>
        <time>2021-09-15T08:33:40Z</time>
      </trkpt>
      <trkpt lat="42.5603" lon="1.88073">
        <ele>2041</ele>
        <time>2021-09-15T08:33:54Z</time>
      </trkpt>
      <trkpt lat="42.56029" lon="1.88079">
        <ele>2042</ele>
        <time>2021-09-15T08:34:00Z</time>
      </trkpt>
      <trkpt lat="42.56026" lon="1.8809">
        <ele>2044</ele>
        <time>2021-09-15T08:35:16Z</time>
      </trkpt>
      <trkpt lat="42.56027" lon="1.88103">
        <ele>2044</ele>
        <time>2021-09-15T08:35:32Z</time>
      </trkpt>
      <trkpt lat="42.56028" lon="1.88106">
        <ele>2044</ele>
        <time>2021-09-15T08:35:35Z</time>
      </trkpt>
      <trkpt lat="42.56029" lon="1.8812">
        <ele>2045</ele>
        <time>2021-09-15T08:35:48Z</time>
      </trkpt>
      <trkpt lat="42.56037" lon="1.8814">
        <ele>2048</ele>
        <time>2021-09-15T08:36:11Z</time>
      </trkpt>
      <trkpt lat="42.5604" lon="1.88143">
        <ele>2049</ele>
        <time>2021-09-15T08:36:17Z</time>
      </trkpt>
      <trkpt lat="42.56041" lon="1.88147">
        <ele>2049</ele>
        <time>2021-09-15T08:36:22Z</time>
      </trkpt>
      <trkpt lat="42.56042" lon="1.88152">
        <ele>2050</ele>
        <time>2021-09-15T08:36:26Z</time>
      </trkpt>
      <trkpt lat="42.56044" lon="1.8816">
        <ele>2051</ele>
        <time>2021-09-15T08:36:36Z</time>
      </trkpt>
      <trkpt lat="42.56045" lon="1.88178">
        <ele>2053</ele>
        <time>2021-09-15T08:36:53Z</time>
      </trkpt>
      <trkpt lat="42.56049" lon="1.88189">
        <ele>2056</ele>
        <time>2021-09-15T08:37:09Z</time>
      </trkpt>
      <trkpt lat="42.56049" lon="1.88197">
        <ele>2057</ele>
        <time>2021-09-15T08:37:17Z</time>
      </trkpt>
      <trkpt lat="42.56053" lon="1.88206">
        <ele>2058</ele>
        <time>2021-09-15T08:37:27Z</time>
      </trkpt>
      <trkpt lat="42.56054" lon="1.88216">
        <ele>2060</ele>
        <time>2021-09-15T08:37:38Z</time>
      </trkpt>
      <trkpt lat="42.56055" lon="1.88219">
        <ele>2060</ele>
        <time>2021-09-15T08:37:41Z</time>
      </trkpt>
      <trkpt lat="42.56057" lon="1.88222">
        <ele>2060</ele>
        <time>2021-09-15T08:37:46Z</time>
      </trkpt>
      <trkpt lat="42.56059" lon="1.88224">
        <ele>2061</ele>
        <time>2021-09-15T08:37:49Z</time>
      </trkpt>
      <trkpt lat="42.56063" lon="1.88235">
        <ele>2062</ele>
        <time>2021-09-15T08:38:01Z</time>
      </trkpt>
      <trkpt lat="42.56065" lon="1.88238">
        <ele>2062</ele>
        <time>2021-09-15T08:38:06Z</time>
      </trkpt>
      <trkpt lat="42.56066" lon="1.88245">
        <ele>2063</ele>
        <time>2021-09-15T08:38:14Z</time>
      </trkpt>
      <trkpt lat="42.56067" lon="1.88248">
        <ele>2063</ele>
        <time>2021-09-15T08:38:17Z</time>
      </trkpt>
      <trkpt lat="42.56066" lon="1.88253">
        <ele>2064</ele>
        <time>2021-09-15T08:38:22Z</time>
      </trkpt>
      <trkpt lat="42.56067" lon="1.88258">
        <ele>2064</ele>
        <time>2021-09-15T08:38:28Z</time>
      </trkpt>
      <trkpt lat="42.56067" lon="1.88267">
        <ele>2065</ele>
        <time>2021-09-15T08:38:37Z</time>
      </trkpt>
      <trkpt lat="42.56067" lon="1.88269">
        <ele>2065</ele>
        <time>2021-09-15T08:38:39Z</time>
      </trkpt>
      <trkpt lat="42.56069" lon="1.8827">
        <ele>2065</ele>
        <time>2021-09-15T08:38:42Z</time>
      </trkpt>
      <trkpt lat="42.56072" lon="1.88272">
        <ele>2066</ele>
        <time>2021-09-15T08:38:47Z</time>
      </trkpt>
      <trkpt lat="42.56074" lon="1.88276">
        <ele>2067</ele>
        <time>2021-09-15T08:38:52Z</time>
      </trkpt>
      <trkpt lat="42.56076" lon="1.88286">
        <ele>2068</ele>
        <time>2021-09-15T08:39:03Z</time>
      </trkpt>
      <trkpt lat="42.56077" lon="1.88296">
        <ele>2070</ele>
        <time>2021-09-15T08:39:15Z</time>
      </trkpt>
      <trkpt lat="42.56077" lon="1.88301">
        <ele>2070</ele>
        <time>2021-09-15T08:39:20Z</time>
      </trkpt>
      <trkpt lat="42.56077" lon="1.88306">
        <ele>2071</ele>
        <time>2021-09-15T08:39:26Z</time>
      </trkpt>
      <trkpt lat="42.56078" lon="1.88308">
        <ele>2071</ele>
        <time>2021-09-15T08:39:29Z</time>
      </trkpt>
      <trkpt lat="42.5608" lon="1.88312">
        <ele>2072</ele>
        <time>2021-09-15T08:39:36Z</time>
      </trkpt>
      <trkpt lat="42.56082" lon="1.88314">
        <ele>2073</ele>
        <time>2021-09-15T08:39:39Z</time>
      </trkpt>
      <trkpt lat="42.56083" lon="1.88316">
        <ele>2073</ele>
        <time>2021-09-15T08:39:44Z</time>
      </trkpt>
      <trkpt lat="42.56082" lon="1.8832">
        <ele>2073</ele>
        <time>2021-09-15T08:39:49Z</time>
      </trkpt>
      <trkpt lat="42.56081" lon="1.88322">
        <ele>2074</ele>
        <time>2021-09-15T08:39:52Z</time>
      </trkpt>
      <trkpt lat="42.56081" lon="1.88324">
        <ele>2074</ele>
        <time>2021-09-15T08:39:56Z</time>
      </trkpt>
      <trkpt lat="42.5608" lon="1.88326">
        <ele>2074</ele>
        <time>2021-09-15T08:40:00Z</time>
      </trkpt>
      <trkpt lat="42.5608" lon="1.88343">
        <ele>2076</ele>
        <time>2021-09-15T08:40:31Z</time>
      </trkpt>
      <trkpt lat="42.56081" lon="1.88345">
        <ele>2076</ele>
        <time>2021-09-15T08:40:33Z</time>
      </trkpt>
      <trkpt lat="42.56083" lon="1.88345">
        <ele>2077</ele>
        <time>2021-09-15T08:40:57Z</time>
      </trkpt>
      <trkpt lat="42.56084" lon="1.8835">
        <ele>2078</ele>
        <time>2021-09-15T08:41:01Z</time>
      </trkpt>
      <trkpt lat="42.56089" lon="1.88374">
        <ele>2079</ele>
        <time>2021-09-15T08:41:23Z</time>
      </trkpt>
      <trkpt lat="42.56093" lon="1.88381">
        <ele>2080</ele>
        <time>2021-09-15T08:41:30Z</time>
      </trkpt>
      <trkpt lat="42.56095" lon="1.88387">
        <ele>2080</ele>
        <time>2021-09-15T08:41:36Z</time>
      </trkpt>
      <trkpt lat="42.56097" lon="1.88392">
        <ele>2081</ele>
        <time>2021-09-15T08:41:40Z</time>
      </trkpt>
      <trkpt lat="42.56101" lon="1.88416">
        <ele>2086</ele>
        <time>2021-09-15T08:42:12Z</time>
      </trkpt>
      <trkpt lat="42.56102" lon="1.88418">
        <ele>2086</ele>
        <time>2021-09-15T08:42:14Z</time>
      </trkpt>
      <trkpt lat="42.56101" lon="1.88441">
        <ele>2089</ele>
        <time>2021-09-15T08:42:41Z</time>
      </trkpt>
      <trkpt lat="42.56102" lon="1.88447">
        <ele>2090</ele>
        <time>2021-09-15T08:42:51Z</time>
      </trkpt>
      <trkpt lat="42.56101" lon="1.88449">
        <ele>2091</ele>
        <time>2021-09-15T08:42:56Z</time>
      </trkpt>
      <trkpt lat="42.561" lon="1.88451">
        <ele>2092</ele>
        <time>2021-09-15T08:43:00Z</time>
      </trkpt>
      <trkpt lat="42.561" lon="1.88459">
        <ele>2093</ele>
        <time>2021-09-15T08:43:13Z</time>
      </trkpt>
      <trkpt lat="42.561" lon="1.88461">
        <ele>2094</ele>
        <time>2021-09-15T08:43:16Z</time>
      </trkpt>
      <trkpt lat="42.56097" lon="1.88465">
        <ele>2095</ele>
        <time>2021-09-15T08:43:23Z</time>
      </trkpt>
      <trkpt lat="42.56096" lon="1.88467">
        <ele>2096</ele>
        <time>2021-09-15T08:43:27Z</time>
      </trkpt>
      <trkpt lat="42.56096" lon="1.88469">
        <ele>2096</ele>
        <time>2021-09-15T08:43:29Z</time>
      </trkpt>
      <trkpt lat="42.56095" lon="1.88471">
        <ele>2097</ele>
        <time>2021-09-15T08:43:32Z</time>
      </trkpt>
      <trkpt lat="42.56095" lon="1.88474">
        <ele>2098</ele>
        <time>2021-09-15T08:43:35Z</time>
      </trkpt>
      <trkpt lat="42.56097" lon="1.88478">
        <ele>2099</ele>
        <time>2021-09-15T08:43:41Z</time>
      </trkpt>
      <trkpt lat="42.56097" lon="1.8848">
        <ele>2099</ele>
        <time>2021-09-15T08:43:44Z</time>
      </trkpt>
      <trkpt lat="42.56097" lon="1.88482">
        <ele>2099</ele>
        <time>2021-09-15T08:43:47Z</time>
      </trkpt>
      <trkpt lat="42.56098" lon="1.88484">
        <ele>2100</ele>
        <time>2021-09-15T08:43:49Z</time>
      </trkpt>
      <trkpt lat="42.56099" lon="1.88486">
        <ele>2100</ele>
        <time>2021-09-15T08:43:52Z</time>
      </trkpt>
      <trkpt lat="42.56097" lon="1.88493">
        <ele>2101</ele>
        <time>2021-09-15T08:43:59Z</time>
      </trkpt>
      <trkpt lat="42.56097" lon="1.88497">
        <ele>2102</ele>
        <time>2021-09-15T08:44:03Z</time>
      </trkpt>
      <trkpt lat="42.56098" lon="1.88504">
        <ele>2102</ele>
        <time>2021-09-15T08:44:21Z</time>
      </trkpt>
      <trkpt lat="42.56099" lon="1.88509">
        <ele>2102</ele>
        <time>2021-09-15T08:44:26Z</time>
      </trkpt>
      <trkpt lat="42.561" lon="1.88514">
        <ele>2103</ele>
        <time>2021-09-15T08:44:32Z</time>
      </trkpt>
      <trkpt lat="42.56106" lon="1.88526">
        <ele>2106</ele>
        <time>2021-09-15T08:44:49Z</time>
      </trkpt>
      <trkpt lat="42.56107" lon="1.88528">
        <ele>2106</ele>
        <time>2021-09-15T08:44:53Z</time>
      </trkpt>
      <trkpt lat="42.56107" lon="1.88533">
        <ele>2106</ele>
        <time>2021-09-15T08:45:01Z</time>
      </trkpt>
      <trkpt lat="42.5611" lon="1.88538">
        <ele>2106</ele>
        <time>2021-09-15T08:45:07Z</time>
      </trkpt>
      <trkpt lat="42.56111" lon="1.88539">
        <ele>2106</ele>
        <time>2021-09-15T08:45:10Z</time>
      </trkpt>
      <trkpt lat="42.56112" lon="1.88542">
        <ele>2106</ele>
        <time>2021-09-15T08:45:13Z</time>
      </trkpt>
      <trkpt lat="42.56113" lon="1.88544">
        <ele>2106</ele>
        <time>2021-09-15T08:45:17Z</time>
      </trkpt>
      <trkpt lat="42.56115" lon="1.88549">
        <ele>2107</ele>
        <time>2021-09-15T08:45:25Z</time>
      </trkpt>
      <trkpt lat="42.56116" lon="1.88554">
        <ele>2107</ele>
        <time>2021-09-15T08:45:31Z</time>
      </trkpt>
      <trkpt lat="42.56116" lon="1.88556">
        <ele>2107</ele>
        <time>2021-09-15T08:45:34Z</time>
      </trkpt>
      <trkpt lat="42.56118" lon="1.88557">
        <ele>2108</ele>
        <time>2021-09-15T08:45:37Z</time>
      </trkpt>
      <trkpt lat="42.56119" lon="1.88559">
        <ele>2109</ele>
        <time>2021-09-15T08:45:42Z</time>
      </trkpt>
      <trkpt lat="42.56119" lon="1.88561">
        <ele>2109</ele>
        <time>2021-09-15T08:45:44Z</time>
      </trkpt>
      <trkpt lat="42.56118" lon="1.88566">
        <ele>2110</ele>
        <time>2021-09-15T08:45:48Z</time>
      </trkpt>
      <trkpt lat="42.56119" lon="1.88571">
        <ele>2110</ele>
        <time>2021-09-15T08:45:54Z</time>
      </trkpt>
      <trkpt lat="42.5612" lon="1.88574">
        <ele>2111</ele>
        <time>2021-09-15T08:45:58Z</time>
      </trkpt>
      <trkpt lat="42.56122" lon="1.88576">
        <ele>2112</ele>
        <time>2021-09-15T08:46:05Z</time>
      </trkpt>
      <trkpt lat="42.56123" lon="1.88581">
        <ele>2113</ele>
        <time>2021-09-15T08:46:11Z</time>
      </trkpt>
      <trkpt lat="42.56123" lon="1.88584">
        <ele>2113</ele>
        <time>2021-09-15T08:46:13Z</time>
      </trkpt>
      <trkpt lat="42.56126" lon="1.8859">
        <ele>2115</ele>
        <time>2021-09-15T08:46:23Z</time>
      </trkpt>
      <trkpt lat="42.5613" lon="1.88598">
        <ele>2117</ele>
        <time>2021-09-15T08:46:36Z</time>
      </trkpt>
      <trkpt lat="42.5613" lon="1.88603">
        <ele>2118</ele>
        <time>2021-09-15T08:46:42Z</time>
      </trkpt>
      <trkpt lat="42.56131" lon="1.88605">
        <ele>2118</ele>
        <time>2021-09-15T08:46:45Z</time>
      </trkpt>
      <trkpt lat="42.56131" lon="1.88607">
        <ele>2119</ele>
        <time>2021-09-15T08:46:50Z</time>
      </trkpt>
      <trkpt lat="42.5613" lon="1.88609">
        <ele>2120</ele>
        <time>2021-09-15T08:46:53Z</time>
      </trkpt>
      <trkpt lat="42.56131" lon="1.88611">
        <ele>2120</ele>
        <time>2021-09-15T08:46:57Z</time>
      </trkpt>
      <trkpt lat="42.56132" lon="1.88614">
        <ele>2120</ele>
        <time>2021-09-15T08:47:00Z</time>
      </trkpt>
      <trkpt lat="42.56133" lon="1.88616">
        <ele>2120</ele>
        <time>2021-09-15T08:47:04Z</time>
      </trkpt>
      <trkpt lat="42.56133" lon="1.88619">
        <ele>2121</ele>
        <time>2021-09-15T08:47:08Z</time>
      </trkpt>
      <trkpt lat="42.56133" lon="1.88622">
        <ele>2121</ele>
        <time>2021-09-15T08:47:11Z</time>
      </trkpt>
      <trkpt lat="42.56135" lon="1.88626">
        <ele>2122</ele>
        <time>2021-09-15T08:47:17Z</time>
      </trkpt>
      <trkpt lat="42.56136" lon="1.88629">
        <ele>2122</ele>
        <time>2021-09-15T08:47:22Z</time>
      </trkpt>
      <trkpt lat="42.56134" lon="1.88631">
        <ele>2124</ele>
        <time>2021-09-15T08:47:27Z</time>
      </trkpt>
      <trkpt lat="42.56133" lon="1.88633">
        <ele>2125</ele>
        <time>2021-09-15T08:47:30Z</time>
      </trkpt>
      <trkpt lat="42.56134" lon="1.88635">
        <ele>2126</ele>
        <time>2021-09-15T08:47:34Z</time>
      </trkpt>
      <trkpt lat="42.56135" lon="1.88636">
        <ele>2126</ele>
        <time>2021-09-15T08:47:38Z</time>
      </trkpt>
      <trkpt lat="42.56136" lon="1.88639">
        <ele>2127</ele>
        <time>2021-09-15T08:47:42Z</time>
      </trkpt>
      <trkpt lat="42.56137" lon="1.88641">
        <ele>2128</ele>
        <time>2021-09-15T08:47:46Z</time>
      </trkpt>
      <trkpt lat="42.56138" lon="1.88642">
        <ele>2128</ele>
        <time>2021-09-15T08:47:49Z</time>
      </trkpt>
      <trkpt lat="42.5614" lon="1.88643">
        <ele>2129</ele>
        <time>2021-09-15T08:47:53Z</time>
      </trkpt>
      <trkpt lat="42.56142" lon="1.88644">
        <ele>2129</ele>
        <time>2021-09-15T08:47:56Z</time>
      </trkpt>
      <trkpt lat="42.56143" lon="1.88646">
        <ele>2129</ele>
        <time>2021-09-15T08:48:00Z</time>
      </trkpt>
      <trkpt lat="42.56143" lon="1.88648">
        <ele>2130</ele>
        <time>2021-09-15T08:48:04Z</time>
      </trkpt>
      <trkpt lat="42.56144" lon="1.88651">
        <ele>2130</ele>
        <time>2021-09-15T08:48:10Z</time>
      </trkpt>
      <trkpt lat="42.56147" lon="1.88658">
        <ele>2130</ele>
        <time>2021-09-15T08:48:28Z</time>
      </trkpt>
      <trkpt lat="42.56149" lon="1.88659">
        <ele>2130</ele>
        <time>2021-09-15T08:48:32Z</time>
      </trkpt>
      <trkpt lat="42.5615" lon="1.88662">
        <ele>2130</ele>
        <time>2021-09-15T08:48:38Z</time>
      </trkpt>
      <trkpt lat="42.56151" lon="1.88664">
        <ele>2130</ele>
        <time>2021-09-15T08:48:43Z</time>
      </trkpt>
      <trkpt lat="42.56154" lon="1.88666">
        <ele>2130</ele>
        <time>2021-09-15T08:48:52Z</time>
      </trkpt>
      <trkpt lat="42.56158" lon="1.88678">
        <ele>2131</ele>
        <time>2021-09-15T08:49:22Z</time>
      </trkpt>
      <trkpt lat="42.56158" lon="1.8868">
        <ele>2132</ele>
        <time>2021-09-15T08:49:25Z</time>
      </trkpt>
      <trkpt lat="42.56159" lon="1.8868">
        <ele>2133</ele>
        <time>2021-09-15T08:50:49Z</time>
      </trkpt>
      <trkpt lat="42.56155" lon="1.88679">
        <ele>2142</ele>
        <time>2021-09-15T08:57:49Z</time>
      </trkpt>
      <trkpt lat="42.56154" lon="1.8868">
        <ele>2143</ele>
        <time>2021-09-15T08:57:52Z</time>
      </trkpt>
      <trkpt lat="42.56158" lon="1.88679">
        <ele>2143</ele>
        <time>2021-09-15T08:59:06Z</time>
      </trkpt>
      <trkpt lat="42.56158" lon="1.88679">
        <ele>2143</ele>
        <time>2021-09-15T09:00:03Z</time>
      </trkpt>
      <trkpt lat="42.56156" lon="1.88682">
        <ele>2145</ele>
        <time>2021-09-15T09:00:49Z</time>
      </trkpt>
      <trkpt lat="42.56154" lon="1.88683">
        <ele>2146</ele>
        <time>2021-09-15T09:00:52Z</time>
      </trkpt>
      <trkpt lat="42.56154" lon="1.88686">
        <ele>2146</ele>
        <time>2021-09-15T09:00:55Z</time>
      </trkpt>
      <trkpt lat="42.56154" lon="1.88688">
        <ele>2146</ele>
        <time>2021-09-15T09:00:58Z</time>
      </trkpt>
      <trkpt lat="42.56154" lon="1.88691">
        <ele>2147</ele>
        <time>2021-09-15T09:01:01Z</time>
      </trkpt>
      <trkpt lat="42.56154" lon="1.88696">
        <ele>2146</ele>
        <time>2021-09-15T09:01:14Z</time>
      </trkpt>
      <trkpt lat="42.56153" lon="1.88698">
        <ele>2146</ele>
        <time>2021-09-15T09:01:18Z</time>
      </trkpt>
      <trkpt lat="42.56154" lon="1.88703">
        <ele>2146</ele>
        <time>2021-09-15T09:01:23Z</time>
      </trkpt>
      <trkpt lat="42.56153" lon="1.88706">
        <ele>2146</ele>
        <time>2021-09-15T09:01:26Z</time>
      </trkpt>
      <trkpt lat="42.56153" lon="1.88708">
        <ele>2146</ele>
        <time>2021-09-15T09:01:28Z</time>
      </trkpt>
      <trkpt lat="42.56152" lon="1.88717">
        <ele>2146</ele>
        <time>2021-09-15T09:01:35Z</time>
      </trkpt>
      <trkpt lat="42.56153" lon="1.88723">
        <ele>2146</ele>
        <time>2021-09-15T09:01:39Z</time>
      </trkpt>
      <trkpt lat="42.56153" lon="1.88726">
        <ele>2146</ele>
        <time>2021-09-15T09:01:41Z</time>
      </trkpt>
      <trkpt lat="42.56153" lon="1.88728">
        <ele>2146</ele>
        <time>2021-09-15T09:01:43Z</time>
      </trkpt>
      <trkpt lat="42.56154" lon="1.88736">
        <ele>2147</ele>
        <time>2021-09-15T09:01:49Z</time>
      </trkpt>
      <trkpt lat="42.56157" lon="1.88744">
        <ele>2146</ele>
        <time>2021-09-15T09:01:55Z</time>
      </trkpt>
      <trkpt lat="42.56158" lon="1.88747">
        <ele>2146</ele>
        <time>2021-09-15T09:01:57Z</time>
      </trkpt>
      <trkpt lat="42.56158" lon="1.88749">
        <ele>2146</ele>
        <time>2021-09-15T09:01:59Z</time>
      </trkpt>
      <trkpt lat="42.56157" lon="1.88754">
        <ele>2146</ele>
        <time>2021-09-15T09:02:03Z</time>
      </trkpt>
      <trkpt lat="42.56156" lon="1.88758">
        <ele>2146</ele>
        <time>2021-09-15T09:02:08Z</time>
      </trkpt>
      <trkpt lat="42.56157" lon="1.88761">
        <ele>2146</ele>
        <time>2021-09-15T09:02:10Z</time>
      </trkpt>
      <trkpt lat="42.56157" lon="1.88763">
        <ele>2146</ele>
        <time>2021-09-15T09:02:12Z</time>
      </trkpt>
      <trkpt lat="42.56159" lon="1.88766">
        <ele>2146</ele>
        <time>2021-09-15T09:02:14Z</time>
      </trkpt>
      <trkpt lat="42.5616" lon="1.88768">
        <ele>2146</ele>
        <time>2021-09-15T09:02:16Z</time>
      </trkpt>
      <trkpt lat="42.56162" lon="1.88773">
        <ele>2146</ele>
        <time>2021-09-15T09:02:19Z</time>
      </trkpt>
      <trkpt lat="42.56163" lon="1.88777">
        <ele>2146</ele>
        <time>2021-09-15T09:02:21Z</time>
      </trkpt>
      <trkpt lat="42.56162" lon="1.88786">
        <ele>2147</ele>
        <time>2021-09-15T09:02:28Z</time>
      </trkpt>
      <trkpt lat="42.56172" lon="1.888">
        <ele>2147</ele>
        <time>2021-09-15T09:02:40Z</time>
      </trkpt>
      <trkpt lat="42.56172" lon="1.88803">
        <ele>2147</ele>
        <time>2021-09-15T09:02:42Z</time>
      </trkpt>
      <trkpt lat="42.56175" lon="1.88808">
        <ele>2147</ele>
        <time>2021-09-15T09:02:46Z</time>
      </trkpt>
      <trkpt lat="42.56175" lon="1.88812">
        <ele>2147</ele>
        <time>2021-09-15T09:02:48Z</time>
      </trkpt>
      <trkpt lat="42.56176" lon="1.88815">
        <ele>2146</ele>
        <time>2021-09-15T09:02:50Z</time>
      </trkpt>
      <trkpt lat="42.56178" lon="1.88817">
        <ele>2146</ele>
        <time>2021-09-15T09:02:52Z</time>
      </trkpt>
      <trkpt lat="42.56179" lon="1.88819">
        <ele>2146</ele>
        <time>2021-09-15T09:02:54Z</time>
      </trkpt>
      <trkpt lat="42.56178" lon="1.88826">
        <ele>2146</ele>
        <time>2021-09-15T09:02:58Z</time>
      </trkpt>
      <trkpt lat="42.56178" lon="1.88829">
        <ele>2146</ele>
        <time>2021-09-15T09:03:00Z</time>
      </trkpt>
      <trkpt lat="42.56179" lon="1.88842">
        <ele>2145</ele>
        <time>2021-09-15T09:03:09Z</time>
      </trkpt>
      <trkpt lat="42.56181" lon="1.88852">
        <ele>2145</ele>
        <time>2021-09-15T09:03:17Z</time>
      </trkpt>
      <trkpt lat="42.56185" lon="1.88861">
        <ele>2146</ele>
        <time>2021-09-15T09:03:24Z</time>
      </trkpt>
      <trkpt lat="42.56187" lon="1.88872">
        <ele>2146</ele>
        <time>2021-09-15T09:03:32Z</time>
      </trkpt>
      <trkpt lat="42.56189" lon="1.88874">
        <ele>2146</ele>
        <time>2021-09-15T09:03:34Z</time>
      </trkpt>
      <trkpt lat="42.56191" lon="1.88881">
        <ele>2146</ele>
        <time>2021-09-15T09:03:40Z</time>
      </trkpt>
      <trkpt lat="42.56192" lon="1.88884">
        <ele>2146</ele>
        <time>2021-09-15T09:03:42Z</time>
      </trkpt>
      <trkpt lat="42.56193" lon="1.88886">
        <ele>2146</ele>
        <time>2021-09-15T09:03:44Z</time>
      </trkpt>
      <trkpt lat="42.56195" lon="1.88888">
        <ele>2146</ele>
        <time>2021-09-15T09:03:46Z</time>
      </trkpt>
      <trkpt lat="42.56197" lon="1.88889">
        <ele>2146</ele>
        <time>2021-09-15T09:03:48Z</time>
      </trkpt>
      <trkpt lat="42.56208" lon="1.88898">
        <ele>2146</ele>
        <time>2021-09-15T09:04:03Z</time>
      </trkpt>
      <trkpt lat="42.56223" lon="1.88903">
        <ele>2147</ele>
        <time>2021-09-15T09:04:17Z</time>
      </trkpt>
      <trkpt lat="42.56226" lon="1.88906">
        <ele>2147</ele>
        <time>2021-09-15T09:04:21Z</time>
      </trkpt>
      <trkpt lat="42.56228" lon="1.88907">
        <ele>2146</ele>
        <time>2021-09-15T09:04:23Z</time>
      </trkpt>
      <trkpt lat="42.56233" lon="1.88912">
        <ele>2145</ele>
        <time>2021-09-15T09:04:30Z</time>
      </trkpt>
      <trkpt lat="42.56234" lon="1.88914">
        <ele>2145</ele>
        <time>2021-09-15T09:04:32Z</time>
      </trkpt>
      <trkpt lat="42.56237" lon="1.88918">
        <ele>2145</ele>
        <time>2021-09-15T09:04:36Z</time>
      </trkpt>
      <trkpt lat="42.56241" lon="1.88922">
        <ele>2144</ele>
        <time>2021-09-15T09:04:42Z</time>
      </trkpt>
      <trkpt lat="42.56243" lon="1.88924">
        <ele>2144</ele>
        <time>2021-09-15T09:04:44Z</time>
      </trkpt>
      <trkpt lat="42.56246" lon="1.88933">
        <ele>2144</ele>
        <time>2021-09-15T09:04:53Z</time>
      </trkpt>
      <trkpt lat="42.56247" lon="1.88936">
        <ele>2144</ele>
        <time>2021-09-15T09:04:55Z</time>
      </trkpt>
      <trkpt lat="42.56248" lon="1.88938">
        <ele>2144</ele>
        <time>2021-09-15T09:04:57Z</time>
      </trkpt>
      <trkpt lat="42.5625" lon="1.8894">
        <ele>2144</ele>
        <time>2021-09-15T09:05:00Z</time>
      </trkpt>
      <trkpt lat="42.56277" lon="1.8896">
        <ele>2147</ele>
        <time>2021-09-15T09:05:30Z</time>
      </trkpt>
      <trkpt lat="42.56284" lon="1.88967">
        <ele>2148</ele>
        <time>2021-09-15T09:05:37Z</time>
      </trkpt>
      <trkpt lat="42.56285" lon="1.88969">
        <ele>2148</ele>
        <time>2021-09-15T09:05:39Z</time>
      </trkpt>
      <trkpt lat="42.56287" lon="1.8897">
        <ele>2148</ele>
        <time>2021-09-15T09:05:41Z</time>
      </trkpt>
      <trkpt lat="42.56291" lon="1.88971">
        <ele>2148</ele>
        <time>2021-09-15T09:05:46Z</time>
      </trkpt>
      <trkpt lat="42.56298" lon="1.88975">
        <ele>2149</ele>
        <time>2021-09-15T09:05:54Z</time>
      </trkpt>
      <trkpt lat="42.56299" lon="1.88977">
        <ele>2149</ele>
        <time>2021-09-15T09:05:57Z</time>
      </trkpt>
      <trkpt lat="42.56298" lon="1.8898">
        <ele>2149</ele>
        <time>2021-09-15T09:06:00Z</time>
      </trkpt>
      <trkpt lat="42.56301" lon="1.88991">
        <ele>2149</ele>
        <time>2021-09-15T09:06:14Z</time>
      </trkpt>
      <trkpt lat="42.56301" lon="1.88993">
        <ele>2149</ele>
        <time>2021-09-15T09:06:17Z</time>
      </trkpt>
      <trkpt lat="42.56302" lon="1.88996">
        <ele>2149</ele>
        <time>2021-09-15T09:06:20Z</time>
      </trkpt>
      <trkpt lat="42.56304" lon="1.88998">
        <ele>2150</ele>
        <time>2021-09-15T09:06:23Z</time>
      </trkpt>
      <trkpt lat="42.56306" lon="1.89002">
        <ele>2150</ele>
        <time>2021-09-15T09:06:28Z</time>
      </trkpt>
      <trkpt lat="42.56309" lon="1.89007">
        <ele>2151</ele>
        <time>2021-09-15T09:06:34Z</time>
      </trkpt>
      <trkpt lat="42.56312" lon="1.89015">
        <ele>2151</ele>
        <time>2021-09-15T09:06:41Z</time>
      </trkpt>
      <trkpt lat="42.56315" lon="1.89019">
        <ele>2151</ele>
        <time>2021-09-15T09:06:45Z</time>
      </trkpt>
      <trkpt lat="42.56322" lon="1.89025">
        <ele>2152</ele>
        <time>2021-09-15T09:06:53Z</time>
      </trkpt>
      <trkpt lat="42.56327" lon="1.89028">
        <ele>2152</ele>
        <time>2021-09-15T09:06:57Z</time>
      </trkpt>
      <trkpt lat="42.5633" lon="1.89031">
        <ele>2151</ele>
        <time>2021-09-15T09:07:02Z</time>
      </trkpt>
      <trkpt lat="42.56332" lon="1.89031">
        <ele>2151</ele>
        <time>2021-09-15T09:07:04Z</time>
      </trkpt>
      <trkpt lat="42.56336" lon="1.89032">
        <ele>2151</ele>
        <time>2021-09-15T09:07:09Z</time>
      </trkpt>
      <trkpt lat="42.56344" lon="1.89034">
        <ele>2150</ele>
        <time>2021-09-15T09:07:17Z</time>
      </trkpt>
      <trkpt lat="42.56344" lon="1.89036">
        <ele>2150</ele>
        <time>2021-09-15T09:07:25Z</time>
      </trkpt>
      <trkpt lat="42.56342" lon="1.89036">
        <ele>2149</ele>
        <time>2021-09-15T09:07:27Z</time>
      </trkpt>
      <trkpt lat="42.56341" lon="1.89038">
        <ele>2149</ele>
        <time>2021-09-15T09:07:29Z</time>
      </trkpt>
      <trkpt lat="42.5634" lon="1.89041">
        <ele>2148</ele>
        <time>2021-09-15T09:07:31Z</time>
      </trkpt>
      <trkpt lat="42.56341" lon="1.89043">
        <ele>2148</ele>
        <time>2021-09-15T09:07:33Z</time>
      </trkpt>
      <trkpt lat="42.56342" lon="1.89048">
        <ele>2148</ele>
        <time>2021-09-15T09:07:37Z</time>
      </trkpt>
      <trkpt lat="42.56345" lon="1.8906">
        <ele>2147</ele>
        <time>2021-09-15T09:07:45Z</time>
      </trkpt>
      <trkpt lat="42.56346" lon="1.89063">
        <ele>2147</ele>
        <time>2021-09-15T09:07:47Z</time>
      </trkpt>
      <trkpt lat="42.56348" lon="1.89065">
        <ele>2146</ele>
        <time>2021-09-15T09:07:49Z</time>
      </trkpt>
      <trkpt lat="42.56374" lon="1.8909">
        <ele>2143</ele>
        <time>2021-09-15T09:08:19Z</time>
      </trkpt>
      <trkpt lat="42.56381" lon="1.89096">
        <ele>2143</ele>
        <time>2021-09-15T09:08:29Z</time>
      </trkpt>
      <trkpt lat="42.56388" lon="1.89097">
        <ele>2144</ele>
        <time>2021-09-15T09:08:36Z</time>
      </trkpt>
      <trkpt lat="42.5639" lon="1.89097">
        <ele>2144</ele>
        <time>2021-09-15T09:08:39Z</time>
      </trkpt>
      <trkpt lat="42.56391" lon="1.89098">
        <ele>2144</ele>
        <time>2021-09-15T09:08:44Z</time>
      </trkpt>
      <trkpt lat="42.56399" lon="1.891">
        <ele>2144</ele>
        <time>2021-09-15T09:08:53Z</time>
      </trkpt>
      <trkpt lat="42.564" lon="1.89099">
        <ele>2144</ele>
        <time>2021-09-15T09:08:55Z</time>
      </trkpt>
      <trkpt lat="42.56404" lon="1.891">
        <ele>2144</ele>
        <time>2021-09-15T09:08:59Z</time>
      </trkpt>
      <trkpt lat="42.56406" lon="1.89099">
        <ele>2144</ele>
        <time>2021-09-15T09:09:01Z</time>
      </trkpt>
      <trkpt lat="42.5641" lon="1.89099">
        <ele>2144</ele>
        <time>2021-09-15T09:09:06Z</time>
      </trkpt>
      <trkpt lat="42.56419" lon="1.89101">
        <ele>2145</ele>
        <time>2021-09-15T09:09:14Z</time>
      </trkpt>
      <trkpt lat="42.5642" lon="1.891">
        <ele>2146</ele>
        <time>2021-09-15T09:09:18Z</time>
      </trkpt>
      <trkpt lat="42.56422" lon="1.89095">
        <ele>2146</ele>
        <time>2021-09-15T09:09:23Z</time>
      </trkpt>
      <trkpt lat="42.56423" lon="1.89093">
        <ele>2146</ele>
        <time>2021-09-15T09:09:25Z</time>
      </trkpt>
      <trkpt lat="42.56423" lon="1.8909">
        <ele>2147</ele>
        <time>2021-09-15T09:09:28Z</time>
      </trkpt>
      <trkpt lat="42.56423" lon="1.89087">
        <ele>2147</ele>
        <time>2021-09-15T09:09:31Z</time>
      </trkpt>
      <trkpt lat="42.56424" lon="1.89086">
        <ele>2147</ele>
        <time>2021-09-15T09:09:38Z</time>
      </trkpt>
      <trkpt lat="42.56433" lon="1.89088">
        <ele>2148</ele>
        <time>2021-09-15T09:09:46Z</time>
      </trkpt>
      <trkpt lat="42.56435" lon="1.89088">
        <ele>2148</ele>
        <time>2021-09-15T09:09:48Z</time>
      </trkpt>
      <trkpt lat="42.56444" lon="1.89089">
        <ele>2147</ele>
        <time>2021-09-15T09:09:59Z</time>
      </trkpt>
      <trkpt lat="42.56448" lon="1.89086">
        <ele>2147</ele>
        <time>2021-09-15T09:10:03Z</time>
      </trkpt>
      <trkpt lat="42.56453" lon="1.89083">
        <ele>2147</ele>
        <time>2021-09-15T09:10:09Z</time>
      </trkpt>
      <trkpt lat="42.56455" lon="1.89082">
        <ele>2147</ele>
        <time>2021-09-15T09:10:11Z</time>
      </trkpt>
      <trkpt lat="42.56458" lon="1.89079">
        <ele>2147</ele>
        <time>2021-09-15T09:10:15Z</time>
      </trkpt>
      <trkpt lat="42.5646" lon="1.89073">
        <ele>2146</ele>
        <time>2021-09-15T09:10:21Z</time>
      </trkpt>
      <trkpt lat="42.56463" lon="1.89066">
        <ele>2146</ele>
        <time>2021-09-15T09:10:27Z</time>
      </trkpt>
      <trkpt lat="42.56465" lon="1.89065">
        <ele>2145</ele>
        <time>2021-09-15T09:10:36Z</time>
      </trkpt>
      <trkpt lat="42.56474" lon="1.89054">
        <ele>2146</ele>
        <time>2021-09-15T09:10:51Z</time>
      </trkpt>
      <trkpt lat="42.56477" lon="1.89048">
        <ele>2146</ele>
        <time>2021-09-15T09:10:58Z</time>
      </trkpt>
      <trkpt lat="42.56479" lon="1.89047">
        <ele>2147</ele>
        <time>2021-09-15T09:11:00Z</time>
      </trkpt>
      <trkpt lat="42.56481" lon="1.89047">
        <ele>2147</ele>
        <time>2021-09-15T09:11:03Z</time>
      </trkpt>
      <trkpt lat="42.56483" lon="1.89049">
        <ele>2147</ele>
        <time>2021-09-15T09:11:05Z</time>
      </trkpt>
      <trkpt lat="42.56488" lon="1.89047">
        <ele>2147</ele>
        <time>2021-09-15T09:11:09Z</time>
      </trkpt>
      <trkpt lat="42.5649" lon="1.89046">
        <ele>2147</ele>
        <time>2021-09-15T09:11:11Z</time>
      </trkpt>
      <trkpt lat="42.56495" lon="1.8904">
        <ele>2148</ele>
        <time>2021-09-15T09:11:21Z</time>
      </trkpt>
      <trkpt lat="42.56497" lon="1.89037">
        <ele>2149</ele>
        <time>2021-09-15T09:11:28Z</time>
      </trkpt>
      <trkpt lat="42.56498" lon="1.89035">
        <ele>2150</ele>
        <time>2021-09-15T09:11:30Z</time>
      </trkpt>
      <trkpt lat="42.56499" lon="1.89033">
        <ele>2150</ele>
        <time>2021-09-15T09:11:33Z</time>
      </trkpt>
      <trkpt lat="42.56501" lon="1.8903">
        <ele>2151</ele>
        <time>2021-09-15T09:11:35Z</time>
      </trkpt>
      <trkpt lat="42.56503" lon="1.89029">
        <ele>2151</ele>
        <time>2021-09-15T09:11:37Z</time>
      </trkpt>
      <trkpt lat="42.56505" lon="1.89028">
        <ele>2151</ele>
        <time>2021-09-15T09:11:39Z</time>
      </trkpt>
      <trkpt lat="42.56508" lon="1.89029">
        <ele>2151</ele>
        <time>2021-09-15T09:11:41Z</time>
      </trkpt>
      <trkpt lat="42.56512" lon="1.89032">
        <ele>2151</ele>
        <time>2021-09-15T09:11:47Z</time>
      </trkpt>
      <trkpt lat="42.56516" lon="1.89032">
        <ele>2151</ele>
        <time>2021-09-15T09:11:51Z</time>
      </trkpt>
      <trkpt lat="42.56522" lon="1.89031">
        <ele>2151</ele>
        <time>2021-09-15T09:11:57Z</time>
      </trkpt>
      <trkpt lat="42.56523" lon="1.8903">
        <ele>2152</ele>
        <time>2021-09-15T09:12:02Z</time>
      </trkpt>
      <trkpt lat="42.56524" lon="1.89029">
        <ele>2152</ele>
        <time>2021-09-15T09:12:07Z</time>
      </trkpt>
      <trkpt lat="42.56527" lon="1.89026">
        <ele>2152</ele>
        <time>2021-09-15T09:12:12Z</time>
      </trkpt>
      <trkpt lat="42.5653" lon="1.89023">
        <ele>2152</ele>
        <time>2021-09-15T09:12:16Z</time>
      </trkpt>
      <trkpt lat="42.56536" lon="1.89021">
        <ele>2151</ele>
        <time>2021-09-15T09:12:24Z</time>
      </trkpt>
      <trkpt lat="42.5656" lon="1.89008">
        <ele>2149</ele>
        <time>2021-09-15T09:12:54Z</time>
      </trkpt>
      <trkpt lat="42.56567" lon="1.89006">
        <ele>2149</ele>
        <time>2021-09-15T09:13:03Z</time>
      </trkpt>
      <trkpt lat="42.56573" lon="1.89001">
        <ele>2149</ele>
        <time>2021-09-15T09:13:09Z</time>
      </trkpt>
      <trkpt lat="42.56575" lon="1.89002">
        <ele>2149</ele>
        <time>2021-09-15T09:13:11Z</time>
      </trkpt>
      <trkpt lat="42.56576" lon="1.89004">
        <ele>2149</ele>
        <time>2021-09-15T09:13:15Z</time>
      </trkpt>
      <trkpt lat="42.56581" lon="1.89009">
        <ele>2149</ele>
        <time>2021-09-15T09:13:24Z</time>
      </trkpt>
      <trkpt lat="42.56583" lon="1.8901">
        <ele>2148</ele>
        <time>2021-09-15T09:13:26Z</time>
      </trkpt>
      <trkpt lat="42.56588" lon="1.89011">
        <ele>2148</ele>
        <time>2021-09-15T09:13:30Z</time>
      </trkpt>
      <trkpt lat="42.56591" lon="1.8901">
        <ele>2148</ele>
        <time>2021-09-15T09:13:32Z</time>
      </trkpt>
      <trkpt lat="42.56592" lon="1.8901">
        <ele>2148</ele>
        <time>2021-09-15T09:13:34Z</time>
      </trkpt>
      <trkpt lat="42.56594" lon="1.89012">
        <ele>2148</ele>
        <time>2021-09-15T09:13:37Z</time>
      </trkpt>
      <trkpt lat="42.56598" lon="1.89014">
        <ele>2148</ele>
        <time>2021-09-15T09:13:41Z</time>
      </trkpt>
      <trkpt lat="42.56601" lon="1.89014">
        <ele>2148</ele>
        <time>2021-09-15T09:13:43Z</time>
      </trkpt>
      <trkpt lat="42.56605" lon="1.89017">
        <ele>2148</ele>
        <time>2021-09-15T09:13:47Z</time>
      </trkpt>
      <trkpt lat="42.56609" lon="1.89023">
        <ele>2148</ele>
        <time>2021-09-15T09:13:51Z</time>
      </trkpt>
      <trkpt lat="42.5661" lon="1.89026">
        <ele>2148</ele>
        <time>2021-09-15T09:13:53Z</time>
      </trkpt>
      <trkpt lat="42.56612" lon="1.89029">
        <ele>2148</ele>
        <time>2021-09-15T09:13:55Z</time>
      </trkpt>
      <trkpt lat="42.56615" lon="1.8903">
        <ele>2148</ele>
        <time>2021-09-15T09:13:57Z</time>
      </trkpt>
      <trkpt lat="42.56617" lon="1.8903">
        <ele>2148</ele>
        <time>2021-09-15T09:13:59Z</time>
      </trkpt>
      <trkpt lat="42.56623" lon="1.89032">
        <ele>2148</ele>
        <time>2021-09-15T09:14:06Z</time>
      </trkpt>
      <trkpt lat="42.56635" lon="1.89031">
        <ele>2148</ele>
        <time>2021-09-15T09:14:14Z</time>
      </trkpt>
      <trkpt lat="42.56637" lon="1.89032">
        <ele>2147</ele>
        <time>2021-09-15T09:14:16Z</time>
      </trkpt>
      <trkpt lat="42.56639" lon="1.89032">
        <ele>2147</ele>
        <time>2021-09-15T09:14:19Z</time>
      </trkpt>
      <trkpt lat="42.56641" lon="1.89031">
        <ele>2146</ele>
        <time>2021-09-15T09:14:21Z</time>
      </trkpt>
      <trkpt lat="42.56643" lon="1.8903">
        <ele>2146</ele>
        <time>2021-09-15T09:14:23Z</time>
      </trkpt>
      <trkpt lat="42.56646" lon="1.89029">
        <ele>2146</ele>
        <time>2021-09-15T09:14:25Z</time>
      </trkpt>
      <trkpt lat="42.56653" lon="1.89019">
        <ele>2147</ele>
        <time>2021-09-15T09:14:34Z</time>
      </trkpt>
      <trkpt lat="42.56654" lon="1.89018">
        <ele>2147</ele>
        <time>2021-09-15T09:14:36Z</time>
      </trkpt>
      <trkpt lat="42.56658" lon="1.89012">
        <ele>2148</ele>
        <time>2021-09-15T09:14:40Z</time>
      </trkpt>
      <trkpt lat="42.56659" lon="1.89009">
        <ele>2148</ele>
        <time>2021-09-15T09:14:41Z</time>
      </trkpt>
      <trkpt lat="42.56662" lon="1.89004">
        <ele>2148</ele>
        <time>2021-09-15T09:14:44Z</time>
      </trkpt>
      <trkpt lat="42.56663" lon="1.89003">
        <ele>2149</ele>
        <time>2021-09-15T09:14:46Z</time>
      </trkpt>
      <trkpt lat="42.56665" lon="1.89001">
        <ele>2150</ele>
        <time>2021-09-15T09:14:49Z</time>
      </trkpt>
      <trkpt lat="42.56668" lon="1.88998">
        <ele>2151</ele>
        <time>2021-09-15T09:14:58Z</time>
      </trkpt>
      <trkpt lat="42.56678" lon="1.88989">
        <ele>2152</ele>
        <time>2021-09-15T09:15:09Z</time>
      </trkpt>
      <trkpt lat="42.56682" lon="1.88989">
        <ele>2151</ele>
        <time>2021-09-15T09:15:13Z</time>
      </trkpt>
      <trkpt lat="42.56687" lon="1.88991">
        <ele>2151</ele>
        <time>2021-09-15T09:15:17Z</time>
      </trkpt>
      <trkpt lat="42.56689" lon="1.8899">
        <ele>2151</ele>
        <time>2021-09-15T09:15:19Z</time>
      </trkpt>
      <trkpt lat="42.56693" lon="1.88992">
        <ele>2150</ele>
        <time>2021-09-15T09:15:27Z</time>
      </trkpt>
      <trkpt lat="42.56697" lon="1.88994">
        <ele>2150</ele>
        <time>2021-09-15T09:15:31Z</time>
      </trkpt>
      <trkpt lat="42.56706" lon="1.88997">
        <ele>2149</ele>
        <time>2021-09-15T09:15:39Z</time>
      </trkpt>
      <trkpt lat="42.56713" lon="1.89002">
        <ele>2149</ele>
        <time>2021-09-15T09:15:47Z</time>
      </trkpt>
      <trkpt lat="42.56715" lon="1.89003">
        <ele>2149</ele>
        <time>2021-09-15T09:15:49Z</time>
      </trkpt>
      <trkpt lat="42.5672" lon="1.89011">
        <ele>2149</ele>
        <time>2021-09-15T09:15:58Z</time>
      </trkpt>
      <trkpt lat="42.56728" lon="1.89021">
        <ele>2148</ele>
        <time>2021-09-15T09:16:06Z</time>
      </trkpt>
      <trkpt lat="42.56729" lon="1.89022">
        <ele>2148</ele>
        <time>2021-09-15T09:16:08Z</time>
      </trkpt>
      <trkpt lat="42.56742" lon="1.8903">
        <ele>2147</ele>
        <time>2021-09-15T09:16:26Z</time>
      </trkpt>
      <trkpt lat="42.56743" lon="1.89033">
        <ele>2148</ele>
        <time>2021-09-15T09:16:28Z</time>
      </trkpt>
      <trkpt lat="42.56744" lon="1.89034">
        <ele>2148</ele>
        <time>2021-09-15T09:16:30Z</time>
      </trkpt>
      <trkpt lat="42.56746" lon="1.89035">
        <ele>2148</ele>
        <time>2021-09-15T09:16:32Z</time>
      </trkpt>
      <trkpt lat="42.56751" lon="1.89035">
        <ele>2147</ele>
        <time>2021-09-15T09:16:36Z</time>
      </trkpt>
      <trkpt lat="42.56771" lon="1.89034">
        <ele>2148</ele>
        <time>2021-09-15T09:16:58Z</time>
      </trkpt>
      <trkpt lat="42.56773" lon="1.89033">
        <ele>2148</ele>
        <time>2021-09-15T09:17:00Z</time>
      </trkpt>
      <trkpt lat="42.56779" lon="1.89032">
        <ele>2148</ele>
        <time>2021-09-15T09:17:07Z</time>
      </trkpt>
      <trkpt lat="42.56781" lon="1.89033">
        <ele>2148</ele>
        <time>2021-09-15T09:17:10Z</time>
      </trkpt>
      <trkpt lat="42.56784" lon="1.8903">
        <ele>2149</ele>
        <time>2021-09-15T09:17:14Z</time>
      </trkpt>
      <trkpt lat="42.56791" lon="1.89025">
        <ele>2149</ele>
        <time>2021-09-15T09:17:21Z</time>
      </trkpt>
      <trkpt lat="42.56798" lon="1.8902">
        <ele>2150</ele>
        <time>2021-09-15T09:17:29Z</time>
      </trkpt>
      <trkpt lat="42.56803" lon="1.89015">
        <ele>2150</ele>
        <time>2021-09-15T09:17:35Z</time>
      </trkpt>
      <trkpt lat="42.56807" lon="1.89011">
        <ele>2150</ele>
        <time>2021-09-15T09:17:38Z</time>
      </trkpt>
      <trkpt lat="42.56808" lon="1.89009">
        <ele>2150</ele>
        <time>2021-09-15T09:17:40Z</time>
      </trkpt>
      <trkpt lat="42.56809" lon="1.89006">
        <ele>2150</ele>
        <time>2021-09-15T09:17:42Z</time>
      </trkpt>
      <trkpt lat="42.56812" lon="1.89005">
        <ele>2150</ele>
        <time>2021-09-15T09:17:47Z</time>
      </trkpt>
      <trkpt lat="42.56814" lon="1.89003">
        <ele>2150</ele>
        <time>2021-09-15T09:17:50Z</time>
      </trkpt>
      <trkpt lat="42.56819" lon="1.88997">
        <ele>2150</ele>
        <time>2021-09-15T09:17:56Z</time>
      </trkpt>
      <trkpt lat="42.5682" lon="1.88995">
        <ele>2150</ele>
        <time>2021-09-15T09:17:58Z</time>
      </trkpt>
      <trkpt lat="42.56822" lon="1.88995">
        <ele>2150</ele>
        <time>2021-09-15T09:18:00Z</time>
      </trkpt>
      <trkpt lat="42.56827" lon="1.88994">
        <ele>2150</ele>
        <time>2021-09-15T09:18:04Z</time>
      </trkpt>
      <trkpt lat="42.56828" lon="1.88993">
        <ele>2150</ele>
        <time>2021-09-15T09:18:06Z</time>
      </trkpt>
      <trkpt lat="42.56832" lon="1.8899">
        <ele>2150</ele>
        <time>2021-09-15T09:18:10Z</time>
      </trkpt>
      <trkpt lat="42.56839" lon="1.88984">
        <ele>2149</ele>
        <time>2021-09-15T09:18:19Z</time>
      </trkpt>
      <trkpt lat="42.56845" lon="1.88981">
        <ele>2148</ele>
        <time>2021-09-15T09:18:26Z</time>
      </trkpt>
      <trkpt lat="42.56848" lon="1.8898">
        <ele>2148</ele>
        <time>2021-09-15T09:18:33Z</time>
      </trkpt>
      <trkpt lat="42.56855" lon="1.88982">
        <ele>2147</ele>
        <time>2021-09-15T09:18:41Z</time>
      </trkpt>
      <trkpt lat="42.56858" lon="1.8898">
        <ele>2147</ele>
        <time>2021-09-15T09:18:45Z</time>
      </trkpt>
      <trkpt lat="42.5686" lon="1.8898">
        <ele>2146</ele>
        <time>2021-09-15T09:18:48Z</time>
      </trkpt>
      <trkpt lat="42.56871" lon="1.88985">
        <ele>2142</ele>
        <time>2021-09-15T09:19:02Z</time>
      </trkpt>
      <trkpt lat="42.56877" lon="1.88989">
        <ele>2140</ele>
        <time>2021-09-15T09:19:08Z</time>
      </trkpt>
      <trkpt lat="42.56878" lon="1.8899">
        <ele>2140</ele>
        <time>2021-09-15T09:19:11Z</time>
      </trkpt>
      <trkpt lat="42.56879" lon="1.88996">
        <ele>2139</ele>
        <time>2021-09-15T09:19:16Z</time>
      </trkpt>
      <trkpt lat="42.56884" lon="1.89005">
        <ele>2138</ele>
        <time>2021-09-15T09:19:22Z</time>
      </trkpt>
      <trkpt lat="42.56885" lon="1.89006">
        <ele>2137</ele>
        <time>2021-09-15T09:19:24Z</time>
      </trkpt>
      <trkpt lat="42.56891" lon="1.89011">
        <ele>2136</ele>
        <time>2021-09-15T09:19:30Z</time>
      </trkpt>
      <trkpt lat="42.56893" lon="1.89012">
        <ele>2136</ele>
        <time>2021-09-15T09:19:33Z</time>
      </trkpt>
      <trkpt lat="42.56895" lon="1.89011">
        <ele>2136</ele>
        <time>2021-09-15T09:19:36Z</time>
      </trkpt>
      <trkpt lat="42.56897" lon="1.89011">
        <ele>2136</ele>
        <time>2021-09-15T09:19:38Z</time>
      </trkpt>
      <trkpt lat="42.56903" lon="1.8901">
        <ele>2135</ele>
        <time>2021-09-15T09:19:46Z</time>
      </trkpt>
      <trkpt lat="42.56906" lon="1.89011">
        <ele>2136</ele>
        <time>2021-09-15T09:19:50Z</time>
      </trkpt>
      <trkpt lat="42.56914" lon="1.89013">
        <ele>2136</ele>
        <time>2021-09-15T09:20:00Z</time>
      </trkpt>
      <trkpt lat="42.56915" lon="1.89012">
        <ele>2136</ele>
        <time>2021-09-15T09:20:02Z</time>
      </trkpt>
      <trkpt lat="42.56917" lon="1.89012">
        <ele>2136</ele>
        <time>2021-09-15T09:20:04Z</time>
      </trkpt>
      <trkpt lat="42.56918" lon="1.8901">
        <ele>2136</ele>
        <time>2021-09-15T09:20:06Z</time>
      </trkpt>
      <trkpt lat="42.56925" lon="1.89008">
        <ele>2137</ele>
        <time>2021-09-15T09:20:12Z</time>
      </trkpt>
      <trkpt lat="42.56927" lon="1.89007">
        <ele>2137</ele>
        <time>2021-09-15T09:20:15Z</time>
      </trkpt>
      <trkpt lat="42.56935" lon="1.89008">
        <ele>2138</ele>
        <time>2021-09-15T09:20:24Z</time>
      </trkpt>
      <trkpt lat="42.56936" lon="1.89009">
        <ele>2138</ele>
        <time>2021-09-15T09:20:26Z</time>
      </trkpt>
      <trkpt lat="42.56947" lon="1.89008">
        <ele>2139</ele>
        <time>2021-09-15T09:20:38Z</time>
      </trkpt>
      <trkpt lat="42.56953" lon="1.8901">
        <ele>2139</ele>
        <time>2021-09-15T09:20:45Z</time>
      </trkpt>
      <trkpt lat="42.56955" lon="1.8901">
        <ele>2139</ele>
        <time>2021-09-15T09:20:47Z</time>
      </trkpt>
      <trkpt lat="42.56957" lon="1.8901">
        <ele>2139</ele>
        <time>2021-09-15T09:20:49Z</time>
      </trkpt>
      <trkpt lat="42.56965" lon="1.8901">
        <ele>2138</ele>
        <time>2021-09-15T09:20:57Z</time>
      </trkpt>
      <trkpt lat="42.56967" lon="1.89009">
        <ele>2138</ele>
        <time>2021-09-15T09:20:59Z</time>
      </trkpt>
      <trkpt lat="42.56969" lon="1.89008">
        <ele>2138</ele>
        <time>2021-09-15T09:21:01Z</time>
      </trkpt>
      <trkpt lat="42.56973" lon="1.89009">
        <ele>2138</ele>
        <time>2021-09-15T09:21:06Z</time>
      </trkpt>
      <trkpt lat="42.56977" lon="1.8901">
        <ele>2139</ele>
        <time>2021-09-15T09:21:10Z</time>
      </trkpt>
      <trkpt lat="42.56983" lon="1.89009">
        <ele>2139</ele>
        <time>2021-09-15T09:21:20Z</time>
      </trkpt>
      <trkpt lat="42.56993" lon="1.89015">
        <ele>2140</ele>
        <time>2021-09-15T09:21:32Z</time>
      </trkpt>
      <trkpt lat="42.57" lon="1.8902">
        <ele>2141</ele>
        <time>2021-09-15T09:21:42Z</time>
      </trkpt>
      <trkpt lat="42.57007" lon="1.89022">
        <ele>2141</ele>
        <time>2021-09-15T09:21:53Z</time>
      </trkpt>
      <trkpt lat="42.57015" lon="1.89026">
        <ele>2142</ele>
        <time>2021-09-15T09:22:02Z</time>
      </trkpt>
      <trkpt lat="42.57019" lon="1.89025">
        <ele>2142</ele>
        <time>2021-09-15T09:22:07Z</time>
      </trkpt>
      <trkpt lat="42.57022" lon="1.89023">
        <ele>2143</ele>
        <time>2021-09-15T09:22:11Z</time>
      </trkpt>
      <trkpt lat="42.57026" lon="1.89024">
        <ele>2144</ele>
        <time>2021-09-15T09:23:37Z</time>
      </trkpt>
      <trkpt lat="42.57027" lon="1.89026">
        <ele>2144</ele>
        <time>2021-09-15T09:23:40Z</time>
      </trkpt>
      <trkpt lat="42.5703" lon="1.89028">
        <ele>2145</ele>
        <time>2021-09-15T09:23:48Z</time>
      </trkpt>
      <trkpt lat="42.57032" lon="1.89028">
        <ele>2145</ele>
        <time>2021-09-15T09:23:51Z</time>
      </trkpt>
      <trkpt lat="42.57047" lon="1.89042">
        <ele>2144</ele>
        <time>2021-09-15T09:24:10Z</time>
      </trkpt>
      <trkpt lat="42.57051" lon="1.89042">
        <ele>2144</ele>
        <time>2021-09-15T09:24:16Z</time>
      </trkpt>
      <trkpt lat="42.57055" lon="1.89042">
        <ele>2145</ele>
        <time>2021-09-15T09:24:24Z</time>
      </trkpt>
      <trkpt lat="42.57059" lon="1.89043">
        <ele>2145</ele>
        <time>2021-09-15T09:24:30Z</time>
      </trkpt>
      <trkpt lat="42.5706" lon="1.89043">
        <ele>2145</ele>
        <time>2021-09-15T09:24:34Z</time>
      </trkpt>
      <trkpt lat="42.57063" lon="1.89042">
        <ele>2146</ele>
        <time>2021-09-15T09:24:39Z</time>
      </trkpt>
      <trkpt lat="42.57064" lon="1.89041">
        <ele>2146</ele>
        <time>2021-09-15T09:24:42Z</time>
      </trkpt>
      <trkpt lat="42.57068" lon="1.89043">
        <ele>2147</ele>
        <time>2021-09-15T09:24:49Z</time>
      </trkpt>
      <trkpt lat="42.57069" lon="1.89042">
        <ele>2147</ele>
        <time>2021-09-15T09:24:53Z</time>
      </trkpt>
      <trkpt lat="42.57078" lon="1.89042">
        <ele>2148</ele>
        <time>2021-09-15T09:25:23Z</time>
      </trkpt>
      <trkpt lat="42.57083" lon="1.89044">
        <ele>2148</ele>
        <time>2021-09-15T09:25:30Z</time>
      </trkpt>
      <trkpt lat="42.57089" lon="1.89043">
        <ele>2148</ele>
        <time>2021-09-15T09:25:36Z</time>
      </trkpt>
      <trkpt lat="42.57091" lon="1.89043">
        <ele>2148</ele>
        <time>2021-09-15T09:25:40Z</time>
      </trkpt>
      <trkpt lat="42.57095" lon="1.89037">
        <ele>2149</ele>
        <time>2021-09-15T09:25:51Z</time>
      </trkpt>
      <trkpt lat="42.57098" lon="1.89033">
        <ele>2149</ele>
        <time>2021-09-15T09:26:01Z</time>
      </trkpt>
      <trkpt lat="42.571" lon="1.89032">
        <ele>2149</ele>
        <time>2021-09-15T09:26:03Z</time>
      </trkpt>
      <trkpt lat="42.57102" lon="1.89032">
        <ele>2149</ele>
        <time>2021-09-15T09:26:06Z</time>
      </trkpt>
      <trkpt lat="42.57104" lon="1.89033">
        <ele>2150</ele>
        <time>2021-09-15T09:26:09Z</time>
      </trkpt>
      <trkpt lat="42.57105" lon="1.89035">
        <ele>2150</ele>
        <time>2021-09-15T09:26:17Z</time>
      </trkpt>
      <trkpt lat="42.57105" lon="1.8904">
        <ele>2150</ele>
        <time>2021-09-15T09:26:21Z</time>
      </trkpt>
      <trkpt lat="42.57107" lon="1.89045">
        <ele>2150</ele>
        <time>2021-09-15T09:26:26Z</time>
      </trkpt>
      <trkpt lat="42.57108" lon="1.89045">
        <ele>2150</ele>
        <time>2021-09-15T09:26:33Z</time>
      </trkpt>
      <trkpt lat="42.57112" lon="1.89048">
        <ele>2151</ele>
        <time>2021-09-15T09:26:48Z</time>
      </trkpt>
      <trkpt lat="42.57114" lon="1.89052">
        <ele>2151</ele>
        <time>2021-09-15T09:26:52Z</time>
      </trkpt>
      <trkpt lat="42.57115" lon="1.89054">
        <ele>2151</ele>
        <time>2021-09-15T09:26:55Z</time>
      </trkpt>
      <trkpt lat="42.57119" lon="1.89057">
        <ele>2151</ele>
        <time>2021-09-15T09:27:00Z</time>
      </trkpt>
      <trkpt lat="42.57123" lon="1.89057">
        <ele>2150</ele>
        <time>2021-09-15T09:27:04Z</time>
      </trkpt>
      <trkpt lat="42.5713" lon="1.89056">
        <ele>2150</ele>
        <time>2021-09-15T09:27:14Z</time>
      </trkpt>
      <trkpt lat="42.57133" lon="1.89061">
        <ele>2150</ele>
        <time>2021-09-15T09:27:31Z</time>
      </trkpt>
      <trkpt lat="42.57134" lon="1.89064">
        <ele>2151</ele>
        <time>2021-09-15T09:27:34Z</time>
      </trkpt>
      <trkpt lat="42.57134" lon="1.8907">
        <ele>2151</ele>
        <time>2021-09-15T09:27:38Z</time>
      </trkpt>
      <trkpt lat="42.57135" lon="1.89074">
        <ele>2151</ele>
        <time>2021-09-15T09:27:40Z</time>
      </trkpt>
      <trkpt lat="42.57137" lon="1.89077">
        <ele>2151</ele>
        <time>2021-09-15T09:27:42Z</time>
      </trkpt>
      <trkpt lat="42.57138" lon="1.89078">
        <ele>2151</ele>
        <time>2021-09-15T09:27:44Z</time>
      </trkpt>
      <trkpt lat="42.57142" lon="1.8908">
        <ele>2150</ele>
        <time>2021-09-15T09:27:48Z</time>
      </trkpt>
      <trkpt lat="42.57144" lon="1.89082">
        <ele>2150</ele>
        <time>2021-09-15T09:27:50Z</time>
      </trkpt>
      <trkpt lat="42.57151" lon="1.89088">
        <ele>2150</ele>
        <time>2021-09-15T09:28:00Z</time>
      </trkpt>
      <trkpt lat="42.57154" lon="1.89089">
        <ele>2151</ele>
        <time>2021-09-15T09:28:04Z</time>
      </trkpt>
      <trkpt lat="42.57156" lon="1.8909">
        <ele>2151</ele>
        <time>2021-09-15T09:28:08Z</time>
      </trkpt>
      <trkpt lat="42.57158" lon="1.8909">
        <ele>2151</ele>
        <time>2021-09-15T09:28:11Z</time>
      </trkpt>
      <trkpt lat="42.57164" lon="1.89094">
        <ele>2151</ele>
        <time>2021-09-15T09:28:19Z</time>
      </trkpt>
      <trkpt lat="42.57165" lon="1.89096">
        <ele>2151</ele>
        <time>2021-09-15T09:28:22Z</time>
      </trkpt>
      <trkpt lat="42.57168" lon="1.89098">
        <ele>2152</ele>
        <time>2021-09-15T09:28:26Z</time>
      </trkpt>
      <trkpt lat="42.5717" lon="1.89102">
        <ele>2152</ele>
        <time>2021-09-15T09:28:31Z</time>
      </trkpt>
      <trkpt lat="42.57172" lon="1.89106">
        <ele>2152</ele>
        <time>2021-09-15T09:28:35Z</time>
      </trkpt>
      <trkpt lat="42.57174" lon="1.89108">
        <ele>2151</ele>
        <time>2021-09-15T09:28:37Z</time>
      </trkpt>
      <trkpt lat="42.57176" lon="1.89108">
        <ele>2151</ele>
        <time>2021-09-15T09:28:39Z</time>
      </trkpt>
      <trkpt lat="42.57176" lon="1.89114">
        <ele>2150</ele>
        <time>2021-09-15T09:28:47Z</time>
      </trkpt>
      <trkpt lat="42.57177" lon="1.89116">
        <ele>2150</ele>
        <time>2021-09-15T09:28:50Z</time>
      </trkpt>
      <trkpt lat="42.57183" lon="1.89118">
        <ele>2148</ele>
        <time>2021-09-15T09:28:57Z</time>
      </trkpt>
      <trkpt lat="42.57186" lon="1.8912">
        <ele>2148</ele>
        <time>2021-09-15T09:28:59Z</time>
      </trkpt>
      <trkpt lat="42.57188" lon="1.8912">
        <ele>2148</ele>
        <time>2021-09-15T09:29:01Z</time>
      </trkpt>
      <trkpt lat="42.57191" lon="1.8912">
        <ele>2147</ele>
        <time>2021-09-15T09:29:06Z</time>
      </trkpt>
      <trkpt lat="42.57193" lon="1.89122">
        <ele>2146</ele>
        <time>2021-09-15T09:29:09Z</time>
      </trkpt>
      <trkpt lat="42.57196" lon="1.89129">
        <ele>2145</ele>
        <time>2021-09-15T09:29:15Z</time>
      </trkpt>
      <trkpt lat="42.5721" lon="1.89139">
        <ele>2145</ele>
        <time>2021-09-15T09:29:35Z</time>
      </trkpt>
      <trkpt lat="42.57213" lon="1.8914">
        <ele>2145</ele>
        <time>2021-09-15T09:29:37Z</time>
      </trkpt>
      <trkpt lat="42.57215" lon="1.89139">
        <ele>2145</ele>
        <time>2021-09-15T09:29:39Z</time>
      </trkpt>
      <trkpt lat="42.57219" lon="1.8914">
        <ele>2145</ele>
        <time>2021-09-15T09:29:44Z</time>
      </trkpt>
      <trkpt lat="42.57221" lon="1.89141">
        <ele>2145</ele>
        <time>2021-09-15T09:29:47Z</time>
      </trkpt>
      <trkpt lat="42.57226" lon="1.8914">
        <ele>2145</ele>
        <time>2021-09-15T09:29:51Z</time>
      </trkpt>
      <trkpt lat="42.57229" lon="1.8914">
        <ele>2145</ele>
        <time>2021-09-15T09:29:53Z</time>
      </trkpt>
      <trkpt lat="42.57233" lon="1.89141">
        <ele>2145</ele>
        <time>2021-09-15T09:29:57Z</time>
      </trkpt>
      <trkpt lat="42.57235" lon="1.89143">
        <ele>2145</ele>
        <time>2021-09-15T09:29:59Z</time>
      </trkpt>
      <trkpt lat="42.57237" lon="1.89146">
        <ele>2145</ele>
        <time>2021-09-15T09:30:01Z</time>
      </trkpt>
      <trkpt lat="42.57238" lon="1.89148">
        <ele>2145</ele>
        <time>2021-09-15T09:30:02Z</time>
      </trkpt>
      <trkpt lat="42.57238" lon="1.8915">
        <ele>2145</ele>
        <time>2021-09-15T09:30:04Z</time>
      </trkpt>
      <trkpt lat="42.57238" lon="1.89153">
        <ele>2145</ele>
        <time>2021-09-15T09:30:06Z</time>
      </trkpt>
      <trkpt lat="42.5724" lon="1.89159">
        <ele>2145</ele>
        <time>2021-09-15T09:30:10Z</time>
      </trkpt>
      <trkpt lat="42.57242" lon="1.8916">
        <ele>2145</ele>
        <time>2021-09-15T09:30:12Z</time>
      </trkpt>
      <trkpt lat="42.57242" lon="1.89163">
        <ele>2145</ele>
        <time>2021-09-15T09:30:14Z</time>
      </trkpt>
      <trkpt lat="42.57243" lon="1.89166">
        <ele>2145</ele>
        <time>2021-09-15T09:30:16Z</time>
      </trkpt>
      <trkpt lat="42.57253" lon="1.89177">
        <ele>2146</ele>
        <time>2021-09-15T09:30:28Z</time>
      </trkpt>
      <trkpt lat="42.57254" lon="1.89178">
        <ele>2146</ele>
        <time>2021-09-15T09:30:30Z</time>
      </trkpt>
      <trkpt lat="42.57257" lon="1.89183">
        <ele>2147</ele>
        <time>2021-09-15T09:30:34Z</time>
      </trkpt>
      <trkpt lat="42.57263" lon="1.8919">
        <ele>2147</ele>
        <time>2021-09-15T09:30:42Z</time>
      </trkpt>
      <trkpt lat="42.57271" lon="1.89193">
        <ele>2146</ele>
        <time>2021-09-15T09:30:51Z</time>
      </trkpt>
      <trkpt lat="42.57273" lon="1.89192">
        <ele>2146</ele>
        <time>2021-09-15T09:30:53Z</time>
      </trkpt>
      <trkpt lat="42.5728" lon="1.89188">
        <ele>2146</ele>
        <time>2021-09-15T09:30:59Z</time>
      </trkpt>
      <trkpt lat="42.57281" lon="1.89187">
        <ele>2146</ele>
        <time>2021-09-15T09:31:02Z</time>
      </trkpt>
      <trkpt lat="42.57288" lon="1.89184">
        <ele>2146</ele>
        <time>2021-09-15T09:31:09Z</time>
      </trkpt>
      <trkpt lat="42.57294" lon="1.89183">
        <ele>2146</ele>
        <time>2021-09-15T09:31:15Z</time>
      </trkpt>
      <trkpt lat="42.57296" lon="1.89183">
        <ele>2146</ele>
        <time>2021-09-15T09:31:17Z</time>
      </trkpt>
      <trkpt lat="42.57306" lon="1.89182">
        <ele>2146</ele>
        <time>2021-09-15T09:31:27Z</time>
      </trkpt>
      <trkpt lat="42.57315" lon="1.89182">
        <ele>2146</ele>
        <time>2021-09-15T09:31:35Z</time>
      </trkpt>
      <trkpt lat="42.57317" lon="1.89181">
        <ele>2146</ele>
        <time>2021-09-15T09:31:37Z</time>
      </trkpt>
      <trkpt lat="42.57323" lon="1.89184">
        <ele>2146</ele>
        <time>2021-09-15T09:31:44Z</time>
      </trkpt>
      <trkpt lat="42.57325" lon="1.89185">
        <ele>2146</ele>
        <time>2021-09-15T09:31:46Z</time>
      </trkpt>
      <trkpt lat="42.57326" lon="1.89187">
        <ele>2146</ele>
        <time>2021-09-15T09:31:48Z</time>
      </trkpt>
      <trkpt lat="42.57328" lon="1.89187">
        <ele>2146</ele>
        <time>2021-09-15T09:31:50Z</time>
      </trkpt>
      <trkpt lat="42.57334" lon="1.89188">
        <ele>2145</ele>
        <time>2021-09-15T09:31:57Z</time>
      </trkpt>
      <trkpt lat="42.57336" lon="1.89188">
        <ele>2145</ele>
        <time>2021-09-15T09:32:00Z</time>
      </trkpt>
      <trkpt lat="42.57348" lon="1.8919">
        <ele>2146</ele>
        <time>2021-09-15T09:32:14Z</time>
      </trkpt>
      <trkpt lat="42.57351" lon="1.89192">
        <ele>2146</ele>
        <time>2021-09-15T09:32:18Z</time>
      </trkpt>
      <trkpt lat="42.57354" lon="1.89193">
        <ele>2146</ele>
        <time>2021-09-15T09:32:20Z</time>
      </trkpt>
      <trkpt lat="42.57355" lon="1.89193">
        <ele>2146</ele>
        <time>2021-09-15T09:32:22Z</time>
      </trkpt>
      <trkpt lat="42.57359" lon="1.89194">
        <ele>2146</ele>
        <time>2021-09-15T09:32:26Z</time>
      </trkpt>
      <trkpt lat="42.57362" lon="1.89194">
        <ele>2146</ele>
        <time>2021-09-15T09:32:28Z</time>
      </trkpt>
      <trkpt lat="42.57364" lon="1.89195">
        <ele>2146</ele>
        <time>2021-09-15T09:32:31Z</time>
      </trkpt>
      <trkpt lat="42.57365" lon="1.89195">
        <ele>2146</ele>
        <time>2021-09-15T09:32:35Z</time>
      </trkpt>
      <trkpt lat="42.57367" lon="1.89197">
        <ele>2146</ele>
        <time>2021-09-15T09:32:39Z</time>
      </trkpt>
      <trkpt lat="42.57368" lon="1.89202">
        <ele>2146</ele>
        <time>2021-09-15T09:32:43Z</time>
      </trkpt>
      <trkpt lat="42.57368" lon="1.89213">
        <ele>2146</ele>
        <time>2021-09-15T09:32:50Z</time>
      </trkpt>
      <trkpt lat="42.57368" lon="1.89216">
        <ele>2146</ele>
        <time>2021-09-15T09:32:52Z</time>
      </trkpt>
      <trkpt lat="42.57372" lon="1.89222">
        <ele>2146</ele>
        <time>2021-09-15T09:32:58Z</time>
      </trkpt>
      <trkpt lat="42.57374" lon="1.89223">
        <ele>2147</ele>
        <time>2021-09-15T09:33:00Z</time>
      </trkpt>
      <trkpt lat="42.57377" lon="1.89228">
        <ele>2147</ele>
        <time>2021-09-15T09:33:05Z</time>
      </trkpt>
      <trkpt lat="42.57378" lon="1.89229">
        <ele>2147</ele>
        <time>2021-09-15T09:33:07Z</time>
      </trkpt>
      <trkpt lat="42.57379" lon="1.89233">
        <ele>2147</ele>
        <time>2021-09-15T09:33:10Z</time>
      </trkpt>
      <trkpt lat="42.57383" lon="1.89243">
        <ele>2147</ele>
        <time>2021-09-15T09:33:18Z</time>
      </trkpt>
      <trkpt lat="42.57385" lon="1.89246">
        <ele>2147</ele>
        <time>2021-09-15T09:33:20Z</time>
      </trkpt>
      <trkpt lat="42.57386" lon="1.89247">
        <ele>2147</ele>
        <time>2021-09-15T09:33:23Z</time>
      </trkpt>
      <trkpt lat="42.57387" lon="1.89249">
        <ele>2147</ele>
        <time>2021-09-15T09:33:25Z</time>
      </trkpt>
      <trkpt lat="42.57388" lon="1.89253">
        <ele>2147</ele>
        <time>2021-09-15T09:33:27Z</time>
      </trkpt>
      <trkpt lat="42.57389" lon="1.89255">
        <ele>2147</ele>
        <time>2021-09-15T09:33:29Z</time>
      </trkpt>
      <trkpt lat="42.57393" lon="1.89256">
        <ele>2147</ele>
        <time>2021-09-15T09:33:33Z</time>
      </trkpt>
      <trkpt lat="42.57399" lon="1.89262">
        <ele>2147</ele>
        <time>2021-09-15T09:33:39Z</time>
      </trkpt>
      <trkpt lat="42.57404" lon="1.89272">
        <ele>2147</ele>
        <time>2021-09-15T09:33:49Z</time>
      </trkpt>
      <trkpt lat="42.57404" lon="1.89274">
        <ele>2147</ele>
        <time>2021-09-15T09:33:51Z</time>
      </trkpt>
      <trkpt lat="42.57411" lon="1.89283">
        <ele>2147</ele>
        <time>2021-09-15T09:33:59Z</time>
      </trkpt>
      <trkpt lat="42.57412" lon="1.89286">
        <ele>2147</ele>
        <time>2021-09-15T09:34:01Z</time>
      </trkpt>
      <trkpt lat="42.57413" lon="1.89292">
        <ele>2147</ele>
        <time>2021-09-15T09:34:05Z</time>
      </trkpt>
      <trkpt lat="42.57416" lon="1.89295">
        <ele>2147</ele>
        <time>2021-09-15T09:34:08Z</time>
      </trkpt>
      <trkpt lat="42.57418" lon="1.89297">
        <ele>2147</ele>
        <time>2021-09-15T09:34:10Z</time>
      </trkpt>
      <trkpt lat="42.57419" lon="1.89299">
        <ele>2147</ele>
        <time>2021-09-15T09:34:12Z</time>
      </trkpt>
      <trkpt lat="42.57425" lon="1.89308">
        <ele>2146</ele>
        <time>2021-09-15T09:34:20Z</time>
      </trkpt>
      <trkpt lat="42.57425" lon="1.8931">
        <ele>2146</ele>
        <time>2021-09-15T09:34:22Z</time>
      </trkpt>
      <trkpt lat="42.57426" lon="1.89313">
        <ele>2147</ele>
        <time>2021-09-15T09:34:24Z</time>
      </trkpt>
      <trkpt lat="42.57426" lon="1.89316">
        <ele>2147</ele>
        <time>2021-09-15T09:34:26Z</time>
      </trkpt>
      <trkpt lat="42.57427" lon="1.89319">
        <ele>2147</ele>
        <time>2021-09-15T09:34:30Z</time>
      </trkpt>
      <trkpt lat="42.57427" lon="1.89321">
        <ele>2147</ele>
        <time>2021-09-15T09:34:32Z</time>
      </trkpt>
      <trkpt lat="42.57436" lon="1.89347">
        <ele>2149</ele>
        <time>2021-09-15T09:34:59Z</time>
      </trkpt>
      <trkpt lat="42.57448" lon="1.89373">
        <ele>2151</ele>
        <time>2021-09-15T09:35:22Z</time>
      </trkpt>
      <trkpt lat="42.5745" lon="1.89376">
        <ele>2151</ele>
        <time>2021-09-15T09:35:24Z</time>
      </trkpt>
      <trkpt lat="42.57452" lon="1.89377">
        <ele>2151</ele>
        <time>2021-09-15T09:35:27Z</time>
      </trkpt>
      <trkpt lat="42.57457" lon="1.89379">
        <ele>2150</ele>
        <time>2021-09-15T09:35:34Z</time>
      </trkpt>
      <trkpt lat="42.57459" lon="1.89378">
        <ele>2150</ele>
        <time>2021-09-15T09:35:37Z</time>
      </trkpt>
      <trkpt lat="42.57461" lon="1.89378">
        <ele>2149</ele>
        <time>2021-09-15T09:35:47Z</time>
      </trkpt>
      <trkpt lat="42.57462" lon="1.8938">
        <ele>2149</ele>
        <time>2021-09-15T09:36:27Z</time>
      </trkpt>
      <trkpt lat="42.57463" lon="1.89386">
        <ele>2149</ele>
        <time>2021-09-15T09:36:56Z</time>
      </trkpt>
      <trkpt lat="42.57463" lon="1.89388">
        <ele>2148</ele>
        <time>2021-09-15T09:37:02Z</time>
      </trkpt>
      <trkpt lat="42.57465" lon="1.89393">
        <ele>2148</ele>
        <time>2021-09-15T09:37:08Z</time>
      </trkpt>
      <trkpt lat="42.57467" lon="1.89402">
        <ele>2147</ele>
        <time>2021-09-15T09:37:19Z</time>
      </trkpt>
      <trkpt lat="42.57466" lon="1.89404">
        <ele>2147</ele>
        <time>2021-09-15T09:38:16Z</time>
      </trkpt>
      <trkpt lat="42.5747" lon="1.89407">
        <ele>2148</ele>
        <time>2021-09-15T09:38:20Z</time>
      </trkpt>
      <trkpt lat="42.57472" lon="1.89408">
        <ele>2148</ele>
        <time>2021-09-15T09:38:22Z</time>
      </trkpt>
      <trkpt lat="42.57474" lon="1.8941">
        <ele>2148</ele>
        <time>2021-09-15T09:38:26Z</time>
      </trkpt>
      <trkpt lat="42.57476" lon="1.8941">
        <ele>2148</ele>
        <time>2021-09-15T09:38:31Z</time>
      </trkpt>
      <trkpt lat="42.57478" lon="1.89414">
        <ele>2148</ele>
        <time>2021-09-15T09:38:39Z</time>
      </trkpt>
      <trkpt lat="42.57482" lon="1.89418">
        <ele>2147</ele>
        <time>2021-09-15T09:38:47Z</time>
      </trkpt>
      <trkpt lat="42.57484" lon="1.8942">
        <ele>2148</ele>
        <time>2021-09-15T09:38:50Z</time>
      </trkpt>
      <trkpt lat="42.57485" lon="1.89421">
        <ele>2148</ele>
        <time>2021-09-15T09:38:55Z</time>
      </trkpt>
      <trkpt lat="42.57487" lon="1.89422">
        <ele>2148</ele>
        <time>2021-09-15T09:38:57Z</time>
      </trkpt>
      <trkpt lat="42.57491" lon="1.89422">
        <ele>2148</ele>
        <time>2021-09-15T09:39:02Z</time>
      </trkpt>
      <trkpt lat="42.57496" lon="1.8942">
        <ele>2149</ele>
        <time>2021-09-15T09:39:14Z</time>
      </trkpt>
      <trkpt lat="42.57507" lon="1.89423">
        <ele>2150</ele>
        <time>2021-09-15T09:39:38Z</time>
      </trkpt>
      <trkpt lat="42.5751" lon="1.89423">
        <ele>2152</ele>
        <time>2021-09-15T09:40:06Z</time>
      </trkpt>
      <trkpt lat="42.57511" lon="1.89422">
        <ele>2153</ele>
        <time>2021-09-15T09:43:12Z</time>
      </trkpt>
      <trkpt lat="42.57514" lon="1.89418">
        <ele>2153</ele>
        <time>2021-09-15T09:43:16Z</time>
      </trkpt>
      <trkpt lat="42.57515" lon="1.89412">
        <ele>2152</ele>
        <time>2021-09-15T09:43:20Z</time>
      </trkpt>
      <trkpt lat="42.57517" lon="1.8941">
        <ele>2152</ele>
        <time>2021-09-15T09:43:23Z</time>
      </trkpt>
      <trkpt lat="42.57519" lon="1.89408">
        <ele>2152</ele>
        <time>2021-09-15T09:43:28Z</time>
      </trkpt>
      <trkpt lat="42.5752" lon="1.89409">
        <ele>2151</ele>
        <time>2021-09-15T09:43:33Z</time>
      </trkpt>
      <trkpt lat="42.57521" lon="1.8941">
        <ele>2152</ele>
        <time>2021-09-15T09:43:43Z</time>
      </trkpt>
      <trkpt lat="42.57522" lon="1.89416">
        <ele>2154</ele>
        <time>2021-09-15T09:43:55Z</time>
      </trkpt>
      <trkpt lat="42.57521" lon="1.89418">
        <ele>2155</ele>
        <time>2021-09-15T09:43:59Z</time>
      </trkpt>
      <trkpt lat="42.57523" lon="1.89423">
        <ele>2157</ele>
        <time>2021-09-15T09:44:10Z</time>
      </trkpt>
      <trkpt lat="42.57524" lon="1.89424">
        <ele>2158</ele>
        <time>2021-09-15T09:44:13Z</time>
      </trkpt>
      <trkpt lat="42.57525" lon="1.89427">
        <ele>2158</ele>
        <time>2021-09-15T09:44:16Z</time>
      </trkpt>
      <trkpt lat="42.57526" lon="1.89427">
        <ele>2158</ele>
        <time>2021-09-15T09:44:19Z</time>
      </trkpt>
      <trkpt lat="42.57528" lon="1.89429">
        <ele>2158</ele>
        <time>2021-09-15T09:44:23Z</time>
      </trkpt>
      <trkpt lat="42.57528" lon="1.89432">
        <ele>2158</ele>
        <time>2021-09-15T09:44:25Z</time>
      </trkpt>
      <trkpt lat="42.57527" lon="1.89434">
        <ele>2158</ele>
        <time>2021-09-15T09:44:27Z</time>
      </trkpt>
      <trkpt lat="42.57526" lon="1.89439">
        <ele>2158</ele>
        <time>2021-09-15T09:44:32Z</time>
      </trkpt>
      <trkpt lat="42.57524" lon="1.89446">
        <ele>2159</ele>
        <time>2021-09-15T09:44:39Z</time>
      </trkpt>
      <trkpt lat="42.57524" lon="1.89448">
        <ele>2159</ele>
        <time>2021-09-15T09:44:41Z</time>
      </trkpt>
      <trkpt lat="42.57524" lon="1.89452">
        <ele>2159</ele>
        <time>2021-09-15T09:44:43Z</time>
      </trkpt>
      <trkpt lat="42.57525" lon="1.89455">
        <ele>2159</ele>
        <time>2021-09-15T09:44:45Z</time>
      </trkpt>
      <trkpt lat="42.57526" lon="1.89457">
        <ele>2160</ele>
        <time>2021-09-15T09:44:48Z</time>
      </trkpt>
      <trkpt lat="42.57526" lon="1.89459">
        <ele>2160</ele>
        <time>2021-09-15T09:44:52Z</time>
      </trkpt>
      <trkpt lat="42.57527" lon="1.89462">
        <ele>2160</ele>
        <time>2021-09-15T09:44:55Z</time>
      </trkpt>
      <trkpt lat="42.57527" lon="1.89465">
        <ele>2161</ele>
        <time>2021-09-15T09:45:00Z</time>
      </trkpt>
      <trkpt lat="42.57533" lon="1.89466">
        <ele>2162</ele>
        <time>2021-09-15T09:45:08Z</time>
      </trkpt>
      <trkpt lat="42.57537" lon="1.89466">
        <ele>2162</ele>
        <time>2021-09-15T09:45:12Z</time>
      </trkpt>
      <trkpt lat="42.57546" lon="1.89464">
        <ele>2163</ele>
        <time>2021-09-15T09:45:19Z</time>
      </trkpt>
      <trkpt lat="42.5755" lon="1.89465">
        <ele>2163</ele>
        <time>2021-09-15T09:45:23Z</time>
      </trkpt>
      <trkpt lat="42.57552" lon="1.89466">
        <ele>2163</ele>
        <time>2021-09-15T09:45:25Z</time>
      </trkpt>
      <trkpt lat="42.57553" lon="1.89468">
        <ele>2163</ele>
        <time>2021-09-15T09:45:27Z</time>
      </trkpt>
      <trkpt lat="42.57555" lon="1.89469">
        <ele>2164</ele>
        <time>2021-09-15T09:45:29Z</time>
      </trkpt>
      <trkpt lat="42.57557" lon="1.89471">
        <ele>2164</ele>
        <time>2021-09-15T09:45:31Z</time>
      </trkpt>
      <trkpt lat="42.57562" lon="1.89472">
        <ele>2164</ele>
        <time>2021-09-15T09:45:35Z</time>
      </trkpt>
      <trkpt lat="42.57564" lon="1.89473">
        <ele>2164</ele>
        <time>2021-09-15T09:45:38Z</time>
      </trkpt>
      <trkpt lat="42.57566" lon="1.89474">
        <ele>2164</ele>
        <time>2021-09-15T09:45:40Z</time>
      </trkpt>
      <trkpt lat="42.57568" lon="1.89474">
        <ele>2164</ele>
        <time>2021-09-15T09:45:41Z</time>
      </trkpt>
      <trkpt lat="42.57577" lon="1.89475">
        <ele>2164</ele>
        <time>2021-09-15T09:45:50Z</time>
      </trkpt>
      <trkpt lat="42.57579" lon="1.89475">
        <ele>2164</ele>
        <time>2021-09-15T09:45:52Z</time>
      </trkpt>
      <trkpt lat="42.57581" lon="1.89475">
        <ele>2164</ele>
        <time>2021-09-15T09:45:57Z</time>
      </trkpt>
      <trkpt lat="42.57582" lon="1.89474">
        <ele>2164</ele>
        <time>2021-09-15T09:46:05Z</time>
      </trkpt>
      <trkpt lat="42.57584" lon="1.89473">
        <ele>2165</ele>
        <time>2021-09-15T09:46:07Z</time>
      </trkpt>
      <trkpt lat="42.57586" lon="1.89473">
        <ele>2165</ele>
        <time>2021-09-15T09:46:09Z</time>
      </trkpt>
      <trkpt lat="42.57588" lon="1.89473">
        <ele>2166</ele>
        <time>2021-09-15T09:46:11Z</time>
      </trkpt>
      <trkpt lat="42.5759" lon="1.89472">
        <ele>2167</ele>
        <time>2021-09-15T09:46:13Z</time>
      </trkpt>
      <trkpt lat="42.57593" lon="1.89471">
        <ele>2167</ele>
        <time>2021-09-15T09:46:16Z</time>
      </trkpt>
      <trkpt lat="42.57598" lon="1.89468">
        <ele>2169</ele>
        <time>2021-09-15T09:46:20Z</time>
      </trkpt>
      <trkpt lat="42.57599" lon="1.89468">
        <ele>2169</ele>
        <time>2021-09-15T09:46:23Z</time>
      </trkpt>
      <trkpt lat="42.57602" lon="1.89472">
        <ele>2170</ele>
        <time>2021-09-15T09:46:27Z</time>
      </trkpt>
      <trkpt lat="42.57606" lon="1.89479">
        <ele>2171</ele>
        <time>2021-09-15T09:46:33Z</time>
      </trkpt>
      <trkpt lat="42.57608" lon="1.89478">
        <ele>2171</ele>
        <time>2021-09-15T09:46:35Z</time>
      </trkpt>
      <trkpt lat="42.57609" lon="1.89481">
        <ele>2171</ele>
        <time>2021-09-15T09:46:38Z</time>
      </trkpt>
      <trkpt lat="42.5761" lon="1.89483">
        <ele>2171</ele>
        <time>2021-09-15T09:46:42Z</time>
      </trkpt>
      <trkpt lat="42.57612" lon="1.89485">
        <ele>2171</ele>
        <time>2021-09-15T09:46:47Z</time>
      </trkpt>
      <trkpt lat="42.57613" lon="1.89495">
        <ele>2172</ele>
        <time>2021-09-15T09:46:57Z</time>
      </trkpt>
      <trkpt lat="42.57619" lon="1.89502">
        <ele>2172</ele>
        <time>2021-09-15T09:47:05Z</time>
      </trkpt>
      <trkpt lat="42.5762" lon="1.89503">
        <ele>2172</ele>
        <time>2021-09-15T09:47:08Z</time>
      </trkpt>
      <trkpt lat="42.57622" lon="1.89504">
        <ele>2172</ele>
        <time>2021-09-15T09:47:12Z</time>
      </trkpt>
      <trkpt lat="42.57622" lon="1.89511">
        <ele>2173</ele>
        <time>2021-09-15T09:47:17Z</time>
      </trkpt>
      <trkpt lat="42.57622" lon="1.89519">
        <ele>2173</ele>
        <time>2021-09-15T09:47:24Z</time>
      </trkpt>
      <trkpt lat="42.57622" lon="1.89521">
        <ele>2173</ele>
        <time>2021-09-15T09:47:27Z</time>
      </trkpt>
      <trkpt lat="42.57623" lon="1.89527">
        <ele>2173</ele>
        <time>2021-09-15T09:47:33Z</time>
      </trkpt>
      <trkpt lat="42.57626" lon="1.89568">
        <ele>2176</ele>
        <time>2021-09-15T09:48:04Z</time>
      </trkpt>
      <trkpt lat="42.57627" lon="1.89571">
        <ele>2176</ele>
        <time>2021-09-15T09:48:06Z</time>
      </trkpt>
      <trkpt lat="42.5763" lon="1.89608">
        <ele>2177</ele>
        <time>2021-09-15T09:48:32Z</time>
      </trkpt>
      <trkpt lat="42.57635" lon="1.8964">
        <ele>2179</ele>
        <time>2021-09-15T09:48:58Z</time>
      </trkpt>
      <trkpt lat="42.57636" lon="1.89643">
        <ele>2179</ele>
        <time>2021-09-15T09:49:00Z</time>
      </trkpt>
      <trkpt lat="42.57637" lon="1.89645">
        <ele>2179</ele>
        <time>2021-09-15T09:49:02Z</time>
      </trkpt>
      <trkpt lat="42.57639" lon="1.89656">
        <ele>2180</ele>
        <time>2021-09-15T09:49:11Z</time>
      </trkpt>
      <trkpt lat="42.57642" lon="1.89667">
        <ele>2181</ele>
        <time>2021-09-15T09:49:19Z</time>
      </trkpt>
      <trkpt lat="42.57643" lon="1.8968">
        <ele>2183</ele>
        <time>2021-09-15T09:49:29Z</time>
      </trkpt>
      <trkpt lat="42.57646" lon="1.89687">
        <ele>2184</ele>
        <time>2021-09-15T09:49:38Z</time>
      </trkpt>
      <trkpt lat="42.57647" lon="1.89689">
        <ele>2184</ele>
        <time>2021-09-15T09:49:40Z</time>
      </trkpt>
      <trkpt lat="42.5765" lon="1.89693">
        <ele>2184</ele>
        <time>2021-09-15T09:49:46Z</time>
      </trkpt>
      <trkpt lat="42.57651" lon="1.89694">
        <ele>2183</ele>
        <time>2021-09-15T09:49:49Z</time>
      </trkpt>
      <trkpt lat="42.57653" lon="1.89695">
        <ele>2183</ele>
        <time>2021-09-15T09:49:52Z</time>
      </trkpt>
      <trkpt lat="42.57656" lon="1.897">
        <ele>2181</ele>
        <time>2021-09-15T09:49:59Z</time>
      </trkpt>
      <trkpt lat="42.57657" lon="1.897">
        <ele>2181</ele>
        <time>2021-09-15T09:50:03Z</time>
      </trkpt>
      <trkpt lat="42.57658" lon="1.89702">
        <ele>2180</ele>
        <time>2021-09-15T09:50:06Z</time>
      </trkpt>
      <trkpt lat="42.57659" lon="1.89705">
        <ele>2180</ele>
        <time>2021-09-15T09:50:10Z</time>
      </trkpt>
      <trkpt lat="42.57661" lon="1.89707">
        <ele>2179</ele>
        <time>2021-09-15T09:50:13Z</time>
      </trkpt>
      <trkpt lat="42.57663" lon="1.89709">
        <ele>2179</ele>
        <time>2021-09-15T09:50:16Z</time>
      </trkpt>
      <trkpt lat="42.57665" lon="1.89709">
        <ele>2178</ele>
        <time>2021-09-15T09:50:20Z</time>
      </trkpt>
      <trkpt lat="42.57667" lon="1.89708">
        <ele>2177</ele>
        <time>2021-09-15T09:50:23Z</time>
      </trkpt>
      <trkpt lat="42.57674" lon="1.897">
        <ele>2176</ele>
        <time>2021-09-15T09:50:33Z</time>
      </trkpt>
      <trkpt lat="42.57685" lon="1.89695">
        <ele>2174</ele>
        <time>2021-09-15T09:50:46Z</time>
      </trkpt>
      <trkpt lat="42.57688" lon="1.89695">
        <ele>2174</ele>
        <time>2021-09-15T09:50:49Z</time>
      </trkpt>
      <trkpt lat="42.5769" lon="1.89694">
        <ele>2173</ele>
        <time>2021-09-15T09:50:51Z</time>
      </trkpt>
      <trkpt lat="42.57703" lon="1.89697">
        <ele>2172</ele>
        <time>2021-09-15T09:51:05Z</time>
      </trkpt>
      <trkpt lat="42.57705" lon="1.89698">
        <ele>2172</ele>
        <time>2021-09-15T09:51:07Z</time>
      </trkpt>
      <trkpt lat="42.57715" lon="1.89698">
        <ele>2171</ele>
        <time>2021-09-15T09:51:18Z</time>
      </trkpt>
      <trkpt lat="42.57718" lon="1.89701">
        <ele>2171</ele>
        <time>2021-09-15T09:51:23Z</time>
      </trkpt>
      <trkpt lat="42.57733" lon="1.89704">
        <ele>2169</ele>
        <time>2021-09-15T09:51:40Z</time>
      </trkpt>
      <trkpt lat="42.57734" lon="1.89706">
        <ele>2169</ele>
        <time>2021-09-15T09:51:44Z</time>
      </trkpt>
      <trkpt lat="42.57738" lon="1.89707">
        <ele>2169</ele>
        <time>2021-09-15T09:51:53Z</time>
      </trkpt>
      <trkpt lat="42.57739" lon="1.89709">
        <ele>2169</ele>
        <time>2021-09-15T09:52:00Z</time>
      </trkpt>
      <trkpt lat="42.57751" lon="1.89708">
        <ele>2170</ele>
        <time>2021-09-15T09:52:15Z</time>
      </trkpt>
      <trkpt lat="42.57764" lon="1.89709">
        <ele>2169</ele>
        <time>2021-09-15T09:52:31Z</time>
      </trkpt>
      <trkpt lat="42.57766" lon="1.89709">
        <ele>2168</ele>
        <time>2021-09-15T09:52:35Z</time>
      </trkpt>
      <trkpt lat="42.57768" lon="1.89709">
        <ele>2169</ele>
        <time>2021-09-15T09:53:02Z</time>
      </trkpt>
      <trkpt lat="42.57771" lon="1.89714">
        <ele>2169</ele>
        <time>2021-09-15T09:53:09Z</time>
      </trkpt>
      <trkpt lat="42.57785" lon="1.89722">
        <ele>2169</ele>
        <time>2021-09-15T09:53:27Z</time>
      </trkpt>
      <trkpt lat="42.57788" lon="1.89723">
        <ele>2170</ele>
        <time>2021-09-15T09:53:31Z</time>
      </trkpt>
      <trkpt lat="42.57804" lon="1.89709">
        <ele>2167</ele>
        <time>2021-09-15T09:53:57Z</time>
      </trkpt>
      <trkpt lat="42.57807" lon="1.89703">
        <ele>2166</ele>
        <time>2021-09-15T09:54:03Z</time>
      </trkpt>
      <trkpt lat="42.57809" lon="1.89702">
        <ele>2166</ele>
        <time>2021-09-15T09:54:24Z</time>
      </trkpt>
      <trkpt lat="42.57811" lon="1.89693">
        <ele>2167</ele>
        <time>2021-09-15T09:54:29Z</time>
      </trkpt>
      <trkpt lat="42.57811" lon="1.8969">
        <ele>2167</ele>
        <time>2021-09-15T09:54:32Z</time>
      </trkpt>
      <trkpt lat="42.57811" lon="1.89686">
        <ele>2167</ele>
        <time>2021-09-15T09:54:37Z</time>
      </trkpt>
      <trkpt lat="42.5781" lon="1.89682">
        <ele>2167</ele>
        <time>2021-09-15T09:54:43Z</time>
      </trkpt>
      <trkpt lat="42.57811" lon="1.89677">
        <ele>2167</ele>
        <time>2021-09-15T09:54:46Z</time>
      </trkpt>
      <trkpt lat="42.5781" lon="1.89674">
        <ele>2167</ele>
        <time>2021-09-15T09:54:49Z</time>
      </trkpt>
      <trkpt lat="42.57808" lon="1.89672">
        <ele>2168</ele>
        <time>2021-09-15T09:54:55Z</time>
      </trkpt>
      <trkpt lat="42.57802" lon="1.89667">
        <ele>2169</ele>
        <time>2021-09-15T09:55:04Z</time>
      </trkpt>
      <trkpt lat="42.57785" lon="1.89662">
        <ele>2173</ele>
        <time>2021-09-15T09:55:17Z</time>
      </trkpt>
      <trkpt lat="42.57782" lon="1.89662">
        <ele>2174</ele>
        <time>2021-09-15T09:55:19Z</time>
      </trkpt>
      <trkpt lat="42.57778" lon="1.8966">
        <ele>2175</ele>
        <time>2021-09-15T09:55:25Z</time>
      </trkpt>
      <trkpt lat="42.57775" lon="1.89661">
        <ele>2176</ele>
        <time>2021-09-15T09:55:27Z</time>
      </trkpt>
      <trkpt lat="42.57771" lon="1.89651">
        <ele>2181</ele>
        <time>2021-09-15T09:55:39Z</time>
      </trkpt>
      <trkpt lat="42.57772" lon="1.89649">
        <ele>2183</ele>
        <time>2021-09-15T09:55:47Z</time>
      </trkpt>
      <trkpt lat="42.57769" lon="1.89641">
        <ele>2185</ele>
        <time>2021-09-15T09:55:57Z</time>
      </trkpt>
      <trkpt lat="42.57768" lon="1.89639">
        <ele>2185</ele>
        <time>2021-09-15T09:56:00Z</time>
      </trkpt>
      <trkpt lat="42.57767" lon="1.89631">
        <ele>2187</ele>
        <time>2021-09-15T09:56:09Z</time>
      </trkpt>
      <trkpt lat="42.57766" lon="1.89629">
        <ele>2187</ele>
        <time>2021-09-15T09:56:11Z</time>
      </trkpt>
      <trkpt lat="42.57767" lon="1.89625">
        <ele>2188</ele>
        <time>2021-09-15T09:56:15Z</time>
      </trkpt>
      <trkpt lat="42.5778" lon="1.89605">
        <ele>2190</ele>
        <time>2021-09-15T09:56:40Z</time>
      </trkpt>
      <trkpt lat="42.57783" lon="1.89598">
        <ele>2192</ele>
        <time>2021-09-15T09:56:47Z</time>
      </trkpt>
      <trkpt lat="42.57784" lon="1.89594">
        <ele>2192</ele>
        <time>2021-09-15T09:56:51Z</time>
      </trkpt>
      <trkpt lat="42.57785" lon="1.89591">
        <ele>2193</ele>
        <time>2021-09-15T09:56:53Z</time>
      </trkpt>
      <trkpt lat="42.57785" lon="1.89588">
        <ele>2193</ele>
        <time>2021-09-15T09:56:55Z</time>
      </trkpt>
      <trkpt lat="42.57787" lon="1.89577">
        <ele>2193</ele>
        <time>2021-09-15T09:57:03Z</time>
      </trkpt>
      <trkpt lat="42.57787" lon="1.89569">
        <ele>2194</ele>
        <time>2021-09-15T09:57:09Z</time>
      </trkpt>
      <trkpt lat="42.57788" lon="1.8956">
        <ele>2195</ele>
        <time>2021-09-15T09:57:16Z</time>
      </trkpt>
      <trkpt lat="42.57792" lon="1.89545">
        <ele>2195</ele>
        <time>2021-09-15T09:57:25Z</time>
      </trkpt>
      <trkpt lat="42.57792" lon="1.89543">
        <ele>2195</ele>
        <time>2021-09-15T09:57:27Z</time>
      </trkpt>
      <trkpt lat="42.57792" lon="1.89527">
        <ele>2196</ele>
        <time>2021-09-15T09:57:40Z</time>
      </trkpt>
      <trkpt lat="42.57792" lon="1.89524">
        <ele>2196</ele>
        <time>2021-09-15T09:57:43Z</time>
      </trkpt>
      <trkpt lat="42.57793" lon="1.89523">
        <ele>2197</ele>
        <time>2021-09-15T09:58:01Z</time>
      </trkpt>
      <trkpt lat="42.57795" lon="1.89526">
        <ele>2200</ele>
        <time>2021-09-15T09:58:53Z</time>
      </trkpt>
      <trkpt lat="42.57796" lon="1.8953">
        <ele>2201</ele>
        <time>2021-09-15T09:58:59Z</time>
      </trkpt>
      <trkpt lat="42.57796" lon="1.89533">
        <ele>2201</ele>
        <time>2021-09-15T09:59:09Z</time>
      </trkpt>
      <trkpt lat="42.57798" lon="1.89532">
        <ele>2202</ele>
        <time>2021-09-15T09:59:45Z</time>
      </trkpt>
      <trkpt lat="42.578" lon="1.89537">
        <ele>2204</ele>
        <time>2021-09-15T09:59:50Z</time>
      </trkpt>
      <trkpt lat="42.57802" lon="1.8954">
        <ele>2204</ele>
        <time>2021-09-15T09:59:54Z</time>
      </trkpt>
      <trkpt lat="42.57804" lon="1.89545">
        <ele>2205</ele>
        <time>2021-09-15T10:00:01Z</time>
      </trkpt>
      <trkpt lat="42.57805" lon="1.89548">
        <ele>2206</ele>
        <time>2021-09-15T10:00:04Z</time>
      </trkpt>
      <trkpt lat="42.57807" lon="1.89551">
        <ele>2206</ele>
        <time>2021-09-15T10:00:06Z</time>
      </trkpt>
      <trkpt lat="42.57808" lon="1.89551">
        <ele>2206</ele>
        <time>2021-09-15T10:00:11Z</time>
      </trkpt>
      <trkpt lat="42.57808" lon="1.89548">
        <ele>2206</ele>
        <time>2021-09-15T10:00:13Z</time>
      </trkpt>
      <trkpt lat="42.57809" lon="1.89539">
        <ele>2206</ele>
        <time>2021-09-15T10:00:18Z</time>
      </trkpt>
      <trkpt lat="42.5781" lon="1.89532">
        <ele>2204</ele>
        <time>2021-09-15T10:00:25Z</time>
      </trkpt>
      <trkpt lat="42.57812" lon="1.89531">
        <ele>2204</ele>
        <time>2021-09-15T10:00:30Z</time>
      </trkpt>
      <trkpt lat="42.57815" lon="1.89533">
        <ele>2203</ele>
        <time>2021-09-15T10:00:37Z</time>
      </trkpt>
      <trkpt lat="42.57816" lon="1.89536">
        <ele>2202</ele>
        <time>2021-09-15T10:00:41Z</time>
      </trkpt>
      <trkpt lat="42.57817" lon="1.89538">
        <ele>2202</ele>
        <time>2021-09-15T10:00:44Z</time>
      </trkpt>
      <trkpt lat="42.57824" lon="1.89551">
        <ele>2202</ele>
        <time>2021-09-15T10:01:01Z</time>
      </trkpt>
      <trkpt lat="42.57826" lon="1.89552">
        <ele>2202</ele>
        <time>2021-09-15T10:01:05Z</time>
      </trkpt>
      <trkpt lat="42.57841" lon="1.89559">
        <ele>2204</ele>
        <time>2021-09-15T10:01:28Z</time>
      </trkpt>
      <trkpt lat="42.57852" lon="1.89557">
        <ele>2208</ele>
        <time>2021-09-15T10:01:43Z</time>
      </trkpt>
      <trkpt lat="42.57853" lon="1.89558">
        <ele>2208</ele>
        <time>2021-09-15T10:01:46Z</time>
      </trkpt>
      <trkpt lat="42.57855" lon="1.89558">
        <ele>2209</ele>
        <time>2021-09-15T10:01:49Z</time>
      </trkpt>
      <trkpt lat="42.57859" lon="1.89559">
        <ele>2211</ele>
        <time>2021-09-15T10:01:56Z</time>
      </trkpt>
      <trkpt lat="42.57862" lon="1.89557">
        <ele>2212</ele>
        <time>2021-09-15T10:02:00Z</time>
      </trkpt>
      <trkpt lat="42.5787" lon="1.89559">
        <ele>2214</ele>
        <time>2021-09-15T10:02:12Z</time>
      </trkpt>
      <trkpt lat="42.57873" lon="1.89561">
        <ele>2215</ele>
        <time>2021-09-15T10:02:22Z</time>
      </trkpt>
      <trkpt lat="42.57878" lon="1.89564">
        <ele>2217</ele>
        <time>2021-09-15T10:02:30Z</time>
      </trkpt>
      <trkpt lat="42.5788" lon="1.89564">
        <ele>2217</ele>
        <time>2021-09-15T10:02:34Z</time>
      </trkpt>
      <trkpt lat="42.57882" lon="1.89562">
        <ele>2217</ele>
        <time>2021-09-15T10:02:39Z</time>
      </trkpt>
      <trkpt lat="42.57883" lon="1.89561">
        <ele>2218</ele>
        <time>2021-09-15T10:02:41Z</time>
      </trkpt>
      <trkpt lat="42.57886" lon="1.89561">
        <ele>2220</ele>
        <time>2021-09-15T10:03:15Z</time>
      </trkpt>
      <trkpt lat="42.57886" lon="1.89556">
        <ele>2220</ele>
        <time>2021-09-15T10:03:28Z</time>
      </trkpt>
      <trkpt lat="42.57886" lon="1.89554">
        <ele>2220</ele>
        <time>2021-09-15T10:03:31Z</time>
      </trkpt>
      <trkpt lat="42.57886" lon="1.89552">
        <ele>2219</ele>
        <time>2021-09-15T10:03:37Z</time>
      </trkpt>
      <trkpt lat="42.57886" lon="1.89544">
        <ele>2218</ele>
        <time>2021-09-15T10:03:48Z</time>
      </trkpt>
      <trkpt lat="42.57886" lon="1.89541">
        <ele>2218</ele>
        <time>2021-09-15T10:03:51Z</time>
      </trkpt>
      <trkpt lat="42.57885" lon="1.89539">
        <ele>2218</ele>
        <time>2021-09-15T10:03:54Z</time>
      </trkpt>
      <trkpt lat="42.57885" lon="1.89537">
        <ele>2218</ele>
        <time>2021-09-15T10:03:57Z</time>
      </trkpt>
      <trkpt lat="42.57885" lon="1.89535">
        <ele>2218</ele>
        <time>2021-09-15T10:04:00Z</time>
      </trkpt>
      <trkpt lat="42.57885" lon="1.89533">
        <ele>2218</ele>
        <time>2021-09-15T10:04:02Z</time>
      </trkpt>
      <trkpt lat="42.57885" lon="1.89527">
        <ele>2218</ele>
        <time>2021-09-15T10:04:08Z</time>
      </trkpt>
      <trkpt lat="42.57886" lon="1.89522">
        <ele>2219</ele>
        <time>2021-09-15T10:04:13Z</time>
      </trkpt>
      <trkpt lat="42.57888" lon="1.89518">
        <ele>2219</ele>
        <time>2021-09-15T10:04:19Z</time>
      </trkpt>
      <trkpt lat="42.57888" lon="1.89516">
        <ele>2219</ele>
        <time>2021-09-15T10:04:50Z</time>
      </trkpt>
      <trkpt lat="42.57889" lon="1.89514">
        <ele>2221</ele>
        <time>2021-09-15T10:05:04Z</time>
      </trkpt>
      <trkpt lat="42.57892" lon="1.89518">
        <ele>2222</ele>
        <time>2021-09-15T10:05:13Z</time>
      </trkpt>
      <trkpt lat="42.57893" lon="1.89516">
        <ele>2222</ele>
        <time>2021-09-15T10:05:22Z</time>
      </trkpt>
      <trkpt lat="42.57893" lon="1.89517">
        <ele>2223</ele>
        <time>2021-09-15T10:06:48Z</time>
      </trkpt>
      <trkpt lat="42.57895" lon="1.89518">
        <ele>2223</ele>
        <time>2021-09-15T10:06:51Z</time>
      </trkpt>
      <trkpt lat="42.57896" lon="1.89519">
        <ele>2221</ele>
        <time>2021-09-15T10:06:57Z</time>
      </trkpt>
      <trkpt lat="42.57898" lon="1.8952">
        <ele>2221</ele>
        <time>2021-09-15T10:07:03Z</time>
      </trkpt>
      <trkpt lat="42.57899" lon="1.89522">
        <ele>2220</ele>
        <time>2021-09-15T10:07:07Z</time>
      </trkpt>
      <trkpt lat="42.579" lon="1.89524">
        <ele>2220</ele>
        <time>2021-09-15T10:07:11Z</time>
      </trkpt>
      <trkpt lat="42.57899" lon="1.89526">
        <ele>2219</ele>
        <time>2021-09-15T10:07:17Z</time>
      </trkpt>
      <trkpt lat="42.57899" lon="1.89528">
        <ele>2219</ele>
        <time>2021-09-15T10:07:22Z</time>
      </trkpt>
      <trkpt lat="42.57898" lon="1.89531">
        <ele>2219</ele>
        <time>2021-09-15T10:07:26Z</time>
      </trkpt>
      <trkpt lat="42.57899" lon="1.89533">
        <ele>2219</ele>
        <time>2021-09-15T10:07:29Z</time>
      </trkpt>
      <trkpt lat="42.57899" lon="1.89535">
        <ele>2218</ele>
        <time>2021-09-15T10:07:33Z</time>
      </trkpt>
      <trkpt lat="42.57898" lon="1.89537">
        <ele>2218</ele>
        <time>2021-09-15T10:07:38Z</time>
      </trkpt>
      <trkpt lat="42.57897" lon="1.89538">
        <ele>2217</ele>
        <time>2021-09-15T10:07:49Z</time>
      </trkpt>
      <trkpt lat="42.57895" lon="1.89542">
        <ele>2217</ele>
        <time>2021-09-15T10:07:58Z</time>
      </trkpt>
      <trkpt lat="42.57894" lon="1.89544">
        <ele>2217</ele>
        <time>2021-09-15T10:08:03Z</time>
      </trkpt>
      <trkpt lat="42.57895" lon="1.89546">
        <ele>2217</ele>
        <time>2021-09-15T10:08:06Z</time>
      </trkpt>
      <trkpt lat="42.57895" lon="1.89546">
        <ele>2217</ele>
        <time>2021-09-15T10:08:20Z</time>
      </trkpt>
      <trkpt lat="42.57897" lon="1.89553">
        <ele>2217</ele>
        <time>2021-09-15T10:09:01Z</time>
      </trkpt>
      <trkpt lat="42.57898" lon="1.89552">
        <ele>2217</ele>
        <time>2021-09-15T10:09:09Z</time>
      </trkpt>
      <trkpt lat="42.57897" lon="1.89553">
        <ele>2212</ele>
        <time>2021-09-15T10:17:23Z</time>
      </trkpt>
      <trkpt lat="42.57901" lon="1.8955">
        <ele>2212</ele>
        <time>2021-09-15T10:24:38Z</time>
      </trkpt>
      <trkpt lat="42.57899" lon="1.89551">
        <ele>2219</ele>
        <time>2021-09-15T10:27:18Z</time>
      </trkpt>
      <trkpt lat="42.57898" lon="1.89553">
        <ele>2211</ele>
        <time>2021-09-15T10:57:28Z</time>
      </trkpt>
      <trkpt lat="42.57897" lon="1.89552">
        <ele>2217</ele>
        <time>2021-09-15T10:58:49Z</time>
      </trkpt>
      <trkpt lat="42.57896" lon="1.8955">
        <ele>2216</ele>
        <time>2021-09-15T10:59:21Z</time>
      </trkpt>
      <trkpt lat="42.57898" lon="1.89551">
        <ele>2216</ele>
        <time>2021-09-15T11:02:43Z</time>
      </trkpt>
      <trkpt lat="42.57898" lon="1.89575">
        <ele>2232</ele>
        <time>2021-09-15T11:09:46Z</time>
      </trkpt>
      <trkpt lat="42.57895" lon="1.89558">
        <ele>2232</ele>
        <time>2021-09-15T11:09:58Z</time>
      </trkpt>
      <trkpt lat="42.57895" lon="1.89554">
        <ele>2230</ele>
        <time>2021-09-15T11:10:01Z</time>
      </trkpt>
      <trkpt lat="42.57895" lon="1.89554">
        <ele>2220</ele>
        <time>2021-09-15T11:11:33Z</time>
      </trkpt>
      <trkpt lat="42.57891" lon="1.89557">
        <ele>2210</ele>
        <time>2021-09-15T11:13:49Z</time>
      </trkpt>
      <trkpt lat="42.57889" lon="1.89559">
        <ele>2209</ele>
        <time>2021-09-15T11:13:52Z</time>
      </trkpt>
      <trkpt lat="42.57885" lon="1.89567">
        <ele>2211</ele>
        <time>2021-09-15T11:14:04Z</time>
      </trkpt>
      <trkpt lat="42.57885" lon="1.89569">
        <ele>2211</ele>
        <time>2021-09-15T11:14:06Z</time>
      </trkpt>
      <trkpt lat="42.57884" lon="1.89571">
        <ele>2211</ele>
        <time>2021-09-15T11:14:10Z</time>
      </trkpt>
      <trkpt lat="42.57883" lon="1.89573">
        <ele>2211</ele>
        <time>2021-09-15T11:14:14Z</time>
      </trkpt>
      <trkpt lat="42.57886" lon="1.89577">
        <ele>2211</ele>
        <time>2021-09-15T11:14:51Z</time>
      </trkpt>
      <trkpt lat="42.57885" lon="1.8958">
        <ele>2212</ele>
        <time>2021-09-15T11:14:54Z</time>
      </trkpt>
      <trkpt lat="42.57884" lon="1.8958">
        <ele>2212</ele>
        <time>2021-09-15T11:14:56Z</time>
      </trkpt>
      <trkpt lat="42.57882" lon="1.89581">
        <ele>2213</ele>
        <time>2021-09-15T11:14:59Z</time>
      </trkpt>
      <trkpt lat="42.57881" lon="1.89581">
        <ele>2213</ele>
        <time>2021-09-15T11:15:09Z</time>
      </trkpt>
      <trkpt lat="42.57878" lon="1.8958">
        <ele>2213</ele>
        <time>2021-09-15T11:15:22Z</time>
      </trkpt>
      <trkpt lat="42.57877" lon="1.89577">
        <ele>2213</ele>
        <time>2021-09-15T11:15:34Z</time>
      </trkpt>
      <trkpt lat="42.57877" lon="1.89575">
        <ele>2213</ele>
        <time>2021-09-15T11:15:38Z</time>
      </trkpt>
      <trkpt lat="42.57875" lon="1.89571">
        <ele>2214</ele>
        <time>2021-09-15T11:15:46Z</time>
      </trkpt>
      <trkpt lat="42.57871" lon="1.89566">
        <ele>2214</ele>
        <time>2021-09-15T11:15:55Z</time>
      </trkpt>
      <trkpt lat="42.57869" lon="1.89566">
        <ele>2214</ele>
        <time>2021-09-15T11:16:02Z</time>
      </trkpt>
      <trkpt lat="42.57868" lon="1.89564">
        <ele>2214</ele>
        <time>2021-09-15T11:16:06Z</time>
      </trkpt>
      <trkpt lat="42.57868" lon="1.89561">
        <ele>2214</ele>
        <time>2021-09-15T11:16:10Z</time>
      </trkpt>
      <trkpt lat="42.57867" lon="1.89558">
        <ele>2215</ele>
        <time>2021-09-15T11:16:13Z</time>
      </trkpt>
      <trkpt lat="42.57866" lon="1.89557">
        <ele>2215</ele>
        <time>2021-09-15T11:16:15Z</time>
      </trkpt>
      <trkpt lat="42.57865" lon="1.89555">
        <ele>2215</ele>
        <time>2021-09-15T11:16:22Z</time>
      </trkpt>
      <trkpt lat="42.57863" lon="1.89554">
        <ele>2215</ele>
        <time>2021-09-15T11:16:26Z</time>
      </trkpt>
      <trkpt lat="42.5786" lon="1.89552">
        <ele>2215</ele>
        <time>2021-09-15T11:16:31Z</time>
      </trkpt>
      <trkpt lat="42.57859" lon="1.89552">
        <ele>2216</ele>
        <time>2021-09-15T11:16:35Z</time>
      </trkpt>
      <trkpt lat="42.57857" lon="1.89552">
        <ele>2216</ele>
        <time>2021-09-15T11:16:39Z</time>
      </trkpt>
      <trkpt lat="42.57856" lon="1.89553">
        <ele>2216</ele>
        <time>2021-09-15T11:16:41Z</time>
      </trkpt>
      <trkpt lat="42.57854" lon="1.89553">
        <ele>2216</ele>
        <time>2021-09-15T11:16:43Z</time>
      </trkpt>
      <trkpt lat="42.57852" lon="1.89554">
        <ele>2215</ele>
        <time>2021-09-15T11:16:46Z</time>
      </trkpt>
      <trkpt lat="42.5785" lon="1.89553">
        <ele>2215</ele>
        <time>2021-09-15T11:16:48Z</time>
      </trkpt>
      <trkpt lat="42.57849" lon="1.89552">
        <ele>2215</ele>
        <time>2021-09-15T11:16:50Z</time>
      </trkpt>
      <trkpt lat="42.57841" lon="1.89556">
        <ele>2215</ele>
        <time>2021-09-15T11:17:00Z</time>
      </trkpt>
      <trkpt lat="42.57839" lon="1.89556">
        <ele>2215</ele>
        <time>2021-09-15T11:17:02Z</time>
      </trkpt>
      <trkpt lat="42.57836" lon="1.89555">
        <ele>2215</ele>
        <time>2021-09-15T11:17:06Z</time>
      </trkpt>
      <trkpt lat="42.57835" lon="1.89554">
        <ele>2215</ele>
        <time>2021-09-15T11:17:12Z</time>
      </trkpt>
      <trkpt lat="42.57834" lon="1.89553">
        <ele>2215</ele>
        <time>2021-09-15T11:17:14Z</time>
      </trkpt>
      <trkpt lat="42.5783" lon="1.89551">
        <ele>2214</ele>
        <time>2021-09-15T11:17:18Z</time>
      </trkpt>
      <trkpt lat="42.57828" lon="1.8955">
        <ele>2213</ele>
        <time>2021-09-15T11:17:22Z</time>
      </trkpt>
      <trkpt lat="42.57827" lon="1.89548">
        <ele>2213</ele>
        <time>2021-09-15T11:17:26Z</time>
      </trkpt>
      <trkpt lat="42.57826" lon="1.89547">
        <ele>2213</ele>
        <time>2021-09-15T11:17:29Z</time>
      </trkpt>
      <trkpt lat="42.57824" lon="1.89546">
        <ele>2213</ele>
        <time>2021-09-15T11:17:31Z</time>
      </trkpt>
      <trkpt lat="42.57823" lon="1.89546">
        <ele>2212</ele>
        <time>2021-09-15T11:17:33Z</time>
      </trkpt>
      <trkpt lat="42.57821" lon="1.89545">
        <ele>2212</ele>
        <time>2021-09-15T11:17:35Z</time>
      </trkpt>
      <trkpt lat="42.57821" lon="1.89543">
        <ele>2211</ele>
        <time>2021-09-15T11:17:38Z</time>
      </trkpt>
      <trkpt lat="42.57818" lon="1.89534">
        <ele>2209</ele>
        <time>2021-09-15T11:17:49Z</time>
      </trkpt>
      <trkpt lat="42.57817" lon="1.89532">
        <ele>2208</ele>
        <time>2021-09-15T11:17:51Z</time>
      </trkpt>
      <trkpt lat="42.57814" lon="1.89529">
        <ele>2208</ele>
        <time>2021-09-15T11:17:57Z</time>
      </trkpt>
      <trkpt lat="42.57811" lon="1.89531">
        <ele>2207</ele>
        <time>2021-09-15T11:18:02Z</time>
      </trkpt>
      <trkpt lat="42.5781" lon="1.89533">
        <ele>2207</ele>
        <time>2021-09-15T11:18:05Z</time>
      </trkpt>
      <trkpt lat="42.5781" lon="1.89538">
        <ele>2206</ele>
        <time>2021-09-15T11:18:09Z</time>
      </trkpt>
      <trkpt lat="42.5781" lon="1.89541">
        <ele>2206</ele>
        <time>2021-09-15T11:18:11Z</time>
      </trkpt>
      <trkpt lat="42.57809" lon="1.89545">
        <ele>2205</ele>
        <time>2021-09-15T11:18:16Z</time>
      </trkpt>
      <trkpt lat="42.57808" lon="1.89548">
        <ele>2205</ele>
        <time>2021-09-15T11:18:20Z</time>
      </trkpt>
      <trkpt lat="42.57807" lon="1.89548">
        <ele>2204</ele>
        <time>2021-09-15T11:18:22Z</time>
      </trkpt>
      <trkpt lat="42.57805" lon="1.89547">
        <ele>2204</ele>
        <time>2021-09-15T11:18:24Z</time>
      </trkpt>
      <trkpt lat="42.57804" lon="1.89546">
        <ele>2203</ele>
        <time>2021-09-15T11:18:26Z</time>
      </trkpt>
      <trkpt lat="42.57803" lon="1.89543">
        <ele>2203</ele>
        <time>2021-09-15T11:18:28Z</time>
      </trkpt>
      <trkpt lat="42.57803" lon="1.89541">
        <ele>2203</ele>
        <time>2021-09-15T11:18:30Z</time>
      </trkpt>
      <trkpt lat="42.57798" lon="1.89531">
        <ele>2200</ele>
        <time>2021-09-15T11:18:46Z</time>
      </trkpt>
      <trkpt lat="42.57798" lon="1.89525">
        <ele>2200</ele>
        <time>2021-09-15T11:18:54Z</time>
      </trkpt>
      <trkpt lat="42.57797" lon="1.89523">
        <ele>2200</ele>
        <time>2021-09-15T11:18:58Z</time>
      </trkpt>
      <trkpt lat="42.57795" lon="1.89523">
        <ele>2200</ele>
        <time>2021-09-15T11:19:04Z</time>
      </trkpt>
      <trkpt lat="42.57794" lon="1.89525">
        <ele>2201</ele>
        <time>2021-09-15T11:19:07Z</time>
      </trkpt>
      <trkpt lat="42.5779" lon="1.8954">
        <ele>2201</ele>
        <time>2021-09-15T11:19:20Z</time>
      </trkpt>
      <trkpt lat="42.5779" lon="1.89542">
        <ele>2200</ele>
        <time>2021-09-15T11:19:22Z</time>
      </trkpt>
      <trkpt lat="42.5779" lon="1.89547">
        <ele>2200</ele>
        <time>2021-09-15T11:19:26Z</time>
      </trkpt>
      <trkpt lat="42.5779" lon="1.8955">
        <ele>2200</ele>
        <time>2021-09-15T11:19:28Z</time>
      </trkpt>
      <trkpt lat="42.57787" lon="1.89562">
        <ele>2200</ele>
        <time>2021-09-15T11:19:38Z</time>
      </trkpt>
      <trkpt lat="42.57786" lon="1.89572">
        <ele>2201</ele>
        <time>2021-09-15T11:19:47Z</time>
      </trkpt>
      <trkpt lat="42.57781" lon="1.89581">
        <ele>2203</ele>
        <time>2021-09-15T11:19:56Z</time>
      </trkpt>
      <trkpt lat="42.57779" lon="1.89581">
        <ele>2203</ele>
        <time>2021-09-15T11:19:58Z</time>
      </trkpt>
      <trkpt lat="42.57779" lon="1.89579">
        <ele>2202</ele>
        <time>2021-09-15T11:20:03Z</time>
      </trkpt>
      <trkpt lat="42.57779" lon="1.89576">
        <ele>2202</ele>
        <time>2021-09-15T11:20:06Z</time>
      </trkpt>
      <trkpt lat="42.57778" lon="1.89574">
        <ele>2201</ele>
        <time>2021-09-15T11:20:09Z</time>
      </trkpt>
      <trkpt lat="42.57777" lon="1.89574">
        <ele>2201</ele>
        <time>2021-09-15T11:20:11Z</time>
      </trkpt>
      <trkpt lat="42.57773" lon="1.89574">
        <ele>2200</ele>
        <time>2021-09-15T11:20:15Z</time>
      </trkpt>
      <trkpt lat="42.57772" lon="1.89575">
        <ele>2200</ele>
        <time>2021-09-15T11:20:17Z</time>
      </trkpt>
      <trkpt lat="42.5777" lon="1.89575">
        <ele>2200</ele>
        <time>2021-09-15T11:20:20Z</time>
      </trkpt>
      <trkpt lat="42.57768" lon="1.89574">
        <ele>2200</ele>
        <time>2021-09-15T11:20:23Z</time>
      </trkpt>
      <trkpt lat="42.57766" lon="1.89574">
        <ele>2199</ele>
        <time>2021-09-15T11:20:25Z</time>
      </trkpt>
      <trkpt lat="42.57766" lon="1.89572">
        <ele>2199</ele>
        <time>2021-09-15T11:20:27Z</time>
      </trkpt>
      <trkpt lat="42.57766" lon="1.8957">
        <ele>2198</ele>
        <time>2021-09-15T11:20:30Z</time>
      </trkpt>
      <trkpt lat="42.57767" lon="1.89568">
        <ele>2198</ele>
        <time>2021-09-15T11:20:35Z</time>
      </trkpt>
      <trkpt lat="42.57766" lon="1.89565">
        <ele>2197</ele>
        <time>2021-09-15T11:20:38Z</time>
      </trkpt>
      <trkpt lat="42.57765" lon="1.89563">
        <ele>2197</ele>
        <time>2021-09-15T11:20:41Z</time>
      </trkpt>
      <trkpt lat="42.57765" lon="1.89561">
        <ele>2196</ele>
        <time>2021-09-15T11:20:43Z</time>
      </trkpt>
      <trkpt lat="42.57764" lon="1.89559">
        <ele>2196</ele>
        <time>2021-09-15T11:20:48Z</time>
      </trkpt>
      <trkpt lat="42.57763" lon="1.89558">
        <ele>2195</ele>
        <time>2021-09-15T11:20:52Z</time>
      </trkpt>
      <trkpt lat="42.57759" lon="1.89545">
        <ele>2194</ele>
        <time>2021-09-15T11:21:04Z</time>
      </trkpt>
      <trkpt lat="42.57757" lon="1.89524">
        <ele>2189</ele>
        <time>2021-09-15T11:21:25Z</time>
      </trkpt>
      <trkpt lat="42.57757" lon="1.89522">
        <ele>2188</ele>
        <time>2021-09-15T11:21:27Z</time>
      </trkpt>
      <trkpt lat="42.57755" lon="1.89515">
        <ele>2186</ele>
        <time>2021-09-15T11:21:33Z</time>
      </trkpt>
      <trkpt lat="42.57754" lon="1.89513">
        <ele>2185</ele>
        <time>2021-09-15T11:21:36Z</time>
      </trkpt>
      <trkpt lat="42.57753" lon="1.89508">
        <ele>2183</ele>
        <time>2021-09-15T11:21:40Z</time>
      </trkpt>
      <trkpt lat="42.57752" lon="1.89507">
        <ele>2182</ele>
        <time>2021-09-15T11:21:43Z</time>
      </trkpt>
      <trkpt lat="42.57751" lon="1.89505">
        <ele>2182</ele>
        <time>2021-09-15T11:21:47Z</time>
      </trkpt>
      <trkpt lat="42.5775" lon="1.89503">
        <ele>2181</ele>
        <time>2021-09-15T11:21:49Z</time>
      </trkpt>
      <trkpt lat="42.57749" lon="1.895">
        <ele>2181</ele>
        <time>2021-09-15T11:21:51Z</time>
      </trkpt>
      <trkpt lat="42.57748" lon="1.89498">
        <ele>2181</ele>
        <time>2021-09-15T11:21:53Z</time>
      </trkpt>
      <trkpt lat="42.57747" lon="1.89495">
        <ele>2181</ele>
        <time>2021-09-15T11:21:55Z</time>
      </trkpt>
      <trkpt lat="42.57745" lon="1.8949">
        <ele>2180</ele>
        <time>2021-09-15T11:21:59Z</time>
      </trkpt>
      <trkpt lat="42.57744" lon="1.89488">
        <ele>2180</ele>
        <time>2021-09-15T11:22:01Z</time>
      </trkpt>
      <trkpt lat="42.57742" lon="1.89483">
        <ele>2180</ele>
        <time>2021-09-15T11:22:05Z</time>
      </trkpt>
      <trkpt lat="42.57741" lon="1.89481">
        <ele>2179</ele>
        <time>2021-09-15T11:22:07Z</time>
      </trkpt>
      <trkpt lat="42.57741" lon="1.89479">
        <ele>2179</ele>
        <time>2021-09-15T11:22:09Z</time>
      </trkpt>
      <trkpt lat="42.5774" lon="1.89477">
        <ele>2179</ele>
        <time>2021-09-15T11:22:11Z</time>
      </trkpt>
      <trkpt lat="42.57738" lon="1.89473">
        <ele>2177</ele>
        <time>2021-09-15T11:22:18Z</time>
      </trkpt>
      <trkpt lat="42.57736" lon="1.89471">
        <ele>2177</ele>
        <time>2021-09-15T11:22:21Z</time>
      </trkpt>
      <trkpt lat="42.57734" lon="1.89463">
        <ele>2176</ele>
        <time>2021-09-15T11:22:28Z</time>
      </trkpt>
      <trkpt lat="42.57735" lon="1.89457">
        <ele>2175</ele>
        <time>2021-09-15T11:22:32Z</time>
      </trkpt>
      <trkpt lat="42.57735" lon="1.89455">
        <ele>2175</ele>
        <time>2021-09-15T11:22:34Z</time>
      </trkpt>
      <trkpt lat="42.57736" lon="1.89451">
        <ele>2175</ele>
        <time>2021-09-15T11:22:38Z</time>
      </trkpt>
      <trkpt lat="42.57735" lon="1.89448">
        <ele>2174</ele>
        <time>2021-09-15T11:22:43Z</time>
      </trkpt>
      <trkpt lat="42.57736" lon="1.89447">
        <ele>2174</ele>
        <time>2021-09-15T11:22:47Z</time>
      </trkpt>
      <trkpt lat="42.57733" lon="1.89445">
        <ele>2174</ele>
        <time>2021-09-15T11:22:53Z</time>
      </trkpt>
      <trkpt lat="42.57732" lon="1.89443">
        <ele>2174</ele>
        <time>2021-09-15T11:22:55Z</time>
      </trkpt>
      <trkpt lat="42.5773" lon="1.89438">
        <ele>2173</ele>
        <time>2021-09-15T11:22:59Z</time>
      </trkpt>
      <trkpt lat="42.57729" lon="1.89438">
        <ele>2172</ele>
        <time>2021-09-15T11:23:02Z</time>
      </trkpt>
      <trkpt lat="42.57727" lon="1.89436">
        <ele>2172</ele>
        <time>2021-09-15T11:23:06Z</time>
      </trkpt>
      <trkpt lat="42.57726" lon="1.89437">
        <ele>2170</ele>
        <time>2021-09-15T11:23:43Z</time>
      </trkpt>
      <trkpt lat="42.57724" lon="1.8944">
        <ele>2170</ele>
        <time>2021-09-15T11:23:45Z</time>
      </trkpt>
      <trkpt lat="42.57723" lon="1.89443">
        <ele>2169</ele>
        <time>2021-09-15T11:23:54Z</time>
      </trkpt>
      <trkpt lat="42.57726" lon="1.89438">
        <ele>2169</ele>
        <time>2021-09-15T11:24:10Z</time>
      </trkpt>
      <trkpt lat="42.57725" lon="1.89435">
        <ele>2170</ele>
        <time>2021-09-15T11:24:12Z</time>
      </trkpt>
      <trkpt lat="42.57724" lon="1.89433">
        <ele>2170</ele>
        <time>2021-09-15T11:24:14Z</time>
      </trkpt>
      <trkpt lat="42.57721" lon="1.89429">
        <ele>2170</ele>
        <time>2021-09-15T11:24:18Z</time>
      </trkpt>
      <trkpt lat="42.57719" lon="1.89427">
        <ele>2170</ele>
        <time>2021-09-15T11:24:20Z</time>
      </trkpt>
      <trkpt lat="42.57717" lon="1.89428">
        <ele>2170</ele>
        <time>2021-09-15T11:24:28Z</time>
      </trkpt>
      <trkpt lat="42.57715" lon="1.89427">
        <ele>2171</ele>
        <time>2021-09-15T11:24:31Z</time>
      </trkpt>
      <trkpt lat="42.57709" lon="1.89426">
        <ele>2171</ele>
        <time>2021-09-15T11:24:38Z</time>
      </trkpt>
      <trkpt lat="42.57707" lon="1.89427">
        <ele>2171</ele>
        <time>2021-09-15T11:24:40Z</time>
      </trkpt>
      <trkpt lat="42.57706" lon="1.89426">
        <ele>2170</ele>
        <time>2021-09-15T11:24:45Z</time>
      </trkpt>
      <trkpt lat="42.57704" lon="1.89426">
        <ele>2170</ele>
        <time>2021-09-15T11:24:48Z</time>
      </trkpt>
      <trkpt lat="42.57702" lon="1.89425">
        <ele>2169</ele>
        <time>2021-09-15T11:24:50Z</time>
      </trkpt>
      <trkpt lat="42.57701" lon="1.89425">
        <ele>2169</ele>
        <time>2021-09-15T11:24:53Z</time>
      </trkpt>
      <trkpt lat="42.57694" lon="1.89429">
        <ele>2168</ele>
        <time>2021-09-15T11:25:05Z</time>
      </trkpt>
      <trkpt lat="42.57693" lon="1.89431">
        <ele>2168</ele>
        <time>2021-09-15T11:25:07Z</time>
      </trkpt>
      <trkpt lat="42.57688" lon="1.8943">
        <ele>2167</ele>
        <time>2021-09-15T11:25:13Z</time>
      </trkpt>
      <trkpt lat="42.57683" lon="1.89431">
        <ele>2166</ele>
        <time>2021-09-15T11:25:17Z</time>
      </trkpt>
      <trkpt lat="42.57678" lon="1.89431">
        <ele>2166</ele>
        <time>2021-09-15T11:25:23Z</time>
      </trkpt>
      <trkpt lat="42.57671" lon="1.89433">
        <ele>2166</ele>
        <time>2021-09-15T11:25:29Z</time>
      </trkpt>
      <trkpt lat="42.57669" lon="1.89435">
        <ele>2166</ele>
        <time>2021-09-15T11:25:31Z</time>
      </trkpt>
      <trkpt lat="42.57669" lon="1.89434">
        <ele>2165</ele>
        <time>2021-09-15T11:25:42Z</time>
      </trkpt>
      <trkpt lat="42.57666" lon="1.89436">
        <ele>2164</ele>
        <time>2021-09-15T11:26:10Z</time>
      </trkpt>
      <trkpt lat="42.57664" lon="1.89438">
        <ele>2164</ele>
        <time>2021-09-15T11:26:16Z</time>
      </trkpt>
      <trkpt lat="42.57663" lon="1.8944">
        <ele>2164</ele>
        <time>2021-09-15T11:26:19Z</time>
      </trkpt>
      <trkpt lat="42.57662" lon="1.89443">
        <ele>2164</ele>
        <time>2021-09-15T11:26:22Z</time>
      </trkpt>
      <trkpt lat="42.57651" lon="1.89451">
        <ele>2165</ele>
        <time>2021-09-15T11:26:35Z</time>
      </trkpt>
      <trkpt lat="42.57648" lon="1.89453">
        <ele>2165</ele>
        <time>2021-09-15T11:26:39Z</time>
      </trkpt>
      <trkpt lat="42.57635" lon="1.89459">
        <ele>2165</ele>
        <time>2021-09-15T11:26:52Z</time>
      </trkpt>
      <trkpt lat="42.57632" lon="1.89461">
        <ele>2165</ele>
        <time>2021-09-15T11:26:56Z</time>
      </trkpt>
      <trkpt lat="42.5763" lon="1.89462">
        <ele>2165</ele>
        <time>2021-09-15T11:26:58Z</time>
      </trkpt>
      <trkpt lat="42.57626" lon="1.89462">
        <ele>2165</ele>
        <time>2021-09-15T11:27:02Z</time>
      </trkpt>
      <trkpt lat="42.57624" lon="1.89463">
        <ele>2165</ele>
        <time>2021-09-15T11:27:04Z</time>
      </trkpt>
      <trkpt lat="42.57617" lon="1.89466">
        <ele>2165</ele>
        <time>2021-09-15T11:27:14Z</time>
      </trkpt>
      <trkpt lat="42.57615" lon="1.89467">
        <ele>2165</ele>
        <time>2021-09-15T11:27:16Z</time>
      </trkpt>
      <trkpt lat="42.57597" lon="1.89472">
        <ele>2165</ele>
        <time>2021-09-15T11:27:37Z</time>
      </trkpt>
      <trkpt lat="42.57584" lon="1.89468">
        <ele>2165</ele>
        <time>2021-09-15T11:27:54Z</time>
      </trkpt>
      <trkpt lat="42.57582" lon="1.8947">
        <ele>2165</ele>
        <time>2021-09-15T11:27:57Z</time>
      </trkpt>
      <trkpt lat="42.57576" lon="1.89477">
        <ele>2165</ele>
        <time>2021-09-15T11:28:03Z</time>
      </trkpt>
      <trkpt lat="42.57564" lon="1.89477">
        <ele>2164</ele>
        <time>2021-09-15T11:28:17Z</time>
      </trkpt>
      <trkpt lat="42.57561" lon="1.89476">
        <ele>2164</ele>
        <time>2021-09-15T11:28:19Z</time>
      </trkpt>
      <trkpt lat="42.57559" lon="1.89475">
        <ele>2164</ele>
        <time>2021-09-15T11:28:22Z</time>
      </trkpt>
      <trkpt lat="42.57557" lon="1.89473">
        <ele>2164</ele>
        <time>2021-09-15T11:28:25Z</time>
      </trkpt>
      <trkpt lat="42.57543" lon="1.89464">
        <ele>2163</ele>
        <time>2021-09-15T11:28:44Z</time>
      </trkpt>
      <trkpt lat="42.57541" lon="1.89463">
        <ele>2162</ele>
        <time>2021-09-15T11:28:46Z</time>
      </trkpt>
      <trkpt lat="42.57536" lon="1.89465">
        <ele>2162</ele>
        <time>2021-09-15T11:28:51Z</time>
      </trkpt>
      <trkpt lat="42.57533" lon="1.89469">
        <ele>2162</ele>
        <time>2021-09-15T11:28:55Z</time>
      </trkpt>
      <trkpt lat="42.57532" lon="1.89472">
        <ele>2161</ele>
        <time>2021-09-15T11:28:59Z</time>
      </trkpt>
      <trkpt lat="42.57531" lon="1.89474">
        <ele>2161</ele>
        <time>2021-09-15T11:29:05Z</time>
      </trkpt>
      <trkpt lat="42.5753" lon="1.89477">
        <ele>2160</ele>
        <time>2021-09-15T11:29:23Z</time>
      </trkpt>
      <trkpt lat="42.57531" lon="1.8948">
        <ele>2161</ele>
        <time>2021-09-15T11:29:27Z</time>
      </trkpt>
      <trkpt lat="42.57531" lon="1.89483">
        <ele>2161</ele>
        <time>2021-09-15T11:29:31Z</time>
      </trkpt>
      <trkpt lat="42.5753" lon="1.89485">
        <ele>2160</ele>
        <time>2021-09-15T11:29:34Z</time>
      </trkpt>
      <trkpt lat="42.57532" lon="1.8949">
        <ele>2160</ele>
        <time>2021-09-15T11:29:51Z</time>
      </trkpt>
      <trkpt lat="42.57533" lon="1.89493">
        <ele>2160</ele>
        <time>2021-09-15T11:29:54Z</time>
      </trkpt>
      <trkpt lat="42.57531" lon="1.89531">
        <ele>2159</ele>
        <time>2021-09-15T11:30:25Z</time>
      </trkpt>
      <trkpt lat="42.5753" lon="1.89535">
        <ele>2159</ele>
        <time>2021-09-15T11:30:28Z</time>
      </trkpt>
      <trkpt lat="42.57525" lon="1.89547">
        <ele>2159</ele>
        <time>2021-09-15T11:30:40Z</time>
      </trkpt>
      <trkpt lat="42.57518" lon="1.8956">
        <ele>2158</ele>
        <time>2021-09-15T11:30:52Z</time>
      </trkpt>
      <trkpt lat="42.57516" lon="1.89566">
        <ele>2158</ele>
        <time>2021-09-15T11:30:56Z</time>
      </trkpt>
      <trkpt lat="42.57512" lon="1.89584">
        <ele>2158</ele>
        <time>2021-09-15T11:31:09Z</time>
      </trkpt>
      <trkpt lat="42.57511" lon="1.89596">
        <ele>2158</ele>
        <time>2021-09-15T11:31:18Z</time>
      </trkpt>
      <trkpt lat="42.5751" lon="1.89599">
        <ele>2158</ele>
        <time>2021-09-15T11:31:21Z</time>
      </trkpt>
      <trkpt lat="42.57509" lon="1.89621">
        <ele>2157</ele>
        <time>2021-09-15T11:31:39Z</time>
      </trkpt>
      <trkpt lat="42.57506" lon="1.8963">
        <ele>2157</ele>
        <time>2021-09-15T11:31:46Z</time>
      </trkpt>
      <trkpt lat="42.57499" lon="1.89649">
        <ele>2156</ele>
        <time>2021-09-15T11:32:02Z</time>
      </trkpt>
      <trkpt lat="42.57498" lon="1.89652">
        <ele>2156</ele>
        <time>2021-09-15T11:32:04Z</time>
      </trkpt>
      <trkpt lat="42.57496" lon="1.89654">
        <ele>2155</ele>
        <time>2021-09-15T11:32:07Z</time>
      </trkpt>
      <trkpt lat="42.57494" lon="1.89653">
        <ele>2155</ele>
        <time>2021-09-15T11:32:12Z</time>
      </trkpt>
      <trkpt lat="42.57494" lon="1.89647">
        <ele>2155</ele>
        <time>2021-09-15T11:32:19Z</time>
      </trkpt>
      <trkpt lat="42.57493" lon="1.89642">
        <ele>2155</ele>
        <time>2021-09-15T11:32:28Z</time>
      </trkpt>
      <trkpt lat="42.57494" lon="1.89633">
        <ele>2154</ele>
        <time>2021-09-15T11:32:37Z</time>
      </trkpt>
      <trkpt lat="42.57492" lon="1.89625">
        <ele>2153</ele>
        <time>2021-09-15T11:32:48Z</time>
      </trkpt>
      <trkpt lat="42.57491" lon="1.89623">
        <ele>2152</ele>
        <time>2021-09-15T11:32:52Z</time>
      </trkpt>
      <trkpt lat="42.57489" lon="1.89622">
        <ele>2152</ele>
        <time>2021-09-15T11:32:55Z</time>
      </trkpt>
      <trkpt lat="42.57487" lon="1.89621">
        <ele>2152</ele>
        <time>2021-09-15T11:32:58Z</time>
      </trkpt>
      <trkpt lat="42.57486" lon="1.89623">
        <ele>2151</ele>
        <time>2021-09-15T11:33:01Z</time>
      </trkpt>
      <trkpt lat="42.57485" lon="1.89635">
        <ele>2151</ele>
        <time>2021-09-15T11:33:09Z</time>
      </trkpt>
      <trkpt lat="42.57486" lon="1.89638">
        <ele>2150</ele>
        <time>2021-09-15T11:33:11Z</time>
      </trkpt>
      <trkpt lat="42.57485" lon="1.89641">
        <ele>2150</ele>
        <time>2021-09-15T11:33:13Z</time>
      </trkpt>
      <trkpt lat="42.57484" lon="1.89643">
        <ele>2150</ele>
        <time>2021-09-15T11:33:16Z</time>
      </trkpt>
      <trkpt lat="42.57484" lon="1.8965">
        <ele>2148</ele>
        <time>2021-09-15T11:33:22Z</time>
      </trkpt>
      <trkpt lat="42.57483" lon="1.89653">
        <ele>2148</ele>
        <time>2021-09-15T11:33:24Z</time>
      </trkpt>
      <trkpt lat="42.57483" lon="1.89657">
        <ele>2147</ele>
        <time>2021-09-15T11:33:28Z</time>
      </trkpt>
      <trkpt lat="42.57483" lon="1.8966">
        <ele>2147</ele>
        <time>2021-09-15T11:33:30Z</time>
      </trkpt>
      <trkpt lat="42.57483" lon="1.89663">
        <ele>2146</ele>
        <time>2021-09-15T11:33:32Z</time>
      </trkpt>
      <trkpt lat="42.57483" lon="1.89665">
        <ele>2147</ele>
        <time>2021-09-15T11:33:35Z</time>
      </trkpt>
      <trkpt lat="42.57483" lon="1.89678">
        <ele>2148</ele>
        <time>2021-09-15T11:33:44Z</time>
      </trkpt>
      <trkpt lat="42.57483" lon="1.89681">
        <ele>2147</ele>
        <time>2021-09-15T11:33:46Z</time>
      </trkpt>
      <trkpt lat="42.57482" lon="1.89683">
        <ele>2147</ele>
        <time>2021-09-15T11:33:50Z</time>
      </trkpt>
      <trkpt lat="42.57483" lon="1.89722">
        <ele>2145</ele>
        <time>2021-09-15T11:34:21Z</time>
      </trkpt>
      <trkpt lat="42.57484" lon="1.89725">
        <ele>2145</ele>
        <time>2021-09-15T11:34:23Z</time>
      </trkpt>
      <trkpt lat="42.57484" lon="1.89728">
        <ele>2145</ele>
        <time>2021-09-15T11:34:25Z</time>
      </trkpt>
      <trkpt lat="42.5748" lon="1.89735">
        <ele>2147</ele>
        <time>2021-09-15T11:34:35Z</time>
      </trkpt>
      <trkpt lat="42.5748" lon="1.8974">
        <ele>2147</ele>
        <time>2021-09-15T11:34:39Z</time>
      </trkpt>
      <trkpt lat="42.57481" lon="1.89747">
        <ele>2147</ele>
        <time>2021-09-15T11:34:44Z</time>
      </trkpt>
      <trkpt lat="42.57481" lon="1.89749">
        <ele>2146</ele>
        <time>2021-09-15T11:34:46Z</time>
      </trkpt>
      <trkpt lat="42.5748" lon="1.89759">
        <ele>2146</ele>
        <time>2021-09-15T11:34:58Z</time>
      </trkpt>
      <trkpt lat="42.57478" lon="1.89764">
        <ele>2146</ele>
        <time>2021-09-15T11:35:02Z</time>
      </trkpt>
      <trkpt lat="42.57476" lon="1.89767">
        <ele>2146</ele>
        <time>2021-09-15T11:35:05Z</time>
      </trkpt>
      <trkpt lat="42.57471" lon="1.8977">
        <ele>2146</ele>
        <time>2021-09-15T11:35:14Z</time>
      </trkpt>
      <trkpt lat="42.57468" lon="1.89771">
        <ele>2146</ele>
        <time>2021-09-15T11:35:17Z</time>
      </trkpt>
      <trkpt lat="42.57467" lon="1.89772">
        <ele>2146</ele>
        <time>2021-09-15T11:35:19Z</time>
      </trkpt>
      <trkpt lat="42.57465" lon="1.89774">
        <ele>2146</ele>
        <time>2021-09-15T11:35:23Z</time>
      </trkpt>
      <trkpt lat="42.57463" lon="1.89775">
        <ele>2146</ele>
        <time>2021-09-15T11:35:26Z</time>
      </trkpt>
      <trkpt lat="42.57461" lon="1.89776">
        <ele>2146</ele>
        <time>2021-09-15T11:35:28Z</time>
      </trkpt>
      <trkpt lat="42.5746" lon="1.89777">
        <ele>2146</ele>
        <time>2021-09-15T11:35:31Z</time>
      </trkpt>
      <trkpt lat="42.57457" lon="1.89776">
        <ele>2146</ele>
        <time>2021-09-15T11:35:33Z</time>
      </trkpt>
      <trkpt lat="42.57455" lon="1.89778">
        <ele>2146</ele>
        <time>2021-09-15T11:35:35Z</time>
      </trkpt>
      <trkpt lat="42.57454" lon="1.8978">
        <ele>2146</ele>
        <time>2021-09-15T11:35:37Z</time>
      </trkpt>
      <trkpt lat="42.57453" lon="1.89784">
        <ele>2146</ele>
        <time>2021-09-15T11:35:39Z</time>
      </trkpt>
      <trkpt lat="42.57452" lon="1.89786">
        <ele>2146</ele>
        <time>2021-09-15T11:35:41Z</time>
      </trkpt>
      <trkpt lat="42.57452" lon="1.89789">
        <ele>2147</ele>
        <time>2021-09-15T11:35:43Z</time>
      </trkpt>
      <trkpt lat="42.57452" lon="1.89791">
        <ele>2147</ele>
        <time>2021-09-15T11:35:45Z</time>
      </trkpt>
      <trkpt lat="42.57453" lon="1.89795">
        <ele>2148</ele>
        <time>2021-09-15T11:35:47Z</time>
      </trkpt>
      <trkpt lat="42.57453" lon="1.89797">
        <ele>2148</ele>
        <time>2021-09-15T11:35:48Z</time>
      </trkpt>
      <trkpt lat="42.57453" lon="1.898">
        <ele>2148</ele>
        <time>2021-09-15T11:35:50Z</time>
      </trkpt>
      <trkpt lat="42.57453" lon="1.89802">
        <ele>2148</ele>
        <time>2021-09-15T11:35:52Z</time>
      </trkpt>
      <trkpt lat="42.57451" lon="1.89803">
        <ele>2149</ele>
        <time>2021-09-15T11:35:55Z</time>
      </trkpt>
      <trkpt lat="42.5745" lon="1.89807">
        <ele>2149</ele>
        <time>2021-09-15T11:35:58Z</time>
      </trkpt>
      <trkpt lat="42.5745" lon="1.8981">
        <ele>2149</ele>
        <time>2021-09-15T11:36:01Z</time>
      </trkpt>
      <trkpt lat="42.57448" lon="1.89817">
        <ele>2149</ele>
        <time>2021-09-15T11:36:07Z</time>
      </trkpt>
      <trkpt lat="42.5744" lon="1.89842">
        <ele>2147</ele>
        <time>2021-09-15T11:36:28Z</time>
      </trkpt>
      <trkpt lat="42.57433" lon="1.89854">
        <ele>2145</ele>
        <time>2021-09-15T11:36:39Z</time>
      </trkpt>
      <trkpt lat="42.57431" lon="1.89859">
        <ele>2144</ele>
        <time>2021-09-15T11:36:43Z</time>
      </trkpt>
      <trkpt lat="42.57431" lon="1.89862">
        <ele>2143</ele>
        <time>2021-09-15T11:36:45Z</time>
      </trkpt>
      <trkpt lat="42.57433" lon="1.89868">
        <ele>2142</ele>
        <time>2021-09-15T11:36:52Z</time>
      </trkpt>
      <trkpt lat="42.57433" lon="1.8987">
        <ele>2142</ele>
        <time>2021-09-15T11:36:54Z</time>
      </trkpt>
      <trkpt lat="42.57434" lon="1.89876">
        <ele>2140</ele>
        <time>2021-09-15T11:36:58Z</time>
      </trkpt>
      <trkpt lat="42.57434" lon="1.89881">
        <ele>2139</ele>
        <time>2021-09-15T11:37:03Z</time>
      </trkpt>
      <trkpt lat="42.57434" lon="1.89884">
        <ele>2139</ele>
        <time>2021-09-15T11:37:05Z</time>
      </trkpt>
      <trkpt lat="42.57434" lon="1.89883">
        <ele>2138</ele>
        <time>2021-09-15T11:37:36Z</time>
      </trkpt>
      <trkpt lat="42.57434" lon="1.89883">
        <ele>2135</ele>
        <time>2021-09-15T11:37:50Z</time>
      </trkpt>
      <trkpt lat="42.57432" lon="1.8989">
        <ele>2134</ele>
        <time>2021-09-15T11:37:56Z</time>
      </trkpt>
      <trkpt lat="42.5743" lon="1.89891">
        <ele>2134</ele>
        <time>2021-09-15T11:38:02Z</time>
      </trkpt>
      <trkpt lat="42.57437" lon="1.89893">
        <ele>2133</ele>
        <time>2021-09-15T11:38:37Z</time>
      </trkpt>
      <trkpt lat="42.57439" lon="1.89894">
        <ele>2132</ele>
        <time>2021-09-15T11:38:41Z</time>
      </trkpt>
      <trkpt lat="42.57439" lon="1.89888">
        <ele>2132</ele>
        <time>2021-09-15T11:40:40Z</time>
      </trkpt>
      <trkpt lat="42.57439" lon="1.89891">
        <ele>2132</ele>
        <time>2021-09-15T11:40:43Z</time>
      </trkpt>
      <trkpt lat="42.57437" lon="1.89895">
        <ele>2132</ele>
        <time>2021-09-15T11:40:48Z</time>
      </trkpt>
      <trkpt lat="42.57436" lon="1.89901">
        <ele>2133</ele>
        <time>2021-09-15T11:40:53Z</time>
      </trkpt>
      <trkpt lat="42.57429" lon="1.89915">
        <ele>2135</ele>
        <time>2021-09-15T11:41:11Z</time>
      </trkpt>
      <trkpt lat="42.57429" lon="1.89917">
        <ele>2135</ele>
        <time>2021-09-15T11:41:13Z</time>
      </trkpt>
      <trkpt lat="42.57424" lon="1.89927">
        <ele>2135</ele>
        <time>2021-09-15T11:41:25Z</time>
      </trkpt>
      <trkpt lat="42.57422" lon="1.89929">
        <ele>2135</ele>
        <time>2021-09-15T11:41:28Z</time>
      </trkpt>
      <trkpt lat="42.5742" lon="1.89943">
        <ele>2135</ele>
        <time>2021-09-15T11:41:40Z</time>
      </trkpt>
      <trkpt lat="42.57419" lon="1.89945">
        <ele>2136</ele>
        <time>2021-09-15T11:41:42Z</time>
      </trkpt>
      <trkpt lat="42.57416" lon="1.89951">
        <ele>2136</ele>
        <time>2021-09-15T11:41:49Z</time>
      </trkpt>
      <trkpt lat="42.57412" lon="1.89983">
        <ele>2136</ele>
        <time>2021-09-15T11:42:15Z</time>
      </trkpt>
      <trkpt lat="42.57412" lon="1.89985">
        <ele>2136</ele>
        <time>2021-09-15T11:42:21Z</time>
      </trkpt>
      <trkpt lat="42.5741" lon="1.89986">
        <ele>2136</ele>
        <time>2021-09-15T11:42:25Z</time>
      </trkpt>
      <trkpt lat="42.57407" lon="1.90002">
        <ele>2135</ele>
        <time>2021-09-15T11:43:01Z</time>
      </trkpt>
      <trkpt lat="42.57407" lon="1.89998">
        <ele>2135</ele>
        <time>2021-09-15T11:43:08Z</time>
      </trkpt>
      <trkpt lat="42.57408" lon="1.89991">
        <ele>2132</ele>
        <time>2021-09-15T11:43:52Z</time>
      </trkpt>
      <trkpt lat="42.57404" lon="1.89988">
        <ele>2132</ele>
        <time>2021-09-15T11:44:11Z</time>
      </trkpt>
      <trkpt lat="42.57404" lon="1.89982">
        <ele>2132</ele>
        <time>2021-09-15T11:44:16Z</time>
      </trkpt>
      <trkpt lat="42.57406" lon="1.8998">
        <ele>2132</ele>
        <time>2021-09-15T11:44:23Z</time>
      </trkpt>
      <trkpt lat="42.57406" lon="1.89977">
        <ele>2132</ele>
        <time>2021-09-15T11:44:27Z</time>
      </trkpt>
      <trkpt lat="42.574" lon="1.89977">
        <ele>2132</ele>
        <time>2021-09-15T11:44:41Z</time>
      </trkpt>
      <trkpt lat="42.57407" lon="1.89969">
        <ele>2132</ele>
        <time>2021-09-15T11:45:38Z</time>
      </trkpt>
      <trkpt lat="42.57406" lon="1.8997">
        <ele>2132</ele>
        <time>2021-09-15T11:47:43Z</time>
      </trkpt>
      <trkpt lat="42.57407" lon="1.89975">
        <ele>2128</ele>
        <time>2021-09-15T11:48:50Z</time>
      </trkpt>
      <trkpt lat="42.57405" lon="1.89977">
        <ele>2126</ele>
        <time>2021-09-15T11:48:54Z</time>
      </trkpt>
      <trkpt lat="42.57404" lon="1.89978">
        <ele>2127</ele>
        <time>2021-09-15T11:48:57Z</time>
      </trkpt>
      <trkpt lat="42.57402" lon="1.89984">
        <ele>2127</ele>
        <time>2021-09-15T11:49:02Z</time>
      </trkpt>
      <trkpt lat="42.57403" lon="1.89986">
        <ele>2128</ele>
        <time>2021-09-15T11:49:04Z</time>
      </trkpt>
      <trkpt lat="42.57403" lon="1.89988">
        <ele>2128</ele>
        <time>2021-09-15T11:49:06Z</time>
      </trkpt>
      <trkpt lat="42.57404" lon="1.89991">
        <ele>2129</ele>
        <time>2021-09-15T11:49:11Z</time>
      </trkpt>
      <trkpt lat="42.57405" lon="1.89992">
        <ele>2129</ele>
        <time>2021-09-15T11:49:13Z</time>
      </trkpt>
      <trkpt lat="42.57406" lon="1.89994">
        <ele>2130</ele>
        <time>2021-09-15T11:49:17Z</time>
      </trkpt>
      <trkpt lat="42.57407" lon="1.89995">
        <ele>2130</ele>
        <time>2021-09-15T11:49:23Z</time>
      </trkpt>
      <trkpt lat="42.57411" lon="1.89997">
        <ele>2133</ele>
        <time>2021-09-15T11:51:26Z</time>
      </trkpt>
      <trkpt lat="42.57412" lon="1.90002">
        <ele>2136</ele>
        <time>2021-09-15T11:51:31Z</time>
      </trkpt>
      <trkpt lat="42.5741" lon="1.90024">
        <ele>2136</ele>
        <time>2021-09-15T11:51:52Z</time>
      </trkpt>
      <trkpt lat="42.57409" lon="1.90028">
        <ele>2135</ele>
        <time>2021-09-15T11:51:56Z</time>
      </trkpt>
      <trkpt lat="42.57408" lon="1.90031">
        <ele>2135</ele>
        <time>2021-09-15T11:51:58Z</time>
      </trkpt>
      <trkpt lat="42.57408" lon="1.90033">
        <ele>2135</ele>
        <time>2021-09-15T11:52:00Z</time>
      </trkpt>
      <trkpt lat="42.57406" lon="1.90037">
        <ele>2135</ele>
        <time>2021-09-15T11:52:04Z</time>
      </trkpt>
      <trkpt lat="42.57402" lon="1.90044">
        <ele>2134</ele>
        <time>2021-09-15T11:52:10Z</time>
      </trkpt>
      <trkpt lat="42.57401" lon="1.90048">
        <ele>2134</ele>
        <time>2021-09-15T11:52:15Z</time>
      </trkpt>
      <trkpt lat="42.574" lon="1.90053">
        <ele>2132</ele>
        <time>2021-09-15T11:52:41Z</time>
      </trkpt>
      <trkpt lat="42.574" lon="1.90058">
        <ele>2131</ele>
        <time>2021-09-15T11:52:45Z</time>
      </trkpt>
      <trkpt lat="42.57401" lon="1.9006">
        <ele>2131</ele>
        <time>2021-09-15T11:52:47Z</time>
      </trkpt>
      <trkpt lat="42.57402" lon="1.90065">
        <ele>2130</ele>
        <time>2021-09-15T11:52:51Z</time>
      </trkpt>
      <trkpt lat="42.57404" lon="1.90081">
        <ele>2131</ele>
        <time>2021-09-15T11:53:04Z</time>
      </trkpt>
      <trkpt lat="42.57403" lon="1.90085">
        <ele>2131</ele>
        <time>2021-09-15T11:53:09Z</time>
      </trkpt>
      <trkpt lat="42.57403" lon="1.90091">
        <ele>2131</ele>
        <time>2021-09-15T11:53:14Z</time>
      </trkpt>
      <trkpt lat="42.57398" lon="1.90102">
        <ele>2130</ele>
        <time>2021-09-15T11:53:26Z</time>
      </trkpt>
      <trkpt lat="42.57396" lon="1.90109">
        <ele>2130</ele>
        <time>2021-09-15T11:53:36Z</time>
      </trkpt>
      <trkpt lat="42.57395" lon="1.90112">
        <ele>2130</ele>
        <time>2021-09-15T11:53:39Z</time>
      </trkpt>
      <trkpt lat="42.57388" lon="1.90118">
        <ele>2132</ele>
        <time>2021-09-15T11:53:52Z</time>
      </trkpt>
      <trkpt lat="42.57385" lon="1.90119">
        <ele>2132</ele>
        <time>2021-09-15T11:53:55Z</time>
      </trkpt>
      <trkpt lat="42.57383" lon="1.90117">
        <ele>2133</ele>
        <time>2021-09-15T11:53:57Z</time>
      </trkpt>
      <trkpt lat="42.57382" lon="1.90116">
        <ele>2133</ele>
        <time>2021-09-15T11:53:59Z</time>
      </trkpt>
      <trkpt lat="42.5738" lon="1.90115">
        <ele>2133</ele>
        <time>2021-09-15T11:54:02Z</time>
      </trkpt>
      <trkpt lat="42.57378" lon="1.90115">
        <ele>2134</ele>
        <time>2021-09-15T11:54:05Z</time>
      </trkpt>
      <trkpt lat="42.57374" lon="1.90116">
        <ele>2134</ele>
        <time>2021-09-15T11:54:11Z</time>
      </trkpt>
      <trkpt lat="42.57367" lon="1.9012">
        <ele>2134</ele>
        <time>2021-09-15T11:54:18Z</time>
      </trkpt>
      <trkpt lat="42.57363" lon="1.90125">
        <ele>2134</ele>
        <time>2021-09-15T11:54:26Z</time>
      </trkpt>
      <trkpt lat="42.57359" lon="1.90127">
        <ele>2134</ele>
        <time>2021-09-15T11:54:34Z</time>
      </trkpt>
      <trkpt lat="42.57356" lon="1.90131">
        <ele>2134</ele>
        <time>2021-09-15T11:54:40Z</time>
      </trkpt>
      <trkpt lat="42.57354" lon="1.90133">
        <ele>2134</ele>
        <time>2021-09-15T11:54:44Z</time>
      </trkpt>
      <trkpt lat="42.57353" lon="1.90135">
        <ele>2134</ele>
        <time>2021-09-15T11:54:49Z</time>
      </trkpt>
      <trkpt lat="42.57351" lon="1.90134">
        <ele>2133</ele>
        <time>2021-09-15T11:54:54Z</time>
      </trkpt>
      <trkpt lat="42.57349" lon="1.90133">
        <ele>2133</ele>
        <time>2021-09-15T11:54:57Z</time>
      </trkpt>
      <trkpt lat="42.57345" lon="1.90133">
        <ele>2133</ele>
        <time>2021-09-15T11:55:02Z</time>
      </trkpt>
      <trkpt lat="42.57341" lon="1.90133">
        <ele>2134</ele>
        <time>2021-09-15T11:55:07Z</time>
      </trkpt>
      <trkpt lat="42.57338" lon="1.90134">
        <ele>2134</ele>
        <time>2021-09-15T11:55:10Z</time>
      </trkpt>
      <trkpt lat="42.57334" lon="1.90138">
        <ele>2133</ele>
        <time>2021-09-15T11:55:16Z</time>
      </trkpt>
      <trkpt lat="42.57332" lon="1.90138">
        <ele>2133</ele>
        <time>2021-09-15T11:55:20Z</time>
      </trkpt>
      <trkpt lat="42.5733" lon="1.90138">
        <ele>2132</ele>
        <time>2021-09-15T11:55:24Z</time>
      </trkpt>
      <trkpt lat="42.57329" lon="1.9014">
        <ele>2132</ele>
        <time>2021-09-15T11:55:26Z</time>
      </trkpt>
      <trkpt lat="42.57325" lon="1.90141">
        <ele>2131</ele>
        <time>2021-09-15T11:55:32Z</time>
      </trkpt>
      <trkpt lat="42.57324" lon="1.90142">
        <ele>2131</ele>
        <time>2021-09-15T11:55:34Z</time>
      </trkpt>
      <trkpt lat="42.57322" lon="1.90143">
        <ele>2130</ele>
        <time>2021-09-15T11:55:36Z</time>
      </trkpt>
      <trkpt lat="42.57318" lon="1.90149">
        <ele>2130</ele>
        <time>2021-09-15T11:55:40Z</time>
      </trkpt>
      <trkpt lat="42.57317" lon="1.90151">
        <ele>2130</ele>
        <time>2021-09-15T11:55:42Z</time>
      </trkpt>
      <trkpt lat="42.57315" lon="1.90153">
        <ele>2130</ele>
        <time>2021-09-15T11:55:45Z</time>
      </trkpt>
      <trkpt lat="42.57313" lon="1.90154">
        <ele>2130</ele>
        <time>2021-09-15T11:55:49Z</time>
      </trkpt>
      <trkpt lat="42.57311" lon="1.90154">
        <ele>2130</ele>
        <time>2021-09-15T11:55:51Z</time>
      </trkpt>
      <trkpt lat="42.5731" lon="1.90152">
        <ele>2130</ele>
        <time>2021-09-15T11:55:54Z</time>
      </trkpt>
      <trkpt lat="42.57302" lon="1.90153">
        <ele>2129</ele>
        <time>2021-09-15T11:56:03Z</time>
      </trkpt>
      <trkpt lat="42.573" lon="1.90156">
        <ele>2128</ele>
        <time>2021-09-15T11:56:11Z</time>
      </trkpt>
      <trkpt lat="42.57295" lon="1.9016">
        <ele>2127</ele>
        <time>2021-09-15T11:56:18Z</time>
      </trkpt>
      <trkpt lat="42.57293" lon="1.90161">
        <ele>2127</ele>
        <time>2021-09-15T11:56:22Z</time>
      </trkpt>
      <trkpt lat="42.57291" lon="1.90161">
        <ele>2126</ele>
        <time>2021-09-15T11:56:24Z</time>
      </trkpt>
      <trkpt lat="42.57286" lon="1.90161">
        <ele>2125</ele>
        <time>2021-09-15T11:56:36Z</time>
      </trkpt>
      <trkpt lat="42.57284" lon="1.9016">
        <ele>2125</ele>
        <time>2021-09-15T11:56:39Z</time>
      </trkpt>
      <trkpt lat="42.57282" lon="1.9016">
        <ele>2125</ele>
        <time>2021-09-15T11:56:42Z</time>
      </trkpt>
      <trkpt lat="42.5728" lon="1.90159">
        <ele>2125</ele>
        <time>2021-09-15T11:56:47Z</time>
      </trkpt>
      <trkpt lat="42.5728" lon="1.90157">
        <ele>2125</ele>
        <time>2021-09-15T11:56:51Z</time>
      </trkpt>
      <trkpt lat="42.57278" lon="1.90156">
        <ele>2125</ele>
        <time>2021-09-15T11:56:53Z</time>
      </trkpt>
      <trkpt lat="42.57275" lon="1.90155">
        <ele>2125</ele>
        <time>2021-09-15T11:56:55Z</time>
      </trkpt>
      <trkpt lat="42.5727" lon="1.90154">
        <ele>2125</ele>
        <time>2021-09-15T11:56:59Z</time>
      </trkpt>
      <trkpt lat="42.57267" lon="1.90154">
        <ele>2125</ele>
        <time>2021-09-15T11:57:01Z</time>
      </trkpt>
      <trkpt lat="42.57264" lon="1.90153">
        <ele>2125</ele>
        <time>2021-09-15T11:57:04Z</time>
      </trkpt>
      <trkpt lat="42.57263" lon="1.90152">
        <ele>2125</ele>
        <time>2021-09-15T11:57:06Z</time>
      </trkpt>
      <trkpt lat="42.57256" lon="1.90146">
        <ele>2124</ele>
        <time>2021-09-15T11:57:14Z</time>
      </trkpt>
      <trkpt lat="42.57256" lon="1.90143">
        <ele>2123</ele>
        <time>2021-09-15T11:57:20Z</time>
      </trkpt>
      <trkpt lat="42.57254" lon="1.9014">
        <ele>2122</ele>
        <time>2021-09-15T11:57:27Z</time>
      </trkpt>
      <trkpt lat="42.57254" lon="1.90137">
        <ele>2122</ele>
        <time>2021-09-15T11:57:37Z</time>
      </trkpt>
      <trkpt lat="42.57253" lon="1.90135">
        <ele>2122</ele>
        <time>2021-09-15T11:57:41Z</time>
      </trkpt>
      <trkpt lat="42.57252" lon="1.90132">
        <ele>2122</ele>
        <time>2021-09-15T11:57:44Z</time>
      </trkpt>
      <trkpt lat="42.57252" lon="1.90126">
        <ele>2123</ele>
        <time>2021-09-15T11:57:50Z</time>
      </trkpt>
      <trkpt lat="42.57251" lon="1.90124">
        <ele>2122</ele>
        <time>2021-09-15T11:57:52Z</time>
      </trkpt>
      <trkpt lat="42.5725" lon="1.90122">
        <ele>2122</ele>
        <time>2021-09-15T11:57:54Z</time>
      </trkpt>
      <trkpt lat="42.57246" lon="1.90113">
        <ele>2122</ele>
        <time>2021-09-15T11:58:03Z</time>
      </trkpt>
      <trkpt lat="42.57244" lon="1.90111">
        <ele>2122</ele>
        <time>2021-09-15T11:58:05Z</time>
      </trkpt>
      <trkpt lat="42.57231" lon="1.90101">
        <ele>2120</ele>
        <time>2021-09-15T11:58:25Z</time>
      </trkpt>
      <trkpt lat="42.57228" lon="1.90098">
        <ele>2119</ele>
        <time>2021-09-15T11:58:32Z</time>
      </trkpt>
      <trkpt lat="42.57226" lon="1.90098">
        <ele>2118</ele>
        <time>2021-09-15T11:58:35Z</time>
      </trkpt>
      <trkpt lat="42.57225" lon="1.90099">
        <ele>2118</ele>
        <time>2021-09-15T11:58:38Z</time>
      </trkpt>
      <trkpt lat="42.57221" lon="1.90107">
        <ele>2116</ele>
        <time>2021-09-15T11:58:44Z</time>
      </trkpt>
      <trkpt lat="42.57221" lon="1.90109">
        <ele>2116</ele>
        <time>2021-09-15T11:58:46Z</time>
      </trkpt>
      <trkpt lat="42.57217" lon="1.90119">
        <ele>2113</ele>
        <time>2021-09-15T11:59:03Z</time>
      </trkpt>
      <trkpt lat="42.5721" lon="1.90122">
        <ele>2111</ele>
        <time>2021-09-15T11:59:14Z</time>
      </trkpt>
      <trkpt lat="42.57203" lon="1.9013">
        <ele>2111</ele>
        <time>2021-09-15T11:59:23Z</time>
      </trkpt>
      <trkpt lat="42.57202" lon="1.90133">
        <ele>2110</ele>
        <time>2021-09-15T11:59:25Z</time>
      </trkpt>
      <trkpt lat="42.57197" lon="1.90139">
        <ele>2111</ele>
        <time>2021-09-15T11:59:33Z</time>
      </trkpt>
      <trkpt lat="42.57196" lon="1.9014">
        <ele>2111</ele>
        <time>2021-09-15T11:59:35Z</time>
      </trkpt>
      <trkpt lat="42.57194" lon="1.9014">
        <ele>2111</ele>
        <time>2021-09-15T11:59:38Z</time>
      </trkpt>
      <trkpt lat="42.57185" lon="1.9015">
        <ele>2112</ele>
        <time>2021-09-15T11:59:52Z</time>
      </trkpt>
      <trkpt lat="42.57183" lon="1.9015">
        <ele>2113</ele>
        <time>2021-09-15T11:59:54Z</time>
      </trkpt>
      <trkpt lat="42.57181" lon="1.90149">
        <ele>2113</ele>
        <time>2021-09-15T11:59:56Z</time>
      </trkpt>
      <trkpt lat="42.57179" lon="1.90146">
        <ele>2113</ele>
        <time>2021-09-15T12:00:04Z</time>
      </trkpt>
      <trkpt lat="42.57177" lon="1.90144">
        <ele>2114</ele>
        <time>2021-09-15T12:00:07Z</time>
      </trkpt>
      <trkpt lat="42.57175" lon="1.90144">
        <ele>2114</ele>
        <time>2021-09-15T12:00:09Z</time>
      </trkpt>
      <trkpt lat="42.57172" lon="1.90147">
        <ele>2115</ele>
        <time>2021-09-15T12:00:15Z</time>
      </trkpt>
      <trkpt lat="42.57171" lon="1.9015">
        <ele>2115</ele>
        <time>2021-09-15T12:00:18Z</time>
      </trkpt>
      <trkpt lat="42.5717" lon="1.90151">
        <ele>2116</ele>
        <time>2021-09-15T12:00:20Z</time>
      </trkpt>
      <trkpt lat="42.57168" lon="1.90157">
        <ele>2116</ele>
        <time>2021-09-15T12:00:24Z</time>
      </trkpt>
      <trkpt lat="42.57166" lon="1.90166">
        <ele>2117</ele>
        <time>2021-09-15T12:00:34Z</time>
      </trkpt>
      <trkpt lat="42.57163" lon="1.90169">
        <ele>2117</ele>
        <time>2021-09-15T12:00:38Z</time>
      </trkpt>
      <trkpt lat="42.57163" lon="1.90171">
        <ele>2117</ele>
        <time>2021-09-15T12:00:40Z</time>
      </trkpt>
      <trkpt lat="42.57162" lon="1.90173">
        <ele>2118</ele>
        <time>2021-09-15T12:00:43Z</time>
      </trkpt>
      <trkpt lat="42.57157" lon="1.90182">
        <ele>2119</ele>
        <time>2021-09-15T12:00:55Z</time>
      </trkpt>
      <trkpt lat="42.57155" lon="1.90187">
        <ele>2119</ele>
        <time>2021-09-15T12:00:59Z</time>
      </trkpt>
      <trkpt lat="42.57153" lon="1.90191">
        <ele>2119</ele>
        <time>2021-09-15T12:01:04Z</time>
      </trkpt>
      <trkpt lat="42.57152" lon="1.90194">
        <ele>2119</ele>
        <time>2021-09-15T12:01:06Z</time>
      </trkpt>
      <trkpt lat="42.57151" lon="1.90202">
        <ele>2119</ele>
        <time>2021-09-15T12:01:14Z</time>
      </trkpt>
      <trkpt lat="42.5715" lon="1.90203">
        <ele>2119</ele>
        <time>2021-09-15T12:01:17Z</time>
      </trkpt>
      <trkpt lat="42.57146" lon="1.90206">
        <ele>2120</ele>
        <time>2021-09-15T12:01:24Z</time>
      </trkpt>
      <trkpt lat="42.57137" lon="1.9021">
        <ele>2122</ele>
        <time>2021-09-15T12:01:37Z</time>
      </trkpt>
      <trkpt lat="42.57133" lon="1.90216">
        <ele>2123</ele>
        <time>2021-09-15T12:01:45Z</time>
      </trkpt>
      <trkpt lat="42.57131" lon="1.90216">
        <ele>2124</ele>
        <time>2021-09-15T12:01:49Z</time>
      </trkpt>
      <trkpt lat="42.57129" lon="1.90216">
        <ele>2124</ele>
        <time>2021-09-15T12:01:54Z</time>
      </trkpt>
      <trkpt lat="42.57127" lon="1.90216">
        <ele>2125</ele>
        <time>2021-09-15T12:01:58Z</time>
      </trkpt>
      <trkpt lat="42.57123" lon="1.90215">
        <ele>2126</ele>
        <time>2021-09-15T12:02:06Z</time>
      </trkpt>
      <trkpt lat="42.57121" lon="1.90214">
        <ele>2126</ele>
        <time>2021-09-15T12:02:10Z</time>
      </trkpt>
      <trkpt lat="42.57118" lon="1.9021">
        <ele>2127</ele>
        <time>2021-09-15T12:02:16Z</time>
      </trkpt>
      <trkpt lat="42.57118" lon="1.90208">
        <ele>2128</ele>
        <time>2021-09-15T12:02:21Z</time>
      </trkpt>
      <trkpt lat="42.57117" lon="1.90208">
        <ele>2128</ele>
        <time>2021-09-15T12:04:12Z</time>
      </trkpt>
      <trkpt lat="42.57116" lon="1.90206">
        <ele>2128</ele>
        <time>2021-09-15T12:04:15Z</time>
      </trkpt>
      <trkpt lat="42.57114" lon="1.90204">
        <ele>2128</ele>
        <time>2021-09-15T12:04:18Z</time>
      </trkpt>
      <trkpt lat="42.57107" lon="1.902">
        <ele>2129</ele>
        <time>2021-09-15T12:04:25Z</time>
      </trkpt>
      <trkpt lat="42.57102" lon="1.90195">
        <ele>2129</ele>
        <time>2021-09-15T12:04:31Z</time>
      </trkpt>
      <trkpt lat="42.571" lon="1.90194">
        <ele>2128</ele>
        <time>2021-09-15T12:04:33Z</time>
      </trkpt>
      <trkpt lat="42.57098" lon="1.90193">
        <ele>2128</ele>
        <time>2021-09-15T12:04:35Z</time>
      </trkpt>
      <trkpt lat="42.57094" lon="1.90195">
        <ele>2128</ele>
        <time>2021-09-15T12:04:38Z</time>
      </trkpt>
      <trkpt lat="42.57092" lon="1.90197">
        <ele>2128</ele>
        <time>2021-09-15T12:04:40Z</time>
      </trkpt>
      <trkpt lat="42.5709" lon="1.90197">
        <ele>2128</ele>
        <time>2021-09-15T12:04:43Z</time>
      </trkpt>
      <trkpt lat="42.57085" lon="1.90201">
        <ele>2128</ele>
        <time>2021-09-15T12:04:51Z</time>
      </trkpt>
      <trkpt lat="42.57086" lon="1.90203">
        <ele>2127</ele>
        <time>2021-09-15T12:04:56Z</time>
      </trkpt>
      <trkpt lat="42.57084" lon="1.90206">
        <ele>2127</ele>
        <time>2021-09-15T12:05:05Z</time>
      </trkpt>
      <trkpt lat="42.57081" lon="1.90207">
        <ele>2127</ele>
        <time>2021-09-15T12:05:07Z</time>
      </trkpt>
      <trkpt lat="42.57079" lon="1.90207">
        <ele>2126</ele>
        <time>2021-09-15T12:05:09Z</time>
      </trkpt>
      <trkpt lat="42.57075" lon="1.90205">
        <ele>2126</ele>
        <time>2021-09-15T12:05:14Z</time>
      </trkpt>
      <trkpt lat="42.57069" lon="1.90202">
        <ele>2127</ele>
        <time>2021-09-15T12:05:21Z</time>
      </trkpt>
      <trkpt lat="42.57068" lon="1.90203">
        <ele>2127</ele>
        <time>2021-09-15T12:05:25Z</time>
      </trkpt>
      <trkpt lat="42.57068" lon="1.90205">
        <ele>2126</ele>
        <time>2021-09-15T12:05:31Z</time>
      </trkpt>
      <trkpt lat="42.57066" lon="1.90202">
        <ele>2126</ele>
        <time>2021-09-15T12:06:04Z</time>
      </trkpt>
      <trkpt lat="42.57053" lon="1.90194">
        <ele>2127</ele>
        <time>2021-09-15T12:06:19Z</time>
      </trkpt>
      <trkpt lat="42.57051" lon="1.90194">
        <ele>2127</ele>
        <time>2021-09-15T12:06:21Z</time>
      </trkpt>
      <trkpt lat="42.5705" lon="1.90195">
        <ele>2127</ele>
        <time>2021-09-15T12:06:24Z</time>
      </trkpt>
      <trkpt lat="42.57044" lon="1.90194">
        <ele>2126</ele>
        <time>2021-09-15T12:06:31Z</time>
      </trkpt>
      <trkpt lat="42.57034" lon="1.90187">
        <ele>2125</ele>
        <time>2021-09-15T12:06:41Z</time>
      </trkpt>
      <trkpt lat="42.57033" lon="1.90186">
        <ele>2125</ele>
        <time>2021-09-15T12:06:43Z</time>
      </trkpt>
      <trkpt lat="42.57019" lon="1.90184">
        <ele>2124</ele>
        <time>2021-09-15T12:06:57Z</time>
      </trkpt>
      <trkpt lat="42.57017" lon="1.90184">
        <ele>2124</ele>
        <time>2021-09-15T12:06:59Z</time>
      </trkpt>
      <trkpt lat="42.57015" lon="1.90186">
        <ele>2123</ele>
        <time>2021-09-15T12:07:04Z</time>
      </trkpt>
      <trkpt lat="42.57014" lon="1.90187">
        <ele>2123</ele>
        <time>2021-09-15T12:07:12Z</time>
      </trkpt>
      <trkpt lat="42.57012" lon="1.90186">
        <ele>2123</ele>
        <time>2021-09-15T12:07:15Z</time>
      </trkpt>
      <trkpt lat="42.57008" lon="1.90184">
        <ele>2123</ele>
        <time>2021-09-15T12:07:19Z</time>
      </trkpt>
      <trkpt lat="42.56996" lon="1.90183">
        <ele>2124</ele>
        <time>2021-09-15T12:07:29Z</time>
      </trkpt>
      <trkpt lat="42.56994" lon="1.90183">
        <ele>2124</ele>
        <time>2021-09-15T12:07:31Z</time>
      </trkpt>
      <trkpt lat="42.56992" lon="1.90183">
        <ele>2124</ele>
        <time>2021-09-15T12:07:33Z</time>
      </trkpt>
      <trkpt lat="42.56989" lon="1.90184">
        <ele>2124</ele>
        <time>2021-09-15T12:07:35Z</time>
      </trkpt>
      <trkpt lat="42.56988" lon="1.90185">
        <ele>2124</ele>
        <time>2021-09-15T12:07:37Z</time>
      </trkpt>
      <trkpt lat="42.56987" lon="1.90187">
        <ele>2124</ele>
        <time>2021-09-15T12:07:39Z</time>
      </trkpt>
      <trkpt lat="42.56985" lon="1.90188">
        <ele>2124</ele>
        <time>2021-09-15T12:07:41Z</time>
      </trkpt>
      <trkpt lat="42.5698" lon="1.90188">
        <ele>2125</ele>
        <time>2021-09-15T12:07:45Z</time>
      </trkpt>
      <trkpt lat="42.56979" lon="1.90187">
        <ele>2124</ele>
        <time>2021-09-15T12:07:49Z</time>
      </trkpt>
      <trkpt lat="42.56978" lon="1.90185">
        <ele>2124</ele>
        <time>2021-09-15T12:07:51Z</time>
      </trkpt>
      <trkpt lat="42.56974" lon="1.9018">
        <ele>2124</ele>
        <time>2021-09-15T12:07:57Z</time>
      </trkpt>
      <trkpt lat="42.56973" lon="1.90177">
        <ele>2124</ele>
        <time>2021-09-15T12:07:59Z</time>
      </trkpt>
      <trkpt lat="42.5697" lon="1.90174">
        <ele>2124</ele>
        <time>2021-09-15T12:08:04Z</time>
      </trkpt>
      <trkpt lat="42.56964" lon="1.90167">
        <ele>2124</ele>
        <time>2021-09-15T12:08:13Z</time>
      </trkpt>
      <trkpt lat="42.56959" lon="1.90157">
        <ele>2124</ele>
        <time>2021-09-15T12:08:22Z</time>
      </trkpt>
      <trkpt lat="42.56958" lon="1.90152">
        <ele>2123</ele>
        <time>2021-09-15T12:08:26Z</time>
      </trkpt>
      <trkpt lat="42.56945" lon="1.90129">
        <ele>2123</ele>
        <time>2021-09-15T12:08:50Z</time>
      </trkpt>
      <trkpt lat="42.56944" lon="1.90128">
        <ele>2123</ele>
        <time>2021-09-15T12:08:52Z</time>
      </trkpt>
      <trkpt lat="42.56942" lon="1.90126">
        <ele>2123</ele>
        <time>2021-09-15T12:08:54Z</time>
      </trkpt>
      <trkpt lat="42.56941" lon="1.90123">
        <ele>2123</ele>
        <time>2021-09-15T12:08:56Z</time>
      </trkpt>
      <trkpt lat="42.56939" lon="1.90122">
        <ele>2123</ele>
        <time>2021-09-15T12:08:58Z</time>
      </trkpt>
      <trkpt lat="42.56931" lon="1.90115">
        <ele>2123</ele>
        <time>2021-09-15T12:09:07Z</time>
      </trkpt>
      <trkpt lat="42.56927" lon="1.90116">
        <ele>2123</ele>
        <time>2021-09-15T12:09:13Z</time>
      </trkpt>
      <trkpt lat="42.56919" lon="1.9011">
        <ele>2123</ele>
        <time>2021-09-15T12:09:22Z</time>
      </trkpt>
      <trkpt lat="42.56912" lon="1.90097">
        <ele>2124</ele>
        <time>2021-09-15T12:09:32Z</time>
      </trkpt>
      <trkpt lat="42.56907" lon="1.90095">
        <ele>2124</ele>
        <time>2021-09-15T12:09:36Z</time>
      </trkpt>
      <trkpt lat="42.56906" lon="1.90094">
        <ele>2124</ele>
        <time>2021-09-15T12:09:37Z</time>
      </trkpt>
      <trkpt lat="42.56905" lon="1.90093">
        <ele>2124</ele>
        <time>2021-09-15T12:09:38Z</time>
      </trkpt>
      <trkpt lat="42.56902" lon="1.90093">
        <ele>2124</ele>
        <time>2021-09-15T12:09:40Z</time>
      </trkpt>
      <trkpt lat="42.56895" lon="1.90092">
        <ele>2124</ele>
        <time>2021-09-15T12:09:46Z</time>
      </trkpt>
      <trkpt lat="42.56892" lon="1.90092">
        <ele>2123</ele>
        <time>2021-09-15T12:09:48Z</time>
      </trkpt>
      <trkpt lat="42.5689" lon="1.90091">
        <ele>2123</ele>
        <time>2021-09-15T12:09:50Z</time>
      </trkpt>
      <trkpt lat="42.56889" lon="1.9009">
        <ele>2122</ele>
        <time>2021-09-15T12:09:57Z</time>
      </trkpt>
      <trkpt lat="42.56881" lon="1.90089">
        <ele>2122</ele>
        <time>2021-09-15T12:10:05Z</time>
      </trkpt>
      <trkpt lat="42.5688" lon="1.90088">
        <ele>2122</ele>
        <time>2021-09-15T12:10:07Z</time>
      </trkpt>
      <trkpt lat="42.56873" lon="1.90087">
        <ele>2121</ele>
        <time>2021-09-15T12:10:13Z</time>
      </trkpt>
      <trkpt lat="42.56872" lon="1.90086">
        <ele>2121</ele>
        <time>2021-09-15T12:10:15Z</time>
      </trkpt>
      <trkpt lat="42.56871" lon="1.90085">
        <ele>2121</ele>
        <time>2021-09-15T12:10:17Z</time>
      </trkpt>
      <trkpt lat="42.56869" lon="1.90084">
        <ele>2121</ele>
        <time>2021-09-15T12:10:19Z</time>
      </trkpt>
      <trkpt lat="42.56868" lon="1.90082">
        <ele>2121</ele>
        <time>2021-09-15T12:10:23Z</time>
      </trkpt>
      <trkpt lat="42.56866" lon="1.90081">
        <ele>2121</ele>
        <time>2021-09-15T12:10:25Z</time>
      </trkpt>
      <trkpt lat="42.56866" lon="1.90079">
        <ele>2121</ele>
        <time>2021-09-15T12:10:31Z</time>
      </trkpt>
      <trkpt lat="42.56865" lon="1.90076">
        <ele>2121</ele>
        <time>2021-09-15T12:10:33Z</time>
      </trkpt>
      <trkpt lat="42.56864" lon="1.90074">
        <ele>2121</ele>
        <time>2021-09-15T12:10:35Z</time>
      </trkpt>
      <trkpt lat="42.56863" lon="1.90068">
        <ele>2121</ele>
        <time>2021-09-15T12:10:40Z</time>
      </trkpt>
      <trkpt lat="42.56863" lon="1.90066">
        <ele>2121</ele>
        <time>2021-09-15T12:10:42Z</time>
      </trkpt>
      <trkpt lat="42.56861" lon="1.90064">
        <ele>2121</ele>
        <time>2021-09-15T12:10:45Z</time>
      </trkpt>
      <trkpt lat="42.56859" lon="1.90063">
        <ele>2121</ele>
        <time>2021-09-15T12:10:47Z</time>
      </trkpt>
      <trkpt lat="42.56857" lon="1.90062">
        <ele>2121</ele>
        <time>2021-09-15T12:10:49Z</time>
      </trkpt>
      <trkpt lat="42.56851" lon="1.90058">
        <ele>2121</ele>
        <time>2021-09-15T12:10:56Z</time>
      </trkpt>
      <trkpt lat="42.56849" lon="1.90056">
        <ele>2121</ele>
        <time>2021-09-15T12:10:58Z</time>
      </trkpt>
      <trkpt lat="42.56848" lon="1.90054">
        <ele>2121</ele>
        <time>2021-09-15T12:11:01Z</time>
      </trkpt>
      <trkpt lat="42.56848" lon="1.90043">
        <ele>2121</ele>
        <time>2021-09-15T12:11:11Z</time>
      </trkpt>
      <trkpt lat="42.56847" lon="1.90041">
        <ele>2121</ele>
        <time>2021-09-15T12:11:13Z</time>
      </trkpt>
      <trkpt lat="42.56846" lon="1.90038">
        <ele>2121</ele>
        <time>2021-09-15T12:11:16Z</time>
      </trkpt>
      <trkpt lat="42.56846" lon="1.90036">
        <ele>2121</ele>
        <time>2021-09-15T12:11:18Z</time>
      </trkpt>
      <trkpt lat="42.56843" lon="1.90033">
        <ele>2120</ele>
        <time>2021-09-15T12:11:21Z</time>
      </trkpt>
      <trkpt lat="42.5684" lon="1.9003">
        <ele>2120</ele>
        <time>2021-09-15T12:11:25Z</time>
      </trkpt>
      <trkpt lat="42.56839" lon="1.90029">
        <ele>2120</ele>
        <time>2021-09-15T12:11:27Z</time>
      </trkpt>
      <trkpt lat="42.56834" lon="1.90026">
        <ele>2120</ele>
        <time>2021-09-15T12:11:34Z</time>
      </trkpt>
      <trkpt lat="42.56832" lon="1.90026">
        <ele>2120</ele>
        <time>2021-09-15T12:11:36Z</time>
      </trkpt>
      <trkpt lat="42.56831" lon="1.90025">
        <ele>2119</ele>
        <time>2021-09-15T12:11:38Z</time>
      </trkpt>
      <trkpt lat="42.56829" lon="1.90024">
        <ele>2119</ele>
        <time>2021-09-15T12:11:41Z</time>
      </trkpt>
      <trkpt lat="42.56829" lon="1.90022">
        <ele>2119</ele>
        <time>2021-09-15T12:11:48Z</time>
      </trkpt>
      <trkpt lat="42.56828" lon="1.90019">
        <ele>2118</ele>
        <time>2021-09-15T12:11:54Z</time>
      </trkpt>
      <trkpt lat="42.56826" lon="1.90019">
        <ele>2117</ele>
        <time>2021-09-15T12:11:56Z</time>
      </trkpt>
      <trkpt lat="42.56825" lon="1.90018">
        <ele>2117</ele>
        <time>2021-09-15T12:11:58Z</time>
      </trkpt>
      <trkpt lat="42.56824" lon="1.90015">
        <ele>2117</ele>
        <time>2021-09-15T12:12:01Z</time>
      </trkpt>
      <trkpt lat="42.56823" lon="1.90013">
        <ele>2117</ele>
        <time>2021-09-15T12:12:04Z</time>
      </trkpt>
      <trkpt lat="42.56824" lon="1.90011">
        <ele>2116</ele>
        <time>2021-09-15T12:12:07Z</time>
      </trkpt>
      <trkpt lat="42.56826" lon="1.90002">
        <ele>2115</ele>
        <time>2021-09-15T12:12:15Z</time>
      </trkpt>
      <trkpt lat="42.56826" lon="1.9">
        <ele>2115</ele>
        <time>2021-09-15T12:12:19Z</time>
      </trkpt>
      <trkpt lat="42.56825" lon="1.89998">
        <ele>2115</ele>
        <time>2021-09-15T12:12:23Z</time>
      </trkpt>
      <trkpt lat="42.56824" lon="1.89995">
        <ele>2114</ele>
        <time>2021-09-15T12:12:26Z</time>
      </trkpt>
      <trkpt lat="42.56823" lon="1.89992">
        <ele>2114</ele>
        <time>2021-09-15T12:12:30Z</time>
      </trkpt>
      <trkpt lat="42.56822" lon="1.8999">
        <ele>2114</ele>
        <time>2021-09-15T12:12:33Z</time>
      </trkpt>
      <trkpt lat="42.56821" lon="1.89988">
        <ele>2114</ele>
        <time>2021-09-15T12:12:35Z</time>
      </trkpt>
      <trkpt lat="42.56819" lon="1.89986">
        <ele>2114</ele>
        <time>2021-09-15T12:12:37Z</time>
      </trkpt>
      <trkpt lat="42.56817" lon="1.89986">
        <ele>2114</ele>
        <time>2021-09-15T12:12:39Z</time>
      </trkpt>
      <trkpt lat="42.56815" lon="1.89985">
        <ele>2113</ele>
        <time>2021-09-15T12:12:42Z</time>
      </trkpt>
      <trkpt lat="42.56813" lon="1.89983">
        <ele>2113</ele>
        <time>2021-09-15T12:12:45Z</time>
      </trkpt>
      <trkpt lat="42.56812" lon="1.89981">
        <ele>2113</ele>
        <time>2021-09-15T12:12:47Z</time>
      </trkpt>
      <trkpt lat="42.5681" lon="1.89971">
        <ele>2113</ele>
        <time>2021-09-15T12:13:00Z</time>
      </trkpt>
      <trkpt lat="42.56808" lon="1.89967">
        <ele>2112</ele>
        <time>2021-09-15T12:13:04Z</time>
      </trkpt>
      <trkpt lat="42.56804" lon="1.89964">
        <ele>2112</ele>
        <time>2021-09-15T12:13:10Z</time>
      </trkpt>
      <trkpt lat="42.56801" lon="1.89959">
        <ele>2112</ele>
        <time>2021-09-15T12:13:15Z</time>
      </trkpt>
      <trkpt lat="42.56801" lon="1.89956">
        <ele>2112</ele>
        <time>2021-09-15T12:13:17Z</time>
      </trkpt>
      <trkpt lat="42.56801" lon="1.89953">
        <ele>2112</ele>
        <time>2021-09-15T12:13:20Z</time>
      </trkpt>
      <trkpt lat="42.56793" lon="1.89936">
        <ele>2112</ele>
        <time>2021-09-15T12:13:38Z</time>
      </trkpt>
      <trkpt lat="42.5679" lon="1.89932">
        <ele>2112</ele>
        <time>2021-09-15T12:13:42Z</time>
      </trkpt>
      <trkpt lat="42.56787" lon="1.89929">
        <ele>2113</ele>
        <time>2021-09-15T12:13:46Z</time>
      </trkpt>
      <trkpt lat="42.56786" lon="1.89926">
        <ele>2113</ele>
        <time>2021-09-15T12:13:48Z</time>
      </trkpt>
      <trkpt lat="42.56781" lon="1.8992">
        <ele>2114</ele>
        <time>2021-09-15T12:13:54Z</time>
      </trkpt>
      <trkpt lat="42.56779" lon="1.89919">
        <ele>2114</ele>
        <time>2021-09-15T12:13:56Z</time>
      </trkpt>
      <trkpt lat="42.56778" lon="1.89918">
        <ele>2114</ele>
        <time>2021-09-15T12:13:58Z</time>
      </trkpt>
      <trkpt lat="42.56777" lon="1.89917">
        <ele>2114</ele>
        <time>2021-09-15T12:14:00Z</time>
      </trkpt>
      <trkpt lat="42.56773" lon="1.89911">
        <ele>2114</ele>
        <time>2021-09-15T12:14:07Z</time>
      </trkpt>
      <trkpt lat="42.56771" lon="1.8991">
        <ele>2114</ele>
        <time>2021-09-15T12:14:10Z</time>
      </trkpt>
      <trkpt lat="42.56769" lon="1.89909">
        <ele>2115</ele>
        <time>2021-09-15T12:14:14Z</time>
      </trkpt>
      <trkpt lat="42.56762" lon="1.89897">
        <ele>2117</ele>
        <time>2021-09-15T12:14:27Z</time>
      </trkpt>
      <trkpt lat="42.56761" lon="1.89895">
        <ele>2117</ele>
        <time>2021-09-15T12:14:31Z</time>
      </trkpt>
      <trkpt lat="42.56758" lon="1.89891">
        <ele>2118</ele>
        <time>2021-09-15T12:14:38Z</time>
      </trkpt>
      <trkpt lat="42.56755" lon="1.89884">
        <ele>2119</ele>
        <time>2021-09-15T12:14:45Z</time>
      </trkpt>
      <trkpt lat="42.56747" lon="1.89877">
        <ele>2121</ele>
        <time>2021-09-15T12:14:53Z</time>
      </trkpt>
      <trkpt lat="42.56746" lon="1.89875">
        <ele>2121</ele>
        <time>2021-09-15T12:14:55Z</time>
      </trkpt>
      <trkpt lat="42.56745" lon="1.89874">
        <ele>2121</ele>
        <time>2021-09-15T12:14:57Z</time>
      </trkpt>
      <trkpt lat="42.56741" lon="1.89867">
        <ele>2122</ele>
        <time>2021-09-15T12:15:04Z</time>
      </trkpt>
      <trkpt lat="42.5674" lon="1.89865">
        <ele>2122</ele>
        <time>2021-09-15T12:15:06Z</time>
      </trkpt>
      <trkpt lat="42.5674" lon="1.89863">
        <ele>2122</ele>
        <time>2021-09-15T12:15:08Z</time>
      </trkpt>
      <trkpt lat="42.5673" lon="1.89854">
        <ele>2123</ele>
        <time>2021-09-15T12:15:22Z</time>
      </trkpt>
      <trkpt lat="42.56729" lon="1.89851">
        <ele>2123</ele>
        <time>2021-09-15T12:15:25Z</time>
      </trkpt>
      <trkpt lat="42.56718" lon="1.89838">
        <ele>2124</ele>
        <time>2021-09-15T12:15:39Z</time>
      </trkpt>
      <trkpt lat="42.56716" lon="1.89837">
        <ele>2124</ele>
        <time>2021-09-15T12:15:41Z</time>
      </trkpt>
      <trkpt lat="42.56706" lon="1.89828">
        <ele>2126</ele>
        <time>2021-09-15T12:15:58Z</time>
      </trkpt>
      <trkpt lat="42.56704" lon="1.89827">
        <ele>2126</ele>
        <time>2021-09-15T12:16:00Z</time>
      </trkpt>
      <trkpt lat="42.56701" lon="1.89827">
        <ele>2126</ele>
        <time>2021-09-15T12:16:02Z</time>
      </trkpt>
      <trkpt lat="42.56699" lon="1.89828">
        <ele>2126</ele>
        <time>2021-09-15T12:16:04Z</time>
      </trkpt>
      <trkpt lat="42.56695" lon="1.89831">
        <ele>2126</ele>
        <time>2021-09-15T12:16:10Z</time>
      </trkpt>
      <trkpt lat="42.56689" lon="1.89851">
        <ele>2125</ele>
        <time>2021-09-15T12:16:29Z</time>
      </trkpt>
      <trkpt lat="42.56691" lon="1.89856">
        <ele>2125</ele>
        <time>2021-09-15T12:16:33Z</time>
      </trkpt>
      <trkpt lat="42.56691" lon="1.89859">
        <ele>2125</ele>
        <time>2021-09-15T12:16:36Z</time>
      </trkpt>
      <trkpt lat="42.56688" lon="1.89872">
        <ele>2125</ele>
        <time>2021-09-15T12:16:50Z</time>
      </trkpt>
      <trkpt lat="42.56684" lon="1.89876">
        <ele>2124</ele>
        <time>2021-09-15T12:17:04Z</time>
      </trkpt>
      <trkpt lat="42.56683" lon="1.89878">
        <ele>2124</ele>
        <time>2021-09-15T12:17:06Z</time>
      </trkpt>
      <trkpt lat="42.56678" lon="1.89882">
        <ele>2123</ele>
        <time>2021-09-15T12:17:13Z</time>
      </trkpt>
      <trkpt lat="42.56677" lon="1.89881">
        <ele>2123</ele>
        <time>2021-09-15T12:17:15Z</time>
      </trkpt>
      <trkpt lat="42.56676" lon="1.89883">
        <ele>2123</ele>
        <time>2021-09-15T12:17:23Z</time>
      </trkpt>
      <trkpt lat="42.56674" lon="1.89883">
        <ele>2122</ele>
        <time>2021-09-15T12:17:35Z</time>
      </trkpt>
      <trkpt lat="42.56672" lon="1.89882">
        <ele>2121</ele>
        <time>2021-09-15T12:17:37Z</time>
      </trkpt>
      <trkpt lat="42.56671" lon="1.89881">
        <ele>2121</ele>
        <time>2021-09-15T12:17:40Z</time>
      </trkpt>
      <trkpt lat="42.56669" lon="1.89881">
        <ele>2120</ele>
        <time>2021-09-15T12:17:42Z</time>
      </trkpt>
      <trkpt lat="42.56666" lon="1.89871">
        <ele>2119</ele>
        <time>2021-09-15T12:17:53Z</time>
      </trkpt>
      <trkpt lat="42.56665" lon="1.89868">
        <ele>2119</ele>
        <time>2021-09-15T12:17:56Z</time>
      </trkpt>
      <trkpt lat="42.56664" lon="1.89867">
        <ele>2119</ele>
        <time>2021-09-15T12:17:58Z</time>
      </trkpt>
      <trkpt lat="42.56662" lon="1.89867">
        <ele>2119</ele>
        <time>2021-09-15T12:18:00Z</time>
      </trkpt>
      <trkpt lat="42.5666" lon="1.89866">
        <ele>2119</ele>
        <time>2021-09-15T12:18:02Z</time>
      </trkpt>
      <trkpt lat="42.56657" lon="1.8987">
        <ele>2119</ele>
        <time>2021-09-15T12:18:08Z</time>
      </trkpt>
      <trkpt lat="42.56655" lon="1.89875">
        <ele>2119</ele>
        <time>2021-09-15T12:18:12Z</time>
      </trkpt>
      <trkpt lat="42.56655" lon="1.89877">
        <ele>2119</ele>
        <time>2021-09-15T12:18:14Z</time>
      </trkpt>
      <trkpt lat="42.56654" lon="1.89882">
        <ele>2119</ele>
        <time>2021-09-15T12:18:18Z</time>
      </trkpt>
      <trkpt lat="42.56653" lon="1.89885">
        <ele>2118</ele>
        <time>2021-09-15T12:18:22Z</time>
      </trkpt>
      <trkpt lat="42.56651" lon="1.89887">
        <ele>2118</ele>
        <time>2021-09-15T12:18:25Z</time>
      </trkpt>
      <trkpt lat="42.56648" lon="1.89889">
        <ele>2118</ele>
        <time>2021-09-15T12:18:30Z</time>
      </trkpt>
      <trkpt lat="42.56645" lon="1.89892">
        <ele>2117</ele>
        <time>2021-09-15T12:18:35Z</time>
      </trkpt>
      <trkpt lat="42.56642" lon="1.89905">
        <ele>2115</ele>
        <time>2021-09-15T12:18:45Z</time>
      </trkpt>
      <trkpt lat="42.5664" lon="1.89907">
        <ele>2115</ele>
        <time>2021-09-15T12:18:48Z</time>
      </trkpt>
      <trkpt lat="42.56638" lon="1.89907">
        <ele>2114</ele>
        <time>2021-09-15T12:18:51Z</time>
      </trkpt>
      <trkpt lat="42.56637" lon="1.89906">
        <ele>2114</ele>
        <time>2021-09-15T12:18:54Z</time>
      </trkpt>
      <trkpt lat="42.56632" lon="1.8991">
        <ele>2113</ele>
        <time>2021-09-15T12:19:03Z</time>
      </trkpt>
      <trkpt lat="42.56631" lon="1.89911">
        <ele>2113</ele>
        <time>2021-09-15T12:19:06Z</time>
      </trkpt>
      <trkpt lat="42.56628" lon="1.89915">
        <ele>2113</ele>
        <time>2021-09-15T12:19:12Z</time>
      </trkpt>
      <trkpt lat="42.56622" lon="1.8992">
        <ele>2113</ele>
        <time>2021-09-15T12:19:21Z</time>
      </trkpt>
      <trkpt lat="42.56621" lon="1.89921">
        <ele>2113</ele>
        <time>2021-09-15T12:19:23Z</time>
      </trkpt>
      <trkpt lat="42.56609" lon="1.8993">
        <ele>2114</ele>
        <time>2021-09-15T12:19:41Z</time>
      </trkpt>
      <trkpt lat="42.56605" lon="1.89936">
        <ele>2114</ele>
        <time>2021-09-15T12:19:50Z</time>
      </trkpt>
      <trkpt lat="42.56603" lon="1.89937">
        <ele>2115</ele>
        <time>2021-09-15T12:19:54Z</time>
      </trkpt>
      <trkpt lat="42.56601" lon="1.89937">
        <ele>2115</ele>
        <time>2021-09-15T12:19:56Z</time>
      </trkpt>
      <trkpt lat="42.56598" lon="1.89943">
        <ele>2115</ele>
        <time>2021-09-15T12:20:04Z</time>
      </trkpt>
      <trkpt lat="42.5659" lon="1.89946">
        <ele>2116</ele>
        <time>2021-09-15T12:20:15Z</time>
      </trkpt>
      <trkpt lat="42.56588" lon="1.89949">
        <ele>2116</ele>
        <time>2021-09-15T12:20:18Z</time>
      </trkpt>
      <trkpt lat="42.56587" lon="1.8995">
        <ele>2116</ele>
        <time>2021-09-15T12:20:20Z</time>
      </trkpt>
      <trkpt lat="42.56586" lon="1.89952">
        <ele>2116</ele>
        <time>2021-09-15T12:20:22Z</time>
      </trkpt>
      <trkpt lat="42.5658" lon="1.89957">
        <ele>2116</ele>
        <time>2021-09-15T12:20:29Z</time>
      </trkpt>
      <trkpt lat="42.56578" lon="1.89961">
        <ele>2116</ele>
        <time>2021-09-15T12:20:33Z</time>
      </trkpt>
      <trkpt lat="42.56576" lon="1.8997">
        <ele>2117</ele>
        <time>2021-09-15T12:20:39Z</time>
      </trkpt>
      <trkpt lat="42.56575" lon="1.89972">
        <ele>2116</ele>
        <time>2021-09-15T12:20:42Z</time>
      </trkpt>
      <trkpt lat="42.56572" lon="1.89975">
        <ele>2116</ele>
        <time>2021-09-15T12:20:47Z</time>
      </trkpt>
      <trkpt lat="42.56571" lon="1.89977">
        <ele>2116</ele>
        <time>2021-09-15T12:20:49Z</time>
      </trkpt>
      <trkpt lat="42.5657" lon="1.89986">
        <ele>2116</ele>
        <time>2021-09-15T12:20:56Z</time>
      </trkpt>
      <trkpt lat="42.5657" lon="1.89988">
        <ele>2116</ele>
        <time>2021-09-15T12:20:58Z</time>
      </trkpt>
      <trkpt lat="42.56568" lon="1.89989">
        <ele>2116</ele>
        <time>2021-09-15T12:21:02Z</time>
      </trkpt>
      <trkpt lat="42.56561" lon="1.89998">
        <ele>2116</ele>
        <time>2021-09-15T12:21:14Z</time>
      </trkpt>
      <trkpt lat="42.56561" lon="1.9">
        <ele>2115</ele>
        <time>2021-09-15T12:21:16Z</time>
      </trkpt>
      <trkpt lat="42.56559" lon="1.90015">
        <ele>2114</ele>
        <time>2021-09-15T12:21:28Z</time>
      </trkpt>
      <trkpt lat="42.56558" lon="1.90016">
        <ele>2114</ele>
        <time>2021-09-15T12:21:30Z</time>
      </trkpt>
      <trkpt lat="42.56557" lon="1.90019">
        <ele>2114</ele>
        <time>2021-09-15T12:21:33Z</time>
      </trkpt>
      <trkpt lat="42.56556" lon="1.90021">
        <ele>2113</ele>
        <time>2021-09-15T12:21:36Z</time>
      </trkpt>
      <trkpt lat="42.56552" lon="1.90025">
        <ele>2112</ele>
        <time>2021-09-15T12:21:42Z</time>
      </trkpt>
      <trkpt lat="42.56551" lon="1.90024">
        <ele>2112</ele>
        <time>2021-09-15T12:21:45Z</time>
      </trkpt>
      <trkpt lat="42.5655" lon="1.90022">
        <ele>2112</ele>
        <time>2021-09-15T12:21:48Z</time>
      </trkpt>
      <trkpt lat="42.56549" lon="1.90021">
        <ele>2111</ele>
        <time>2021-09-15T12:21:52Z</time>
      </trkpt>
      <trkpt lat="42.56548" lon="1.90021">
        <ele>2110</ele>
        <time>2021-09-15T12:21:56Z</time>
      </trkpt>
      <trkpt lat="42.56546" lon="1.90021">
        <ele>2110</ele>
        <time>2021-09-15T12:21:59Z</time>
      </trkpt>
      <trkpt lat="42.56545" lon="1.90023">
        <ele>2109</ele>
        <time>2021-09-15T12:22:02Z</time>
      </trkpt>
      <trkpt lat="42.56546" lon="1.90026">
        <ele>2108</ele>
        <time>2021-09-15T12:22:04Z</time>
      </trkpt>
      <trkpt lat="42.56545" lon="1.90028">
        <ele>2108</ele>
        <time>2021-09-15T12:22:07Z</time>
      </trkpt>
      <trkpt lat="42.56546" lon="1.9003">
        <ele>2107</ele>
        <time>2021-09-15T12:22:09Z</time>
      </trkpt>
      <trkpt lat="42.56548" lon="1.90036">
        <ele>2107</ele>
        <time>2021-09-15T12:22:17Z</time>
      </trkpt>
      <trkpt lat="42.56545" lon="1.90039">
        <ele>2106</ele>
        <time>2021-09-15T12:22:22Z</time>
      </trkpt>
      <trkpt lat="42.56544" lon="1.90042">
        <ele>2105</ele>
        <time>2021-09-15T12:22:25Z</time>
      </trkpt>
      <trkpt lat="42.56543" lon="1.90044">
        <ele>2105</ele>
        <time>2021-09-15T12:22:29Z</time>
      </trkpt>
      <trkpt lat="42.56542" lon="1.90045">
        <ele>2104</ele>
        <time>2021-09-15T12:22:42Z</time>
      </trkpt>
      <trkpt lat="42.5654" lon="1.90046">
        <ele>2104</ele>
        <time>2021-09-15T12:22:46Z</time>
      </trkpt>
      <trkpt lat="42.56539" lon="1.90048">
        <ele>2104</ele>
        <time>2021-09-15T12:22:53Z</time>
      </trkpt>
      <trkpt lat="42.56537" lon="1.90048">
        <ele>2104</ele>
        <time>2021-09-15T12:22:57Z</time>
      </trkpt>
      <trkpt lat="42.56536" lon="1.90048">
        <ele>2104</ele>
        <time>2021-09-15T12:23:01Z</time>
      </trkpt>
      <trkpt lat="42.56535" lon="1.90046">
        <ele>2104</ele>
        <time>2021-09-15T12:23:10Z</time>
      </trkpt>
      <trkpt lat="42.56529" lon="1.90045">
        <ele>2103</ele>
        <time>2021-09-15T12:25:04Z</time>
      </trkpt>
      <trkpt lat="42.56527" lon="1.90048">
        <ele>2101</ele>
        <time>2021-09-15T12:25:08Z</time>
      </trkpt>
      <trkpt lat="42.56525" lon="1.90049">
        <ele>2101</ele>
        <time>2021-09-15T12:25:10Z</time>
      </trkpt>
      <trkpt lat="42.56524" lon="1.9005">
        <ele>2101</ele>
        <time>2021-09-15T12:25:12Z</time>
      </trkpt>
      <trkpt lat="42.56522" lon="1.90051">
        <ele>2102</ele>
        <time>2021-09-15T12:25:14Z</time>
      </trkpt>
      <trkpt lat="42.5652" lon="1.90052">
        <ele>2102</ele>
        <time>2021-09-15T12:25:17Z</time>
      </trkpt>
      <trkpt lat="42.56514" lon="1.90048">
        <ele>2102</ele>
        <time>2021-09-15T12:25:25Z</time>
      </trkpt>
      <trkpt lat="42.56512" lon="1.90048">
        <ele>2102</ele>
        <time>2021-09-15T12:25:27Z</time>
      </trkpt>
      <trkpt lat="42.5651" lon="1.90048">
        <ele>2102</ele>
        <time>2021-09-15T12:25:29Z</time>
      </trkpt>
      <trkpt lat="42.56508" lon="1.90049">
        <ele>2102</ele>
        <time>2021-09-15T12:25:31Z</time>
      </trkpt>
      <trkpt lat="42.56506" lon="1.9005">
        <ele>2102</ele>
        <time>2021-09-15T12:25:33Z</time>
      </trkpt>
      <trkpt lat="42.56504" lon="1.90049">
        <ele>2102</ele>
        <time>2021-09-15T12:25:37Z</time>
      </trkpt>
      <trkpt lat="42.56489" lon="1.90044">
        <ele>2103</ele>
        <time>2021-09-15T12:26:01Z</time>
      </trkpt>
      <trkpt lat="42.56485" lon="1.90042">
        <ele>2103</ele>
        <time>2021-09-15T12:26:07Z</time>
      </trkpt>
      <trkpt lat="42.56482" lon="1.90042">
        <ele>2103</ele>
        <time>2021-09-15T12:26:11Z</time>
      </trkpt>
      <trkpt lat="42.5648" lon="1.90044">
        <ele>2103</ele>
        <time>2021-09-15T12:26:13Z</time>
      </trkpt>
      <trkpt lat="42.56478" lon="1.90044">
        <ele>2103</ele>
        <time>2021-09-15T12:26:15Z</time>
      </trkpt>
      <trkpt lat="42.56472" lon="1.90047">
        <ele>2103</ele>
        <time>2021-09-15T12:26:20Z</time>
      </trkpt>
      <trkpt lat="42.56467" lon="1.90048">
        <ele>2103</ele>
        <time>2021-09-15T12:26:24Z</time>
      </trkpt>
      <trkpt lat="42.56465" lon="1.90049">
        <ele>2103</ele>
        <time>2021-09-15T12:26:26Z</time>
      </trkpt>
      <trkpt lat="42.56464" lon="1.90051">
        <ele>2102</ele>
        <time>2021-09-15T12:26:28Z</time>
      </trkpt>
      <trkpt lat="42.56458" lon="1.90053">
        <ele>2102</ele>
        <time>2021-09-15T12:26:34Z</time>
      </trkpt>
      <trkpt lat="42.56455" lon="1.90056">
        <ele>2101</ele>
        <time>2021-09-15T12:26:40Z</time>
      </trkpt>
      <trkpt lat="42.56454" lon="1.90059">
        <ele>2101</ele>
        <time>2021-09-15T12:26:42Z</time>
      </trkpt>
      <trkpt lat="42.56441" lon="1.90069">
        <ele>2099</ele>
        <time>2021-09-15T12:26:59Z</time>
      </trkpt>
      <trkpt lat="42.56439" lon="1.90071">
        <ele>2099</ele>
        <time>2021-09-15T12:27:02Z</time>
      </trkpt>
      <trkpt lat="42.56437" lon="1.90071">
        <ele>2099</ele>
        <time>2021-09-15T12:27:04Z</time>
      </trkpt>
      <trkpt lat="42.56433" lon="1.90073">
        <ele>2098</ele>
        <time>2021-09-15T12:27:08Z</time>
      </trkpt>
      <trkpt lat="42.56432" lon="1.90075">
        <ele>2098</ele>
        <time>2021-09-15T12:27:10Z</time>
      </trkpt>
      <trkpt lat="42.56425" lon="1.90082">
        <ele>2098</ele>
        <time>2021-09-15T12:27:18Z</time>
      </trkpt>
      <trkpt lat="42.56423" lon="1.90085">
        <ele>2097</ele>
        <time>2021-09-15T12:27:21Z</time>
      </trkpt>
      <trkpt lat="42.56418" lon="1.9009">
        <ele>2097</ele>
        <time>2021-09-15T12:27:28Z</time>
      </trkpt>
      <trkpt lat="42.56416" lon="1.90091">
        <ele>2097</ele>
        <time>2021-09-15T12:27:31Z</time>
      </trkpt>
      <trkpt lat="42.56414" lon="1.90092">
        <ele>2097</ele>
        <time>2021-09-15T12:27:34Z</time>
      </trkpt>
      <trkpt lat="42.56405" lon="1.901">
        <ele>2098</ele>
        <time>2021-09-15T12:27:48Z</time>
      </trkpt>
      <trkpt lat="42.56391" lon="1.90115">
        <ele>2098</ele>
        <time>2021-09-15T12:28:07Z</time>
      </trkpt>
      <trkpt lat="42.56389" lon="1.90115">
        <ele>2098</ele>
        <time>2021-09-15T12:28:11Z</time>
      </trkpt>
      <trkpt lat="42.56388" lon="1.90113">
        <ele>2098</ele>
        <time>2021-09-15T12:28:13Z</time>
      </trkpt>
      <trkpt lat="42.56383" lon="1.90114">
        <ele>2098</ele>
        <time>2021-09-15T12:28:18Z</time>
      </trkpt>
      <trkpt lat="42.56379" lon="1.90116">
        <ele>2097</ele>
        <time>2021-09-15T12:28:22Z</time>
      </trkpt>
      <trkpt lat="42.56377" lon="1.90117">
        <ele>2097</ele>
        <time>2021-09-15T12:28:25Z</time>
      </trkpt>
      <trkpt lat="42.56364" lon="1.9013">
        <ele>2096</ele>
        <time>2021-09-15T12:28:40Z</time>
      </trkpt>
      <trkpt lat="42.56361" lon="1.90133">
        <ele>2095</ele>
        <time>2021-09-15T12:28:45Z</time>
      </trkpt>
      <trkpt lat="42.56358" lon="1.90138">
        <ele>2094</ele>
        <time>2021-09-15T12:28:49Z</time>
      </trkpt>
      <trkpt lat="42.56357" lon="1.90139">
        <ele>2094</ele>
        <time>2021-09-15T12:28:52Z</time>
      </trkpt>
      <trkpt lat="42.56356" lon="1.90141">
        <ele>2094</ele>
        <time>2021-09-15T12:28:55Z</time>
      </trkpt>
      <trkpt lat="42.56352" lon="1.90144">
        <ele>2094</ele>
        <time>2021-09-15T12:29:00Z</time>
      </trkpt>
      <trkpt lat="42.56347" lon="1.90148">
        <ele>2094</ele>
        <time>2021-09-15T12:29:09Z</time>
      </trkpt>
      <trkpt lat="42.56346" lon="1.90149">
        <ele>2094</ele>
        <time>2021-09-15T12:29:12Z</time>
      </trkpt>
      <trkpt lat="42.56344" lon="1.90152">
        <ele>2094</ele>
        <time>2021-09-15T12:29:14Z</time>
      </trkpt>
      <trkpt lat="42.56342" lon="1.90163">
        <ele>2093</ele>
        <time>2021-09-15T12:29:22Z</time>
      </trkpt>
      <trkpt lat="42.56341" lon="1.90165">
        <ele>2093</ele>
        <time>2021-09-15T12:29:25Z</time>
      </trkpt>
      <trkpt lat="42.56336" lon="1.9017">
        <ele>2092</ele>
        <time>2021-09-15T12:29:32Z</time>
      </trkpt>
      <trkpt lat="42.56332" lon="1.9017">
        <ele>2092</ele>
        <time>2021-09-15T12:29:37Z</time>
      </trkpt>
      <trkpt lat="42.5633" lon="1.9017">
        <ele>2093</ele>
        <time>2021-09-15T12:29:41Z</time>
      </trkpt>
      <trkpt lat="42.56326" lon="1.90176">
        <ele>2093</ele>
        <time>2021-09-15T12:29:49Z</time>
      </trkpt>
      <trkpt lat="42.56322" lon="1.90177">
        <ele>2094</ele>
        <time>2021-09-15T12:29:56Z</time>
      </trkpt>
      <trkpt lat="42.56321" lon="1.90175">
        <ele>2094</ele>
        <time>2021-09-15T12:30:00Z</time>
      </trkpt>
      <trkpt lat="42.56319" lon="1.90176">
        <ele>2094</ele>
        <time>2021-09-15T12:30:03Z</time>
      </trkpt>
      <trkpt lat="42.56317" lon="1.90179">
        <ele>2094</ele>
        <time>2021-09-15T12:30:05Z</time>
      </trkpt>
      <trkpt lat="42.56312" lon="1.90193">
        <ele>2095</ele>
        <time>2021-09-15T12:30:15Z</time>
      </trkpt>
      <trkpt lat="42.56309" lon="1.90197">
        <ele>2095</ele>
        <time>2021-09-15T12:30:19Z</time>
      </trkpt>
      <trkpt lat="42.56307" lon="1.90197">
        <ele>2095</ele>
        <time>2021-09-15T12:30:22Z</time>
      </trkpt>
      <trkpt lat="42.56306" lon="1.90198">
        <ele>2095</ele>
        <time>2021-09-15T12:30:27Z</time>
      </trkpt>
      <trkpt lat="42.56304" lon="1.90198">
        <ele>2095</ele>
        <time>2021-09-15T12:30:32Z</time>
      </trkpt>
      <trkpt lat="42.56303" lon="1.902">
        <ele>2096</ele>
        <time>2021-09-15T12:30:36Z</time>
      </trkpt>
      <trkpt lat="42.56298" lon="1.90212">
        <ele>2095</ele>
        <time>2021-09-15T12:30:45Z</time>
      </trkpt>
      <trkpt lat="42.56297" lon="1.90215">
        <ele>2095</ele>
        <time>2021-09-15T12:30:47Z</time>
      </trkpt>
      <trkpt lat="42.56293" lon="1.90219">
        <ele>2095</ele>
        <time>2021-09-15T12:30:54Z</time>
      </trkpt>
      <trkpt lat="42.5629" lon="1.9022">
        <ele>2095</ele>
        <time>2021-09-15T12:30:59Z</time>
      </trkpt>
      <trkpt lat="42.56288" lon="1.90225">
        <ele>2094</ele>
        <time>2021-09-15T12:31:04Z</time>
      </trkpt>
      <trkpt lat="42.56287" lon="1.9023">
        <ele>2093</ele>
        <time>2021-09-15T12:31:08Z</time>
      </trkpt>
      <trkpt lat="42.56285" lon="1.9023">
        <ele>2093</ele>
        <time>2021-09-15T12:31:11Z</time>
      </trkpt>
      <trkpt lat="42.56275" lon="1.9023">
        <ele>2092</ele>
        <time>2021-09-15T12:31:25Z</time>
      </trkpt>
      <trkpt lat="42.56274" lon="1.90231">
        <ele>2091</ele>
        <time>2021-09-15T12:31:28Z</time>
      </trkpt>
      <trkpt lat="42.56272" lon="1.90232">
        <ele>2091</ele>
        <time>2021-09-15T12:31:30Z</time>
      </trkpt>
      <trkpt lat="42.56271" lon="1.90234">
        <ele>2091</ele>
        <time>2021-09-15T12:31:33Z</time>
      </trkpt>
      <trkpt lat="42.5627" lon="1.90237">
        <ele>2090</ele>
        <time>2021-09-15T12:31:35Z</time>
      </trkpt>
      <trkpt lat="42.56269" lon="1.90242">
        <ele>2090</ele>
        <time>2021-09-15T12:31:44Z</time>
      </trkpt>
      <trkpt lat="42.56267" lon="1.90247">
        <ele>2088</ele>
        <time>2021-09-15T12:31:50Z</time>
      </trkpt>
      <trkpt lat="42.56266" lon="1.90248">
        <ele>2088</ele>
        <time>2021-09-15T12:31:52Z</time>
      </trkpt>
      <trkpt lat="42.56265" lon="1.90248">
        <ele>2087</ele>
        <time>2021-09-15T12:31:55Z</time>
      </trkpt>
      <trkpt lat="42.56263" lon="1.90247">
        <ele>2087</ele>
        <time>2021-09-15T12:31:59Z</time>
      </trkpt>
      <trkpt lat="42.56262" lon="1.90246">
        <ele>2087</ele>
        <time>2021-09-15T12:32:01Z</time>
      </trkpt>
      <trkpt lat="42.56258" lon="1.90246">
        <ele>2086</ele>
        <time>2021-09-15T12:32:05Z</time>
      </trkpt>
      <trkpt lat="42.56256" lon="1.90246">
        <ele>2086</ele>
        <time>2021-09-15T12:32:07Z</time>
      </trkpt>
      <trkpt lat="42.56255" lon="1.90246">
        <ele>2086</ele>
        <time>2021-09-15T12:32:10Z</time>
      </trkpt>
      <trkpt lat="42.56253" lon="1.90246">
        <ele>2085</ele>
        <time>2021-09-15T12:32:18Z</time>
      </trkpt>
      <trkpt lat="42.5625" lon="1.90247">
        <ele>2084</ele>
        <time>2021-09-15T12:32:23Z</time>
      </trkpt>
      <trkpt lat="42.56249" lon="1.90247">
        <ele>2083</ele>
        <time>2021-09-15T12:32:26Z</time>
      </trkpt>
      <trkpt lat="42.56247" lon="1.90248">
        <ele>2083</ele>
        <time>2021-09-15T12:32:29Z</time>
      </trkpt>
      <trkpt lat="42.56246" lon="1.90249">
        <ele>2082</ele>
        <time>2021-09-15T12:32:32Z</time>
      </trkpt>
      <trkpt lat="42.56241" lon="1.90253">
        <ele>2082</ele>
        <time>2021-09-15T12:32:39Z</time>
      </trkpt>
      <trkpt lat="42.5624" lon="1.90255">
        <ele>2081</ele>
        <time>2021-09-15T12:32:42Z</time>
      </trkpt>
      <trkpt lat="42.56237" lon="1.90257">
        <ele>2081</ele>
        <time>2021-09-15T12:32:46Z</time>
      </trkpt>
      <trkpt lat="42.56233" lon="1.90258">
        <ele>2080</ele>
        <time>2021-09-15T12:32:51Z</time>
      </trkpt>
      <trkpt lat="42.56229" lon="1.90258">
        <ele>2079</ele>
        <time>2021-09-15T12:32:57Z</time>
      </trkpt>
      <trkpt lat="42.56227" lon="1.90258">
        <ele>2079</ele>
        <time>2021-09-15T12:32:59Z</time>
      </trkpt>
      <trkpt lat="42.56226" lon="1.9026">
        <ele>2079</ele>
        <time>2021-09-15T12:33:02Z</time>
      </trkpt>
      <trkpt lat="42.56224" lon="1.9026">
        <ele>2078</ele>
        <time>2021-09-15T12:33:08Z</time>
      </trkpt>
      <trkpt lat="42.56222" lon="1.90256">
        <ele>2078</ele>
        <time>2021-09-15T12:33:18Z</time>
      </trkpt>
      <trkpt lat="42.56222" lon="1.90253">
        <ele>2077</ele>
        <time>2021-09-15T12:33:21Z</time>
      </trkpt>
      <trkpt lat="42.56223" lon="1.90252">
        <ele>2077</ele>
        <time>2021-09-15T12:33:27Z</time>
      </trkpt>
      <trkpt lat="42.56222" lon="1.9025">
        <ele>2076</ele>
        <time>2021-09-15T12:33:29Z</time>
      </trkpt>
      <trkpt lat="42.56221" lon="1.90245">
        <ele>2076</ele>
        <time>2021-09-15T12:33:34Z</time>
      </trkpt>
      <trkpt lat="42.56221" lon="1.90243">
        <ele>2075</ele>
        <time>2021-09-15T12:33:38Z</time>
      </trkpt>
      <trkpt lat="42.56224" lon="1.90241">
        <ele>2074</ele>
        <time>2021-09-15T12:33:44Z</time>
      </trkpt>
      <trkpt lat="42.56224" lon="1.90239">
        <ele>2074</ele>
        <time>2021-09-15T12:33:46Z</time>
      </trkpt>
      <trkpt lat="42.56223" lon="1.9023">
        <ele>2073</ele>
        <time>2021-09-15T12:33:54Z</time>
      </trkpt>
      <trkpt lat="42.56221" lon="1.90225">
        <ele>2072</ele>
        <time>2021-09-15T12:33:58Z</time>
      </trkpt>
      <trkpt lat="42.5622" lon="1.90221">
        <ele>2071</ele>
        <time>2021-09-15T12:34:02Z</time>
      </trkpt>
      <trkpt lat="42.56219" lon="1.90219">
        <ele>2071</ele>
        <time>2021-09-15T12:34:04Z</time>
      </trkpt>
      <trkpt lat="42.56216" lon="1.90216">
        <ele>2069</ele>
        <time>2021-09-15T12:34:09Z</time>
      </trkpt>
      <trkpt lat="42.56215" lon="1.90213">
        <ele>2069</ele>
        <time>2021-09-15T12:34:11Z</time>
      </trkpt>
      <trkpt lat="42.56214" lon="1.90211">
        <ele>2068</ele>
        <time>2021-09-15T12:34:14Z</time>
      </trkpt>
      <trkpt lat="42.56214" lon="1.90209">
        <ele>2068</ele>
        <time>2021-09-15T12:34:16Z</time>
      </trkpt>
      <trkpt lat="42.56213" lon="1.90207">
        <ele>2068</ele>
        <time>2021-09-15T12:34:19Z</time>
      </trkpt>
      <trkpt lat="42.56208" lon="1.90201">
        <ele>2066</ele>
        <time>2021-09-15T12:34:27Z</time>
      </trkpt>
      <trkpt lat="42.56204" lon="1.90192">
        <ele>2063</ele>
        <time>2021-09-15T12:34:42Z</time>
      </trkpt>
      <trkpt lat="42.56203" lon="1.9019">
        <ele>2063</ele>
        <time>2021-09-15T12:34:46Z</time>
      </trkpt>
      <trkpt lat="42.56202" lon="1.90188">
        <ele>2063</ele>
        <time>2021-09-15T12:34:48Z</time>
      </trkpt>
      <trkpt lat="42.56202" lon="1.90186">
        <ele>2062</ele>
        <time>2021-09-15T12:34:50Z</time>
      </trkpt>
      <trkpt lat="42.56199" lon="1.90183">
        <ele>2062</ele>
        <time>2021-09-15T12:34:54Z</time>
      </trkpt>
      <trkpt lat="42.56198" lon="1.90181">
        <ele>2062</ele>
        <time>2021-09-15T12:34:57Z</time>
      </trkpt>
      <trkpt lat="42.56198" lon="1.90179">
        <ele>2061</ele>
        <time>2021-09-15T12:34:59Z</time>
      </trkpt>
      <trkpt lat="42.56197" lon="1.90178">
        <ele>2061</ele>
        <time>2021-09-15T12:35:01Z</time>
      </trkpt>
      <trkpt lat="42.56196" lon="1.90176">
        <ele>2061</ele>
        <time>2021-09-15T12:35:04Z</time>
      </trkpt>
      <trkpt lat="42.56194" lon="1.90175">
        <ele>2060</ele>
        <time>2021-09-15T12:35:06Z</time>
      </trkpt>
      <trkpt lat="42.56193" lon="1.90173">
        <ele>2060</ele>
        <time>2021-09-15T12:35:09Z</time>
      </trkpt>
      <trkpt lat="42.56192" lon="1.90172">
        <ele>2060</ele>
        <time>2021-09-15T12:35:11Z</time>
      </trkpt>
      <trkpt lat="42.56188" lon="1.9017">
        <ele>2059</ele>
        <time>2021-09-15T12:35:15Z</time>
      </trkpt>
      <trkpt lat="42.56186" lon="1.90168">
        <ele>2059</ele>
        <time>2021-09-15T12:35:17Z</time>
      </trkpt>
      <trkpt lat="42.56184" lon="1.90167">
        <ele>2059</ele>
        <time>2021-09-15T12:35:19Z</time>
      </trkpt>
      <trkpt lat="42.56183" lon="1.90165">
        <ele>2059</ele>
        <time>2021-09-15T12:35:21Z</time>
      </trkpt>
      <trkpt lat="42.56181" lon="1.90165">
        <ele>2058</ele>
        <time>2021-09-15T12:35:23Z</time>
      </trkpt>
      <trkpt lat="42.56181" lon="1.90162">
        <ele>2058</ele>
        <time>2021-09-15T12:35:26Z</time>
      </trkpt>
      <trkpt lat="42.5618" lon="1.90161">
        <ele>2058</ele>
        <time>2021-09-15T12:35:28Z</time>
      </trkpt>
      <trkpt lat="42.56175" lon="1.90158">
        <ele>2058</ele>
        <time>2021-09-15T12:35:35Z</time>
      </trkpt>
      <trkpt lat="42.56173" lon="1.90158">
        <ele>2057</ele>
        <time>2021-09-15T12:35:38Z</time>
      </trkpt>
      <trkpt lat="42.56171" lon="1.90159">
        <ele>2057</ele>
        <time>2021-09-15T12:35:41Z</time>
      </trkpt>
      <trkpt lat="42.56169" lon="1.90159">
        <ele>2057</ele>
        <time>2021-09-15T12:35:43Z</time>
      </trkpt>
      <trkpt lat="42.56168" lon="1.90158">
        <ele>2057</ele>
        <time>2021-09-15T12:35:46Z</time>
      </trkpt>
      <trkpt lat="42.56167" lon="1.90153">
        <ele>2057</ele>
        <time>2021-09-15T12:35:52Z</time>
      </trkpt>
      <trkpt lat="42.56164" lon="1.90149">
        <ele>2056</ele>
        <time>2021-09-15T12:35:57Z</time>
      </trkpt>
      <trkpt lat="42.56159" lon="1.90142">
        <ele>2056</ele>
        <time>2021-09-15T12:36:06Z</time>
      </trkpt>
      <trkpt lat="42.56157" lon="1.90142">
        <ele>2056</ele>
        <time>2021-09-15T12:36:08Z</time>
      </trkpt>
      <trkpt lat="42.56151" lon="1.90141">
        <ele>2055</ele>
        <time>2021-09-15T12:36:17Z</time>
      </trkpt>
      <trkpt lat="42.5615" lon="1.90141">
        <ele>2055</ele>
        <time>2021-09-15T12:36:19Z</time>
      </trkpt>
      <trkpt lat="42.56148" lon="1.9014">
        <ele>2055</ele>
        <time>2021-09-15T12:36:23Z</time>
      </trkpt>
      <trkpt lat="42.56148" lon="1.90138">
        <ele>2055</ele>
        <time>2021-09-15T12:36:26Z</time>
      </trkpt>
      <trkpt lat="42.56148" lon="1.90136">
        <ele>2055</ele>
        <time>2021-09-15T12:36:30Z</time>
      </trkpt>
      <trkpt lat="42.56147" lon="1.90134">
        <ele>2055</ele>
        <time>2021-09-15T12:36:34Z</time>
      </trkpt>
      <trkpt lat="42.56146" lon="1.90132">
        <ele>2055</ele>
        <time>2021-09-15T12:36:37Z</time>
      </trkpt>
      <trkpt lat="42.56144" lon="1.9013">
        <ele>2055</ele>
        <time>2021-09-15T12:36:40Z</time>
      </trkpt>
      <trkpt lat="42.56142" lon="1.90128">
        <ele>2055</ele>
        <time>2021-09-15T12:36:46Z</time>
      </trkpt>
      <trkpt lat="42.56141" lon="1.90126">
        <ele>2054</ele>
        <time>2021-09-15T12:36:50Z</time>
      </trkpt>
      <trkpt lat="42.5614" lon="1.90124">
        <ele>2054</ele>
        <time>2021-09-15T12:36:53Z</time>
      </trkpt>
      <trkpt lat="42.56138" lon="1.90122">
        <ele>2054</ele>
        <time>2021-09-15T12:36:56Z</time>
      </trkpt>
      <trkpt lat="42.56135" lon="1.9012">
        <ele>2053</ele>
        <time>2021-09-15T12:37:02Z</time>
      </trkpt>
      <trkpt lat="42.56133" lon="1.90119">
        <ele>2053</ele>
        <time>2021-09-15T12:37:04Z</time>
      </trkpt>
      <trkpt lat="42.56131" lon="1.90118">
        <ele>2053</ele>
        <time>2021-09-15T12:37:06Z</time>
      </trkpt>
      <trkpt lat="42.5613" lon="1.90116">
        <ele>2052</ele>
        <time>2021-09-15T12:37:12Z</time>
      </trkpt>
      <trkpt lat="42.5613" lon="1.90114">
        <ele>2052</ele>
        <time>2021-09-15T12:37:16Z</time>
      </trkpt>
      <trkpt lat="42.56129" lon="1.90114">
        <ele>2051</ele>
        <time>2021-09-15T12:37:23Z</time>
      </trkpt>
      <trkpt lat="42.56127" lon="1.90111">
        <ele>2051</ele>
        <time>2021-09-15T12:37:41Z</time>
      </trkpt>
      <trkpt lat="42.56127" lon="1.90109">
        <ele>2050</ele>
        <time>2021-09-15T12:37:44Z</time>
      </trkpt>
      <trkpt lat="42.56127" lon="1.90108">
        <ele>2050</ele>
        <time>2021-09-15T12:37:59Z</time>
      </trkpt>
      <trkpt lat="42.56127" lon="1.90105">
        <ele>2050</ele>
        <time>2021-09-15T12:38:03Z</time>
      </trkpt>
      <trkpt lat="42.56127" lon="1.90098">
        <ele>2050</ele>
        <time>2021-09-15T12:38:10Z</time>
      </trkpt>
      <trkpt lat="42.56127" lon="1.90095">
        <ele>2050</ele>
        <time>2021-09-15T12:38:14Z</time>
      </trkpt>
      <trkpt lat="42.56129" lon="1.90093">
        <ele>2050</ele>
        <time>2021-09-15T12:38:16Z</time>
      </trkpt>
      <trkpt lat="42.56128" lon="1.90093">
        <ele>2050</ele>
        <time>2021-09-15T12:38:48Z</time>
      </trkpt>
      <trkpt lat="42.56127" lon="1.90096">
        <ele>2049</ele>
        <time>2021-09-15T12:38:52Z</time>
      </trkpt>
      <trkpt lat="42.56127" lon="1.90098">
        <ele>2047</ele>
        <time>2021-09-15T12:38:55Z</time>
      </trkpt>
      <trkpt lat="42.56127" lon="1.901">
        <ele>2046</ele>
        <time>2021-09-15T12:39:08Z</time>
      </trkpt>
      <trkpt lat="42.56125" lon="1.901">
        <ele>2048</ele>
        <time>2021-09-15T12:41:47Z</time>
      </trkpt>
      <trkpt lat="42.56121" lon="1.90102">
        <ele>2049</ele>
        <time>2021-09-15T12:42:15Z</time>
      </trkpt>
      <trkpt lat="42.56122" lon="1.90101">
        <ele>2049</ele>
        <time>2021-09-15T12:42:18Z</time>
      </trkpt>
      <trkpt lat="42.56121" lon="1.90092">
        <ele>2050</ele>
        <time>2021-09-15T12:43:06Z</time>
      </trkpt>
      <trkpt lat="42.56122" lon="1.90091">
        <ele>2052</ele>
        <time>2021-09-15T12:44:23Z</time>
      </trkpt>
      <trkpt lat="42.56125" lon="1.90086">
        <ele>2052</ele>
        <time>2021-09-15T12:44:31Z</time>
      </trkpt>
      <trkpt lat="42.56127" lon="1.90082">
        <ele>2050</ele>
        <time>2021-09-15T12:45:32Z</time>
      </trkpt>
      <trkpt lat="42.56126" lon="1.90083">
        <ele>2048</ele>
        <time>2021-09-15T12:45:36Z</time>
      </trkpt>
      <trkpt lat="42.56124" lon="1.90082">
        <ele>2047</ele>
        <time>2021-09-15T12:47:08Z</time>
      </trkpt>
      <trkpt lat="42.56123" lon="1.9008">
        <ele>2047</ele>
        <time>2021-09-15T12:47:11Z</time>
      </trkpt>
      <trkpt lat="42.56121" lon="1.90078">
        <ele>2047</ele>
        <time>2021-09-15T12:47:14Z</time>
      </trkpt>
      <trkpt lat="42.5612" lon="1.90076">
        <ele>2047</ele>
        <time>2021-09-15T12:47:16Z</time>
      </trkpt>
      <trkpt lat="42.56119" lon="1.90076">
        <ele>2048</ele>
        <time>2021-09-15T12:47:22Z</time>
      </trkpt>
      <trkpt lat="42.56118" lon="1.90074">
        <ele>2048</ele>
        <time>2021-09-15T12:47:29Z</time>
      </trkpt>
      <trkpt lat="42.56116" lon="1.90073">
        <ele>2048</ele>
        <time>2021-09-15T12:47:34Z</time>
      </trkpt>
      <trkpt lat="42.56116" lon="1.90071">
        <ele>2048</ele>
        <time>2021-09-15T12:47:37Z</time>
      </trkpt>
      <trkpt lat="42.56115" lon="1.90069">
        <ele>2048</ele>
        <time>2021-09-15T12:47:40Z</time>
      </trkpt>
      <trkpt lat="42.56113" lon="1.90068">
        <ele>2048</ele>
        <time>2021-09-15T12:47:42Z</time>
      </trkpt>
      <trkpt lat="42.56112" lon="1.90066">
        <ele>2048</ele>
        <time>2021-09-15T12:47:44Z</time>
      </trkpt>
      <trkpt lat="42.56105" lon="1.90056">
        <ele>2048</ele>
        <time>2021-09-15T12:47:54Z</time>
      </trkpt>
      <trkpt lat="42.56104" lon="1.90054">
        <ele>2048</ele>
        <time>2021-09-15T12:47:56Z</time>
      </trkpt>
      <trkpt lat="42.56102" lon="1.90051">
        <ele>2048</ele>
        <time>2021-09-15T12:47:58Z</time>
      </trkpt>
      <trkpt lat="42.56101" lon="1.90049">
        <ele>2048</ele>
        <time>2021-09-15T12:48:00Z</time>
      </trkpt>
      <trkpt lat="42.561" lon="1.90046">
        <ele>2048</ele>
        <time>2021-09-15T12:48:02Z</time>
      </trkpt>
      <trkpt lat="42.56099" lon="1.90043">
        <ele>2047</ele>
        <time>2021-09-15T12:48:04Z</time>
      </trkpt>
      <trkpt lat="42.56097" lon="1.90042">
        <ele>2047</ele>
        <time>2021-09-15T12:48:06Z</time>
      </trkpt>
      <trkpt lat="42.56096" lon="1.9004">
        <ele>2047</ele>
        <time>2021-09-15T12:48:08Z</time>
      </trkpt>
      <trkpt lat="42.56095" lon="1.90038">
        <ele>2046</ele>
        <time>2021-09-15T12:48:10Z</time>
      </trkpt>
      <trkpt lat="42.56094" lon="1.90036">
        <ele>2046</ele>
        <time>2021-09-15T12:48:14Z</time>
      </trkpt>
      <trkpt lat="42.56093" lon="1.90034">
        <ele>2045</ele>
        <time>2021-09-15T12:48:17Z</time>
      </trkpt>
      <trkpt lat="42.56089" lon="1.90033">
        <ele>2045</ele>
        <time>2021-09-15T12:48:21Z</time>
      </trkpt>
      <trkpt lat="42.56085" lon="1.90034">
        <ele>2044</ele>
        <time>2021-09-15T12:48:25Z</time>
      </trkpt>
      <trkpt lat="42.56083" lon="1.90036">
        <ele>2044</ele>
        <time>2021-09-15T12:48:27Z</time>
      </trkpt>
      <trkpt lat="42.56082" lon="1.90038">
        <ele>2043</ele>
        <time>2021-09-15T12:48:29Z</time>
      </trkpt>
      <trkpt lat="42.56078" lon="1.90042">
        <ele>2043</ele>
        <time>2021-09-15T12:48:34Z</time>
      </trkpt>
      <trkpt lat="42.56076" lon="1.90044">
        <ele>2042</ele>
        <time>2021-09-15T12:48:36Z</time>
      </trkpt>
      <trkpt lat="42.56075" lon="1.90046">
        <ele>2042</ele>
        <time>2021-09-15T12:48:38Z</time>
      </trkpt>
      <trkpt lat="42.56074" lon="1.90049">
        <ele>2042</ele>
        <time>2021-09-15T12:48:41Z</time>
      </trkpt>
      <trkpt lat="42.56071" lon="1.90052">
        <ele>2042</ele>
        <time>2021-09-15T12:48:44Z</time>
      </trkpt>
      <trkpt lat="42.56069" lon="1.90054">
        <ele>2041</ele>
        <time>2021-09-15T12:48:46Z</time>
      </trkpt>
      <trkpt lat="42.56067" lon="1.90056">
        <ele>2041</ele>
        <time>2021-09-15T12:48:50Z</time>
      </trkpt>
      <trkpt lat="42.56065" lon="1.90057">
        <ele>2041</ele>
        <time>2021-09-15T12:48:52Z</time>
      </trkpt>
      <trkpt lat="42.56056" lon="1.90066">
        <ele>2040</ele>
        <time>2021-09-15T12:49:03Z</time>
      </trkpt>
      <trkpt lat="42.56049" lon="1.90069">
        <ele>2040</ele>
        <time>2021-09-15T12:49:09Z</time>
      </trkpt>
      <trkpt lat="42.56047" lon="1.90069">
        <ele>2040</ele>
        <time>2021-09-15T12:49:11Z</time>
      </trkpt>
      <trkpt lat="42.56045" lon="1.90069">
        <ele>2040</ele>
        <time>2021-09-15T12:49:15Z</time>
      </trkpt>
      <trkpt lat="42.56043" lon="1.9007">
        <ele>2040</ele>
        <time>2021-09-15T12:49:18Z</time>
      </trkpt>
      <trkpt lat="42.56036" lon="1.90071">
        <ele>2039</ele>
        <time>2021-09-15T12:49:27Z</time>
      </trkpt>
      <trkpt lat="42.56034" lon="1.90072">
        <ele>2039</ele>
        <time>2021-09-15T12:49:29Z</time>
      </trkpt>
      <trkpt lat="42.5601" lon="1.90069">
        <ele>2038</ele>
        <time>2021-09-15T12:49:54Z</time>
      </trkpt>
      <trkpt lat="42.55984" lon="1.90054">
        <ele>2036</ele>
        <time>2021-09-15T12:50:23Z</time>
      </trkpt>
      <trkpt lat="42.55981" lon="1.90049">
        <ele>2036</ele>
        <time>2021-09-15T12:50:28Z</time>
      </trkpt>
      <trkpt lat="42.5598" lon="1.90047">
        <ele>2036</ele>
        <time>2021-09-15T12:50:39Z</time>
      </trkpt>
      <trkpt lat="42.55971" lon="1.90034">
        <ele>2035</ele>
        <time>2021-09-15T12:50:51Z</time>
      </trkpt>
      <trkpt lat="42.55969" lon="1.90034">
        <ele>2035</ele>
        <time>2021-09-15T12:50:54Z</time>
      </trkpt>
      <trkpt lat="42.55967" lon="1.90032">
        <ele>2034</ele>
        <time>2021-09-15T12:51:03Z</time>
      </trkpt>
      <trkpt lat="42.55964" lon="1.9003">
        <ele>2034</ele>
        <time>2021-09-15T12:51:05Z</time>
      </trkpt>
      <trkpt lat="42.55963" lon="1.90028">
        <ele>2033</ele>
        <time>2021-09-15T12:51:07Z</time>
      </trkpt>
      <trkpt lat="42.5596" lon="1.90027">
        <ele>2033</ele>
        <time>2021-09-15T12:51:10Z</time>
      </trkpt>
      <trkpt lat="42.55957" lon="1.90022">
        <ele>2032</ele>
        <time>2021-09-15T12:51:15Z</time>
      </trkpt>
      <trkpt lat="42.55956" lon="1.90019">
        <ele>2032</ele>
        <time>2021-09-15T12:51:18Z</time>
      </trkpt>
      <trkpt lat="42.55955" lon="1.90017">
        <ele>2032</ele>
        <time>2021-09-15T12:51:22Z</time>
      </trkpt>
      <trkpt lat="42.55956" lon="1.90014">
        <ele>2032</ele>
        <time>2021-09-15T12:51:25Z</time>
      </trkpt>
      <trkpt lat="42.55956" lon="1.90011">
        <ele>2031</ele>
        <time>2021-09-15T12:51:28Z</time>
      </trkpt>
      <trkpt lat="42.55955" lon="1.90009">
        <ele>2031</ele>
        <time>2021-09-15T12:51:31Z</time>
      </trkpt>
      <trkpt lat="42.55953" lon="1.90007">
        <ele>2031</ele>
        <time>2021-09-15T12:51:34Z</time>
      </trkpt>
      <trkpt lat="42.55952" lon="1.90005">
        <ele>2031</ele>
        <time>2021-09-15T12:51:39Z</time>
      </trkpt>
      <trkpt lat="42.55953" lon="1.90002">
        <ele>2031</ele>
        <time>2021-09-15T12:51:44Z</time>
      </trkpt>
      <trkpt lat="42.55953" lon="1.9">
        <ele>2030</ele>
        <time>2021-09-15T12:51:47Z</time>
      </trkpt>
      <trkpt lat="42.55953" lon="1.89998">
        <ele>2030</ele>
        <time>2021-09-15T12:51:52Z</time>
      </trkpt>
      <trkpt lat="42.55952" lon="1.8999">
        <ele>2028</ele>
        <time>2021-09-15T12:52:08Z</time>
      </trkpt>
      <trkpt lat="42.55953" lon="1.89987">
        <ele>2026</ele>
        <time>2021-09-15T12:52:12Z</time>
      </trkpt>
      <trkpt lat="42.55951" lon="1.89986">
        <ele>2026</ele>
        <time>2021-09-15T12:52:19Z</time>
      </trkpt>
      <trkpt lat="42.55952" lon="1.89984">
        <ele>2025</ele>
        <time>2021-09-15T12:52:23Z</time>
      </trkpt>
      <trkpt lat="42.55956" lon="1.89977">
        <ele>2024</ele>
        <time>2021-09-15T12:52:33Z</time>
      </trkpt>
      <trkpt lat="42.55952" lon="1.89974">
        <ele>2023</ele>
        <time>2021-09-15T12:52:39Z</time>
      </trkpt>
      <trkpt lat="42.5595" lon="1.89973">
        <ele>2023</ele>
        <time>2021-09-15T12:52:42Z</time>
      </trkpt>
      <trkpt lat="42.55949" lon="1.89974">
        <ele>2022</ele>
        <time>2021-09-15T12:52:44Z</time>
      </trkpt>
      <trkpt lat="42.55946" lon="1.89973">
        <ele>2022</ele>
        <time>2021-09-15T12:52:46Z</time>
      </trkpt>
      <trkpt lat="42.55944" lon="1.89972">
        <ele>2022</ele>
        <time>2021-09-15T12:52:50Z</time>
      </trkpt>
      <trkpt lat="42.55943" lon="1.89972">
        <ele>2021</ele>
        <time>2021-09-15T12:52:54Z</time>
      </trkpt>
      <trkpt lat="42.55941" lon="1.89974">
        <ele>2019</ele>
        <time>2021-09-15T12:53:00Z</time>
      </trkpt>
      <trkpt lat="42.55938" lon="1.89975">
        <ele>2019</ele>
        <time>2021-09-15T12:53:09Z</time>
      </trkpt>
      <trkpt lat="42.55935" lon="1.89974">
        <ele>2018</ele>
        <time>2021-09-15T12:53:16Z</time>
      </trkpt>
      <trkpt lat="42.55933" lon="1.89974">
        <ele>2018</ele>
        <time>2021-09-15T12:53:18Z</time>
      </trkpt>
      <trkpt lat="42.55931" lon="1.89974">
        <ele>2017</ele>
        <time>2021-09-15T12:53:21Z</time>
      </trkpt>
      <trkpt lat="42.55927" lon="1.89989">
        <ele>2015</ele>
        <time>2021-09-15T12:53:33Z</time>
      </trkpt>
      <trkpt lat="42.55925" lon="1.89992">
        <ele>2015</ele>
        <time>2021-09-15T12:53:36Z</time>
      </trkpt>
      <trkpt lat="42.55923" lon="1.89994">
        <ele>2014</ele>
        <time>2021-09-15T12:53:39Z</time>
      </trkpt>
      <trkpt lat="42.55921" lon="1.89992">
        <ele>2014</ele>
        <time>2021-09-15T12:53:43Z</time>
      </trkpt>
      <trkpt lat="42.5592" lon="1.8999">
        <ele>2013</ele>
        <time>2021-09-15T12:53:47Z</time>
      </trkpt>
      <trkpt lat="42.5592" lon="1.89987">
        <ele>2013</ele>
        <time>2021-09-15T12:53:53Z</time>
      </trkpt>
      <trkpt lat="42.55918" lon="1.89986">
        <ele>2012</ele>
        <time>2021-09-15T12:53:58Z</time>
      </trkpt>
      <trkpt lat="42.55914" lon="1.89982">
        <ele>2012</ele>
        <time>2021-09-15T12:54:04Z</time>
      </trkpt>
      <trkpt lat="42.55912" lon="1.89981">
        <ele>2012</ele>
        <time>2021-09-15T12:54:07Z</time>
      </trkpt>
      <trkpt lat="42.5591" lon="1.8998">
        <ele>2012</ele>
        <time>2021-09-15T12:54:09Z</time>
      </trkpt>
      <trkpt lat="42.55909" lon="1.89977">
        <ele>2012</ele>
        <time>2021-09-15T12:54:13Z</time>
      </trkpt>
      <trkpt lat="42.55906" lon="1.89976">
        <ele>2012</ele>
        <time>2021-09-15T12:54:15Z</time>
      </trkpt>
      <trkpt lat="42.55904" lon="1.89976">
        <ele>2011</ele>
        <time>2021-09-15T12:54:17Z</time>
      </trkpt>
      <trkpt lat="42.55898" lon="1.8998">
        <ele>2010</ele>
        <time>2021-09-15T12:54:23Z</time>
      </trkpt>
      <trkpt lat="42.55894" lon="1.89984">
        <ele>2010</ele>
        <time>2021-09-15T12:54:30Z</time>
      </trkpt>
      <trkpt lat="42.55893" lon="1.89987">
        <ele>2010</ele>
        <time>2021-09-15T12:54:33Z</time>
      </trkpt>
      <trkpt lat="42.55894" lon="1.89996">
        <ele>2010</ele>
        <time>2021-09-15T12:54:42Z</time>
      </trkpt>
      <trkpt lat="42.55894" lon="1.89998">
        <ele>2010</ele>
        <time>2021-09-15T12:54:45Z</time>
      </trkpt>
      <trkpt lat="42.55893" lon="1.9">
        <ele>2010</ele>
        <time>2021-09-15T12:54:55Z</time>
      </trkpt>
      <trkpt lat="42.55894" lon="1.90003">
        <ele>2008</ele>
        <time>2021-09-15T12:55:36Z</time>
      </trkpt>
      <trkpt lat="42.55895" lon="1.90005">
        <ele>2007</ele>
        <time>2021-09-15T12:55:41Z</time>
      </trkpt>
      <trkpt lat="42.55897" lon="1.90006">
        <ele>2007</ele>
        <time>2021-09-15T12:55:46Z</time>
      </trkpt>
      <trkpt lat="42.55899" lon="1.90007">
        <ele>2007</ele>
        <time>2021-09-15T12:55:49Z</time>
      </trkpt>
      <trkpt lat="42.559" lon="1.9001">
        <ele>2007</ele>
        <time>2021-09-15T12:55:52Z</time>
      </trkpt>
      <trkpt lat="42.55899" lon="1.9002">
        <ele>2007</ele>
        <time>2021-09-15T12:56:00Z</time>
      </trkpt>
      <trkpt lat="42.55898" lon="1.90024">
        <ele>2007</ele>
        <time>2021-09-15T12:56:02Z</time>
      </trkpt>
      <trkpt lat="42.55898" lon="1.90026">
        <ele>2008</ele>
        <time>2021-09-15T12:56:10Z</time>
      </trkpt>
      <trkpt lat="42.55896" lon="1.90029">
        <ele>2008</ele>
        <time>2021-09-15T12:56:12Z</time>
      </trkpt>
      <trkpt lat="42.55896" lon="1.90031">
        <ele>2008</ele>
        <time>2021-09-15T12:56:16Z</time>
      </trkpt>
      <trkpt lat="42.55897" lon="1.90037">
        <ele>2009</ele>
        <time>2021-09-15T12:56:21Z</time>
      </trkpt>
      <trkpt lat="42.55898" lon="1.90041">
        <ele>2009</ele>
        <time>2021-09-15T12:56:23Z</time>
      </trkpt>
      <trkpt lat="42.55897" lon="1.90044">
        <ele>2009</ele>
        <time>2021-09-15T12:56:25Z</time>
      </trkpt>
      <trkpt lat="42.55895" lon="1.9006">
        <ele>2009</ele>
        <time>2021-09-15T12:56:47Z</time>
      </trkpt>
      <trkpt lat="42.55895" lon="1.90063">
        <ele>2009</ele>
        <time>2021-09-15T12:56:50Z</time>
      </trkpt>
      <trkpt lat="42.55894" lon="1.90066">
        <ele>2009</ele>
        <time>2021-09-15T12:56:52Z</time>
      </trkpt>
      <trkpt lat="42.55893" lon="1.90075">
        <ele>2010</ele>
        <time>2021-09-15T12:57:01Z</time>
      </trkpt>
      <trkpt lat="42.55891" lon="1.90077">
        <ele>2010</ele>
        <time>2021-09-15T12:57:05Z</time>
      </trkpt>
      <trkpt lat="42.55885" lon="1.90082">
        <ele>2010</ele>
        <time>2021-09-15T12:57:14Z</time>
      </trkpt>
      <trkpt lat="42.55884" lon="1.90085">
        <ele>2011</ele>
        <time>2021-09-15T12:57:20Z</time>
      </trkpt>
      <trkpt lat="42.55882" lon="1.9009">
        <ele>2013</ele>
        <time>2021-09-15T12:57:33Z</time>
      </trkpt>
      <trkpt lat="42.5588" lon="1.90091">
        <ele>2013</ele>
        <time>2021-09-15T12:57:35Z</time>
      </trkpt>
      <trkpt lat="42.55872" lon="1.901">
        <ele>2014</ele>
        <time>2021-09-15T12:57:47Z</time>
      </trkpt>
      <trkpt lat="42.55869" lon="1.90102">
        <ele>2014</ele>
        <time>2021-09-15T12:57:52Z</time>
      </trkpt>
      <trkpt lat="42.55867" lon="1.90102">
        <ele>2014</ele>
        <time>2021-09-15T12:57:55Z</time>
      </trkpt>
      <trkpt lat="42.55864" lon="1.90103">
        <ele>2014</ele>
        <time>2021-09-15T12:57:58Z</time>
      </trkpt>
      <trkpt lat="42.55863" lon="1.90105">
        <ele>2014</ele>
        <time>2021-09-15T12:58:00Z</time>
      </trkpt>
      <trkpt lat="42.55861" lon="1.90107">
        <ele>2014</ele>
        <time>2021-09-15T12:58:03Z</time>
      </trkpt>
      <trkpt lat="42.55859" lon="1.90109">
        <ele>2014</ele>
        <time>2021-09-15T12:58:05Z</time>
      </trkpt>
      <trkpt lat="42.55858" lon="1.90111">
        <ele>2014</ele>
        <time>2021-09-15T12:58:07Z</time>
      </trkpt>
      <trkpt lat="42.55856" lon="1.90113">
        <ele>2014</ele>
        <time>2021-09-15T12:58:09Z</time>
      </trkpt>
      <trkpt lat="42.55853" lon="1.90116">
        <ele>2014</ele>
        <time>2021-09-15T12:58:13Z</time>
      </trkpt>
      <trkpt lat="42.55851" lon="1.90116">
        <ele>2014</ele>
        <time>2021-09-15T12:58:16Z</time>
      </trkpt>
      <trkpt lat="42.55849" lon="1.90117">
        <ele>2014</ele>
        <time>2021-09-15T12:58:18Z</time>
      </trkpt>
      <trkpt lat="42.55848" lon="1.90117">
        <ele>2014</ele>
        <time>2021-09-15T12:58:20Z</time>
      </trkpt>
      <trkpt lat="42.55839" lon="1.90117">
        <ele>2014</ele>
        <time>2021-09-15T12:58:30Z</time>
      </trkpt>
      <trkpt lat="42.55837" lon="1.90116">
        <ele>2014</ele>
        <time>2021-09-15T12:58:32Z</time>
      </trkpt>
      <trkpt lat="42.55831" lon="1.90117">
        <ele>2013</ele>
        <time>2021-09-15T12:58:39Z</time>
      </trkpt>
      <trkpt lat="42.5583" lon="1.90117">
        <ele>2013</ele>
        <time>2021-09-15T12:58:41Z</time>
      </trkpt>
      <trkpt lat="42.55828" lon="1.90116">
        <ele>2013</ele>
        <time>2021-09-15T12:58:43Z</time>
      </trkpt>
      <trkpt lat="42.55825" lon="1.90116">
        <ele>2012</ele>
        <time>2021-09-15T12:58:45Z</time>
      </trkpt>
      <trkpt lat="42.55815" lon="1.90116">
        <ele>2011</ele>
        <time>2021-09-15T12:58:58Z</time>
      </trkpt>
      <trkpt lat="42.55806" lon="1.90117">
        <ele>2010</ele>
        <time>2021-09-15T12:59:08Z</time>
      </trkpt>
      <trkpt lat="42.55804" lon="1.90116">
        <ele>2010</ele>
        <time>2021-09-15T12:59:11Z</time>
      </trkpt>
      <trkpt lat="42.55801" lon="1.90116">
        <ele>2010</ele>
        <time>2021-09-15T12:59:13Z</time>
      </trkpt>
      <trkpt lat="42.55799" lon="1.90116">
        <ele>2010</ele>
        <time>2021-09-15T12:59:15Z</time>
      </trkpt>
      <trkpt lat="42.55786" lon="1.90123">
        <ele>2009</ele>
        <time>2021-09-15T12:59:34Z</time>
      </trkpt>
      <trkpt lat="42.55784" lon="1.90122">
        <ele>2009</ele>
        <time>2021-09-15T12:59:37Z</time>
      </trkpt>
      <trkpt lat="42.55782" lon="1.90122">
        <ele>2009</ele>
        <time>2021-09-15T12:59:40Z</time>
      </trkpt>
      <trkpt lat="42.55781" lon="1.90121">
        <ele>2009</ele>
        <time>2021-09-15T12:59:44Z</time>
      </trkpt>
      <trkpt lat="42.55776" lon="1.90118">
        <ele>2009</ele>
        <time>2021-09-15T12:59:50Z</time>
      </trkpt>
      <trkpt lat="42.55774" lon="1.90118">
        <ele>2009</ele>
        <time>2021-09-15T12:59:52Z</time>
      </trkpt>
      <trkpt lat="42.55772" lon="1.90119">
        <ele>2009</ele>
        <time>2021-09-15T12:59:54Z</time>
      </trkpt>
      <trkpt lat="42.5577" lon="1.90118">
        <ele>2009</ele>
        <time>2021-09-15T12:59:58Z</time>
      </trkpt>
      <trkpt lat="42.5576" lon="1.90111">
        <ele>2009</ele>
        <time>2021-09-15T13:00:12Z</time>
      </trkpt>
      <trkpt lat="42.55753" lon="1.90109">
        <ele>2009</ele>
        <time>2021-09-15T13:00:20Z</time>
      </trkpt>
      <trkpt lat="42.55751" lon="1.90108">
        <ele>2009</ele>
        <time>2021-09-15T13:00:23Z</time>
      </trkpt>
      <trkpt lat="42.55745" lon="1.90108">
        <ele>2009</ele>
        <time>2021-09-15T13:00:30Z</time>
      </trkpt>
      <trkpt lat="42.55743" lon="1.90106">
        <ele>2009</ele>
        <time>2021-09-15T13:00:33Z</time>
      </trkpt>
      <trkpt lat="42.55741" lon="1.90104">
        <ele>2009</ele>
        <time>2021-09-15T13:00:36Z</time>
      </trkpt>
      <trkpt lat="42.55739" lon="1.90104">
        <ele>2009</ele>
        <time>2021-09-15T13:00:39Z</time>
      </trkpt>
      <trkpt lat="42.55722" lon="1.90105">
        <ele>2008</ele>
        <time>2021-09-15T13:00:57Z</time>
      </trkpt>
      <trkpt lat="42.5572" lon="1.90104">
        <ele>2008</ele>
        <time>2021-09-15T13:01:02Z</time>
      </trkpt>
      <trkpt lat="42.55716" lon="1.90103">
        <ele>2007</ele>
        <time>2021-09-15T13:01:14Z</time>
      </trkpt>
      <trkpt lat="42.5571" lon="1.90099">
        <ele>2007</ele>
        <time>2021-09-15T13:01:24Z</time>
      </trkpt>
      <trkpt lat="42.55706" lon="1.90099">
        <ele>2007</ele>
        <time>2021-09-15T13:01:26Z</time>
      </trkpt>
      <trkpt lat="42.55705" lon="1.90098">
        <ele>2007</ele>
        <time>2021-09-15T13:01:29Z</time>
      </trkpt>
      <trkpt lat="42.55703" lon="1.90098">
        <ele>2007</ele>
        <time>2021-09-15T13:01:31Z</time>
      </trkpt>
      <trkpt lat="42.55699" lon="1.90097">
        <ele>2007</ele>
        <time>2021-09-15T13:01:37Z</time>
      </trkpt>
      <trkpt lat="42.55697" lon="1.90095">
        <ele>2007</ele>
        <time>2021-09-15T13:01:40Z</time>
      </trkpt>
      <trkpt lat="42.55696" lon="1.90094">
        <ele>2008</ele>
        <time>2021-09-15T13:01:43Z</time>
      </trkpt>
      <trkpt lat="42.55695" lon="1.90092">
        <ele>2008</ele>
        <time>2021-09-15T13:01:45Z</time>
      </trkpt>
      <trkpt lat="42.55693" lon="1.90092">
        <ele>2008</ele>
        <time>2021-09-15T13:01:47Z</time>
      </trkpt>
      <trkpt lat="42.55692" lon="1.9009">
        <ele>2009</ele>
        <time>2021-09-15T13:01:51Z</time>
      </trkpt>
      <trkpt lat="42.55691" lon="1.90089">
        <ele>2009</ele>
        <time>2021-09-15T13:01:55Z</time>
      </trkpt>
      <trkpt lat="42.5569" lon="1.90087">
        <ele>2010</ele>
        <time>2021-09-15T13:02:03Z</time>
      </trkpt>
      <trkpt lat="42.55687" lon="1.9008">
        <ele>2011</ele>
        <time>2021-09-15T13:02:16Z</time>
      </trkpt>
      <trkpt lat="42.55686" lon="1.90078">
        <ele>2011</ele>
        <time>2021-09-15T13:02:19Z</time>
      </trkpt>
      <trkpt lat="42.55685" lon="1.90076">
        <ele>2011</ele>
        <time>2021-09-15T13:02:21Z</time>
      </trkpt>
      <trkpt lat="42.55683" lon="1.90074">
        <ele>2011</ele>
        <time>2021-09-15T13:02:24Z</time>
      </trkpt>
      <trkpt lat="42.55682" lon="1.90072">
        <ele>2011</ele>
        <time>2021-09-15T13:02:26Z</time>
      </trkpt>
      <trkpt lat="42.55681" lon="1.90069">
        <ele>2011</ele>
        <time>2021-09-15T13:02:29Z</time>
      </trkpt>
      <trkpt lat="42.5568" lon="1.90067">
        <ele>2011</ele>
        <time>2021-09-15T13:02:32Z</time>
      </trkpt>
      <trkpt lat="42.55673" lon="1.9006">
        <ele>2011</ele>
        <time>2021-09-15T13:02:40Z</time>
      </trkpt>
      <trkpt lat="42.55671" lon="1.90055">
        <ele>2011</ele>
        <time>2021-09-15T13:02:44Z</time>
      </trkpt>
      <trkpt lat="42.55663" lon="1.90048">
        <ele>2010</ele>
        <time>2021-09-15T13:02:51Z</time>
      </trkpt>
      <trkpt lat="42.55661" lon="1.90045">
        <ele>2010</ele>
        <time>2021-09-15T13:02:53Z</time>
      </trkpt>
      <trkpt lat="42.5566" lon="1.90042">
        <ele>2009</ele>
        <time>2021-09-15T13:02:55Z</time>
      </trkpt>
      <trkpt lat="42.55658" lon="1.9004">
        <ele>2009</ele>
        <time>2021-09-15T13:02:57Z</time>
      </trkpt>
      <trkpt lat="42.55656" lon="1.90039">
        <ele>2009</ele>
        <time>2021-09-15T13:02:59Z</time>
      </trkpt>
      <trkpt lat="42.55655" lon="1.90039">
        <ele>2009</ele>
        <time>2021-09-15T13:03:01Z</time>
      </trkpt>
      <trkpt lat="42.5565" lon="1.90039">
        <ele>2008</ele>
        <time>2021-09-15T13:03:07Z</time>
      </trkpt>
      <trkpt lat="42.5564" lon="1.90046">
        <ele>2006</ele>
        <time>2021-09-15T13:03:19Z</time>
      </trkpt>
      <trkpt lat="42.55637" lon="1.90052">
        <ele>2004</ele>
        <time>2021-09-15T13:03:28Z</time>
      </trkpt>
      <trkpt lat="42.55635" lon="1.90053">
        <ele>2003</ele>
        <time>2021-09-15T13:03:33Z</time>
      </trkpt>
      <trkpt lat="42.55633" lon="1.90052">
        <ele>2003</ele>
        <time>2021-09-15T13:03:37Z</time>
      </trkpt>
      <trkpt lat="42.55631" lon="1.90052">
        <ele>2003</ele>
        <time>2021-09-15T13:03:42Z</time>
      </trkpt>
      <trkpt lat="42.55629" lon="1.90053">
        <ele>2003</ele>
        <time>2021-09-15T13:03:44Z</time>
      </trkpt>
      <trkpt lat="42.55626" lon="1.90049">
        <ele>2002</ele>
        <time>2021-09-15T13:03:54Z</time>
      </trkpt>
      <trkpt lat="42.55625" lon="1.90047">
        <ele>2002</ele>
        <time>2021-09-15T13:03:56Z</time>
      </trkpt>
      <trkpt lat="42.55622" lon="1.90045">
        <ele>2002</ele>
        <time>2021-09-15T13:03:59Z</time>
      </trkpt>
      <trkpt lat="42.55623" lon="1.90042">
        <ele>2002</ele>
        <time>2021-09-15T13:04:03Z</time>
      </trkpt>
      <trkpt lat="42.55613" lon="1.90042">
        <ele>2002</ele>
        <time>2021-09-15T13:04:18Z</time>
      </trkpt>
      <trkpt lat="42.55614" lon="1.90045">
        <ele>2002</ele>
        <time>2021-09-15T13:04:25Z</time>
      </trkpt>
      <trkpt lat="42.55615" lon="1.90044">
        <ele>2001</ele>
        <time>2021-09-15T13:04:38Z</time>
      </trkpt>
      <trkpt lat="42.55611" lon="1.90039">
        <ele>2000</ele>
        <time>2021-09-15T13:04:43Z</time>
      </trkpt>
      <trkpt lat="42.55606" lon="1.90037">
        <ele>1999</ele>
        <time>2021-09-15T13:04:48Z</time>
      </trkpt>
      <trkpt lat="42.55599" lon="1.90038">
        <ele>1997</ele>
        <time>2021-09-15T13:04:58Z</time>
      </trkpt>
      <trkpt lat="42.55597" lon="1.90039">
        <ele>1997</ele>
        <time>2021-09-15T13:05:00Z</time>
      </trkpt>
      <trkpt lat="42.55594" lon="1.90039">
        <ele>1996</ele>
        <time>2021-09-15T13:05:03Z</time>
      </trkpt>
      <trkpt lat="42.55592" lon="1.90039">
        <ele>1996</ele>
        <time>2021-09-15T13:05:07Z</time>
      </trkpt>
      <trkpt lat="42.5559" lon="1.90039">
        <ele>1995</ele>
        <time>2021-09-15T13:05:11Z</time>
      </trkpt>
      <trkpt lat="42.55588" lon="1.90039">
        <ele>1995</ele>
        <time>2021-09-15T13:05:13Z</time>
      </trkpt>
      <trkpt lat="42.55586" lon="1.90037">
        <ele>1994</ele>
        <time>2021-09-15T13:05:16Z</time>
      </trkpt>
      <trkpt lat="42.55584" lon="1.90036">
        <ele>1993</ele>
        <time>2021-09-15T13:05:20Z</time>
      </trkpt>
      <trkpt lat="42.55583" lon="1.90037">
        <ele>1993</ele>
        <time>2021-09-15T13:05:22Z</time>
      </trkpt>
      <trkpt lat="42.55579" lon="1.90034">
        <ele>1991</ele>
        <time>2021-09-15T13:05:28Z</time>
      </trkpt>
      <trkpt lat="42.5557" lon="1.9003">
        <ele>1990</ele>
        <time>2021-09-15T13:05:38Z</time>
      </trkpt>
      <trkpt lat="42.55567" lon="1.90028">
        <ele>1990</ele>
        <time>2021-09-15T13:05:44Z</time>
      </trkpt>
      <trkpt lat="42.55565" lon="1.90026">
        <ele>1989</ele>
        <time>2021-09-15T13:05:48Z</time>
      </trkpt>
      <trkpt lat="42.55561" lon="1.90021">
        <ele>1989</ele>
        <time>2021-09-15T13:05:55Z</time>
      </trkpt>
      <trkpt lat="42.55559" lon="1.90017">
        <ele>1988</ele>
        <time>2021-09-15T13:06:00Z</time>
      </trkpt>
      <trkpt lat="42.55558" lon="1.90016">
        <ele>1988</ele>
        <time>2021-09-15T13:06:02Z</time>
      </trkpt>
      <trkpt lat="42.55556" lon="1.90015">
        <ele>1988</ele>
        <time>2021-09-15T13:06:04Z</time>
      </trkpt>
      <trkpt lat="42.55552" lon="1.90011">
        <ele>1987</ele>
        <time>2021-09-15T13:06:12Z</time>
      </trkpt>
      <trkpt lat="42.55549" lon="1.90006">
        <ele>1987</ele>
        <time>2021-09-15T13:06:19Z</time>
      </trkpt>
      <trkpt lat="42.55547" lon="1.90006">
        <ele>1986</ele>
        <time>2021-09-15T13:06:21Z</time>
      </trkpt>
      <trkpt lat="42.55541" lon="1.90001">
        <ele>1985</ele>
        <time>2021-09-15T13:06:30Z</time>
      </trkpt>
      <trkpt lat="42.55539" lon="1.89999">
        <ele>1985</ele>
        <time>2021-09-15T13:06:33Z</time>
      </trkpt>
      <trkpt lat="42.55537" lon="1.89996">
        <ele>1985</ele>
        <time>2021-09-15T13:06:38Z</time>
      </trkpt>
      <trkpt lat="42.55533" lon="1.89995">
        <ele>1984</ele>
        <time>2021-09-15T13:06:42Z</time>
      </trkpt>
      <trkpt lat="42.55531" lon="1.89994">
        <ele>1983</ele>
        <time>2021-09-15T13:06:45Z</time>
      </trkpt>
      <trkpt lat="42.55529" lon="1.89992">
        <ele>1983</ele>
        <time>2021-09-15T13:06:48Z</time>
      </trkpt>
      <trkpt lat="42.55526" lon="1.89991">
        <ele>1982</ele>
        <time>2021-09-15T13:06:54Z</time>
      </trkpt>
      <trkpt lat="42.55523" lon="1.8999">
        <ele>1982</ele>
        <time>2021-09-15T13:06:58Z</time>
      </trkpt>
      <trkpt lat="42.55521" lon="1.89988">
        <ele>1982</ele>
        <time>2021-09-15T13:07:01Z</time>
      </trkpt>
      <trkpt lat="42.55514" lon="1.89982">
        <ele>1981</ele>
        <time>2021-09-15T13:07:11Z</time>
      </trkpt>
      <trkpt lat="42.55501" lon="1.89967">
        <ele>1979</ele>
        <time>2021-09-15T13:07:30Z</time>
      </trkpt>
      <trkpt lat="42.55497" lon="1.89962">
        <ele>1978</ele>
        <time>2021-09-15T13:07:36Z</time>
      </trkpt>
      <trkpt lat="42.55495" lon="1.89961">
        <ele>1978</ele>
        <time>2021-09-15T13:07:38Z</time>
      </trkpt>
      <trkpt lat="42.55494" lon="1.89958">
        <ele>1978</ele>
        <time>2021-09-15T13:07:41Z</time>
      </trkpt>
      <trkpt lat="42.55492" lon="1.89957">
        <ele>1978</ele>
        <time>2021-09-15T13:07:45Z</time>
      </trkpt>
      <trkpt lat="42.5549" lon="1.89958">
        <ele>1977</ele>
        <time>2021-09-15T13:07:48Z</time>
      </trkpt>
      <trkpt lat="42.55487" lon="1.8995">
        <ele>1976</ele>
        <time>2021-09-15T13:07:59Z</time>
      </trkpt>
      <trkpt lat="42.55481" lon="1.89946">
        <ele>1975</ele>
        <time>2021-09-15T13:08:07Z</time>
      </trkpt>
      <trkpt lat="42.55475" lon="1.89944">
        <ele>1975</ele>
        <time>2021-09-15T13:08:13Z</time>
      </trkpt>
      <trkpt lat="42.55472" lon="1.89941">
        <ele>1975</ele>
        <time>2021-09-15T13:08:17Z</time>
      </trkpt>
      <trkpt lat="42.5547" lon="1.89941">
        <ele>1975</ele>
        <time>2021-09-15T13:08:19Z</time>
      </trkpt>
      <trkpt lat="42.55469" lon="1.89939">
        <ele>1975</ele>
        <time>2021-09-15T13:08:22Z</time>
      </trkpt>
      <trkpt lat="42.55469" lon="1.89937">
        <ele>1975</ele>
        <time>2021-09-15T13:08:25Z</time>
      </trkpt>
      <trkpt lat="42.55471" lon="1.89936">
        <ele>1974</ele>
        <time>2021-09-15T13:08:29Z</time>
      </trkpt>
      <trkpt lat="42.55472" lon="1.89937">
        <ele>1974</ele>
        <time>2021-09-15T13:08:33Z</time>
      </trkpt>
      <trkpt lat="42.55475" lon="1.89942">
        <ele>1972</ele>
        <time>2021-09-15T13:08:45Z</time>
      </trkpt>
      <trkpt lat="42.55493" lon="1.89946">
        <ele>1969</ele>
        <time>2021-09-15T13:09:07Z</time>
      </trkpt>
      <trkpt lat="42.55497" lon="1.8995">
        <ele>1969</ele>
        <time>2021-09-15T13:09:13Z</time>
      </trkpt>
      <trkpt lat="42.55508" lon="1.8995">
        <ele>1967</ele>
        <time>2021-09-15T13:09:27Z</time>
      </trkpt>
      <trkpt lat="42.55514" lon="1.89948">
        <ele>1965</ele>
        <time>2021-09-15T13:09:39Z</time>
      </trkpt>
      <trkpt lat="42.55516" lon="1.89952">
        <ele>1964</ele>
        <time>2021-09-15T13:09:43Z</time>
      </trkpt>
      <trkpt lat="42.55517" lon="1.89954">
        <ele>1964</ele>
        <time>2021-09-15T13:09:46Z</time>
      </trkpt>
      <trkpt lat="42.55526" lon="1.89949">
        <ele>1962</ele>
        <time>2021-09-15T13:09:57Z</time>
      </trkpt>
      <trkpt lat="42.55532" lon="1.89948">
        <ele>1962</ele>
        <time>2021-09-15T13:10:07Z</time>
      </trkpt>
      <trkpt lat="42.55541" lon="1.8995">
        <ele>1963</ele>
        <time>2021-09-15T13:10:17Z</time>
      </trkpt>
      <trkpt lat="42.55544" lon="1.89948">
        <ele>1962</ele>
        <time>2021-09-15T13:10:20Z</time>
      </trkpt>
      <trkpt lat="42.55549" lon="1.89948">
        <ele>1962</ele>
        <time>2021-09-15T13:10:26Z</time>
      </trkpt>
      <trkpt lat="42.55551" lon="1.89947">
        <ele>1962</ele>
        <time>2021-09-15T13:10:28Z</time>
      </trkpt>
      <trkpt lat="42.55553" lon="1.89946">
        <ele>1962</ele>
        <time>2021-09-15T13:10:30Z</time>
      </trkpt>
      <trkpt lat="42.55559" lon="1.89944">
        <ele>1961</ele>
        <time>2021-09-15T13:10:40Z</time>
      </trkpt>
      <trkpt lat="42.55561" lon="1.89944">
        <ele>1961</ele>
        <time>2021-09-15T13:10:48Z</time>
      </trkpt>
      <trkpt lat="42.55562" lon="1.89945">
        <ele>1961</ele>
        <time>2021-09-15T13:10:52Z</time>
      </trkpt>
      <trkpt lat="42.55568" lon="1.89945">
        <ele>1961</ele>
        <time>2021-09-15T13:10:57Z</time>
      </trkpt>
      <trkpt lat="42.55569" lon="1.89946">
        <ele>1961</ele>
        <time>2021-09-15T13:10:59Z</time>
      </trkpt>
      <trkpt lat="42.55572" lon="1.89945">
        <ele>1961</ele>
        <time>2021-09-15T13:11:02Z</time>
      </trkpt>
      <trkpt lat="42.55581" lon="1.89944">
        <ele>1960</ele>
        <time>2021-09-15T13:11:15Z</time>
      </trkpt>
      <trkpt lat="42.55587" lon="1.89944">
        <ele>1959</ele>
        <time>2021-09-15T13:11:25Z</time>
      </trkpt>
      <trkpt lat="42.55591" lon="1.89946">
        <ele>1959</ele>
        <time>2021-09-15T13:11:31Z</time>
      </trkpt>
      <trkpt lat="42.55593" lon="1.89946">
        <ele>1958</ele>
        <time>2021-09-15T13:11:34Z</time>
      </trkpt>
      <trkpt lat="42.55595" lon="1.89946">
        <ele>1958</ele>
        <time>2021-09-15T13:11:37Z</time>
      </trkpt>
      <trkpt lat="42.55601" lon="1.89946">
        <ele>1957</ele>
        <time>2021-09-15T13:11:46Z</time>
      </trkpt>
      <trkpt lat="42.55602" lon="1.89947">
        <ele>1957</ele>
        <time>2021-09-15T13:11:54Z</time>
      </trkpt>
      <trkpt lat="42.55606" lon="1.89946">
        <ele>1956</ele>
        <time>2021-09-15T13:12:34Z</time>
      </trkpt>
      <trkpt lat="42.55608" lon="1.89944">
        <ele>1956</ele>
        <time>2021-09-15T13:12:41Z</time>
      </trkpt>
      <trkpt lat="42.55608" lon="1.89939">
        <ele>1956</ele>
        <time>2021-09-15T13:12:47Z</time>
      </trkpt>
      <trkpt lat="42.55607" lon="1.89937">
        <ele>1956</ele>
        <time>2021-09-15T13:12:50Z</time>
      </trkpt>
      <trkpt lat="42.55606" lon="1.89935">
        <ele>1955</ele>
        <time>2021-09-15T13:12:52Z</time>
      </trkpt>
      <trkpt lat="42.55602" lon="1.89928">
        <ele>1955</ele>
        <time>2021-09-15T13:13:00Z</time>
      </trkpt>
      <trkpt lat="42.55598" lon="1.89924">
        <ele>1954</ele>
        <time>2021-09-15T13:13:06Z</time>
      </trkpt>
      <trkpt lat="42.55593" lon="1.89921">
        <ele>1953</ele>
        <time>2021-09-15T13:13:12Z</time>
      </trkpt>
      <trkpt lat="42.55591" lon="1.8992">
        <ele>1953</ele>
        <time>2021-09-15T13:13:15Z</time>
      </trkpt>
      <trkpt lat="42.55589" lon="1.89919">
        <ele>1953</ele>
        <time>2021-09-15T13:13:17Z</time>
      </trkpt>
      <trkpt lat="42.55588" lon="1.89918">
        <ele>1952</ele>
        <time>2021-09-15T13:13:20Z</time>
      </trkpt>
      <trkpt lat="42.55587" lon="1.89917">
        <ele>1952</ele>
        <time>2021-09-15T13:13:23Z</time>
      </trkpt>
      <trkpt lat="42.55586" lon="1.89915">
        <ele>1951</ele>
        <time>2021-09-15T13:13:25Z</time>
      </trkpt>
      <trkpt lat="42.5558" lon="1.89911">
        <ele>1950</ele>
        <time>2021-09-15T13:13:32Z</time>
      </trkpt>
      <trkpt lat="42.5557" lon="1.89902">
        <ele>1948</ele>
        <time>2021-09-15T13:13:46Z</time>
      </trkpt>
      <trkpt lat="42.55568" lon="1.89901">
        <ele>1948</ele>
        <time>2021-09-15T13:13:48Z</time>
      </trkpt>
      <trkpt lat="42.55562" lon="1.89896">
        <ele>1947</ele>
        <time>2021-09-15T13:13:58Z</time>
      </trkpt>
      <trkpt lat="42.55559" lon="1.89894">
        <ele>1946</ele>
        <time>2021-09-15T13:14:04Z</time>
      </trkpt>
      <trkpt lat="42.55552" lon="1.89891">
        <ele>1945</ele>
        <time>2021-09-15T13:14:13Z</time>
      </trkpt>
      <trkpt lat="42.55551" lon="1.89889">
        <ele>1945</ele>
        <time>2021-09-15T13:14:15Z</time>
      </trkpt>
      <trkpt lat="42.55549" lon="1.89888">
        <ele>1945</ele>
        <time>2021-09-15T13:14:17Z</time>
      </trkpt>
      <trkpt lat="42.55547" lon="1.89887">
        <ele>1944</ele>
        <time>2021-09-15T13:14:19Z</time>
      </trkpt>
      <trkpt lat="42.55546" lon="1.89886">
        <ele>1944</ele>
        <time>2021-09-15T13:14:26Z</time>
      </trkpt>
      <trkpt lat="42.55544" lon="1.89886">
        <ele>1944</ele>
        <time>2021-09-15T13:14:29Z</time>
      </trkpt>
      <trkpt lat="42.55543" lon="1.89884">
        <ele>1944</ele>
        <time>2021-09-15T13:14:32Z</time>
      </trkpt>
      <trkpt lat="42.55541" lon="1.89884">
        <ele>1944</ele>
        <time>2021-09-15T13:14:34Z</time>
      </trkpt>
      <trkpt lat="42.5554" lon="1.89883">
        <ele>1943</ele>
        <time>2021-09-15T13:14:36Z</time>
      </trkpt>
      <trkpt lat="42.55538" lon="1.89882">
        <ele>1943</ele>
        <time>2021-09-15T13:14:38Z</time>
      </trkpt>
      <trkpt lat="42.55536" lon="1.89882">
        <ele>1943</ele>
        <time>2021-09-15T13:14:40Z</time>
      </trkpt>
      <trkpt lat="42.5553" lon="1.89878">
        <ele>1943</ele>
        <time>2021-09-15T13:14:48Z</time>
      </trkpt>
      <trkpt lat="42.55528" lon="1.89877">
        <ele>1943</ele>
        <time>2021-09-15T13:14:50Z</time>
      </trkpt>
      <trkpt lat="42.55526" lon="1.89875">
        <ele>1943</ele>
        <time>2021-09-15T13:14:52Z</time>
      </trkpt>
      <trkpt lat="42.55525" lon="1.89875">
        <ele>1942</ele>
        <time>2021-09-15T13:14:54Z</time>
      </trkpt>
      <trkpt lat="42.55513" lon="1.8987">
        <ele>1941</ele>
        <time>2021-09-15T13:15:21Z</time>
      </trkpt>
      <trkpt lat="42.55511" lon="1.89868">
        <ele>1941</ele>
        <time>2021-09-15T13:15:23Z</time>
      </trkpt>
      <trkpt lat="42.55507" lon="1.89862">
        <ele>1940</ele>
        <time>2021-09-15T13:15:29Z</time>
      </trkpt>
      <trkpt lat="42.55505" lon="1.8986">
        <ele>1940</ele>
        <time>2021-09-15T13:15:32Z</time>
      </trkpt>
      <trkpt lat="42.55505" lon="1.89858">
        <ele>1940</ele>
        <time>2021-09-15T13:15:35Z</time>
      </trkpt>
      <trkpt lat="42.55504" lon="1.89856">
        <ele>1940</ele>
        <time>2021-09-15T13:15:38Z</time>
      </trkpt>
      <trkpt lat="42.55502" lon="1.89854">
        <ele>1939</ele>
        <time>2021-09-15T13:15:41Z</time>
      </trkpt>
      <trkpt lat="42.55501" lon="1.89852">
        <ele>1939</ele>
        <time>2021-09-15T13:15:43Z</time>
      </trkpt>
      <trkpt lat="42.55499" lon="1.89848">
        <ele>1939</ele>
        <time>2021-09-15T13:15:48Z</time>
      </trkpt>
      <trkpt lat="42.55498" lon="1.89847">
        <ele>1939</ele>
        <time>2021-09-15T13:15:50Z</time>
      </trkpt>
      <trkpt lat="42.55497" lon="1.89846">
        <ele>1939</ele>
        <time>2021-09-15T13:15:52Z</time>
      </trkpt>
      <trkpt lat="42.55494" lon="1.89842">
        <ele>1938</ele>
        <time>2021-09-15T13:15:58Z</time>
      </trkpt>
      <trkpt lat="42.55487" lon="1.89836">
        <ele>1937</ele>
        <time>2021-09-15T13:16:09Z</time>
      </trkpt>
      <trkpt lat="42.55486" lon="1.89834">
        <ele>1937</ele>
        <time>2021-09-15T13:16:17Z</time>
      </trkpt>
      <trkpt lat="42.55487" lon="1.89829">
        <ele>1934</ele>
        <time>2021-09-15T13:16:48Z</time>
      </trkpt>
      <trkpt lat="42.55488" lon="1.89824">
        <ele>1933</ele>
        <time>2021-09-15T13:16:56Z</time>
      </trkpt>
      <trkpt lat="42.55489" lon="1.89822">
        <ele>1933</ele>
        <time>2021-09-15T13:16:59Z</time>
      </trkpt>
      <trkpt lat="42.55493" lon="1.8982">
        <ele>1933</ele>
        <time>2021-09-15T13:17:04Z</time>
      </trkpt>
      <trkpt lat="42.55492" lon="1.89818">
        <ele>1933</ele>
        <time>2021-09-15T13:17:07Z</time>
      </trkpt>
      <trkpt lat="42.55494" lon="1.89817">
        <ele>1932</ele>
        <time>2021-09-15T13:17:13Z</time>
      </trkpt>
      <trkpt lat="42.55496" lon="1.89818">
        <ele>1932</ele>
        <time>2021-09-15T13:17:16Z</time>
      </trkpt>
      <trkpt lat="42.55497" lon="1.89819">
        <ele>1931</ele>
        <time>2021-09-15T13:17:19Z</time>
      </trkpt>
      <trkpt lat="42.55499" lon="1.89824">
        <ele>1931</ele>
        <time>2021-09-15T13:17:26Z</time>
      </trkpt>
      <trkpt lat="42.55501" lon="1.89825">
        <ele>1931</ele>
        <time>2021-09-15T13:17:29Z</time>
      </trkpt>
      <trkpt lat="42.55502" lon="1.89826">
        <ele>1930</ele>
        <time>2021-09-15T13:17:33Z</time>
      </trkpt>
      <trkpt lat="42.55504" lon="1.89827">
        <ele>1930</ele>
        <time>2021-09-15T13:17:40Z</time>
      </trkpt>
      <trkpt lat="42.55506" lon="1.89828">
        <ele>1930</ele>
        <time>2021-09-15T13:17:45Z</time>
      </trkpt>
      <trkpt lat="42.55508" lon="1.89829">
        <ele>1929</ele>
        <time>2021-09-15T13:17:50Z</time>
      </trkpt>
      <trkpt lat="42.5552" lon="1.89829">
        <ele>1928</ele>
        <time>2021-09-15T13:18:05Z</time>
      </trkpt>
      <trkpt lat="42.55522" lon="1.89829">
        <ele>1928</ele>
        <time>2021-09-15T13:18:08Z</time>
      </trkpt>
      <trkpt lat="42.55526" lon="1.89828">
        <ele>1927</ele>
        <time>2021-09-15T13:18:15Z</time>
      </trkpt>
      <trkpt lat="42.55527" lon="1.89827">
        <ele>1927</ele>
        <time>2021-09-15T13:18:17Z</time>
      </trkpt>
      <trkpt lat="42.55532" lon="1.89826">
        <ele>1927</ele>
        <time>2021-09-15T13:18:23Z</time>
      </trkpt>
      <trkpt lat="42.55534" lon="1.89825">
        <ele>1927</ele>
        <time>2021-09-15T13:18:25Z</time>
      </trkpt>
      <trkpt lat="42.55535" lon="1.89823">
        <ele>1927</ele>
        <time>2021-09-15T13:18:30Z</time>
      </trkpt>
      <trkpt lat="42.55543" lon="1.89825">
        <ele>1925</ele>
        <time>2021-09-15T13:18:41Z</time>
      </trkpt>
      <trkpt lat="42.55552" lon="1.89827">
        <ele>1923</ele>
        <time>2021-09-15T13:18:52Z</time>
      </trkpt>
      <trkpt lat="42.55565" lon="1.89825">
        <ele>1922</ele>
        <time>2021-09-15T13:19:06Z</time>
      </trkpt>
      <trkpt lat="42.55585" lon="1.89819">
        <ele>1920</ele>
        <time>2021-09-15T13:19:28Z</time>
      </trkpt>
      <trkpt lat="42.55591" lon="1.89816">
        <ele>1919</ele>
        <time>2021-09-15T13:19:35Z</time>
      </trkpt>
      <trkpt lat="42.55592" lon="1.89815">
        <ele>1919</ele>
        <time>2021-09-15T13:19:38Z</time>
      </trkpt>
      <trkpt lat="42.55616" lon="1.89802">
        <ele>1915</ele>
        <time>2021-09-15T13:20:07Z</time>
      </trkpt>
      <trkpt lat="42.55619" lon="1.89799">
        <ele>1914</ele>
        <time>2021-09-15T13:20:12Z</time>
      </trkpt>
      <trkpt lat="42.55621" lon="1.89798">
        <ele>1914</ele>
        <time>2021-09-15T13:20:16Z</time>
      </trkpt>
      <trkpt lat="42.55623" lon="1.89795">
        <ele>1913</ele>
        <time>2021-09-15T13:20:19Z</time>
      </trkpt>
      <trkpt lat="42.55626" lon="1.89792">
        <ele>1913</ele>
        <time>2021-09-15T13:20:24Z</time>
      </trkpt>
      <trkpt lat="42.55625" lon="1.8979">
        <ele>1912</ele>
        <time>2021-09-15T13:20:28Z</time>
      </trkpt>
      <trkpt lat="42.55625" lon="1.89788">
        <ele>1911</ele>
        <time>2021-09-15T13:20:31Z</time>
      </trkpt>
      <trkpt lat="42.55623" lon="1.89787">
        <ele>1911</ele>
        <time>2021-09-15T13:20:33Z</time>
      </trkpt>
      <trkpt lat="42.55617" lon="1.89785">
        <ele>1909</ele>
        <time>2021-09-15T13:20:52Z</time>
      </trkpt>
      <trkpt lat="42.55615" lon="1.89784">
        <ele>1909</ele>
        <time>2021-09-15T13:20:55Z</time>
      </trkpt>
      <trkpt lat="42.55613" lon="1.89782">
        <ele>1909</ele>
        <time>2021-09-15T13:20:59Z</time>
      </trkpt>
      <trkpt lat="42.5561" lon="1.89781">
        <ele>1909</ele>
        <time>2021-09-15T13:21:01Z</time>
      </trkpt>
      <trkpt lat="42.55607" lon="1.89779">
        <ele>1909</ele>
        <time>2021-09-15T13:21:05Z</time>
      </trkpt>
      <trkpt lat="42.55606" lon="1.89778">
        <ele>1909</ele>
        <time>2021-09-15T13:21:07Z</time>
      </trkpt>
      <trkpt lat="42.55605" lon="1.89777">
        <ele>1909</ele>
        <time>2021-09-15T13:21:09Z</time>
      </trkpt>
      <trkpt lat="42.55603" lon="1.89777">
        <ele>1909</ele>
        <time>2021-09-15T13:21:13Z</time>
      </trkpt>
      <trkpt lat="42.556" lon="1.89775">
        <ele>1909</ele>
        <time>2021-09-15T13:21:17Z</time>
      </trkpt>
      <trkpt lat="42.55599" lon="1.89775">
        <ele>1909</ele>
        <time>2021-09-15T13:21:20Z</time>
      </trkpt>
      <trkpt lat="42.55597" lon="1.89773">
        <ele>1908</ele>
        <time>2021-09-15T13:21:24Z</time>
      </trkpt>
      <trkpt lat="42.55578" lon="1.89762">
        <ele>1906</ele>
        <time>2021-09-15T13:21:47Z</time>
      </trkpt>
      <trkpt lat="42.55576" lon="1.89761">
        <ele>1906</ele>
        <time>2021-09-15T13:21:49Z</time>
      </trkpt>
      <trkpt lat="42.55574" lon="1.89759">
        <ele>1906</ele>
        <time>2021-09-15T13:21:53Z</time>
      </trkpt>
      <trkpt lat="42.55572" lon="1.89758">
        <ele>1905</ele>
        <time>2021-09-15T13:21:56Z</time>
      </trkpt>
      <trkpt lat="42.55571" lon="1.89757">
        <ele>1905</ele>
        <time>2021-09-15T13:21:59Z</time>
      </trkpt>
      <trkpt lat="42.55562" lon="1.89747">
        <ele>1901</ele>
        <time>2021-09-15T13:22:27Z</time>
      </trkpt>
      <trkpt lat="42.55561" lon="1.89746">
        <ele>1901</ele>
        <time>2021-09-15T13:22:29Z</time>
      </trkpt>
      <trkpt lat="42.5556" lon="1.89744">
        <ele>1901</ele>
        <time>2021-09-15T13:22:31Z</time>
      </trkpt>
      <trkpt lat="42.55558" lon="1.89743">
        <ele>1901</ele>
        <time>2021-09-15T13:22:37Z</time>
      </trkpt>
      <trkpt lat="42.55556" lon="1.8974">
        <ele>1900</ele>
        <time>2021-09-15T13:22:41Z</time>
      </trkpt>
      <trkpt lat="42.55554" lon="1.89738">
        <ele>1900</ele>
        <time>2021-09-15T13:22:43Z</time>
      </trkpt>
      <trkpt lat="42.55552" lon="1.89734">
        <ele>1900</ele>
        <time>2021-09-15T13:22:47Z</time>
      </trkpt>
      <trkpt lat="42.55551" lon="1.89733">
        <ele>1899</ele>
        <time>2021-09-15T13:22:49Z</time>
      </trkpt>
      <trkpt lat="42.55548" lon="1.89731">
        <ele>1899</ele>
        <time>2021-09-15T13:22:53Z</time>
      </trkpt>
      <trkpt lat="42.55547" lon="1.89729">
        <ele>1898</ele>
        <time>2021-09-15T13:22:57Z</time>
      </trkpt>
      <trkpt lat="42.55545" lon="1.8973">
        <ele>1898</ele>
        <time>2021-09-15T13:23:00Z</time>
      </trkpt>
      <trkpt lat="42.55537" lon="1.89713">
        <ele>1898</ele>
        <time>2021-09-15T13:23:17Z</time>
      </trkpt>
      <trkpt lat="42.55532" lon="1.89705">
        <ele>1898</ele>
        <time>2021-09-15T13:23:27Z</time>
      </trkpt>
      <trkpt lat="42.55532" lon="1.89703">
        <ele>1898</ele>
        <time>2021-09-15T13:23:29Z</time>
      </trkpt>
      <trkpt lat="42.5553" lon="1.89702">
        <ele>1897</ele>
        <time>2021-09-15T13:23:31Z</time>
      </trkpt>
      <trkpt lat="42.5553" lon="1.89701">
        <ele>1897</ele>
        <time>2021-09-15T13:23:32Z</time>
      </trkpt>
      <trkpt lat="42.55529" lon="1.897">
        <ele>1897</ele>
        <time>2021-09-15T13:23:34Z</time>
      </trkpt>
      <trkpt lat="42.55528" lon="1.89698">
        <ele>1897</ele>
        <time>2021-09-15T13:23:36Z</time>
      </trkpt>
      <trkpt lat="42.55526" lon="1.89696">
        <ele>1896</ele>
        <time>2021-09-15T13:23:38Z</time>
      </trkpt>
      <trkpt lat="42.55525" lon="1.89696">
        <ele>1896</ele>
        <time>2021-09-15T13:23:39Z</time>
      </trkpt>
      <trkpt lat="42.55523" lon="1.89695">
        <ele>1896</ele>
        <time>2021-09-15T13:23:41Z</time>
      </trkpt>
      <trkpt lat="42.55522" lon="1.89694">
        <ele>1895</ele>
        <time>2021-09-15T13:23:43Z</time>
      </trkpt>
      <trkpt lat="42.5552" lon="1.89694">
        <ele>1895</ele>
        <time>2021-09-15T13:23:45Z</time>
      </trkpt>
      <trkpt lat="42.55519" lon="1.89692">
        <ele>1894</ele>
        <time>2021-09-15T13:23:47Z</time>
      </trkpt>
      <trkpt lat="42.55517" lon="1.89692">
        <ele>1894</ele>
        <time>2021-09-15T13:23:53Z</time>
      </trkpt>
      <trkpt lat="42.55516" lon="1.8969">
        <ele>1893</ele>
        <time>2021-09-15T13:23:55Z</time>
      </trkpt>
      <trkpt lat="42.55514" lon="1.89689">
        <ele>1892</ele>
        <time>2021-09-15T13:23:57Z</time>
      </trkpt>
      <trkpt lat="42.55518" lon="1.89688">
        <ele>1891</ele>
        <time>2021-09-15T13:24:10Z</time>
      </trkpt>
      <trkpt lat="42.55522" lon="1.89687">
        <ele>1890</ele>
        <time>2021-09-15T13:24:18Z</time>
      </trkpt>
      <trkpt lat="42.55524" lon="1.89683">
        <ele>1889</ele>
        <time>2021-09-15T13:25:03Z</time>
      </trkpt>
      <trkpt lat="42.55529" lon="1.89679">
        <ele>1888</ele>
        <time>2021-09-15T13:25:19Z</time>
      </trkpt>
      <trkpt lat="42.55531" lon="1.89679">
        <ele>1888</ele>
        <time>2021-09-15T13:25:22Z</time>
      </trkpt>
      <trkpt lat="42.55539" lon="1.89678">
        <ele>1887</ele>
        <time>2021-09-15T13:25:32Z</time>
      </trkpt>
      <trkpt lat="42.55543" lon="1.89675">
        <ele>1887</ele>
        <time>2021-09-15T13:25:36Z</time>
      </trkpt>
      <trkpt lat="42.55544" lon="1.89675">
        <ele>1887</ele>
        <time>2021-09-15T13:25:39Z</time>
      </trkpt>
      <trkpt lat="42.55546" lon="1.89675">
        <ele>1887</ele>
        <time>2021-09-15T13:25:44Z</time>
      </trkpt>
      <trkpt lat="42.55548" lon="1.89674">
        <ele>1887</ele>
        <time>2021-09-15T13:26:03Z</time>
      </trkpt>
      <trkpt lat="42.5556" lon="1.89675">
        <ele>1887</ele>
        <time>2021-09-15T13:26:15Z</time>
      </trkpt>
      <trkpt lat="42.55579" lon="1.8967">
        <ele>1889</ele>
        <time>2021-09-15T13:26:36Z</time>
      </trkpt>
      <trkpt lat="42.55601" lon="1.89671">
        <ele>1889</ele>
        <time>2021-09-15T13:27:03Z</time>
      </trkpt>
      <trkpt lat="42.55606" lon="1.89673">
        <ele>1888</ele>
        <time>2021-09-15T13:27:10Z</time>
      </trkpt>
      <trkpt lat="42.55608" lon="1.89672">
        <ele>1888</ele>
        <time>2021-09-15T13:27:14Z</time>
      </trkpt>
      <trkpt lat="42.5561" lon="1.89673">
        <ele>1888</ele>
        <time>2021-09-15T13:27:20Z</time>
      </trkpt>
      <trkpt lat="42.55618" lon="1.89674">
        <ele>1888</ele>
        <time>2021-09-15T13:27:29Z</time>
      </trkpt>
      <trkpt lat="42.55626" lon="1.89671">
        <ele>1887</ele>
        <time>2021-09-15T13:27:38Z</time>
      </trkpt>
      <trkpt lat="42.55631" lon="1.8967">
        <ele>1887</ele>
        <time>2021-09-15T13:27:43Z</time>
      </trkpt>
      <trkpt lat="42.55635" lon="1.89671">
        <ele>1887</ele>
        <time>2021-09-15T13:27:47Z</time>
      </trkpt>
      <trkpt lat="42.5566" lon="1.89672">
        <ele>1885</ele>
        <time>2021-09-15T13:28:19Z</time>
      </trkpt>
      <trkpt lat="42.55661" lon="1.89675">
        <ele>1885</ele>
        <time>2021-09-15T13:28:25Z</time>
      </trkpt>
      <trkpt lat="42.55663" lon="1.89674">
        <ele>1885</ele>
        <time>2021-09-15T13:28:29Z</time>
      </trkpt>
      <trkpt lat="42.55668" lon="1.89674">
        <ele>1885</ele>
        <time>2021-09-15T13:28:35Z</time>
      </trkpt>
      <trkpt lat="42.55671" lon="1.89674">
        <ele>1886</ele>
        <time>2021-09-15T13:28:39Z</time>
      </trkpt>
      <trkpt lat="42.55673" lon="1.89675">
        <ele>1886</ele>
        <time>2021-09-15T13:28:43Z</time>
      </trkpt>
      <trkpt lat="42.55676" lon="1.89675">
        <ele>1887</ele>
        <time>2021-09-15T13:28:59Z</time>
      </trkpt>
      <trkpt lat="42.5568" lon="1.89673">
        <ele>1889</ele>
        <time>2021-09-15T13:29:07Z</time>
      </trkpt>
      <trkpt lat="42.55685" lon="1.89669">
        <ele>1889</ele>
        <time>2021-09-15T13:29:11Z</time>
      </trkpt>
      <trkpt lat="42.55708" lon="1.8963">
        <ele>1887</ele>
        <time>2021-09-15T13:29:41Z</time>
      </trkpt>
      <trkpt lat="42.55711" lon="1.89626">
        <ele>1887</ele>
        <time>2021-09-15T13:29:47Z</time>
      </trkpt>
      <trkpt lat="42.55712" lon="1.89623">
        <ele>1887</ele>
        <time>2021-09-15T13:29:50Z</time>
      </trkpt>
      <trkpt lat="42.55713" lon="1.89621">
        <ele>1887</ele>
        <time>2021-09-15T13:29:52Z</time>
      </trkpt>
      <trkpt lat="42.55716" lon="1.89611">
        <ele>1886</ele>
        <time>2021-09-15T13:30:00Z</time>
      </trkpt>
      <trkpt lat="42.55714" lon="1.89609">
        <ele>1886</ele>
        <time>2021-09-15T13:30:02Z</time>
      </trkpt>
      <trkpt lat="42.55714" lon="1.89607">
        <ele>1886</ele>
        <time>2021-09-15T13:30:05Z</time>
      </trkpt>
      <trkpt lat="42.55713" lon="1.89602">
        <ele>1885</ele>
        <time>2021-09-15T13:30:11Z</time>
      </trkpt>
      <trkpt lat="42.55713" lon="1.896">
        <ele>1885</ele>
        <time>2021-09-15T13:30:14Z</time>
      </trkpt>
      <trkpt lat="42.55711" lon="1.89594">
        <ele>1884</ele>
        <time>2021-09-15T13:30:20Z</time>
      </trkpt>
      <trkpt lat="42.55711" lon="1.89586">
        <ele>1883</ele>
        <time>2021-09-15T13:30:27Z</time>
      </trkpt>
      <trkpt lat="42.55712" lon="1.89584">
        <ele>1882</ele>
        <time>2021-09-15T13:30:30Z</time>
      </trkpt>
      <trkpt lat="42.55711" lon="1.89582">
        <ele>1880</ele>
        <time>2021-09-15T13:30:36Z</time>
      </trkpt>
      <trkpt lat="42.55715" lon="1.89572">
        <ele>1878</ele>
        <time>2021-09-15T13:30:56Z</time>
      </trkpt>
      <trkpt lat="42.55715" lon="1.89569">
        <ele>1878</ele>
        <time>2021-09-15T13:30:58Z</time>
      </trkpt>
      <trkpt lat="42.55718" lon="1.89563">
        <ele>1878</ele>
        <time>2021-09-15T13:31:03Z</time>
      </trkpt>
      <trkpt lat="42.5572" lon="1.89561">
        <ele>1877</ele>
        <time>2021-09-15T13:31:06Z</time>
      </trkpt>
      <trkpt lat="42.55721" lon="1.89553">
        <ele>1877</ele>
        <time>2021-09-15T13:31:14Z</time>
      </trkpt>
      <trkpt lat="42.55726" lon="1.89545">
        <ele>1876</ele>
        <time>2021-09-15T13:31:21Z</time>
      </trkpt>
      <trkpt lat="42.5573" lon="1.89541">
        <ele>1876</ele>
        <time>2021-09-15T13:31:26Z</time>
      </trkpt>
      <trkpt lat="42.55733" lon="1.89533">
        <ele>1875</ele>
        <time>2021-09-15T13:31:34Z</time>
      </trkpt>
      <trkpt lat="42.55732" lon="1.8953">
        <ele>1874</ele>
        <time>2021-09-15T13:31:37Z</time>
      </trkpt>
      <trkpt lat="42.55732" lon="1.89528">
        <ele>1874</ele>
        <time>2021-09-15T13:31:39Z</time>
      </trkpt>
      <trkpt lat="42.55732" lon="1.89525">
        <ele>1874</ele>
        <time>2021-09-15T13:31:42Z</time>
      </trkpt>
      <trkpt lat="42.55734" lon="1.89518">
        <ele>1872</ele>
        <time>2021-09-15T13:31:53Z</time>
      </trkpt>
      <trkpt lat="42.55735" lon="1.89516">
        <ele>1871</ele>
        <time>2021-09-15T13:32:00Z</time>
      </trkpt>
      <trkpt lat="42.55737" lon="1.89514">
        <ele>1870</ele>
        <time>2021-09-15T13:32:05Z</time>
      </trkpt>
      <trkpt lat="42.55739" lon="1.89511">
        <ele>1870</ele>
        <time>2021-09-15T13:32:12Z</time>
      </trkpt>
      <trkpt lat="42.5574" lon="1.8951">
        <ele>1870</ele>
        <time>2021-09-15T13:32:16Z</time>
      </trkpt>
      <trkpt lat="42.55739" lon="1.89508">
        <ele>1869</ele>
        <time>2021-09-15T13:32:22Z</time>
      </trkpt>
      <trkpt lat="42.55741" lon="1.89502">
        <ele>1868</ele>
        <time>2021-09-15T13:32:30Z</time>
      </trkpt>
      <trkpt lat="42.55743" lon="1.89502">
        <ele>1868</ele>
        <time>2021-09-15T13:32:45Z</time>
      </trkpt>
      <trkpt lat="42.55747" lon="1.89497">
        <ele>1868</ele>
        <time>2021-09-15T13:32:56Z</time>
      </trkpt>
      <trkpt lat="42.55745" lon="1.89498">
        <ele>1868</ele>
        <time>2021-09-15T13:33:01Z</time>
      </trkpt>
      <trkpt lat="42.55742" lon="1.89498">
        <ele>1868</ele>
        <time>2021-09-15T13:33:03Z</time>
      </trkpt>
      <trkpt lat="42.55744" lon="1.89493">
        <ele>1867</ele>
        <time>2021-09-15T13:33:16Z</time>
      </trkpt>
      <trkpt lat="42.55745" lon="1.89485">
        <ele>1866</ele>
        <time>2021-09-15T13:34:38Z</time>
      </trkpt>
      <trkpt lat="42.55746" lon="1.89471">
        <ele>1866</ele>
        <time>2021-09-15T13:35:12Z</time>
      </trkpt>
      <trkpt lat="42.55748" lon="1.8946">
        <ele>1866</ele>
        <time>2021-09-15T13:35:21Z</time>
      </trkpt>
      <trkpt lat="42.55748" lon="1.89457">
        <ele>1867</ele>
        <time>2021-09-15T13:35:25Z</time>
      </trkpt>
      <trkpt lat="42.55748" lon="1.89454">
        <ele>1867</ele>
        <time>2021-09-15T13:35:32Z</time>
      </trkpt>
      <trkpt lat="42.55747" lon="1.89451">
        <ele>1868</ele>
        <time>2021-09-15T13:35:36Z</time>
      </trkpt>
      <trkpt lat="42.55748" lon="1.89447">
        <ele>1869</ele>
        <time>2021-09-15T13:35:40Z</time>
      </trkpt>
      <trkpt lat="42.55746" lon="1.89445">
        <ele>1870</ele>
        <time>2021-09-15T13:35:43Z</time>
      </trkpt>
      <trkpt lat="42.55745" lon="1.89442">
        <ele>1871</ele>
        <time>2021-09-15T13:35:46Z</time>
      </trkpt>
      <trkpt lat="42.55741" lon="1.89438">
        <ele>1872</ele>
        <time>2021-09-15T13:35:52Z</time>
      </trkpt>
      <trkpt lat="42.55739" lon="1.89438">
        <ele>1872</ele>
        <time>2021-09-15T13:35:53Z</time>
      </trkpt>
      <trkpt lat="42.55727" lon="1.8943">
        <ele>1875</ele>
        <time>2021-09-15T13:36:21Z</time>
      </trkpt>
      <trkpt lat="42.55725" lon="1.89428">
        <ele>1876</ele>
        <time>2021-09-15T13:36:23Z</time>
      </trkpt>
      <trkpt lat="42.55723" lon="1.89421">
        <ele>1877</ele>
        <time>2021-09-15T13:36:29Z</time>
      </trkpt>
      <trkpt lat="42.55726" lon="1.89422">
        <ele>1878</ele>
        <time>2021-09-15T13:36:40Z</time>
      </trkpt>
      <trkpt lat="42.55728" lon="1.89415">
        <ele>1880</ele>
        <time>2021-09-15T13:36:57Z</time>
      </trkpt>
      <trkpt lat="42.55725" lon="1.89412">
        <ele>1880</ele>
        <time>2021-09-15T13:36:59Z</time>
      </trkpt>
      <trkpt lat="42.55724" lon="1.89409">
        <ele>1881</ele>
        <time>2021-09-15T13:37:04Z</time>
      </trkpt>
      <trkpt lat="42.5573" lon="1.89411">
        <ele>1881</ele>
        <time>2021-09-15T13:37:28Z</time>
      </trkpt>
      <trkpt lat="42.55731" lon="1.89408">
        <ele>1882</ele>
        <time>2021-09-15T13:37:36Z</time>
      </trkpt>
      <trkpt lat="42.55739" lon="1.89404">
        <ele>1882</ele>
        <time>2021-09-15T13:37:46Z</time>
      </trkpt>
      <trkpt lat="42.55741" lon="1.89404">
        <ele>1882</ele>
        <time>2021-09-15T13:37:51Z</time>
      </trkpt>
      <trkpt lat="42.55749" lon="1.89395">
        <ele>1882</ele>
        <time>2021-09-15T13:38:00Z</time>
      </trkpt>
      <trkpt lat="42.55751" lon="1.89392">
        <ele>1882</ele>
        <time>2021-09-15T13:38:02Z</time>
      </trkpt>
      <trkpt lat="42.55751" lon="1.89385">
        <ele>1883</ele>
        <time>2021-09-15T13:38:08Z</time>
      </trkpt>
      <trkpt lat="42.55754" lon="1.89374">
        <ele>1884</ele>
        <time>2021-09-15T13:38:16Z</time>
      </trkpt>
      <trkpt lat="42.55754" lon="1.89367">
        <ele>1884</ele>
        <time>2021-09-15T13:38:21Z</time>
      </trkpt>
      <trkpt lat="42.5575" lon="1.89363">
        <ele>1884</ele>
        <time>2021-09-15T13:38:25Z</time>
      </trkpt>
      <trkpt lat="42.55747" lon="1.89357">
        <ele>1885</ele>
        <time>2021-09-15T13:38:29Z</time>
      </trkpt>
      <trkpt lat="42.55745" lon="1.89356">
        <ele>1885</ele>
        <time>2021-09-15T13:38:30Z</time>
      </trkpt>
      <trkpt lat="42.55744" lon="1.89353">
        <ele>1885</ele>
        <time>2021-09-15T13:38:32Z</time>
      </trkpt>
      <trkpt lat="42.55741" lon="1.89345">
        <ele>1885</ele>
        <time>2021-09-15T13:38:38Z</time>
      </trkpt>
      <trkpt lat="42.5574" lon="1.89342">
        <ele>1884</ele>
        <time>2021-09-15T13:38:40Z</time>
      </trkpt>
      <trkpt lat="42.55738" lon="1.89337">
        <ele>1884</ele>
        <time>2021-09-15T13:38:44Z</time>
      </trkpt>
      <trkpt lat="42.55735" lon="1.89334">
        <ele>1884</ele>
        <time>2021-09-15T13:38:48Z</time>
      </trkpt>
      <trkpt lat="42.55733" lon="1.89331">
        <ele>1884</ele>
        <time>2021-09-15T13:38:51Z</time>
      </trkpt>
      <trkpt lat="42.55733" lon="1.89328">
        <ele>1885</ele>
        <time>2021-09-15T13:38:55Z</time>
      </trkpt>
      <trkpt lat="42.55734" lon="1.89324">
        <ele>1885</ele>
        <time>2021-09-15T13:38:58Z</time>
      </trkpt>
      <trkpt lat="42.55733" lon="1.89321">
        <ele>1886</ele>
        <time>2021-09-15T13:39:01Z</time>
      </trkpt>
      <trkpt lat="42.55731" lon="1.89319">
        <ele>1886</ele>
        <time>2021-09-15T13:39:04Z</time>
      </trkpt>
      <trkpt lat="42.55728" lon="1.89316">
        <ele>1886</ele>
        <time>2021-09-15T13:39:07Z</time>
      </trkpt>
      <trkpt lat="42.55726" lon="1.89314">
        <ele>1887</ele>
        <time>2021-09-15T13:39:10Z</time>
      </trkpt>
      <trkpt lat="42.55725" lon="1.89311">
        <ele>1887</ele>
        <time>2021-09-15T13:39:12Z</time>
      </trkpt>
      <trkpt lat="42.55723" lon="1.8931">
        <ele>1887</ele>
        <time>2021-09-15T13:39:14Z</time>
      </trkpt>
      <trkpt lat="42.55722" lon="1.89306">
        <ele>1887</ele>
        <time>2021-09-15T13:39:17Z</time>
      </trkpt>
      <trkpt lat="42.55721" lon="1.89303">
        <ele>1887</ele>
        <time>2021-09-15T13:39:19Z</time>
      </trkpt>
      <trkpt lat="42.55721" lon="1.893">
        <ele>1888</ele>
        <time>2021-09-15T13:39:22Z</time>
      </trkpt>
      <trkpt lat="42.55718" lon="1.89298">
        <ele>1888</ele>
        <time>2021-09-15T13:39:25Z</time>
      </trkpt>
      <trkpt lat="42.55717" lon="1.89295">
        <ele>1888</ele>
        <time>2021-09-15T13:39:28Z</time>
      </trkpt>
      <trkpt lat="42.55716" lon="1.89291">
        <ele>1889</ele>
        <time>2021-09-15T13:39:31Z</time>
      </trkpt>
      <trkpt lat="42.55714" lon="1.89289">
        <ele>1889</ele>
        <time>2021-09-15T13:39:35Z</time>
      </trkpt>
      <trkpt lat="42.5571" lon="1.89284">
        <ele>1891</ele>
        <time>2021-09-15T13:39:41Z</time>
      </trkpt>
      <trkpt lat="42.5571" lon="1.89281">
        <ele>1891</ele>
        <time>2021-09-15T13:39:44Z</time>
      </trkpt>
      <trkpt lat="42.55709" lon="1.89277">
        <ele>1892</ele>
        <time>2021-09-15T13:39:48Z</time>
      </trkpt>
      <trkpt lat="42.55706" lon="1.89268">
        <ele>1893</ele>
        <time>2021-09-15T13:40:00Z</time>
      </trkpt>
      <trkpt lat="42.55706" lon="1.89261">
        <ele>1894</ele>
        <time>2021-09-15T13:40:08Z</time>
      </trkpt>
      <trkpt lat="42.55708" lon="1.89259">
        <ele>1894</ele>
        <time>2021-09-15T13:40:12Z</time>
      </trkpt>
      <trkpt lat="42.55714" lon="1.89253">
        <ele>1896</ele>
        <time>2021-09-15T13:40:24Z</time>
      </trkpt>
      <trkpt lat="42.55714" lon="1.8925">
        <ele>1897</ele>
        <time>2021-09-15T13:40:28Z</time>
      </trkpt>
      <trkpt lat="42.55717" lon="1.89239">
        <ele>1898</ele>
        <time>2021-09-15T13:40:37Z</time>
      </trkpt>
      <trkpt lat="42.55716" lon="1.89236">
        <ele>1899</ele>
        <time>2021-09-15T13:40:41Z</time>
      </trkpt>
      <trkpt lat="42.55715" lon="1.89233">
        <ele>1899</ele>
        <time>2021-09-15T13:40:44Z</time>
      </trkpt>
      <trkpt lat="42.55713" lon="1.89231">
        <ele>1899</ele>
        <time>2021-09-15T13:40:47Z</time>
      </trkpt>
      <trkpt lat="42.55711" lon="1.89228">
        <ele>1900</ele>
        <time>2021-09-15T13:40:50Z</time>
      </trkpt>
      <trkpt lat="42.5571" lon="1.89225">
        <ele>1901</ele>
        <time>2021-09-15T13:40:54Z</time>
      </trkpt>
      <trkpt lat="42.5571" lon="1.89222">
        <ele>1902</ele>
        <time>2021-09-15T13:40:57Z</time>
      </trkpt>
      <trkpt lat="42.55706" lon="1.89218">
        <ele>1902</ele>
        <time>2021-09-15T13:41:04Z</time>
      </trkpt>
      <trkpt lat="42.55704" lon="1.89217">
        <ele>1902</ele>
        <time>2021-09-15T13:41:07Z</time>
      </trkpt>
      <trkpt lat="42.55702" lon="1.89216">
        <ele>1902</ele>
        <time>2021-09-15T13:41:10Z</time>
      </trkpt>
      <trkpt lat="42.55701" lon="1.89212">
        <ele>1902</ele>
        <time>2021-09-15T13:41:13Z</time>
      </trkpt>
      <trkpt lat="42.55701" lon="1.89206">
        <ele>1902</ele>
        <time>2021-09-15T13:41:19Z</time>
      </trkpt>
      <trkpt lat="42.55702" lon="1.89203">
        <ele>1902</ele>
        <time>2021-09-15T13:41:22Z</time>
      </trkpt>
      <trkpt lat="42.55702" lon="1.892">
        <ele>1903</ele>
        <time>2021-09-15T13:41:26Z</time>
      </trkpt>
      <trkpt lat="42.55709" lon="1.89182">
        <ele>1904</ele>
        <time>2021-09-15T13:41:46Z</time>
      </trkpt>
      <trkpt lat="42.55711" lon="1.89179">
        <ele>1904</ele>
        <time>2021-09-15T13:41:49Z</time>
      </trkpt>
      <trkpt lat="42.55712" lon="1.89176">
        <ele>1904</ele>
        <time>2021-09-15T13:41:52Z</time>
      </trkpt>
      <trkpt lat="42.55711" lon="1.89172">
        <ele>1904</ele>
        <time>2021-09-15T13:41:55Z</time>
      </trkpt>
      <trkpt lat="42.55712" lon="1.89169">
        <ele>1904</ele>
        <time>2021-09-15T13:41:58Z</time>
      </trkpt>
      <trkpt lat="42.55711" lon="1.89164">
        <ele>1904</ele>
        <time>2021-09-15T13:42:03Z</time>
      </trkpt>
      <trkpt lat="42.5571" lon="1.89162">
        <ele>1904</ele>
        <time>2021-09-15T13:42:05Z</time>
      </trkpt>
      <trkpt lat="42.55713" lon="1.89135">
        <ele>1905</ele>
        <time>2021-09-15T13:42:29Z</time>
      </trkpt>
      <trkpt lat="42.55721" lon="1.89111">
        <ele>1906</ele>
        <time>2021-09-15T13:42:49Z</time>
      </trkpt>
      <trkpt lat="42.55724" lon="1.89106">
        <ele>1906</ele>
        <time>2021-09-15T13:42:55Z</time>
      </trkpt>
      <trkpt lat="42.5573" lon="1.8909">
        <ele>1906</ele>
        <time>2021-09-15T13:43:17Z</time>
      </trkpt>
      <trkpt lat="42.5573" lon="1.89087">
        <ele>1906</ele>
        <time>2021-09-15T13:43:20Z</time>
      </trkpt>
      <trkpt lat="42.55738" lon="1.8906">
        <ele>1908</ele>
        <time>2021-09-15T13:43:44Z</time>
      </trkpt>
      <trkpt lat="42.55745" lon="1.89049">
        <ele>1909</ele>
        <time>2021-09-15T13:43:55Z</time>
      </trkpt>
      <trkpt lat="42.55748" lon="1.89043">
        <ele>1910</ele>
        <time>2021-09-15T13:43:59Z</time>
      </trkpt>
      <trkpt lat="42.55749" lon="1.89041">
        <ele>1910</ele>
        <time>2021-09-15T13:44:01Z</time>
      </trkpt>
      <trkpt lat="42.5575" lon="1.89038">
        <ele>1910</ele>
        <time>2021-09-15T13:44:03Z</time>
      </trkpt>
      <trkpt lat="42.55749" lon="1.89035">
        <ele>1910</ele>
        <time>2021-09-15T13:44:05Z</time>
      </trkpt>
      <trkpt lat="42.55749" lon="1.89033">
        <ele>1911</ele>
        <time>2021-09-15T13:44:07Z</time>
      </trkpt>
      <trkpt lat="42.55748" lon="1.89028">
        <ele>1911</ele>
        <time>2021-09-15T13:44:11Z</time>
      </trkpt>
      <trkpt lat="42.55749" lon="1.89021">
        <ele>1910</ele>
        <time>2021-09-15T13:44:18Z</time>
      </trkpt>
      <trkpt lat="42.5575" lon="1.89015">
        <ele>1910</ele>
        <time>2021-09-15T13:44:22Z</time>
      </trkpt>
      <trkpt lat="42.55753" lon="1.89002">
        <ele>1910</ele>
        <time>2021-09-15T13:44:33Z</time>
      </trkpt>
      <trkpt lat="42.55754" lon="1.88996">
        <ele>1910</ele>
        <time>2021-09-15T13:44:38Z</time>
      </trkpt>
      <trkpt lat="42.55753" lon="1.88994">
        <ele>1910</ele>
        <time>2021-09-15T13:44:40Z</time>
      </trkpt>
      <trkpt lat="42.55753" lon="1.88989">
        <ele>1910</ele>
        <time>2021-09-15T13:44:46Z</time>
      </trkpt>
      <trkpt lat="42.55753" lon="1.88987">
        <ele>1910</ele>
        <time>2021-09-15T13:44:50Z</time>
      </trkpt>
      <trkpt lat="42.55757" lon="1.88981">
        <ele>1910</ele>
        <time>2021-09-15T13:44:56Z</time>
      </trkpt>
      <trkpt lat="42.55758" lon="1.88979">
        <ele>1910</ele>
        <time>2021-09-15T13:44:58Z</time>
      </trkpt>
      <trkpt lat="42.55759" lon="1.88963">
        <ele>1910</ele>
        <time>2021-09-15T13:45:12Z</time>
      </trkpt>
      <trkpt lat="42.55759" lon="1.8896">
        <ele>1910</ele>
        <time>2021-09-15T13:45:14Z</time>
      </trkpt>
      <trkpt lat="42.55759" lon="1.88958">
        <ele>1910</ele>
        <time>2021-09-15T13:45:16Z</time>
      </trkpt>
      <trkpt lat="42.55759" lon="1.88955">
        <ele>1910</ele>
        <time>2021-09-15T13:45:18Z</time>
      </trkpt>
      <trkpt lat="42.55759" lon="1.88953">
        <ele>1910</ele>
        <time>2021-09-15T13:45:20Z</time>
      </trkpt>
      <trkpt lat="42.55758" lon="1.88951">
        <ele>1910</ele>
        <time>2021-09-15T13:45:22Z</time>
      </trkpt>
      <trkpt lat="42.55757" lon="1.88948">
        <ele>1910</ele>
        <time>2021-09-15T13:45:24Z</time>
      </trkpt>
      <trkpt lat="42.55759" lon="1.88943">
        <ele>1909</ele>
        <time>2021-09-15T13:45:28Z</time>
      </trkpt>
      <trkpt lat="42.55761" lon="1.88936">
        <ele>1909</ele>
        <time>2021-09-15T13:45:36Z</time>
      </trkpt>
      <trkpt lat="42.55771" lon="1.88909">
        <ele>1909</ele>
        <time>2021-09-15T13:46:00Z</time>
      </trkpt>
      <trkpt lat="42.55772" lon="1.88907">
        <ele>1909</ele>
        <time>2021-09-15T13:46:02Z</time>
      </trkpt>
      <trkpt lat="42.55772" lon="1.88905">
        <ele>1909</ele>
        <time>2021-09-15T13:46:03Z</time>
      </trkpt>
      <trkpt lat="42.55775" lon="1.88894">
        <ele>1909</ele>
        <time>2021-09-15T13:46:11Z</time>
      </trkpt>
      <trkpt lat="42.55776" lon="1.88891">
        <ele>1909</ele>
        <time>2021-09-15T13:46:13Z</time>
      </trkpt>
      <trkpt lat="42.55775" lon="1.88889">
        <ele>1908</ele>
        <time>2021-09-15T13:46:15Z</time>
      </trkpt>
      <trkpt lat="42.55777" lon="1.88875">
        <ele>1907</ele>
        <time>2021-09-15T13:46:25Z</time>
      </trkpt>
      <trkpt lat="42.55777" lon="1.88872">
        <ele>1907</ele>
        <time>2021-09-15T13:46:27Z</time>
      </trkpt>
      <trkpt lat="42.55781" lon="1.88856">
        <ele>1905</ele>
        <time>2021-09-15T13:46:38Z</time>
      </trkpt>
      <trkpt lat="42.55781" lon="1.88855">
        <ele>1905</ele>
        <time>2021-09-15T13:46:39Z</time>
      </trkpt>
      <trkpt lat="42.55782" lon="1.88846">
        <ele>1905</ele>
        <time>2021-09-15T13:46:45Z</time>
      </trkpt>
      <trkpt lat="42.55784" lon="1.88841">
        <ele>1904</ele>
        <time>2021-09-15T13:46:48Z</time>
      </trkpt>
      <trkpt lat="42.55786" lon="1.88836">
        <ele>1904</ele>
        <time>2021-09-15T13:46:53Z</time>
      </trkpt>
      <trkpt lat="42.55788" lon="1.88832">
        <ele>1904</ele>
        <time>2021-09-15T13:46:57Z</time>
      </trkpt>
      <trkpt lat="42.55792" lon="1.88822">
        <ele>1903</ele>
        <time>2021-09-15T13:47:05Z</time>
      </trkpt>
      <trkpt lat="42.55793" lon="1.88819">
        <ele>1903</ele>
        <time>2021-09-15T13:47:07Z</time>
      </trkpt>
      <trkpt lat="42.55793" lon="1.88817">
        <ele>1903</ele>
        <time>2021-09-15T13:47:09Z</time>
      </trkpt>
      <trkpt lat="42.55794" lon="1.88814">
        <ele>1903</ele>
        <time>2021-09-15T13:47:11Z</time>
      </trkpt>
      <trkpt lat="42.55796" lon="1.88807">
        <ele>1903</ele>
        <time>2021-09-15T13:47:15Z</time>
      </trkpt>
      <trkpt lat="42.55798" lon="1.88802">
        <ele>1903</ele>
        <time>2021-09-15T13:47:19Z</time>
      </trkpt>
      <trkpt lat="42.55799" lon="1.888">
        <ele>1903</ele>
        <time>2021-09-15T13:47:21Z</time>
      </trkpt>
      <trkpt lat="42.558" lon="1.88798">
        <ele>1902</ele>
        <time>2021-09-15T13:47:23Z</time>
      </trkpt>
      <trkpt lat="42.55801" lon="1.88795">
        <ele>1902</ele>
        <time>2021-09-15T13:47:26Z</time>
      </trkpt>
      <trkpt lat="42.55801" lon="1.88793">
        <ele>1902</ele>
        <time>2021-09-15T13:47:28Z</time>
      </trkpt>
      <trkpt lat="42.55802" lon="1.88791">
        <ele>1902</ele>
        <time>2021-09-15T13:47:30Z</time>
      </trkpt>
      <trkpt lat="42.55804" lon="1.88786">
        <ele>1902</ele>
        <time>2021-09-15T13:47:34Z</time>
      </trkpt>
      <trkpt lat="42.55804" lon="1.88784">
        <ele>1902</ele>
        <time>2021-09-15T13:47:36Z</time>
      </trkpt>
      <trkpt lat="42.55805" lon="1.88781">
        <ele>1902</ele>
        <time>2021-09-15T13:47:38Z</time>
      </trkpt>
      <trkpt lat="42.55807" lon="1.88779">
        <ele>1903</ele>
        <time>2021-09-15T13:47:40Z</time>
      </trkpt>
      <trkpt lat="42.55815" lon="1.88774">
        <ele>1903</ele>
        <time>2021-09-15T13:47:50Z</time>
      </trkpt>
      <trkpt lat="42.55821" lon="1.8877">
        <ele>1902</ele>
        <time>2021-09-15T13:48:00Z</time>
      </trkpt>
      <trkpt lat="42.55823" lon="1.88769">
        <ele>1902</ele>
        <time>2021-09-15T13:48:04Z</time>
      </trkpt>
      <trkpt lat="42.55824" lon="1.88768">
        <ele>1901</ele>
        <time>2021-09-15T13:48:06Z</time>
      </trkpt>
      <trkpt lat="42.5583" lon="1.88767">
        <ele>1901</ele>
        <time>2021-09-15T13:48:14Z</time>
      </trkpt>
      <trkpt lat="42.55831" lon="1.88768">
        <ele>1901</ele>
        <time>2021-09-15T13:48:17Z</time>
      </trkpt>
      <trkpt lat="42.55837" lon="1.88767">
        <ele>1901</ele>
        <time>2021-09-15T13:48:25Z</time>
      </trkpt>
      <trkpt lat="42.55839" lon="1.88767">
        <ele>1901</ele>
        <time>2021-09-15T13:48:28Z</time>
      </trkpt>
      <trkpt lat="42.55843" lon="1.88766">
        <ele>1901</ele>
        <time>2021-09-15T13:48:35Z</time>
      </trkpt>
      <trkpt lat="42.55849" lon="1.88767">
        <ele>1902</ele>
        <time>2021-09-15T13:48:44Z</time>
      </trkpt>
      <trkpt lat="42.55851" lon="1.88766">
        <ele>1902</ele>
        <time>2021-09-15T13:48:47Z</time>
      </trkpt>
      <trkpt lat="42.55852" lon="1.88766">
        <ele>1902</ele>
        <time>2021-09-15T13:48:50Z</time>
      </trkpt>
      <trkpt lat="42.55854" lon="1.88764">
        <ele>1902</ele>
        <time>2021-09-15T13:48:55Z</time>
      </trkpt>
      <trkpt lat="42.55857" lon="1.88762">
        <ele>1902</ele>
        <time>2021-09-15T13:49:01Z</time>
      </trkpt>
      <trkpt lat="42.55858" lon="1.88761">
        <ele>1902</ele>
        <time>2021-09-15T13:49:05Z</time>
      </trkpt>
      <trkpt lat="42.55858" lon="1.88759">
        <ele>1903</ele>
        <time>2021-09-15T13:49:10Z</time>
      </trkpt>
      <trkpt lat="42.5586" lon="1.88758">
        <ele>1903</ele>
        <time>2021-09-15T13:49:12Z</time>
      </trkpt>
      <trkpt lat="42.55861" lon="1.88757">
        <ele>1903</ele>
        <time>2021-09-15T13:49:19Z</time>
      </trkpt>
      <trkpt lat="42.55863" lon="1.88756">
        <ele>1902</ele>
        <time>2021-09-15T13:49:21Z</time>
      </trkpt>
      <trkpt lat="42.55864" lon="1.88754">
        <ele>1902</ele>
        <time>2021-09-15T13:49:24Z</time>
      </trkpt>
      <trkpt lat="42.55863" lon="1.88752">
        <ele>1902</ele>
        <time>2021-09-15T13:49:29Z</time>
      </trkpt>
      <trkpt lat="42.55864" lon="1.88752">
        <ele>1901</ele>
        <time>2021-09-15T13:49:54Z</time>
      </trkpt>
      <trkpt lat="42.55866" lon="1.88753">
        <ele>1901</ele>
        <time>2021-09-15T13:49:59Z</time>
      </trkpt>
      <trkpt lat="42.55867" lon="1.88753">
        <ele>1900</ele>
        <time>2021-09-15T13:50:02Z</time>
      </trkpt>
      <trkpt lat="42.55874" lon="1.88746">
        <ele>1899</ele>
        <time>2021-09-15T13:50:18Z</time>
      </trkpt>
      <trkpt lat="42.55876" lon="1.88745">
        <ele>1899</ele>
        <time>2021-09-15T13:50:30Z</time>
      </trkpt>
      <trkpt lat="42.55877" lon="1.88744">
        <ele>1898</ele>
        <time>2021-09-15T13:50:34Z</time>
      </trkpt>
      <trkpt lat="42.55879" lon="1.88744">
        <ele>1898</ele>
        <time>2021-09-15T13:50:39Z</time>
      </trkpt>
      <trkpt lat="42.55882" lon="1.88742">
        <ele>1899</ele>
        <time>2021-09-15T13:50:49Z</time>
      </trkpt>
      <trkpt lat="42.55883" lon="1.88739">
        <ele>1899</ele>
        <time>2021-09-15T13:50:52Z</time>
      </trkpt>
      <trkpt lat="42.55882" lon="1.88737">
        <ele>1899</ele>
        <time>2021-09-15T13:50:55Z</time>
      </trkpt>
      <trkpt lat="42.55882" lon="1.88733">
        <ele>1899</ele>
        <time>2021-09-15T13:50:59Z</time>
      </trkpt>
      <trkpt lat="42.55882" lon="1.8873">
        <ele>1899</ele>
        <time>2021-09-15T13:51:02Z</time>
      </trkpt>
      <trkpt lat="42.55882" lon="1.88728">
        <ele>1899</ele>
        <time>2021-09-15T13:51:06Z</time>
      </trkpt>
      <trkpt lat="42.55882" lon="1.88726">
        <ele>1899</ele>
        <time>2021-09-15T13:51:09Z</time>
      </trkpt>
      <trkpt lat="42.55882" lon="1.88724">
        <ele>1899</ele>
        <time>2021-09-15T13:51:11Z</time>
      </trkpt>
      <trkpt lat="42.55884" lon="1.88716">
        <ele>1900</ele>
        <time>2021-09-15T13:51:20Z</time>
      </trkpt>
      <trkpt lat="42.55883" lon="1.88708">
        <ele>1901</ele>
        <time>2021-09-15T13:51:26Z</time>
      </trkpt>
      <trkpt lat="42.55883" lon="1.88706">
        <ele>1901</ele>
        <time>2021-09-15T13:51:28Z</time>
      </trkpt>
      <trkpt lat="42.55882" lon="1.88702">
        <ele>1902</ele>
        <time>2021-09-15T13:51:32Z</time>
      </trkpt>
      <trkpt lat="42.55882" lon="1.887">
        <ele>1902</ele>
        <time>2021-09-15T13:51:34Z</time>
      </trkpt>
      <trkpt lat="42.55882" lon="1.88698">
        <ele>1902</ele>
        <time>2021-09-15T13:51:36Z</time>
      </trkpt>
      <trkpt lat="42.5588" lon="1.88694">
        <ele>1902</ele>
        <time>2021-09-15T13:51:40Z</time>
      </trkpt>
      <trkpt lat="42.55881" lon="1.88686">
        <ele>1902</ele>
        <time>2021-09-15T13:51:46Z</time>
      </trkpt>
      <trkpt lat="42.55881" lon="1.88681">
        <ele>1902</ele>
        <time>2021-09-15T13:51:50Z</time>
      </trkpt>
      <trkpt lat="42.5588" lon="1.88679">
        <ele>1901</ele>
        <time>2021-09-15T13:51:52Z</time>
      </trkpt>
      <trkpt lat="42.5588" lon="1.88669">
        <ele>1901</ele>
        <time>2021-09-15T13:52:04Z</time>
      </trkpt>
      <trkpt lat="42.55879" lon="1.88667">
        <ele>1901</ele>
        <time>2021-09-15T13:52:07Z</time>
      </trkpt>
      <trkpt lat="42.55878" lon="1.88665">
        <ele>1901</ele>
        <time>2021-09-15T13:52:11Z</time>
      </trkpt>
      <trkpt lat="42.55878" lon="1.88661">
        <ele>1900</ele>
        <time>2021-09-15T13:52:15Z</time>
      </trkpt>
      <trkpt lat="42.55877" lon="1.88657">
        <ele>1900</ele>
        <time>2021-09-15T13:52:19Z</time>
      </trkpt>
      <trkpt lat="42.55876" lon="1.88655">
        <ele>1900</ele>
        <time>2021-09-15T13:52:21Z</time>
      </trkpt>
      <trkpt lat="42.55876" lon="1.88653">
        <ele>1900</ele>
        <time>2021-09-15T13:52:23Z</time>
      </trkpt>
      <trkpt lat="42.55875" lon="1.88652">
        <ele>1899</ele>
        <time>2021-09-15T13:52:25Z</time>
      </trkpt>
      <trkpt lat="42.55874" lon="1.88651">
        <ele>1899</ele>
        <time>2021-09-15T13:52:27Z</time>
      </trkpt>
      <trkpt lat="42.55873" lon="1.88649">
        <ele>1899</ele>
        <time>2021-09-15T13:52:29Z</time>
      </trkpt>
      <trkpt lat="42.55871" lon="1.88647">
        <ele>1899</ele>
        <time>2021-09-15T13:52:31Z</time>
      </trkpt>
      <trkpt lat="42.5587" lon="1.88646">
        <ele>1899</ele>
        <time>2021-09-15T13:52:33Z</time>
      </trkpt>
      <trkpt lat="42.55869" lon="1.88644">
        <ele>1899</ele>
        <time>2021-09-15T13:52:35Z</time>
      </trkpt>
      <trkpt lat="42.55863" lon="1.88633">
        <ele>1899</ele>
        <time>2021-09-15T13:52:46Z</time>
      </trkpt>
      <trkpt lat="42.55861" lon="1.88632">
        <ele>1899</ele>
        <time>2021-09-15T13:52:47Z</time>
      </trkpt>
      <trkpt lat="42.55859" lon="1.88629">
        <ele>1899</ele>
        <time>2021-09-15T13:52:52Z</time>
      </trkpt>
      <trkpt lat="42.55857" lon="1.88621">
        <ele>1899</ele>
        <time>2021-09-15T13:52:58Z</time>
      </trkpt>
      <trkpt lat="42.55855" lon="1.88613">
        <ele>1899</ele>
        <time>2021-09-15T13:53:04Z</time>
      </trkpt>
      <trkpt lat="42.55853" lon="1.8861">
        <ele>1899</ele>
        <time>2021-09-15T13:53:06Z</time>
      </trkpt>
      <trkpt lat="42.55852" lon="1.88609">
        <ele>1899</ele>
        <time>2021-09-15T13:53:08Z</time>
      </trkpt>
      <trkpt lat="42.5585" lon="1.88604">
        <ele>1899</ele>
        <time>2021-09-15T13:53:13Z</time>
      </trkpt>
      <trkpt lat="42.55849" lon="1.88601">
        <ele>1899</ele>
        <time>2021-09-15T13:53:15Z</time>
      </trkpt>
      <trkpt lat="42.55848" lon="1.886">
        <ele>1899</ele>
        <time>2021-09-15T13:53:17Z</time>
      </trkpt>
      <trkpt lat="42.55847" lon="1.88598">
        <ele>1899</ele>
        <time>2021-09-15T13:53:19Z</time>
      </trkpt>
      <trkpt lat="42.55845" lon="1.88595">
        <ele>1899</ele>
        <time>2021-09-15T13:53:21Z</time>
      </trkpt>
      <trkpt lat="42.55841" lon="1.88591">
        <ele>1900</ele>
        <time>2021-09-15T13:53:25Z</time>
      </trkpt>
      <trkpt lat="42.5584" lon="1.88591">
        <ele>1900</ele>
        <time>2021-09-15T13:53:26Z</time>
      </trkpt>
      <trkpt lat="42.55838" lon="1.88589">
        <ele>1900</ele>
        <time>2021-09-15T13:53:28Z</time>
      </trkpt>
      <trkpt lat="42.55837" lon="1.88585">
        <ele>1900</ele>
        <time>2021-09-15T13:53:30Z</time>
      </trkpt>
      <trkpt lat="42.55837" lon="1.88582">
        <ele>1901</ele>
        <time>2021-09-15T13:53:33Z</time>
      </trkpt>
      <trkpt lat="42.55837" lon="1.8858">
        <ele>1901</ele>
        <time>2021-09-15T13:53:35Z</time>
      </trkpt>
      <trkpt lat="42.55837" lon="1.88579">
        <ele>1901</ele>
        <time>2021-09-15T13:53:39Z</time>
      </trkpt>
      <trkpt lat="42.55835" lon="1.88578">
        <ele>1901</ele>
        <time>2021-09-15T13:53:44Z</time>
      </trkpt>
      <trkpt lat="42.55832" lon="1.8857">
        <ele>1900</ele>
        <time>2021-09-15T13:53:49Z</time>
      </trkpt>
      <trkpt lat="42.55829" lon="1.88565">
        <ele>1900</ele>
        <time>2021-09-15T13:53:53Z</time>
      </trkpt>
      <trkpt lat="42.55826" lon="1.88558">
        <ele>1900</ele>
        <time>2021-09-15T13:53:58Z</time>
      </trkpt>
      <trkpt lat="42.55826" lon="1.88556">
        <ele>1901</ele>
        <time>2021-09-15T13:53:59Z</time>
      </trkpt>
      <trkpt lat="42.55824" lon="1.88551">
        <ele>1900</ele>
        <time>2021-09-15T13:54:04Z</time>
      </trkpt>
      <trkpt lat="42.55823" lon="1.88549">
        <ele>1900</ele>
        <time>2021-09-15T13:54:06Z</time>
      </trkpt>
      <trkpt lat="42.55819" lon="1.88542">
        <ele>1900</ele>
        <time>2021-09-15T13:54:13Z</time>
      </trkpt>
      <trkpt lat="42.55819" lon="1.88539">
        <ele>1901</ele>
        <time>2021-09-15T13:54:15Z</time>
      </trkpt>
      <trkpt lat="42.55819" lon="1.88536">
        <ele>1901</ele>
        <time>2021-09-15T13:54:17Z</time>
      </trkpt>
      <trkpt lat="42.55818" lon="1.88535">
        <ele>1901</ele>
        <time>2021-09-15T13:54:18Z</time>
      </trkpt>
      <trkpt lat="42.55816" lon="1.8853">
        <ele>1901</ele>
        <time>2021-09-15T13:54:21Z</time>
      </trkpt>
      <trkpt lat="42.55817" lon="1.88528">
        <ele>1902</ele>
        <time>2021-09-15T13:54:23Z</time>
      </trkpt>
      <trkpt lat="42.55814" lon="1.88508">
        <ele>1902</ele>
        <time>2021-09-15T13:54:37Z</time>
      </trkpt>
      <trkpt lat="42.55807" lon="1.88496">
        <ele>1903</ele>
        <time>2021-09-15T13:54:47Z</time>
      </trkpt>
      <trkpt lat="42.55806" lon="1.88494">
        <ele>1903</ele>
        <time>2021-09-15T13:54:49Z</time>
      </trkpt>
      <trkpt lat="42.55805" lon="1.88492">
        <ele>1903</ele>
        <time>2021-09-15T13:54:51Z</time>
      </trkpt>
      <trkpt lat="42.55803" lon="1.8849">
        <ele>1903</ele>
        <time>2021-09-15T13:54:53Z</time>
      </trkpt>
      <trkpt lat="42.55803" lon="1.88488">
        <ele>1903</ele>
        <time>2021-09-15T13:54:59Z</time>
      </trkpt>
      <trkpt lat="42.55802" lon="1.88487">
        <ele>1903</ele>
        <time>2021-09-15T13:55:01Z</time>
      </trkpt>
      <trkpt lat="42.55802" lon="1.88484">
        <ele>1903</ele>
        <time>2021-09-15T13:55:03Z</time>
      </trkpt>
      <trkpt lat="42.558" lon="1.88479">
        <ele>1903</ele>
        <time>2021-09-15T13:55:07Z</time>
      </trkpt>
      <trkpt lat="42.55798" lon="1.88476">
        <ele>1903</ele>
        <time>2021-09-15T13:55:09Z</time>
      </trkpt>
      <trkpt lat="42.55797" lon="1.88474">
        <ele>1903</ele>
        <time>2021-09-15T13:55:11Z</time>
      </trkpt>
      <trkpt lat="42.55796" lon="1.88469">
        <ele>1903</ele>
        <time>2021-09-15T13:55:15Z</time>
      </trkpt>
      <trkpt lat="42.55795" lon="1.88466">
        <ele>1903</ele>
        <time>2021-09-15T13:55:17Z</time>
      </trkpt>
      <trkpt lat="42.55795" lon="1.88461">
        <ele>1903</ele>
        <time>2021-09-15T13:55:21Z</time>
      </trkpt>
      <trkpt lat="42.55795" lon="1.88459">
        <ele>1902</ele>
        <time>2021-09-15T13:55:23Z</time>
      </trkpt>
      <trkpt lat="42.55794" lon="1.88456">
        <ele>1902</ele>
        <time>2021-09-15T13:55:25Z</time>
      </trkpt>
      <trkpt lat="42.55792" lon="1.88455">
        <ele>1902</ele>
        <time>2021-09-15T13:55:26Z</time>
      </trkpt>
      <trkpt lat="42.55791" lon="1.88452">
        <ele>1902</ele>
        <time>2021-09-15T13:55:28Z</time>
      </trkpt>
      <trkpt lat="42.5579" lon="1.8845">
        <ele>1901</ele>
        <time>2021-09-15T13:55:30Z</time>
      </trkpt>
      <trkpt lat="42.55789" lon="1.88447">
        <ele>1901</ele>
        <time>2021-09-15T13:55:32Z</time>
      </trkpt>
      <trkpt lat="42.55788" lon="1.88444">
        <ele>1901</ele>
        <time>2021-09-15T13:55:34Z</time>
      </trkpt>
      <trkpt lat="42.55788" lon="1.88435">
        <ele>1901</ele>
        <time>2021-09-15T13:55:41Z</time>
      </trkpt>
      <trkpt lat="42.55788" lon="1.88433">
        <ele>1901</ele>
        <time>2021-09-15T13:55:43Z</time>
      </trkpt>
      <trkpt lat="42.55785" lon="1.88424">
        <ele>1900</ele>
        <time>2021-09-15T13:55:49Z</time>
      </trkpt>
      <trkpt lat="42.55784" lon="1.88421">
        <ele>1900</ele>
        <time>2021-09-15T13:55:51Z</time>
      </trkpt>
      <trkpt lat="42.55781" lon="1.88414">
        <ele>1901</ele>
        <time>2021-09-15T13:55:57Z</time>
      </trkpt>
      <trkpt lat="42.55778" lon="1.88409">
        <ele>1901</ele>
        <time>2021-09-15T13:56:01Z</time>
      </trkpt>
      <trkpt lat="42.55776" lon="1.88407">
        <ele>1901</ele>
        <time>2021-09-15T13:56:03Z</time>
      </trkpt>
      <trkpt lat="42.55775" lon="1.88404">
        <ele>1901</ele>
        <time>2021-09-15T13:56:05Z</time>
      </trkpt>
      <trkpt lat="42.55775" lon="1.88401">
        <ele>1901</ele>
        <time>2021-09-15T13:56:07Z</time>
      </trkpt>
      <trkpt lat="42.55775" lon="1.88395">
        <ele>1901</ele>
        <time>2021-09-15T13:56:12Z</time>
      </trkpt>
      <trkpt lat="42.55775" lon="1.88393">
        <ele>1901</ele>
        <time>2021-09-15T13:56:14Z</time>
      </trkpt>
      <trkpt lat="42.55774" lon="1.88391">
        <ele>1901</ele>
        <time>2021-09-15T13:56:15Z</time>
      </trkpt>
      <trkpt lat="42.55774" lon="1.88388">
        <ele>1901</ele>
        <time>2021-09-15T13:56:17Z</time>
      </trkpt>
      <trkpt lat="42.55775" lon="1.88386">
        <ele>1901</ele>
        <time>2021-09-15T13:56:19Z</time>
      </trkpt>
      <trkpt lat="42.55773" lon="1.88372">
        <ele>1902</ele>
        <time>2021-09-15T13:56:29Z</time>
      </trkpt>
      <trkpt lat="42.55772" lon="1.88367">
        <ele>1902</ele>
        <time>2021-09-15T13:56:32Z</time>
      </trkpt>
      <trkpt lat="42.55772" lon="1.88362">
        <ele>1902</ele>
        <time>2021-09-15T13:56:36Z</time>
      </trkpt>
      <trkpt lat="42.55771" lon="1.8836">
        <ele>1902</ele>
        <time>2021-09-15T13:56:37Z</time>
      </trkpt>
      <trkpt lat="42.55771" lon="1.88358">
        <ele>1903</ele>
        <time>2021-09-15T13:56:39Z</time>
      </trkpt>
      <trkpt lat="42.55768" lon="1.88343">
        <ele>1903</ele>
        <time>2021-09-15T13:56:50Z</time>
      </trkpt>
      <trkpt lat="42.55765" lon="1.88333">
        <ele>1903</ele>
        <time>2021-09-15T13:56:57Z</time>
      </trkpt>
      <trkpt lat="42.55765" lon="1.8833">
        <ele>1903</ele>
        <time>2021-09-15T13:56:59Z</time>
      </trkpt>
      <trkpt lat="42.55764" lon="1.88325">
        <ele>1903</ele>
        <time>2021-09-15T13:57:02Z</time>
      </trkpt>
      <trkpt lat="42.55763" lon="1.88323">
        <ele>1903</ele>
        <time>2021-09-15T13:57:04Z</time>
      </trkpt>
      <trkpt lat="42.55762" lon="1.88317">
        <ele>1903</ele>
        <time>2021-09-15T13:57:08Z</time>
      </trkpt>
      <trkpt lat="42.55763" lon="1.88315">
        <ele>1903</ele>
        <time>2021-09-15T13:57:11Z</time>
      </trkpt>
      <trkpt lat="42.55763" lon="1.88298">
        <ele>1904</ele>
        <time>2021-09-15T13:57:24Z</time>
      </trkpt>
      <trkpt lat="42.55763" lon="1.8828">
        <ele>1905</ele>
        <time>2021-09-15T13:57:37Z</time>
      </trkpt>
      <trkpt lat="42.55764" lon="1.88273">
        <ele>1906</ele>
        <time>2021-09-15T13:57:43Z</time>
      </trkpt>
      <trkpt lat="42.55763" lon="1.8827">
        <ele>1907</ele>
        <time>2021-09-15T13:57:45Z</time>
      </trkpt>
      <trkpt lat="42.55763" lon="1.88268">
        <ele>1907</ele>
        <time>2021-09-15T13:57:47Z</time>
      </trkpt>
      <trkpt lat="42.55763" lon="1.88258">
        <ele>1908</ele>
        <time>2021-09-15T13:57:56Z</time>
      </trkpt>
      <trkpt lat="42.55763" lon="1.88256">
        <ele>1909</ele>
        <time>2021-09-15T13:57:59Z</time>
      </trkpt>
      <trkpt lat="42.55762" lon="1.88239">
        <ele>1909</ele>
        <time>2021-09-15T13:58:13Z</time>
      </trkpt>
      <trkpt lat="42.55761" lon="1.88237">
        <ele>1910</ele>
        <time>2021-09-15T13:58:15Z</time>
      </trkpt>
      <trkpt lat="42.5576" lon="1.88234">
        <ele>1910</ele>
        <time>2021-09-15T13:58:17Z</time>
      </trkpt>
      <trkpt lat="42.55759" lon="1.88231">
        <ele>1910</ele>
        <time>2021-09-15T13:58:20Z</time>
      </trkpt>
      <trkpt lat="42.55758" lon="1.88217">
        <ele>1912</ele>
        <time>2021-09-15T13:58:31Z</time>
      </trkpt>
      <trkpt lat="42.55756" lon="1.88213">
        <ele>1912</ele>
        <time>2021-09-15T13:58:35Z</time>
      </trkpt>
      <trkpt lat="42.55754" lon="1.88206">
        <ele>1913</ele>
        <time>2021-09-15T13:58:41Z</time>
      </trkpt>
      <trkpt lat="42.55752" lon="1.88197">
        <ele>1914</ele>
        <time>2021-09-15T13:58:50Z</time>
      </trkpt>
      <trkpt lat="42.55752" lon="1.8818">
        <ele>1915</ele>
        <time>2021-09-15T13:59:05Z</time>
      </trkpt>
      <trkpt lat="42.55751" lon="1.88169">
        <ele>1916</ele>
        <time>2021-09-15T13:59:13Z</time>
      </trkpt>
      <trkpt lat="42.55751" lon="1.88162">
        <ele>1916</ele>
        <time>2021-09-15T13:59:19Z</time>
      </trkpt>
      <trkpt lat="42.5575" lon="1.88159">
        <ele>1916</ele>
        <time>2021-09-15T13:59:21Z</time>
      </trkpt>
      <trkpt lat="42.5575" lon="1.88157">
        <ele>1916</ele>
        <time>2021-09-15T13:59:23Z</time>
      </trkpt>
      <trkpt lat="42.5575" lon="1.88152">
        <ele>1916</ele>
        <time>2021-09-15T13:59:27Z</time>
      </trkpt>
      <trkpt lat="42.5575" lon="1.88149">
        <ele>1916</ele>
        <time>2021-09-15T13:59:29Z</time>
      </trkpt>
      <trkpt lat="42.55749" lon="1.88147">
        <ele>1916</ele>
        <time>2021-09-15T13:59:31Z</time>
      </trkpt>
      <trkpt lat="42.55749" lon="1.88144">
        <ele>1915</ele>
        <time>2021-09-15T13:59:33Z</time>
      </trkpt>
      <trkpt lat="42.55748" lon="1.88139">
        <ele>1915</ele>
        <time>2021-09-15T13:59:36Z</time>
      </trkpt>
      <trkpt lat="42.55748" lon="1.88138">
        <ele>1915</ele>
        <time>2021-09-15T13:59:37Z</time>
      </trkpt>
      <trkpt lat="42.55746" lon="1.88133">
        <ele>1915</ele>
        <time>2021-09-15T13:59:41Z</time>
      </trkpt>
      <trkpt lat="42.55746" lon="1.8813">
        <ele>1915</ele>
        <time>2021-09-15T13:59:43Z</time>
      </trkpt>
      <trkpt lat="42.55745" lon="1.88125">
        <ele>1915</ele>
        <time>2021-09-15T13:59:48Z</time>
      </trkpt>
      <trkpt lat="42.55745" lon="1.88122">
        <ele>1915</ele>
        <time>2021-09-15T13:59:50Z</time>
      </trkpt>
      <trkpt lat="42.55745" lon="1.8812">
        <ele>1915</ele>
        <time>2021-09-15T13:59:52Z</time>
      </trkpt>
      <trkpt lat="42.55745" lon="1.88118">
        <ele>1915</ele>
        <time>2021-09-15T13:59:56Z</time>
      </trkpt>
      <trkpt lat="42.55745" lon="1.88115">
        <ele>1915</ele>
        <time>2021-09-15T13:59:59Z</time>
      </trkpt>
      <trkpt lat="42.55744" lon="1.8811">
        <ele>1914</ele>
        <time>2021-09-15T14:00:03Z</time>
      </trkpt>
      <trkpt lat="42.55744" lon="1.88109">
        <ele>1914</ele>
        <time>2021-09-15T14:00:04Z</time>
      </trkpt>
      <trkpt lat="42.55743" lon="1.88107">
        <ele>1914</ele>
        <time>2021-09-15T14:00:05Z</time>
      </trkpt>
      <trkpt lat="42.55742" lon="1.88104">
        <ele>1914</ele>
        <time>2021-09-15T14:00:07Z</time>
      </trkpt>
      <trkpt lat="42.55742" lon="1.88103">
        <ele>1913</ele>
        <time>2021-09-15T14:00:09Z</time>
      </trkpt>
      <trkpt lat="42.55737" lon="1.88093">
        <ele>1912</ele>
        <time>2021-09-15T14:00:17Z</time>
      </trkpt>
      <trkpt lat="42.55736" lon="1.8809">
        <ele>1911</ele>
        <time>2021-09-15T14:00:35Z</time>
      </trkpt>
      <trkpt lat="42.55733" lon="1.88085">
        <ele>1910</ele>
        <time>2021-09-15T14:00:42Z</time>
      </trkpt>
      <trkpt lat="42.55732" lon="1.88083">
        <ele>1910</ele>
        <time>2021-09-15T14:00:44Z</time>
      </trkpt>
      <trkpt lat="42.55731" lon="1.88083">
        <ele>1910</ele>
        <time>2021-09-15T14:00:48Z</time>
      </trkpt>
      <trkpt lat="42.5573" lon="1.88082">
        <ele>1910</ele>
        <time>2021-09-15T14:00:52Z</time>
      </trkpt>
      <trkpt lat="42.55728" lon="1.88077">
        <ele>1909</ele>
        <time>2021-09-15T14:01:07Z</time>
      </trkpt>
      <trkpt lat="42.55727" lon="1.88076">
        <ele>1908</ele>
        <time>2021-09-15T14:01:10Z</time>
      </trkpt>
      <trkpt lat="42.55726" lon="1.88075">
        <ele>1908</ele>
        <time>2021-09-15T14:01:14Z</time>
      </trkpt>
      <trkpt lat="42.55718" lon="1.88069">
        <ele>1907</ele>
        <time>2021-09-15T14:01:40Z</time>
      </trkpt>
      <trkpt lat="42.55716" lon="1.88069">
        <ele>1907</ele>
        <time>2021-09-15T14:01:44Z</time>
      </trkpt>
      <trkpt lat="42.55716" lon="1.88068">
        <ele>1907</ele>
        <time>2021-09-15T14:01:47Z</time>
      </trkpt>
      <trkpt lat="42.55715" lon="1.88066">
        <ele>1907</ele>
        <time>2021-09-15T14:01:49Z</time>
      </trkpt>
      <trkpt lat="42.55715" lon="1.88064">
        <ele>1907</ele>
        <time>2021-09-15T14:01:53Z</time>
      </trkpt>
      <trkpt lat="42.55715" lon="1.88063">
        <ele>1906</ele>
        <time>2021-09-15T14:01:56Z</time>
      </trkpt>
      <trkpt lat="42.55713" lon="1.88062">
        <ele>1906</ele>
        <time>2021-09-15T14:01:59Z</time>
      </trkpt>
      <trkpt lat="42.55712" lon="1.88061">
        <ele>1905</ele>
        <time>2021-09-15T14:02:01Z</time>
      </trkpt>
      <trkpt lat="42.5571" lon="1.88061">
        <ele>1905</ele>
        <time>2021-09-15T14:02:03Z</time>
      </trkpt>
      <trkpt lat="42.55709" lon="1.88061">
        <ele>1904</ele>
        <time>2021-09-15T14:02:05Z</time>
      </trkpt>
      <trkpt lat="42.55708" lon="1.88059">
        <ele>1904</ele>
        <time>2021-09-15T14:02:09Z</time>
      </trkpt>
      <trkpt lat="42.55709" lon="1.88057">
        <ele>1903</ele>
        <time>2021-09-15T14:02:14Z</time>
      </trkpt>
      <trkpt lat="42.55709" lon="1.88055">
        <ele>1902</ele>
        <time>2021-09-15T14:02:17Z</time>
      </trkpt>
      <trkpt lat="42.55707" lon="1.88054">
        <ele>1902</ele>
        <time>2021-09-15T14:02:20Z</time>
      </trkpt>
      <trkpt lat="42.55705" lon="1.88054">
        <ele>1900</ele>
        <time>2021-09-15T14:02:26Z</time>
      </trkpt>
      <trkpt lat="42.55703" lon="1.88055">
        <ele>1900</ele>
        <time>2021-09-15T14:02:28Z</time>
      </trkpt>
      <trkpt lat="42.55699" lon="1.88053">
        <ele>1898</ele>
        <time>2021-09-15T14:02:36Z</time>
      </trkpt>
      <trkpt lat="42.55698" lon="1.88051">
        <ele>1897</ele>
        <time>2021-09-15T14:02:39Z</time>
      </trkpt>
      <trkpt lat="42.55697" lon="1.88049">
        <ele>1896</ele>
        <time>2021-09-15T14:02:42Z</time>
      </trkpt>
      <trkpt lat="42.55697" lon="1.88046">
        <ele>1896</ele>
        <time>2021-09-15T14:02:44Z</time>
      </trkpt>
      <trkpt lat="42.55698" lon="1.88044">
        <ele>1895</ele>
        <time>2021-09-15T14:02:46Z</time>
      </trkpt>
      <trkpt lat="42.55697" lon="1.88042">
        <ele>1895</ele>
        <time>2021-09-15T14:02:48Z</time>
      </trkpt>
      <trkpt lat="42.55696" lon="1.8804">
        <ele>1894</ele>
        <time>2021-09-15T14:02:51Z</time>
      </trkpt>
      <trkpt lat="42.55694" lon="1.88039">
        <ele>1894</ele>
        <time>2021-09-15T14:02:53Z</time>
      </trkpt>
      <trkpt lat="42.55693" lon="1.88038">
        <ele>1894</ele>
        <time>2021-09-15T14:02:55Z</time>
      </trkpt>
      <trkpt lat="42.55693" lon="1.88035">
        <ele>1894</ele>
        <time>2021-09-15T14:02:57Z</time>
      </trkpt>
      <trkpt lat="42.55693" lon="1.88028">
        <ele>1893</ele>
        <time>2021-09-15T14:03:03Z</time>
      </trkpt>
      <trkpt lat="42.55692" lon="1.88026">
        <ele>1893</ele>
        <time>2021-09-15T14:03:05Z</time>
      </trkpt>
      <trkpt lat="42.55691" lon="1.88019">
        <ele>1892</ele>
        <time>2021-09-15T14:03:11Z</time>
      </trkpt>
      <trkpt lat="42.55687" lon="1.88013">
        <ele>1891</ele>
        <time>2021-09-15T14:03:17Z</time>
      </trkpt>
      <trkpt lat="42.55686" lon="1.88008">
        <ele>1890</ele>
        <time>2021-09-15T14:03:21Z</time>
      </trkpt>
      <trkpt lat="42.55685" lon="1.88007">
        <ele>1890</ele>
        <time>2021-09-15T14:03:23Z</time>
      </trkpt>
      <trkpt lat="42.55685" lon="1.88005">
        <ele>1890</ele>
        <time>2021-09-15T14:03:26Z</time>
      </trkpt>
      <trkpt lat="42.55683" lon="1.88004">
        <ele>1889</ele>
        <time>2021-09-15T14:03:28Z</time>
      </trkpt>
      <trkpt lat="42.55681" lon="1.88001">
        <ele>1889</ele>
        <time>2021-09-15T14:03:32Z</time>
      </trkpt>
      <trkpt lat="42.55678" lon="1.87995">
        <ele>1889</ele>
        <time>2021-09-15T14:03:36Z</time>
      </trkpt>
      <trkpt lat="42.55677" lon="1.87994">
        <ele>1889</ele>
        <time>2021-09-15T14:03:37Z</time>
      </trkpt>
      <trkpt lat="42.55674" lon="1.87992">
        <ele>1889</ele>
        <time>2021-09-15T14:03:40Z</time>
      </trkpt>
      <trkpt lat="42.55673" lon="1.87991">
        <ele>1889</ele>
        <time>2021-09-15T14:03:42Z</time>
      </trkpt>
      <trkpt lat="42.55669" lon="1.87985">
        <ele>1889</ele>
        <time>2021-09-15T14:03:47Z</time>
      </trkpt>
      <trkpt lat="42.55668" lon="1.87976">
        <ele>1890</ele>
        <time>2021-09-15T14:03:54Z</time>
      </trkpt>
      <trkpt lat="42.55668" lon="1.87973">
        <ele>1890</ele>
        <time>2021-09-15T14:03:56Z</time>
      </trkpt>
      <trkpt lat="42.55666" lon="1.87971">
        <ele>1889</ele>
        <time>2021-09-15T14:03:58Z</time>
      </trkpt>
      <trkpt lat="42.55663" lon="1.87964">
        <ele>1889</ele>
        <time>2021-09-15T14:04:03Z</time>
      </trkpt>
      <trkpt lat="42.55661" lon="1.87962">
        <ele>1889</ele>
        <time>2021-09-15T14:04:04Z</time>
      </trkpt>
      <trkpt lat="42.5566" lon="1.87961">
        <ele>1889</ele>
        <time>2021-09-15T14:04:05Z</time>
      </trkpt>
      <trkpt lat="42.55656" lon="1.87953">
        <ele>1889</ele>
        <time>2021-09-15T14:04:10Z</time>
      </trkpt>
      <trkpt lat="42.55655" lon="1.87952">
        <ele>1889</ele>
        <time>2021-09-15T14:04:12Z</time>
      </trkpt>
      <trkpt lat="42.55653" lon="1.8795">
        <ele>1889</ele>
        <time>2021-09-15T14:04:14Z</time>
      </trkpt>
      <trkpt lat="42.55647" lon="1.87938">
        <ele>1887</ele>
        <time>2021-09-15T14:04:23Z</time>
      </trkpt>
      <trkpt lat="42.55646" lon="1.87936">
        <ele>1887</ele>
        <time>2021-09-15T14:04:25Z</time>
      </trkpt>
      <trkpt lat="42.55645" lon="1.87935">
        <ele>1887</ele>
        <time>2021-09-15T14:04:26Z</time>
      </trkpt>
      <trkpt lat="42.55644" lon="1.87931">
        <ele>1887</ele>
        <time>2021-09-15T14:04:28Z</time>
      </trkpt>
      <trkpt lat="42.55644" lon="1.87925">
        <ele>1887</ele>
        <time>2021-09-15T14:04:32Z</time>
      </trkpt>
      <trkpt lat="42.55644" lon="1.87922">
        <ele>1887</ele>
        <time>2021-09-15T14:04:34Z</time>
      </trkpt>
      <trkpt lat="42.55643" lon="1.87919">
        <ele>1886</ele>
        <time>2021-09-15T14:04:36Z</time>
      </trkpt>
      <trkpt lat="42.55644" lon="1.87915">
        <ele>1886</ele>
        <time>2021-09-15T14:04:38Z</time>
      </trkpt>
      <trkpt lat="42.55644" lon="1.87908">
        <ele>1885</ele>
        <time>2021-09-15T14:04:44Z</time>
      </trkpt>
      <trkpt lat="42.55645" lon="1.87886">
        <ele>1883</ele>
        <time>2021-09-15T14:05:00Z</time>
      </trkpt>
      <trkpt lat="42.55644" lon="1.87872">
        <ele>1882</ele>
        <time>2021-09-15T14:05:11Z</time>
      </trkpt>
      <trkpt lat="42.55644" lon="1.8787">
        <ele>1882</ele>
        <time>2021-09-15T14:05:14Z</time>
      </trkpt>
      <trkpt lat="42.55642" lon="1.87866">
        <ele>1882</ele>
        <time>2021-09-15T14:06:09Z</time>
      </trkpt>
      <trkpt lat="42.55642" lon="1.87864">
        <ele>1882</ele>
        <time>2021-09-15T14:06:11Z</time>
      </trkpt>
      <trkpt lat="42.55643" lon="1.87861">
        <ele>1882</ele>
        <time>2021-09-15T14:06:34Z</time>
      </trkpt>
      <trkpt lat="42.55644" lon="1.87861">
        <ele>1882</ele>
        <time>2021-09-15T14:06:36Z</time>
      </trkpt>
      <trkpt lat="42.55645" lon="1.87859">
        <ele>1882</ele>
        <time>2021-09-15T14:06:39Z</time>
      </trkpt>
      <trkpt lat="42.55645" lon="1.87855">
        <ele>1882</ele>
        <time>2021-09-15T14:06:44Z</time>
      </trkpt>
      <trkpt lat="42.55646" lon="1.8785">
        <ele>1882</ele>
        <time>2021-09-15T14:06:50Z</time>
      </trkpt>
      <trkpt lat="42.55646" lon="1.87848">
        <ele>1882</ele>
        <time>2021-09-15T14:06:53Z</time>
      </trkpt>
      <trkpt lat="42.55645" lon="1.87846">
        <ele>1881</ele>
        <time>2021-09-15T14:06:55Z</time>
      </trkpt>
      <trkpt lat="42.55644" lon="1.87845">
        <ele>1881</ele>
        <time>2021-09-15T14:06:57Z</time>
      </trkpt>
      <trkpt lat="42.55644" lon="1.87843">
        <ele>1881</ele>
        <time>2021-09-15T14:07:01Z</time>
      </trkpt>
      <trkpt lat="42.55643" lon="1.87839">
        <ele>1881</ele>
        <time>2021-09-15T14:07:06Z</time>
      </trkpt>
      <trkpt lat="42.55643" lon="1.87833">
        <ele>1881</ele>
        <time>2021-09-15T14:07:11Z</time>
      </trkpt>
      <trkpt lat="42.55644" lon="1.8783">
        <ele>1880</ele>
        <time>2021-09-15T14:07:14Z</time>
      </trkpt>
      <trkpt lat="42.55644" lon="1.87828">
        <ele>1880</ele>
        <time>2021-09-15T14:07:16Z</time>
      </trkpt>
      <trkpt lat="42.55644" lon="1.87826">
        <ele>1880</ele>
        <time>2021-09-15T14:07:18Z</time>
      </trkpt>
      <trkpt lat="42.55641" lon="1.87805">
        <ele>1878</ele>
        <time>2021-09-15T14:07:34Z</time>
      </trkpt>
      <trkpt lat="42.5564" lon="1.87804">
        <ele>1877</ele>
        <time>2021-09-15T14:07:36Z</time>
      </trkpt>
      <trkpt lat="42.55639" lon="1.87803">
        <ele>1877</ele>
        <time>2021-09-15T14:07:38Z</time>
      </trkpt>
      <trkpt lat="42.55637" lon="1.87802">
        <ele>1876</ele>
        <time>2021-09-15T14:07:41Z</time>
      </trkpt>
      <trkpt lat="42.55637" lon="1.878">
        <ele>1876</ele>
        <time>2021-09-15T14:07:43Z</time>
      </trkpt>
      <trkpt lat="42.55636" lon="1.87797">
        <ele>1875</ele>
        <time>2021-09-15T14:07:45Z</time>
      </trkpt>
      <trkpt lat="42.55631" lon="1.87797">
        <ele>1874</ele>
        <time>2021-09-15T14:07:51Z</time>
      </trkpt>
      <trkpt lat="42.5563" lon="1.87797">
        <ele>1873</ele>
        <time>2021-09-15T14:07:54Z</time>
      </trkpt>
      <trkpt lat="42.55628" lon="1.87797">
        <ele>1872</ele>
        <time>2021-09-15T14:08:01Z</time>
      </trkpt>
      <trkpt lat="42.55625" lon="1.87794">
        <ele>1871</ele>
        <time>2021-09-15T14:08:06Z</time>
      </trkpt>
      <trkpt lat="42.55622" lon="1.87792">
        <ele>1870</ele>
        <time>2021-09-15T14:08:10Z</time>
      </trkpt>
      <trkpt lat="42.55621" lon="1.87792">
        <ele>1870</ele>
        <time>2021-09-15T14:08:12Z</time>
      </trkpt>
      <trkpt lat="42.55618" lon="1.87793">
        <ele>1869</ele>
        <time>2021-09-15T14:08:14Z</time>
      </trkpt>
      <trkpt lat="42.55617" lon="1.87792">
        <ele>1869</ele>
        <time>2021-09-15T14:08:17Z</time>
      </trkpt>
      <trkpt lat="42.55616" lon="1.8779">
        <ele>1868</ele>
        <time>2021-09-15T14:08:20Z</time>
      </trkpt>
      <trkpt lat="42.55616" lon="1.87792">
        <ele>1867</ele>
        <time>2021-09-15T14:08:26Z</time>
      </trkpt>
      <trkpt lat="42.55614" lon="1.87787">
        <ele>1867</ele>
        <time>2021-09-15T14:09:13Z</time>
      </trkpt>
      <trkpt lat="42.55614" lon="1.87785">
        <ele>1866</ele>
        <time>2021-09-15T14:09:16Z</time>
      </trkpt>
      <trkpt lat="42.55614" lon="1.87783">
        <ele>1866</ele>
        <time>2021-09-15T14:09:18Z</time>
      </trkpt>
      <trkpt lat="42.55614" lon="1.8778">
        <ele>1866</ele>
        <time>2021-09-15T14:09:21Z</time>
      </trkpt>
      <trkpt lat="42.55612" lon="1.87768">
        <ele>1865</ele>
        <time>2021-09-15T14:09:32Z</time>
      </trkpt>
      <trkpt lat="42.55612" lon="1.87763">
        <ele>1864</ele>
        <time>2021-09-15T14:09:36Z</time>
      </trkpt>
      <trkpt lat="42.55611" lon="1.87761">
        <ele>1864</ele>
        <time>2021-09-15T14:09:38Z</time>
      </trkpt>
      <trkpt lat="42.5561" lon="1.87759">
        <ele>1863</ele>
        <time>2021-09-15T14:09:40Z</time>
      </trkpt>
      <trkpt lat="42.55609" lon="1.87752">
        <ele>1862</ele>
        <time>2021-09-15T14:09:46Z</time>
      </trkpt>
      <trkpt lat="42.55608" lon="1.87751">
        <ele>1861</ele>
        <time>2021-09-15T14:09:49Z</time>
      </trkpt>
      <trkpt lat="42.55607" lon="1.8775">
        <ele>1860</ele>
        <time>2021-09-15T14:09:55Z</time>
      </trkpt>
      <trkpt lat="42.55607" lon="1.87748">
        <ele>1860</ele>
        <time>2021-09-15T14:09:57Z</time>
      </trkpt>
      <trkpt lat="42.55603" lon="1.87739">
        <ele>1857</ele>
        <time>2021-09-15T14:10:09Z</time>
      </trkpt>
      <trkpt lat="42.55603" lon="1.87737">
        <ele>1857</ele>
        <time>2021-09-15T14:10:10Z</time>
      </trkpt>
      <trkpt lat="42.55602" lon="1.87734">
        <ele>1857</ele>
        <time>2021-09-15T14:10:12Z</time>
      </trkpt>
      <trkpt lat="42.55601" lon="1.87732">
        <ele>1857</ele>
        <time>2021-09-15T14:10:14Z</time>
      </trkpt>
      <trkpt lat="42.55601" lon="1.8773">
        <ele>1857</ele>
        <time>2021-09-15T14:10:16Z</time>
      </trkpt>
      <trkpt lat="42.55601" lon="1.87728">
        <ele>1856</ele>
        <time>2021-09-15T14:10:18Z</time>
      </trkpt>
      <trkpt lat="42.55599" lon="1.87721">
        <ele>1855</ele>
        <time>2021-09-15T14:10:24Z</time>
      </trkpt>
      <trkpt lat="42.55598" lon="1.87719">
        <ele>1854</ele>
        <time>2021-09-15T14:10:26Z</time>
      </trkpt>
      <trkpt lat="42.55597" lon="1.87716">
        <ele>1854</ele>
        <time>2021-09-15T14:10:29Z</time>
      </trkpt>
      <trkpt lat="42.55596" lon="1.87714">
        <ele>1853</ele>
        <time>2021-09-15T14:10:31Z</time>
      </trkpt>
      <trkpt lat="42.55592" lon="1.87707">
        <ele>1852</ele>
        <time>2021-09-15T14:10:39Z</time>
      </trkpt>
      <trkpt lat="42.55592" lon="1.87704">
        <ele>1851</ele>
        <time>2021-09-15T14:10:41Z</time>
      </trkpt>
      <trkpt lat="42.55589" lon="1.877">
        <ele>1851</ele>
        <time>2021-09-15T14:10:45Z</time>
      </trkpt>
      <trkpt lat="42.55585" lon="1.87688">
        <ele>1849</ele>
        <time>2021-09-15T14:10:56Z</time>
      </trkpt>
      <trkpt lat="42.55584" lon="1.87686">
        <ele>1849</ele>
        <time>2021-09-15T14:10:58Z</time>
      </trkpt>
      <trkpt lat="42.55583" lon="1.87685">
        <ele>1849</ele>
        <time>2021-09-15T14:11:00Z</time>
      </trkpt>
      <trkpt lat="42.5558" lon="1.87679">
        <ele>1848</ele>
        <time>2021-09-15T14:11:06Z</time>
      </trkpt>
      <trkpt lat="42.55579" lon="1.87676">
        <ele>1847</ele>
        <time>2021-09-15T14:11:08Z</time>
      </trkpt>
      <trkpt lat="42.55576" lon="1.87669">
        <ele>1846</ele>
        <time>2021-09-15T14:11:14Z</time>
      </trkpt>
      <trkpt lat="42.55575" lon="1.87667">
        <ele>1846</ele>
        <time>2021-09-15T14:11:16Z</time>
      </trkpt>
      <trkpt lat="42.55574" lon="1.87665">
        <ele>1845</ele>
        <time>2021-09-15T14:11:17Z</time>
      </trkpt>
      <trkpt lat="42.55573" lon="1.87657">
        <ele>1845</ele>
        <time>2021-09-15T14:11:23Z</time>
      </trkpt>
      <trkpt lat="42.55572" lon="1.87655">
        <ele>1845</ele>
        <time>2021-09-15T14:11:25Z</time>
      </trkpt>
      <trkpt lat="42.55571" lon="1.87654">
        <ele>1845</ele>
        <time>2021-09-15T14:11:26Z</time>
      </trkpt>
      <trkpt lat="42.5557" lon="1.87652">
        <ele>1845</ele>
        <time>2021-09-15T14:11:28Z</time>
      </trkpt>
      <trkpt lat="42.55569" lon="1.87649">
        <ele>1844</ele>
        <time>2021-09-15T14:11:31Z</time>
      </trkpt>
      <trkpt lat="42.55568" lon="1.87648">
        <ele>1844</ele>
        <time>2021-09-15T14:11:33Z</time>
      </trkpt>
      <trkpt lat="42.55566" lon="1.87642">
        <ele>1844</ele>
        <time>2021-09-15T14:11:40Z</time>
      </trkpt>
      <trkpt lat="42.55564" lon="1.87638">
        <ele>1844</ele>
        <time>2021-09-15T14:11:44Z</time>
      </trkpt>
      <trkpt lat="42.55563" lon="1.87629">
        <ele>1843</ele>
        <time>2021-09-15T14:11:50Z</time>
      </trkpt>
      <trkpt lat="42.55563" lon="1.87626">
        <ele>1843</ele>
        <time>2021-09-15T14:11:52Z</time>
      </trkpt>
      <trkpt lat="42.55563" lon="1.87617">
        <ele>1842</ele>
        <time>2021-09-15T14:11:58Z</time>
      </trkpt>
      <trkpt lat="42.55563" lon="1.87614">
        <ele>1842</ele>
        <time>2021-09-15T14:12:00Z</time>
      </trkpt>
      <trkpt lat="42.55564" lon="1.87607">
        <ele>1841</ele>
        <time>2021-09-15T14:12:04Z</time>
      </trkpt>
      <trkpt lat="42.55564" lon="1.87605">
        <ele>1841</ele>
        <time>2021-09-15T14:12:05Z</time>
      </trkpt>
      <trkpt lat="42.55563" lon="1.87602">
        <ele>1841</ele>
        <time>2021-09-15T14:12:07Z</time>
      </trkpt>
      <trkpt lat="42.55562" lon="1.87599">
        <ele>1841</ele>
        <time>2021-09-15T14:12:10Z</time>
      </trkpt>
      <trkpt lat="42.55562" lon="1.87589">
        <ele>1840</ele>
        <time>2021-09-15T14:12:16Z</time>
      </trkpt>
      <trkpt lat="42.55561" lon="1.87586">
        <ele>1840</ele>
        <time>2021-09-15T14:12:19Z</time>
      </trkpt>
      <trkpt lat="42.55561" lon="1.87581">
        <ele>1840</ele>
        <time>2021-09-15T14:12:22Z</time>
      </trkpt>
      <trkpt lat="42.55562" lon="1.87573">
        <ele>1840</ele>
        <time>2021-09-15T14:12:28Z</time>
      </trkpt>
      <trkpt lat="42.55562" lon="1.87571">
        <ele>1840</ele>
        <time>2021-09-15T14:12:30Z</time>
      </trkpt>
      <trkpt lat="42.55563" lon="1.87568">
        <ele>1840</ele>
        <time>2021-09-15T14:12:32Z</time>
      </trkpt>
      <trkpt lat="42.55563" lon="1.87565">
        <ele>1840</ele>
        <time>2021-09-15T14:12:34Z</time>
      </trkpt>
      <trkpt lat="42.55562" lon="1.87562">
        <ele>1840</ele>
        <time>2021-09-15T14:12:36Z</time>
      </trkpt>
      <trkpt lat="42.55562" lon="1.8756">
        <ele>1840</ele>
        <time>2021-09-15T14:12:38Z</time>
      </trkpt>
      <trkpt lat="42.55561" lon="1.87554">
        <ele>1840</ele>
        <time>2021-09-15T14:12:42Z</time>
      </trkpt>
      <trkpt lat="42.55561" lon="1.87552">
        <ele>1840</ele>
        <time>2021-09-15T14:12:44Z</time>
      </trkpt>
      <trkpt lat="42.5556" lon="1.87542">
        <ele>1839</ele>
        <time>2021-09-15T14:12:54Z</time>
      </trkpt>
      <trkpt lat="42.5556" lon="1.8754">
        <ele>1839</ele>
        <time>2021-09-15T14:12:55Z</time>
      </trkpt>
      <trkpt lat="42.5556" lon="1.87535">
        <ele>1839</ele>
        <time>2021-09-15T14:12:59Z</time>
      </trkpt>
      <trkpt lat="42.55559" lon="1.87532">
        <ele>1839</ele>
        <time>2021-09-15T14:13:01Z</time>
      </trkpt>
      <trkpt lat="42.55558" lon="1.87531">
        <ele>1838</ele>
        <time>2021-09-15T14:13:03Z</time>
      </trkpt>
      <trkpt lat="42.55558" lon="1.87529">
        <ele>1838</ele>
        <time>2021-09-15T14:13:05Z</time>
      </trkpt>
      <trkpt lat="42.55558" lon="1.87524">
        <ele>1838</ele>
        <time>2021-09-15T14:13:09Z</time>
      </trkpt>
      <trkpt lat="42.55557" lon="1.87522">
        <ele>1838</ele>
        <time>2021-09-15T14:13:11Z</time>
      </trkpt>
      <trkpt lat="42.55559" lon="1.87511">
        <ele>1837</ele>
        <time>2021-09-15T14:13:20Z</time>
      </trkpt>
      <trkpt lat="42.55558" lon="1.87508">
        <ele>1837</ele>
        <time>2021-09-15T14:13:22Z</time>
      </trkpt>
      <trkpt lat="42.55558" lon="1.87506">
        <ele>1837</ele>
        <time>2021-09-15T14:13:24Z</time>
      </trkpt>
      <trkpt lat="42.55557" lon="1.87503">
        <ele>1837</ele>
        <time>2021-09-15T14:13:26Z</time>
      </trkpt>
      <trkpt lat="42.55556" lon="1.87493">
        <ele>1837</ele>
        <time>2021-09-15T14:13:32Z</time>
      </trkpt>
      <trkpt lat="42.55555" lon="1.87491">
        <ele>1837</ele>
        <time>2021-09-15T14:13:34Z</time>
      </trkpt>
      <trkpt lat="42.55552" lon="1.87474">
        <ele>1839</ele>
        <time>2021-09-15T14:13:48Z</time>
      </trkpt>
      <trkpt lat="42.55551" lon="1.87472">
        <ele>1839</ele>
        <time>2021-09-15T14:13:50Z</time>
      </trkpt>
      <trkpt lat="42.55551" lon="1.87469">
        <ele>1838</ele>
        <time>2021-09-15T14:13:53Z</time>
      </trkpt>
      <trkpt lat="42.5555" lon="1.87453">
        <ele>1838</ele>
        <time>2021-09-15T14:14:05Z</time>
      </trkpt>
      <trkpt lat="42.5555" lon="1.8745">
        <ele>1838</ele>
        <time>2021-09-15T14:14:08Z</time>
      </trkpt>
      <trkpt lat="42.5555" lon="1.87448">
        <ele>1838</ele>
        <time>2021-09-15T14:14:11Z</time>
      </trkpt>
      <trkpt lat="42.5555" lon="1.87445">
        <ele>1838</ele>
        <time>2021-09-15T14:14:14Z</time>
      </trkpt>
      <trkpt lat="42.5555" lon="1.87442">
        <ele>1838</ele>
        <time>2021-09-15T14:14:16Z</time>
      </trkpt>
      <trkpt lat="42.5555" lon="1.87439">
        <ele>1838</ele>
        <time>2021-09-15T14:14:19Z</time>
      </trkpt>
      <trkpt lat="42.5555" lon="1.87437">
        <ele>1838</ele>
        <time>2021-09-15T14:14:23Z</time>
      </trkpt>
      <trkpt lat="42.5555" lon="1.87435">
        <ele>1838</ele>
        <time>2021-09-15T14:14:27Z</time>
      </trkpt>
      <trkpt lat="42.5555" lon="1.8743">
        <ele>1839</ele>
        <time>2021-09-15T14:14:33Z</time>
      </trkpt>
      <trkpt lat="42.55547" lon="1.87414">
        <ele>1840</ele>
        <time>2021-09-15T14:14:46Z</time>
      </trkpt>
      <trkpt lat="42.55547" lon="1.87412">
        <ele>1840</ele>
        <time>2021-09-15T14:14:48Z</time>
      </trkpt>
      <trkpt lat="42.55546" lon="1.87395">
        <ele>1840</ele>
        <time>2021-09-15T14:15:00Z</time>
      </trkpt>
      <trkpt lat="42.55546" lon="1.8739">
        <ele>1840</ele>
        <time>2021-09-15T14:15:04Z</time>
      </trkpt>
      <trkpt lat="42.55545" lon="1.87378">
        <ele>1840</ele>
        <time>2021-09-15T14:15:12Z</time>
      </trkpt>
      <trkpt lat="42.55543" lon="1.87371">
        <ele>1839</ele>
        <time>2021-09-15T14:15:20Z</time>
      </trkpt>
      <trkpt lat="42.55543" lon="1.87369">
        <ele>1839</ele>
        <time>2021-09-15T14:15:23Z</time>
      </trkpt>
      <trkpt lat="42.55542" lon="1.87366">
        <ele>1838</ele>
        <time>2021-09-15T14:15:26Z</time>
      </trkpt>
      <trkpt lat="42.55541" lon="1.87362">
        <ele>1838</ele>
        <time>2021-09-15T14:15:32Z</time>
      </trkpt>
      <trkpt lat="42.5554" lon="1.8736">
        <ele>1838</ele>
        <time>2021-09-15T14:15:35Z</time>
      </trkpt>
      <trkpt lat="42.55539" lon="1.87356">
        <ele>1837</ele>
        <time>2021-09-15T14:15:39Z</time>
      </trkpt>
      <trkpt lat="42.55538" lon="1.87354">
        <ele>1837</ele>
        <time>2021-09-15T14:15:42Z</time>
      </trkpt>
      <trkpt lat="42.55535" lon="1.87326">
        <ele>1834</ele>
        <time>2021-09-15T14:16:06Z</time>
      </trkpt>
      <trkpt lat="42.55532" lon="1.87317">
        <ele>1833</ele>
        <time>2021-09-15T14:16:14Z</time>
      </trkpt>
      <trkpt lat="42.55532" lon="1.87314">
        <ele>1833</ele>
        <time>2021-09-15T14:16:17Z</time>
      </trkpt>
      <trkpt lat="42.55531" lon="1.87312">
        <ele>1832</ele>
        <time>2021-09-15T14:16:19Z</time>
      </trkpt>
      <trkpt lat="42.55531" lon="1.8731">
        <ele>1832</ele>
        <time>2021-09-15T14:16:21Z</time>
      </trkpt>
      <trkpt lat="42.55529" lon="1.873">
        <ele>1831</ele>
        <time>2021-09-15T14:16:28Z</time>
      </trkpt>
      <trkpt lat="42.55528" lon="1.87296">
        <ele>1831</ele>
        <time>2021-09-15T14:16:30Z</time>
      </trkpt>
      <trkpt lat="42.55528" lon="1.87291">
        <ele>1830</ele>
        <time>2021-09-15T14:16:35Z</time>
      </trkpt>
      <trkpt lat="42.55528" lon="1.87288">
        <ele>1830</ele>
        <time>2021-09-15T14:16:37Z</time>
      </trkpt>
      <trkpt lat="42.55528" lon="1.87284">
        <ele>1830</ele>
        <time>2021-09-15T14:16:41Z</time>
      </trkpt>
      <trkpt lat="42.55528" lon="1.87277">
        <ele>1830</ele>
        <time>2021-09-15T14:16:46Z</time>
      </trkpt>
      <trkpt lat="42.55528" lon="1.87274">
        <ele>1829</ele>
        <time>2021-09-15T14:16:48Z</time>
      </trkpt>
      <trkpt lat="42.55525" lon="1.87257">
        <ele>1827</ele>
        <time>2021-09-15T14:17:02Z</time>
      </trkpt>
      <trkpt lat="42.55523" lon="1.87254">
        <ele>1827</ele>
        <time>2021-09-15T14:17:04Z</time>
      </trkpt>
      <trkpt lat="42.55523" lon="1.87251">
        <ele>1827</ele>
        <time>2021-09-15T14:17:06Z</time>
      </trkpt>
      <trkpt lat="42.55523" lon="1.87248">
        <ele>1827</ele>
        <time>2021-09-15T14:17:08Z</time>
      </trkpt>
      <trkpt lat="42.55521" lon="1.87247">
        <ele>1827</ele>
        <time>2021-09-15T14:17:10Z</time>
      </trkpt>
      <trkpt lat="42.55521" lon="1.87244">
        <ele>1827</ele>
        <time>2021-09-15T14:17:12Z</time>
      </trkpt>
      <trkpt lat="42.5552" lon="1.87241">
        <ele>1827</ele>
        <time>2021-09-15T14:17:14Z</time>
      </trkpt>
      <trkpt lat="42.55519" lon="1.87238">
        <ele>1827</ele>
        <time>2021-09-15T14:17:16Z</time>
      </trkpt>
      <trkpt lat="42.55519" lon="1.87235">
        <ele>1827</ele>
        <time>2021-09-15T14:17:18Z</time>
      </trkpt>
      <trkpt lat="42.55519" lon="1.8723">
        <ele>1827</ele>
        <time>2021-09-15T14:17:23Z</time>
      </trkpt>
      <trkpt lat="42.5552" lon="1.87218">
        <ele>1827</ele>
        <time>2021-09-15T14:17:32Z</time>
      </trkpt>
      <trkpt lat="42.5552" lon="1.87216">
        <ele>1827</ele>
        <time>2021-09-15T14:17:34Z</time>
      </trkpt>
      <trkpt lat="42.5552" lon="1.87212">
        <ele>1827</ele>
        <time>2021-09-15T14:17:36Z</time>
      </trkpt>
      <trkpt lat="42.55522" lon="1.87211">
        <ele>1827</ele>
        <time>2021-09-15T14:17:38Z</time>
      </trkpt>
      <trkpt lat="42.55523" lon="1.8721">
        <ele>1827</ele>
        <time>2021-09-15T14:17:41Z</time>
      </trkpt>
      <trkpt lat="42.55524" lon="1.87208">
        <ele>1827</ele>
        <time>2021-09-15T14:17:43Z</time>
      </trkpt>
      <trkpt lat="42.55528" lon="1.87202">
        <ele>1827</ele>
        <time>2021-09-15T14:17:49Z</time>
      </trkpt>
      <trkpt lat="42.55529" lon="1.87201">
        <ele>1827</ele>
        <time>2021-09-15T14:17:51Z</time>
      </trkpt>
      <trkpt lat="42.55533" lon="1.872">
        <ele>1827</ele>
        <time>2021-09-15T14:17:55Z</time>
      </trkpt>
      <trkpt lat="42.55534" lon="1.87199">
        <ele>1827</ele>
        <time>2021-09-15T14:17:57Z</time>
      </trkpt>
      <trkpt lat="42.55538" lon="1.87195">
        <ele>1827</ele>
        <time>2021-09-15T14:18:03Z</time>
      </trkpt>
      <trkpt lat="42.5554" lon="1.87194">
        <ele>1827</ele>
        <time>2021-09-15T14:18:05Z</time>
      </trkpt>
      <trkpt lat="42.55541" lon="1.87193">
        <ele>1827</ele>
        <time>2021-09-15T14:18:07Z</time>
      </trkpt>
      <trkpt lat="42.55543" lon="1.87192">
        <ele>1827</ele>
        <time>2021-09-15T14:18:09Z</time>
      </trkpt>
      <trkpt lat="42.55547" lon="1.87188">
        <ele>1826</ele>
        <time>2021-09-15T14:18:15Z</time>
      </trkpt>
      <trkpt lat="42.5555" lon="1.87185">
        <ele>1826</ele>
        <time>2021-09-15T14:18:19Z</time>
      </trkpt>
      <trkpt lat="42.55551" lon="1.87181">
        <ele>1825</ele>
        <time>2021-09-15T14:18:23Z</time>
      </trkpt>
      <trkpt lat="42.55551" lon="1.87178">
        <ele>1825</ele>
        <time>2021-09-15T14:18:26Z</time>
      </trkpt>
      <trkpt lat="42.55553" lon="1.87174">
        <ele>1824</ele>
        <time>2021-09-15T14:18:30Z</time>
      </trkpt>
      <trkpt lat="42.55553" lon="1.87172">
        <ele>1824</ele>
        <time>2021-09-15T14:18:32Z</time>
      </trkpt>
      <trkpt lat="42.55553" lon="1.8717">
        <ele>1824</ele>
        <time>2021-09-15T14:18:34Z</time>
      </trkpt>
      <trkpt lat="42.55552" lon="1.87168">
        <ele>1823</ele>
        <time>2021-09-15T14:18:36Z</time>
      </trkpt>
      <trkpt lat="42.55551" lon="1.87167">
        <ele>1823</ele>
        <time>2021-09-15T14:18:39Z</time>
      </trkpt>
      <trkpt lat="42.55551" lon="1.87162">
        <ele>1822</ele>
        <time>2021-09-15T14:18:45Z</time>
      </trkpt>
      <trkpt lat="42.55551" lon="1.87158">
        <ele>1821</ele>
        <time>2021-09-15T14:18:49Z</time>
      </trkpt>
      <trkpt lat="42.5555" lon="1.87156">
        <ele>1820</ele>
        <time>2021-09-15T14:18:52Z</time>
      </trkpt>
      <trkpt lat="42.55549" lon="1.87154">
        <ele>1820</ele>
        <time>2021-09-15T14:18:54Z</time>
      </trkpt>
      <trkpt lat="42.55548" lon="1.8715">
        <ele>1819</ele>
        <time>2021-09-15T14:18:58Z</time>
      </trkpt>
      <trkpt lat="42.55549" lon="1.87143">
        <ele>1818</ele>
        <time>2021-09-15T14:19:06Z</time>
      </trkpt>
      <trkpt lat="42.55548" lon="1.87141">
        <ele>1817</ele>
        <time>2021-09-15T14:19:08Z</time>
      </trkpt>
      <trkpt lat="42.55548" lon="1.87139">
        <ele>1817</ele>
        <time>2021-09-15T14:19:11Z</time>
      </trkpt>
      <trkpt lat="42.55547" lon="1.87138">
        <ele>1817</ele>
        <time>2021-09-15T14:19:13Z</time>
      </trkpt>
      <trkpt lat="42.55545" lon="1.87131">
        <ele>1815</ele>
        <time>2021-09-15T14:19:19Z</time>
      </trkpt>
      <trkpt lat="42.55546" lon="1.87128">
        <ele>1815</ele>
        <time>2021-09-15T14:19:21Z</time>
      </trkpt>
      <trkpt lat="42.55547" lon="1.87124">
        <ele>1814</ele>
        <time>2021-09-15T14:19:27Z</time>
      </trkpt>
      <trkpt lat="42.5555" lon="1.87117">
        <ele>1813</ele>
        <time>2021-09-15T14:19:33Z</time>
      </trkpt>
      <trkpt lat="42.55551" lon="1.87115">
        <ele>1813</ele>
        <time>2021-09-15T14:19:35Z</time>
      </trkpt>
      <trkpt lat="42.55555" lon="1.87101">
        <ele>1810</ele>
        <time>2021-09-15T14:19:48Z</time>
      </trkpt>
      <trkpt lat="42.55555" lon="1.871">
        <ele>1810</ele>
        <time>2021-09-15T14:19:50Z</time>
      </trkpt>
      <trkpt lat="42.55554" lon="1.87098">
        <ele>1809</ele>
        <time>2021-09-15T14:19:52Z</time>
      </trkpt>
      <trkpt lat="42.55553" lon="1.87096">
        <ele>1808</ele>
        <time>2021-09-15T14:19:57Z</time>
      </trkpt>
      <trkpt lat="42.55553" lon="1.87093">
        <ele>1808</ele>
        <time>2021-09-15T14:19:59Z</time>
      </trkpt>
      <trkpt lat="42.55551" lon="1.87091">
        <ele>1807</ele>
        <time>2021-09-15T14:20:01Z</time>
      </trkpt>
      <trkpt lat="42.55549" lon="1.87091">
        <ele>1807</ele>
        <time>2021-09-15T14:20:07Z</time>
      </trkpt>
      <trkpt lat="42.55548" lon="1.87091">
        <ele>1807</ele>
        <time>2021-09-15T14:20:11Z</time>
      </trkpt>
      <trkpt lat="42.55546" lon="1.8709">
        <ele>1806</ele>
        <time>2021-09-15T14:20:15Z</time>
      </trkpt>
      <trkpt lat="42.55543" lon="1.87087">
        <ele>1806</ele>
        <time>2021-09-15T14:20:20Z</time>
      </trkpt>
      <trkpt lat="42.55543" lon="1.87085">
        <ele>1805</ele>
        <time>2021-09-15T14:20:23Z</time>
      </trkpt>
      <trkpt lat="42.55543" lon="1.87083">
        <ele>1804</ele>
        <time>2021-09-15T14:20:27Z</time>
      </trkpt>
      <trkpt lat="42.55543" lon="1.87077">
        <ele>1803</ele>
        <time>2021-09-15T14:20:35Z</time>
      </trkpt>
      <trkpt lat="42.55543" lon="1.87075">
        <ele>1803</ele>
        <time>2021-09-15T14:20:38Z</time>
      </trkpt>
      <trkpt lat="42.55544" lon="1.87073">
        <ele>1802</ele>
        <time>2021-09-15T14:20:41Z</time>
      </trkpt>
      <trkpt lat="42.55543" lon="1.87071">
        <ele>1801</ele>
        <time>2021-09-15T14:20:44Z</time>
      </trkpt>
      <trkpt lat="42.55544" lon="1.87068">
        <ele>1801</ele>
        <time>2021-09-15T14:20:47Z</time>
      </trkpt>
      <trkpt lat="42.55543" lon="1.87066">
        <ele>1800</ele>
        <time>2021-09-15T14:20:51Z</time>
      </trkpt>
      <trkpt lat="42.55543" lon="1.87064">
        <ele>1799</ele>
        <time>2021-09-15T14:20:54Z</time>
      </trkpt>
      <trkpt lat="42.5554" lon="1.87061">
        <ele>1798</ele>
        <time>2021-09-15T14:20:59Z</time>
      </trkpt>
      <trkpt lat="42.55538" lon="1.8706">
        <ele>1797</ele>
        <time>2021-09-15T14:21:01Z</time>
      </trkpt>
      <trkpt lat="42.55538" lon="1.87058">
        <ele>1797</ele>
        <time>2021-09-15T14:21:03Z</time>
      </trkpt>
      <trkpt lat="42.55537" lon="1.87053">
        <ele>1796</ele>
        <time>2021-09-15T14:21:09Z</time>
      </trkpt>
      <trkpt lat="42.55537" lon="1.8705">
        <ele>1795</ele>
        <time>2021-09-15T14:21:12Z</time>
      </trkpt>
      <trkpt lat="42.55539" lon="1.87023">
        <ele>1792</ele>
        <time>2021-09-15T14:21:36Z</time>
      </trkpt>
      <trkpt lat="42.5554" lon="1.87021">
        <ele>1792</ele>
        <time>2021-09-15T14:21:38Z</time>
      </trkpt>
      <trkpt lat="42.5554" lon="1.87017">
        <ele>1791</ele>
        <time>2021-09-15T14:21:42Z</time>
      </trkpt>
      <trkpt lat="42.55541" lon="1.87015">
        <ele>1791</ele>
        <time>2021-09-15T14:21:44Z</time>
      </trkpt>
      <trkpt lat="42.5554" lon="1.87013">
        <ele>1790</ele>
        <time>2021-09-15T14:21:49Z</time>
      </trkpt>
      <trkpt lat="42.5554" lon="1.8701">
        <ele>1790</ele>
        <time>2021-09-15T14:21:52Z</time>
      </trkpt>
      <trkpt lat="42.5554" lon="1.87008">
        <ele>1789</ele>
        <time>2021-09-15T14:21:54Z</time>
      </trkpt>
      <trkpt lat="42.55541" lon="1.87003">
        <ele>1789</ele>
        <time>2021-09-15T14:21:59Z</time>
      </trkpt>
      <trkpt lat="42.55541" lon="1.87">
        <ele>1789</ele>
        <time>2021-09-15T14:22:01Z</time>
      </trkpt>
      <trkpt lat="42.5554" lon="1.86998">
        <ele>1788</ele>
        <time>2021-09-15T14:22:03Z</time>
      </trkpt>
      <trkpt lat="42.55539" lon="1.86996">
        <ele>1788</ele>
        <time>2021-09-15T14:22:06Z</time>
      </trkpt>
      <trkpt lat="42.55538" lon="1.86994">
        <ele>1787</ele>
        <time>2021-09-15T14:22:10Z</time>
      </trkpt>
      <trkpt lat="42.55537" lon="1.86994">
        <ele>1787</ele>
        <time>2021-09-15T14:22:12Z</time>
      </trkpt>
      <trkpt lat="42.55535" lon="1.86993">
        <ele>1786</ele>
        <time>2021-09-15T14:22:14Z</time>
      </trkpt>
      <trkpt lat="42.55534" lon="1.86993">
        <ele>1786</ele>
        <time>2021-09-15T14:22:16Z</time>
      </trkpt>
      <trkpt lat="42.55532" lon="1.86989">
        <ele>1785</ele>
        <time>2021-09-15T14:22:21Z</time>
      </trkpt>
      <trkpt lat="42.55534" lon="1.86984">
        <ele>1783</ele>
        <time>2021-09-15T14:22:29Z</time>
      </trkpt>
      <trkpt lat="42.55534" lon="1.86981">
        <ele>1783</ele>
        <time>2021-09-15T14:22:32Z</time>
      </trkpt>
      <trkpt lat="42.55535" lon="1.86979">
        <ele>1782</ele>
        <time>2021-09-15T14:22:35Z</time>
      </trkpt>
      <trkpt lat="42.55534" lon="1.86975">
        <ele>1781</ele>
        <time>2021-09-15T14:22:39Z</time>
      </trkpt>
      <trkpt lat="42.55534" lon="1.86973">
        <ele>1781</ele>
        <time>2021-09-15T14:22:42Z</time>
      </trkpt>
      <trkpt lat="42.55537" lon="1.8697">
        <ele>1780</ele>
        <time>2021-09-15T14:22:47Z</time>
      </trkpt>
      <trkpt lat="42.55537" lon="1.86965">
        <ele>1779</ele>
        <time>2021-09-15T14:22:53Z</time>
      </trkpt>
      <trkpt lat="42.55538" lon="1.86963">
        <ele>1778</ele>
        <time>2021-09-15T14:23:03Z</time>
      </trkpt>
      <trkpt lat="42.55538" lon="1.86961">
        <ele>1778</ele>
        <time>2021-09-15T14:23:07Z</time>
      </trkpt>
      <trkpt lat="42.55539" lon="1.86958">
        <ele>1778</ele>
        <time>2021-09-15T14:23:09Z</time>
      </trkpt>
      <trkpt lat="42.55539" lon="1.86957">
        <ele>1778</ele>
        <time>2021-09-15T14:23:11Z</time>
      </trkpt>
      <trkpt lat="42.5554" lon="1.86954">
        <ele>1778</ele>
        <time>2021-09-15T14:23:13Z</time>
      </trkpt>
      <trkpt lat="42.5554" lon="1.86952">
        <ele>1778</ele>
        <time>2021-09-15T14:23:15Z</time>
      </trkpt>
      <trkpt lat="42.5554" lon="1.8695">
        <ele>1777</ele>
        <time>2021-09-15T14:23:17Z</time>
      </trkpt>
      <trkpt lat="42.55539" lon="1.86948">
        <ele>1777</ele>
        <time>2021-09-15T14:23:19Z</time>
      </trkpt>
      <trkpt lat="42.55537" lon="1.86943">
        <ele>1776</ele>
        <time>2021-09-15T14:23:23Z</time>
      </trkpt>
      <trkpt lat="42.55537" lon="1.86938">
        <ele>1776</ele>
        <time>2021-09-15T14:23:29Z</time>
      </trkpt>
      <trkpt lat="42.55538" lon="1.86936">
        <ele>1776</ele>
        <time>2021-09-15T14:23:31Z</time>
      </trkpt>
      <trkpt lat="42.55538" lon="1.86931">
        <ele>1776</ele>
        <time>2021-09-15T14:23:36Z</time>
      </trkpt>
      <trkpt lat="42.55537" lon="1.86927">
        <ele>1776</ele>
        <time>2021-09-15T14:23:41Z</time>
      </trkpt>
      <trkpt lat="42.55537" lon="1.86925">
        <ele>1776</ele>
        <time>2021-09-15T14:23:43Z</time>
      </trkpt>
      <trkpt lat="42.55536" lon="1.86923">
        <ele>1775</ele>
        <time>2021-09-15T14:23:47Z</time>
      </trkpt>
      <trkpt lat="42.55536" lon="1.86918">
        <ele>1775</ele>
        <time>2021-09-15T14:23:56Z</time>
      </trkpt>
      <trkpt lat="42.55536" lon="1.86916">
        <ele>1774</ele>
        <time>2021-09-15T14:24:02Z</time>
      </trkpt>
      <trkpt lat="42.55537" lon="1.86912">
        <ele>1774</ele>
        <time>2021-09-15T14:24:08Z</time>
      </trkpt>
      <trkpt lat="42.55537" lon="1.86909">
        <ele>1773</ele>
        <time>2021-09-15T14:24:11Z</time>
      </trkpt>
      <trkpt lat="42.55538" lon="1.86907">
        <ele>1773</ele>
        <time>2021-09-15T14:24:14Z</time>
      </trkpt>
      <trkpt lat="42.55539" lon="1.86906">
        <ele>1773</ele>
        <time>2021-09-15T14:24:17Z</time>
      </trkpt>
      <trkpt lat="42.5554" lon="1.86904">
        <ele>1773</ele>
        <time>2021-09-15T14:24:19Z</time>
      </trkpt>
      <trkpt lat="42.55541" lon="1.86902">
        <ele>1773</ele>
        <time>2021-09-15T14:24:21Z</time>
      </trkpt>
      <trkpt lat="42.5554" lon="1.86894">
        <ele>1773</ele>
        <time>2021-09-15T14:24:29Z</time>
      </trkpt>
      <trkpt lat="42.5554" lon="1.86892">
        <ele>1772</ele>
        <time>2021-09-15T14:24:31Z</time>
      </trkpt>
      <trkpt lat="42.55538" lon="1.86887">
        <ele>1772</ele>
        <time>2021-09-15T14:24:35Z</time>
      </trkpt>
      <trkpt lat="42.55537" lon="1.86865">
        <ele>1769</ele>
        <time>2021-09-15T14:24:53Z</time>
      </trkpt>
      <trkpt lat="42.55535" lon="1.86859">
        <ele>1769</ele>
        <time>2021-09-15T14:24:58Z</time>
      </trkpt>
      <trkpt lat="42.55534" lon="1.86858">
        <ele>1769</ele>
        <time>2021-09-15T14:25:00Z</time>
      </trkpt>
      <trkpt lat="42.55533" lon="1.86856">
        <ele>1768</ele>
        <time>2021-09-15T14:25:09Z</time>
      </trkpt>
      <trkpt lat="42.55532" lon="1.86854">
        <ele>1768</ele>
        <time>2021-09-15T14:25:12Z</time>
      </trkpt>
      <trkpt lat="42.55529" lon="1.8685">
        <ele>1767</ele>
        <time>2021-09-15T14:25:16Z</time>
      </trkpt>
      <trkpt lat="42.55528" lon="1.86849">
        <ele>1767</ele>
        <time>2021-09-15T14:25:18Z</time>
      </trkpt>
      <trkpt lat="42.55526" lon="1.86847">
        <ele>1766</ele>
        <time>2021-09-15T14:25:22Z</time>
      </trkpt>
      <trkpt lat="42.55525" lon="1.86845">
        <ele>1766</ele>
        <time>2021-09-15T14:25:24Z</time>
      </trkpt>
      <trkpt lat="42.55524" lon="1.86843">
        <ele>1766</ele>
        <time>2021-09-15T14:25:27Z</time>
      </trkpt>
      <trkpt lat="42.55521" lon="1.86839">
        <ele>1765</ele>
        <time>2021-09-15T14:25:32Z</time>
      </trkpt>
      <trkpt lat="42.5552" lon="1.86838">
        <ele>1765</ele>
        <time>2021-09-15T14:25:34Z</time>
      </trkpt>
      <trkpt lat="42.55518" lon="1.86837">
        <ele>1765</ele>
        <time>2021-09-15T14:25:36Z</time>
      </trkpt>
      <trkpt lat="42.55516" lon="1.86834">
        <ele>1764</ele>
        <time>2021-09-15T14:25:40Z</time>
      </trkpt>
      <trkpt lat="42.55515" lon="1.86832">
        <ele>1764</ele>
        <time>2021-09-15T14:25:42Z</time>
      </trkpt>
      <trkpt lat="42.55513" lon="1.86831">
        <ele>1764</ele>
        <time>2021-09-15T14:25:44Z</time>
      </trkpt>
      <trkpt lat="42.55512" lon="1.8683">
        <ele>1764</ele>
        <time>2021-09-15T14:25:46Z</time>
      </trkpt>
      <trkpt lat="42.5551" lon="1.8683">
        <ele>1763</ele>
        <time>2021-09-15T14:25:50Z</time>
      </trkpt>
      <trkpt lat="42.55508" lon="1.86826">
        <ele>1762</ele>
        <time>2021-09-15T14:25:55Z</time>
      </trkpt>
      <trkpt lat="42.55507" lon="1.86823">
        <ele>1762</ele>
        <time>2021-09-15T14:25:58Z</time>
      </trkpt>
      <trkpt lat="42.55504" lon="1.86813">
        <ele>1760</ele>
        <time>2021-09-15T14:26:09Z</time>
      </trkpt>
      <trkpt lat="42.55503" lon="1.86811">
        <ele>1760</ele>
        <time>2021-09-15T14:26:12Z</time>
      </trkpt>
      <trkpt lat="42.55502" lon="1.86809">
        <ele>1760</ele>
        <time>2021-09-15T14:26:14Z</time>
      </trkpt>
      <trkpt lat="42.55502" lon="1.86807">
        <ele>1759</ele>
        <time>2021-09-15T14:26:16Z</time>
      </trkpt>
      <trkpt lat="42.55499" lon="1.86804">
        <ele>1759</ele>
        <time>2021-09-15T14:26:20Z</time>
      </trkpt>
      <trkpt lat="42.55498" lon="1.86802">
        <ele>1758</ele>
        <time>2021-09-15T14:26:22Z</time>
      </trkpt>
      <trkpt lat="42.55497" lon="1.86798">
        <ele>1758</ele>
        <time>2021-09-15T14:26:26Z</time>
      </trkpt>
      <trkpt lat="42.55497" lon="1.86796">
        <ele>1757</ele>
        <time>2021-09-15T14:26:28Z</time>
      </trkpt>
      <trkpt lat="42.55496" lon="1.86794">
        <ele>1757</ele>
        <time>2021-09-15T14:26:30Z</time>
      </trkpt>
      <trkpt lat="42.55496" lon="1.86791">
        <ele>1757</ele>
        <time>2021-09-15T14:26:32Z</time>
      </trkpt>
      <trkpt lat="42.55494" lon="1.86789">
        <ele>1757</ele>
        <time>2021-09-15T14:26:35Z</time>
      </trkpt>
      <trkpt lat="42.55492" lon="1.86787">
        <ele>1756</ele>
        <time>2021-09-15T14:26:37Z</time>
      </trkpt>
      <trkpt lat="42.55491" lon="1.86785">
        <ele>1756</ele>
        <time>2021-09-15T14:26:39Z</time>
      </trkpt>
      <trkpt lat="42.5549" lon="1.86783">
        <ele>1756</ele>
        <time>2021-09-15T14:26:41Z</time>
      </trkpt>
      <trkpt lat="42.55489" lon="1.86783">
        <ele>1755</ele>
        <time>2021-09-15T14:26:46Z</time>
      </trkpt>
      <trkpt lat="42.55488" lon="1.86782">
        <ele>1755</ele>
        <time>2021-09-15T14:26:49Z</time>
      </trkpt>
      <trkpt lat="42.55487" lon="1.86779">
        <ele>1755</ele>
        <time>2021-09-15T14:26:52Z</time>
      </trkpt>
      <trkpt lat="42.55486" lon="1.86778">
        <ele>1755</ele>
        <time>2021-09-15T14:26:55Z</time>
      </trkpt>
      <trkpt lat="42.55485" lon="1.86776">
        <ele>1754</ele>
        <time>2021-09-15T14:26:58Z</time>
      </trkpt>
      <trkpt lat="42.55482" lon="1.86769">
        <ele>1754</ele>
        <time>2021-09-15T14:27:04Z</time>
      </trkpt>
      <trkpt lat="42.55481" lon="1.86767">
        <ele>1754</ele>
        <time>2021-09-15T14:27:06Z</time>
      </trkpt>
      <trkpt lat="42.55475" lon="1.86756">
        <ele>1754</ele>
        <time>2021-09-15T14:27:16Z</time>
      </trkpt>
      <trkpt lat="42.55474" lon="1.86753">
        <ele>1753</ele>
        <time>2021-09-15T14:27:18Z</time>
      </trkpt>
      <trkpt lat="42.55474" lon="1.86751">
        <ele>1753</ele>
        <time>2021-09-15T14:27:20Z</time>
      </trkpt>
      <trkpt lat="42.55472" lon="1.86747">
        <ele>1753</ele>
        <time>2021-09-15T14:27:24Z</time>
      </trkpt>
      <trkpt lat="42.55468" lon="1.86737">
        <ele>1753</ele>
        <time>2021-09-15T14:27:35Z</time>
      </trkpt>
      <trkpt lat="42.55467" lon="1.8673">
        <ele>1752</ele>
        <time>2021-09-15T14:27:42Z</time>
      </trkpt>
      <trkpt lat="42.55467" lon="1.86725">
        <ele>1752</ele>
        <time>2021-09-15T14:27:47Z</time>
      </trkpt>
      <trkpt lat="42.55466" lon="1.86722">
        <ele>1752</ele>
        <time>2021-09-15T14:27:49Z</time>
      </trkpt>
      <trkpt lat="42.55466" lon="1.8672">
        <ele>1752</ele>
        <time>2021-09-15T14:27:51Z</time>
      </trkpt>
      <trkpt lat="42.55465" lon="1.86717">
        <ele>1752</ele>
        <time>2021-09-15T14:27:54Z</time>
      </trkpt>
      <trkpt lat="42.55461" lon="1.86705">
        <ele>1752</ele>
        <time>2021-09-15T14:28:05Z</time>
      </trkpt>
      <trkpt lat="42.5546" lon="1.86703">
        <ele>1752</ele>
        <time>2021-09-15T14:28:07Z</time>
      </trkpt>
      <trkpt lat="42.55459" lon="1.86701">
        <ele>1752</ele>
        <time>2021-09-15T14:28:09Z</time>
      </trkpt>
      <trkpt lat="42.55458" lon="1.86699">
        <ele>1752</ele>
        <time>2021-09-15T14:28:11Z</time>
      </trkpt>
      <trkpt lat="42.55457" lon="1.86697">
        <ele>1752</ele>
        <time>2021-09-15T14:28:13Z</time>
      </trkpt>
      <trkpt lat="42.55456" lon="1.86695">
        <ele>1752</ele>
        <time>2021-09-15T14:28:15Z</time>
      </trkpt>
      <trkpt lat="42.55453" lon="1.86693">
        <ele>1752</ele>
        <time>2021-09-15T14:28:20Z</time>
      </trkpt>
      <trkpt lat="42.55452" lon="1.86692">
        <ele>1752</ele>
        <time>2021-09-15T14:28:22Z</time>
      </trkpt>
      <trkpt lat="42.5545" lon="1.8669">
        <ele>1753</ele>
        <time>2021-09-15T14:28:24Z</time>
      </trkpt>
      <trkpt lat="42.55449" lon="1.86685">
        <ele>1753</ele>
        <time>2021-09-15T14:28:28Z</time>
      </trkpt>
      <trkpt lat="42.55448" lon="1.86683">
        <ele>1753</ele>
        <time>2021-09-15T14:28:30Z</time>
      </trkpt>
      <trkpt lat="42.55446" lon="1.86674">
        <ele>1752</ele>
        <time>2021-09-15T14:28:37Z</time>
      </trkpt>
      <trkpt lat="42.55446" lon="1.86672">
        <ele>1752</ele>
        <time>2021-09-15T14:28:39Z</time>
      </trkpt>
      <trkpt lat="42.55445" lon="1.8667">
        <ele>1752</ele>
        <time>2021-09-15T14:28:41Z</time>
      </trkpt>
      <trkpt lat="42.55443" lon="1.86666">
        <ele>1751</ele>
        <time>2021-09-15T14:28:45Z</time>
      </trkpt>
      <trkpt lat="42.55442" lon="1.86664">
        <ele>1751</ele>
        <time>2021-09-15T14:28:47Z</time>
      </trkpt>
      <trkpt lat="42.55443" lon="1.8666">
        <ele>1751</ele>
        <time>2021-09-15T14:28:49Z</time>
      </trkpt>
      <trkpt lat="42.55442" lon="1.86658">
        <ele>1751</ele>
        <time>2021-09-15T14:28:51Z</time>
      </trkpt>
      <trkpt lat="42.55442" lon="1.86656">
        <ele>1750</ele>
        <time>2021-09-15T14:28:54Z</time>
      </trkpt>
      <trkpt lat="42.55441" lon="1.86654">
        <ele>1750</ele>
        <time>2021-09-15T14:28:56Z</time>
      </trkpt>
      <trkpt lat="42.55436" lon="1.86629">
        <ele>1748</ele>
        <time>2021-09-15T14:29:17Z</time>
      </trkpt>
      <trkpt lat="42.55436" lon="1.86626">
        <ele>1747</ele>
        <time>2021-09-15T14:29:19Z</time>
      </trkpt>
      <trkpt lat="42.55436" lon="1.86619">
        <ele>1747</ele>
        <time>2021-09-15T14:29:23Z</time>
      </trkpt>
      <trkpt lat="42.55435" lon="1.86616">
        <ele>1746</ele>
        <time>2021-09-15T14:29:25Z</time>
      </trkpt>
      <trkpt lat="42.55435" lon="1.86613">
        <ele>1746</ele>
        <time>2021-09-15T14:29:27Z</time>
      </trkpt>
      <trkpt lat="42.55434" lon="1.86611">
        <ele>1746</ele>
        <time>2021-09-15T14:29:29Z</time>
      </trkpt>
      <trkpt lat="42.55433" lon="1.86609">
        <ele>1746</ele>
        <time>2021-09-15T14:29:31Z</time>
      </trkpt>
      <trkpt lat="42.55432" lon="1.86603">
        <ele>1746</ele>
        <time>2021-09-15T14:29:36Z</time>
      </trkpt>
      <trkpt lat="42.55433" lon="1.86598">
        <ele>1745</ele>
        <time>2021-09-15T14:29:40Z</time>
      </trkpt>
      <trkpt lat="42.55434" lon="1.86596">
        <ele>1745</ele>
        <time>2021-09-15T14:29:42Z</time>
      </trkpt>
      <trkpt lat="42.55433" lon="1.86592">
        <ele>1744</ele>
        <time>2021-09-15T14:29:46Z</time>
      </trkpt>
      <trkpt lat="42.55432" lon="1.8659">
        <ele>1744</ele>
        <time>2021-09-15T14:29:48Z</time>
      </trkpt>
      <trkpt lat="42.55431" lon="1.86588">
        <ele>1744</ele>
        <time>2021-09-15T14:29:50Z</time>
      </trkpt>
      <trkpt lat="42.55432" lon="1.86581">
        <ele>1743</ele>
        <time>2021-09-15T14:29:57Z</time>
      </trkpt>
      <trkpt lat="42.55434" lon="1.86573">
        <ele>1742</ele>
        <time>2021-09-15T14:30:04Z</time>
      </trkpt>
      <trkpt lat="42.55435" lon="1.86571">
        <ele>1741</ele>
        <time>2021-09-15T14:30:07Z</time>
      </trkpt>
      <trkpt lat="42.55434" lon="1.86569">
        <ele>1741</ele>
        <time>2021-09-15T14:30:09Z</time>
      </trkpt>
      <trkpt lat="42.5543" lon="1.86563">
        <ele>1740</ele>
        <time>2021-09-15T14:30:16Z</time>
      </trkpt>
      <trkpt lat="42.55421" lon="1.8656">
        <ele>1740</ele>
        <time>2021-09-15T14:30:26Z</time>
      </trkpt>
      <trkpt lat="42.55419" lon="1.86559">
        <ele>1740</ele>
        <time>2021-09-15T14:30:29Z</time>
      </trkpt>
      <trkpt lat="42.55417" lon="1.86554">
        <ele>1740</ele>
        <time>2021-09-15T14:30:33Z</time>
      </trkpt>
      <trkpt lat="42.55415" lon="1.86538">
        <ele>1740</ele>
        <time>2021-09-15T14:30:48Z</time>
      </trkpt>
      <trkpt lat="42.55415" lon="1.86528">
        <ele>1740</ele>
        <time>2021-09-15T14:30:57Z</time>
      </trkpt>
      <trkpt lat="42.55416" lon="1.86523">
        <ele>1740</ele>
        <time>2021-09-15T14:31:01Z</time>
      </trkpt>
      <trkpt lat="42.55416" lon="1.8652">
        <ele>1740</ele>
        <time>2021-09-15T14:31:03Z</time>
      </trkpt>
      <trkpt lat="42.55416" lon="1.86515">
        <ele>1740</ele>
        <time>2021-09-15T14:31:06Z</time>
      </trkpt>
      <trkpt lat="42.55416" lon="1.86513">
        <ele>1740</ele>
        <time>2021-09-15T14:31:07Z</time>
      </trkpt>
      <trkpt lat="42.55416" lon="1.8651">
        <ele>1739</ele>
        <time>2021-09-15T14:31:09Z</time>
      </trkpt>
      <trkpt lat="42.55417" lon="1.86507">
        <ele>1739</ele>
        <time>2021-09-15T14:31:13Z</time>
      </trkpt>
      <trkpt lat="42.55418" lon="1.86504">
        <ele>1739</ele>
        <time>2021-09-15T14:31:15Z</time>
      </trkpt>
      <trkpt lat="42.55418" lon="1.86501">
        <ele>1738</ele>
        <time>2021-09-15T14:31:17Z</time>
      </trkpt>
      <trkpt lat="42.55418" lon="1.86499">
        <ele>1738</ele>
        <time>2021-09-15T14:31:19Z</time>
      </trkpt>
      <trkpt lat="42.55418" lon="1.86497">
        <ele>1738</ele>
        <time>2021-09-15T14:31:22Z</time>
      </trkpt>
      <trkpt lat="42.55418" lon="1.86495">
        <ele>1737</ele>
        <time>2021-09-15T14:31:24Z</time>
      </trkpt>
      <trkpt lat="42.55417" lon="1.86492">
        <ele>1736</ele>
        <time>2021-09-15T14:31:27Z</time>
      </trkpt>
      <trkpt lat="42.55415" lon="1.86491">
        <ele>1736</ele>
        <time>2021-09-15T14:31:29Z</time>
      </trkpt>
      <trkpt lat="42.55413" lon="1.8649">
        <ele>1736</ele>
        <time>2021-09-15T14:31:31Z</time>
      </trkpt>
      <trkpt lat="42.5541" lon="1.86489">
        <ele>1736</ele>
        <time>2021-09-15T14:31:35Z</time>
      </trkpt>
      <trkpt lat="42.55408" lon="1.86489">
        <ele>1736</ele>
        <time>2021-09-15T14:31:37Z</time>
      </trkpt>
      <trkpt lat="42.55399" lon="1.86485">
        <ele>1736</ele>
        <time>2021-09-15T14:31:47Z</time>
      </trkpt>
      <trkpt lat="42.55395" lon="1.86482">
        <ele>1736</ele>
        <time>2021-09-15T14:31:51Z</time>
      </trkpt>
      <trkpt lat="42.55394" lon="1.86481">
        <ele>1736</ele>
        <time>2021-09-15T14:31:53Z</time>
      </trkpt>
      <trkpt lat="42.55392" lon="1.86482">
        <ele>1736</ele>
        <time>2021-09-15T14:31:55Z</time>
      </trkpt>
      <trkpt lat="42.55383" lon="1.8648">
        <ele>1736</ele>
        <time>2021-09-15T14:32:03Z</time>
      </trkpt>
      <trkpt lat="42.5538" lon="1.86475">
        <ele>1735</ele>
        <time>2021-09-15T14:32:09Z</time>
      </trkpt>
      <trkpt lat="42.55379" lon="1.86473">
        <ele>1735</ele>
        <time>2021-09-15T14:32:10Z</time>
      </trkpt>
      <trkpt lat="42.55377" lon="1.86471">
        <ele>1735</ele>
        <time>2021-09-15T14:32:12Z</time>
      </trkpt>
      <trkpt lat="42.55377" lon="1.86468">
        <ele>1734</ele>
        <time>2021-09-15T14:32:14Z</time>
      </trkpt>
      <trkpt lat="42.55376" lon="1.86465">
        <ele>1734</ele>
        <time>2021-09-15T14:32:16Z</time>
      </trkpt>
      <trkpt lat="42.55376" lon="1.86462">
        <ele>1734</ele>
        <time>2021-09-15T14:32:19Z</time>
      </trkpt>
      <trkpt lat="42.55371" lon="1.86453">
        <ele>1734</ele>
        <time>2021-09-15T14:32:27Z</time>
      </trkpt>
      <trkpt lat="42.5537" lon="1.86451">
        <ele>1734</ele>
        <time>2021-09-15T14:32:29Z</time>
      </trkpt>
      <trkpt lat="42.55357" lon="1.86421">
        <ele>1732</ele>
        <time>2021-09-15T14:32:55Z</time>
      </trkpt>
      <trkpt lat="42.55356" lon="1.86419">
        <ele>1732</ele>
        <time>2021-09-15T14:32:57Z</time>
      </trkpt>
      <trkpt lat="42.55353" lon="1.86416">
        <ele>1731</ele>
        <time>2021-09-15T14:33:01Z</time>
      </trkpt>
      <trkpt lat="42.55353" lon="1.86413">
        <ele>1730</ele>
        <time>2021-09-15T14:33:03Z</time>
      </trkpt>
      <trkpt lat="42.5535" lon="1.8641">
        <ele>1729</ele>
        <time>2021-09-15T14:33:07Z</time>
      </trkpt>
      <trkpt lat="42.55348" lon="1.86405">
        <ele>1728</ele>
        <time>2021-09-15T14:33:11Z</time>
      </trkpt>
      <trkpt lat="42.55346" lon="1.864">
        <ele>1728</ele>
        <time>2021-09-15T14:33:15Z</time>
      </trkpt>
      <trkpt lat="42.55344" lon="1.86397">
        <ele>1728</ele>
        <time>2021-09-15T14:33:17Z</time>
      </trkpt>
      <trkpt lat="42.55341" lon="1.86396">
        <ele>1727</ele>
        <time>2021-09-15T14:33:19Z</time>
      </trkpt>
      <trkpt lat="42.5534" lon="1.86394">
        <ele>1727</ele>
        <time>2021-09-15T14:33:21Z</time>
      </trkpt>
      <trkpt lat="42.55339" lon="1.86391">
        <ele>1727</ele>
        <time>2021-09-15T14:33:23Z</time>
      </trkpt>
      <trkpt lat="42.55338" lon="1.86388">
        <ele>1727</ele>
        <time>2021-09-15T14:33:25Z</time>
      </trkpt>
      <trkpt lat="42.55337" lon="1.86385">
        <ele>1727</ele>
        <time>2021-09-15T14:33:27Z</time>
      </trkpt>
      <trkpt lat="42.55335" lon="1.86384">
        <ele>1727</ele>
        <time>2021-09-15T14:33:29Z</time>
      </trkpt>
      <trkpt lat="42.55334" lon="1.86382">
        <ele>1727</ele>
        <time>2021-09-15T14:33:31Z</time>
      </trkpt>
      <trkpt lat="42.55332" lon="1.8638">
        <ele>1727</ele>
        <time>2021-09-15T14:33:33Z</time>
      </trkpt>
      <trkpt lat="42.55331" lon="1.86374">
        <ele>1726</ele>
        <time>2021-09-15T14:33:37Z</time>
      </trkpt>
      <trkpt lat="42.5533" lon="1.86373">
        <ele>1726</ele>
        <time>2021-09-15T14:33:39Z</time>
      </trkpt>
      <trkpt lat="42.55327" lon="1.8637">
        <ele>1726</ele>
        <time>2021-09-15T14:33:43Z</time>
      </trkpt>
      <trkpt lat="42.55326" lon="1.8637">
        <ele>1726</ele>
        <time>2021-09-15T14:33:46Z</time>
      </trkpt>
      <trkpt lat="42.55322" lon="1.86363">
        <ele>1725</ele>
        <time>2021-09-15T14:33:52Z</time>
      </trkpt>
      <trkpt lat="42.55321" lon="1.8636">
        <ele>1725</ele>
        <time>2021-09-15T14:33:54Z</time>
      </trkpt>
      <trkpt lat="42.5532" lon="1.86358">
        <ele>1724</ele>
        <time>2021-09-15T14:33:56Z</time>
      </trkpt>
      <trkpt lat="42.55312" lon="1.86346">
        <ele>1722</ele>
        <time>2021-09-15T14:34:09Z</time>
      </trkpt>
      <trkpt lat="42.55311" lon="1.86344">
        <ele>1721</ele>
        <time>2021-09-15T14:34:11Z</time>
      </trkpt>
      <trkpt lat="42.55305" lon="1.86333">
        <ele>1719</ele>
        <time>2021-09-15T14:34:23Z</time>
      </trkpt>
      <trkpt lat="42.55304" lon="1.86332">
        <ele>1718</ele>
        <time>2021-09-15T14:34:25Z</time>
      </trkpt>
      <trkpt lat="42.55301" lon="1.86328">
        <ele>1717</ele>
        <time>2021-09-15T14:34:30Z</time>
      </trkpt>
      <trkpt lat="42.55299" lon="1.86327">
        <ele>1717</ele>
        <time>2021-09-15T14:34:32Z</time>
      </trkpt>
      <trkpt lat="42.55298" lon="1.86326">
        <ele>1717</ele>
        <time>2021-09-15T14:34:34Z</time>
      </trkpt>
      <trkpt lat="42.55296" lon="1.86326">
        <ele>1716</ele>
        <time>2021-09-15T14:34:36Z</time>
      </trkpt>
      <trkpt lat="42.55292" lon="1.86325">
        <ele>1715</ele>
        <time>2021-09-15T14:34:41Z</time>
      </trkpt>
      <trkpt lat="42.5529" lon="1.86324">
        <ele>1714</ele>
        <time>2021-09-15T14:34:43Z</time>
      </trkpt>
      <trkpt lat="42.55288" lon="1.86323">
        <ele>1713</ele>
        <time>2021-09-15T14:34:46Z</time>
      </trkpt>
      <trkpt lat="42.55286" lon="1.86324">
        <ele>1713</ele>
        <time>2021-09-15T14:34:48Z</time>
      </trkpt>
      <trkpt lat="42.55284" lon="1.86324">
        <ele>1713</ele>
        <time>2021-09-15T14:34:50Z</time>
      </trkpt>
      <trkpt lat="42.55283" lon="1.86323">
        <ele>1712</ele>
        <time>2021-09-15T14:34:52Z</time>
      </trkpt>
      <trkpt lat="42.55276" lon="1.8632">
        <ele>1710</ele>
        <time>2021-09-15T14:35:01Z</time>
      </trkpt>
      <trkpt lat="42.55275" lon="1.86318">
        <ele>1710</ele>
        <time>2021-09-15T14:35:03Z</time>
      </trkpt>
      <trkpt lat="42.55271" lon="1.86313">
        <ele>1709</ele>
        <time>2021-09-15T14:35:10Z</time>
      </trkpt>
      <trkpt lat="42.55269" lon="1.86312">
        <ele>1708</ele>
        <time>2021-09-15T14:35:12Z</time>
      </trkpt>
      <trkpt lat="42.55267" lon="1.86308">
        <ele>1708</ele>
        <time>2021-09-15T14:35:17Z</time>
      </trkpt>
      <trkpt lat="42.55265" lon="1.86308">
        <ele>1708</ele>
        <time>2021-09-15T14:35:20Z</time>
      </trkpt>
      <trkpt lat="42.55264" lon="1.86308">
        <ele>1707</ele>
        <time>2021-09-15T14:35:24Z</time>
      </trkpt>
    </trkseg>
  </trk>
</gpx>